<?xml version='1.0' encoding='UTF-8'?><gpx version="1.1" creator="JPX - https://github.com/jenetics/jpx" xmlns="http://www.topografix.com/GPX/1/1"><trk><trkseg><trkpt lat="46.0248092" lon="13.2550138"><ele>89.0</ele><time>2026-03-22T07:32:55.147Z</time></trkpt><trkpt lat="46.0246966" lon="13.2544326"><ele>89.0</ele><time>2026-03-22T07:33:36.449Z</time></trkpt><trkpt lat="46.0246152" lon="13.2543746"><ele>89.0</ele><time>2026-03-22T07:33:37.451Z</time></trkpt><trkpt lat="46.024544" lon="13.2544391"><ele>89.0</ele><time>2026-03-22T07:33:38.451Z</time></trkpt><trkpt lat="46.0244719" lon="13.2545496"><ele>89.0</ele><time>2026-03-22T07:33:39.451Z</time></trkpt><trkpt lat="46.0243905" lon="13.254701"><ele>89.0</ele><time>2026-03-22T07:33:40.452Z</time></trkpt><trkpt lat="46.0243104" lon="13.254858"><ele>89.0</ele><time>2026-03-22T07:33:41.45Z</time></trkpt><trkpt lat="46.0242262" lon="13.255018"><ele>89.0</ele><time>2026-03-22T07:33:42.451Z</time></trkpt><trkpt lat="46.0241414" lon="13.2551879"><ele>89.0</ele><time>2026-03-22T07:33:43.451Z</time></trkpt><trkpt lat="46.0240571" lon="13.2553674"><ele>89.0</ele><time>2026-03-22T07:33:44.45Z</time></trkpt><trkpt lat="46.0239703" lon="13.2555569"><ele>88.33333333333334</ele><time>2026-03-22T07:33:45.449Z</time></trkpt><trkpt lat="46.0238806" lon="13.2557587"><ele>87.66666666666667</ele><time>2026-03-22T07:33:46.45Z</time></trkpt><trkpt lat="46.0237919" lon="13.2559655"><ele>87.0</ele><time>2026-03-22T07:33:47.45Z</time></trkpt><trkpt lat="46.0237074" lon="13.2561821"><ele>87.0</ele><time>2026-03-22T07:33:48.452Z</time></trkpt><trkpt lat="46.0236244" lon="13.2563933"><ele>87.0</ele><time>2026-03-22T07:33:49.452Z</time></trkpt><trkpt lat="46.0235414" lon="13.2565931"><ele>87.0</ele><time>2026-03-22T07:33:50.452Z</time></trkpt><trkpt lat="46.0234545" lon="13.2567743"><ele>87.0</ele><time>2026-03-22T07:33:51.451Z</time></trkpt><trkpt lat="46.0233521" lon="13.2569425"><ele>87.0</ele><time>2026-03-22T07:33:52.451Z</time></trkpt><trkpt lat="46.0232339" lon="13.2570955"><ele>87.0</ele><time>2026-03-22T07:33:53.452Z</time></trkpt><trkpt lat="46.0230998" lon="13.2572294"><ele>86.66666666666667</ele><time>2026-03-22T07:33:54.45Z</time></trkpt><trkpt lat="46.022953" lon="13.257356"><ele>86.33333333333334</ele><time>2026-03-22T07:33:55.451Z</time></trkpt><trkpt lat="46.0228001" lon="13.2574825"><ele>86.0</ele><time>2026-03-22T07:33:56.451Z</time></trkpt><trkpt lat="46.0226479" lon="13.2576056"><ele>86.0</ele><time>2026-03-22T07:33:57.453Z</time></trkpt><trkpt lat="46.0224985" lon="13.2577264"><ele>86.0</ele><time>2026-03-22T07:33:58.451Z</time></trkpt><trkpt lat="46.0223601" lon="13.2578393"><ele>86.0</ele><time>2026-03-22T07:33:59.451Z</time></trkpt><trkpt lat="46.0222306" lon="13.2579492"><ele>86.0</ele><time>2026-03-22T07:34:00.453Z</time></trkpt><trkpt lat="46.0221102" lon="13.2580559"><ele>86.0</ele><time>2026-03-22T07:34:01.45Z</time></trkpt><trkpt lat="46.0220009" lon="13.2581674"><ele>86.0</ele><time>2026-03-22T07:34:02.451Z</time></trkpt><trkpt lat="46.0219094" lon="13.2582948"><ele>86.0</ele><time>2026-03-22T07:34:03.458Z</time></trkpt><trkpt lat="46.021839" lon="13.2584497"><ele>85.66666666666667</ele><time>2026-03-22T07:34:04.45Z</time></trkpt><trkpt lat="46.0217837" lon="13.2586349"><ele>85.33333333333333</ele><time>2026-03-22T07:34:05.451Z</time></trkpt><trkpt lat="46.0217352" lon="13.2588432"><ele>85.0</ele><time>2026-03-22T07:34:06.451Z</time></trkpt><trkpt lat="46.0216858" lon="13.2590615"><ele>84.33333333333333</ele><time>2026-03-22T07:34:07.451Z</time></trkpt><trkpt lat="46.0216363" lon="13.2592749"><ele>83.66666666666667</ele><time>2026-03-22T07:34:08.451Z</time></trkpt><trkpt lat="46.0215826" lon="13.2594777"><ele>83.0</ele><time>2026-03-22T07:34:09.451Z</time></trkpt><trkpt lat="46.021519" lon="13.2596624"><ele>83.25</ele><time>2026-03-22T07:34:10.451Z</time></trkpt><trkpt lat="46.0214413" lon="13.2598154"><ele>83.5</ele><time>2026-03-22T07:34:11.45Z</time></trkpt><trkpt lat="46.0213406" lon="13.2599354"><ele>83.75</ele><time>2026-03-22T07:34:12.451Z</time></trkpt><trkpt lat="46.0212147" lon="13.260029"><ele>84.0</ele><time>2026-03-22T07:34:13.45Z</time></trkpt><trkpt lat="46.0210767" lon="13.2600963"><ele>84.0</ele><time>2026-03-22T07:34:14.451Z</time></trkpt><trkpt lat="46.0209419" lon="13.2601541"><ele>84.0</ele><time>2026-03-22T07:34:15.45Z</time></trkpt><trkpt lat="46.02082" lon="13.2602108"><ele>84.0</ele><time>2026-03-22T07:34:16.45Z</time></trkpt><trkpt lat="46.0207233" lon="13.2602667"><ele>84.0</ele><time>2026-03-22T07:34:17.45Z</time></trkpt><trkpt lat="46.020645" lon="13.2603467"><ele>83.80000000000001</ele><time>2026-03-22T07:34:18.45Z</time></trkpt><trkpt lat="46.0205917" lon="13.2604483"><ele>83.60000000000001</ele><time>2026-03-22T07:34:19.452Z</time></trkpt><trkpt lat="46.0205567" lon="13.2605617"><ele>83.4</ele><time>2026-03-22T07:34:20.451Z</time></trkpt><trkpt lat="46.0205583" lon="13.2606883"><ele>83.2</ele><time>2026-03-22T07:34:21.45Z</time></trkpt><trkpt lat="46.0205867" lon="13.2608033"><ele>83.0</ele><time>2026-03-22T07:34:22.451Z</time></trkpt><trkpt lat="46.0206383" lon="13.2609433"><ele>82.80000000000001</ele><time>2026-03-22T07:34:23.451Z</time></trkpt><trkpt lat="46.020695" lon="13.2610833"><ele>82.6</ele><time>2026-03-22T07:34:24.451Z</time></trkpt><trkpt lat="46.020745" lon="13.2612283"><ele>82.4</ele><time>2026-03-22T07:34:25.451Z</time></trkpt><trkpt lat="46.020795" lon="13.2613667"><ele>82.19999999999999</ele><time>2026-03-22T07:34:26.451Z</time></trkpt><trkpt lat="46.0208433" lon="13.261495"><ele>82.0</ele><time>2026-03-22T07:34:27.45Z</time></trkpt><trkpt lat="46.0208917" lon="13.2616283"><ele>82.5</ele><time>2026-03-22T07:34:28.451Z</time></trkpt><trkpt lat="46.0209483" lon="13.2617717"><ele>83.0</ele><time>2026-03-22T07:34:29.451Z</time></trkpt><trkpt lat="46.0210133" lon="13.2619267"><ele>83.5</ele><time>2026-03-22T07:34:30.451Z</time></trkpt><trkpt lat="46.0210817" lon="13.2620817"><ele>84.0</ele><time>2026-03-22T07:34:31.45Z</time></trkpt><trkpt lat="46.0211383" lon="13.262225"><ele>84.0</ele><time>2026-03-22T07:34:32.451Z</time></trkpt><trkpt lat="46.0211817" lon="13.2623617"><ele>84.0</ele><time>2026-03-22T07:34:33.452Z</time></trkpt><trkpt lat="46.021215" lon="13.2624967"><ele>84.0</ele><time>2026-03-22T07:34:34.452Z</time></trkpt><trkpt lat="46.0212467" lon="13.2626367"><ele>84.0</ele><time>2026-03-22T07:34:35.451Z</time></trkpt><trkpt lat="46.0212733" lon="13.26278"><ele>84.0</ele><time>2026-03-22T07:34:36.45Z</time></trkpt><trkpt lat="46.0212933" lon="13.2629367"><ele>84.0</ele><time>2026-03-22T07:34:37.45Z</time></trkpt><trkpt lat="46.0213083" lon="13.2631067"><ele>84.0</ele><time>2026-03-22T07:34:38.451Z</time></trkpt><trkpt lat="46.0213233" lon="13.26329"><ele>84.0</ele><time>2026-03-22T07:34:39.451Z</time></trkpt><trkpt lat="46.0213467" lon="13.263475"><ele>84.0</ele><time>2026-03-22T07:34:40.451Z</time></trkpt><trkpt lat="46.0213767" lon="13.2636567"><ele>84.0</ele><time>2026-03-22T07:34:41.452Z</time></trkpt><trkpt lat="46.0214083" lon="13.2638317"><ele>84.0</ele><time>2026-03-22T07:34:42.45Z</time></trkpt><trkpt lat="46.0214367" lon="13.2639867"><ele>84.0</ele><time>2026-03-22T07:34:43.45Z</time></trkpt><trkpt lat="46.0214583" lon="13.2641267"><ele>84.0</ele><time>2026-03-22T07:34:44.45Z</time></trkpt><trkpt lat="46.02148" lon="13.2642483"><ele>84.0</ele><time>2026-03-22T07:34:45.451Z</time></trkpt><trkpt lat="46.0215" lon="13.2643533"><ele>83.80000000000001</ele><time>2026-03-22T07:34:46.45Z</time></trkpt><trkpt lat="46.021515" lon="13.2644533"><ele>83.60000000000001</ele><time>2026-03-22T07:34:47.45Z</time></trkpt><trkpt lat="46.0215267" lon="13.2645717"><ele>83.4</ele><time>2026-03-22T07:34:48.45Z</time></trkpt><trkpt lat="46.0215217" lon="13.2647233"><ele>83.2</ele><time>2026-03-22T07:34:49.452Z</time></trkpt><trkpt lat="46.021505" lon="13.2649"><ele>83.0</ele><time>2026-03-22T07:34:50.45Z</time></trkpt><trkpt lat="46.0214867" lon="13.2650983"><ele>83.0</ele><time>2026-03-22T07:34:51.451Z</time></trkpt><trkpt lat="46.0214683" lon="13.265295"><ele>83.0</ele><time>2026-03-22T07:34:52.451Z</time></trkpt><trkpt lat="46.02145" lon="13.2654867"><ele>83.0</ele><time>2026-03-22T07:34:53.449Z</time></trkpt><trkpt lat="46.02143" lon="13.2656717"><ele>83.0</ele><time>2026-03-22T07:34:54.451Z</time></trkpt><trkpt lat="46.02141" lon="13.2658517"><ele>83.0</ele><time>2026-03-22T07:34:55.451Z</time></trkpt><trkpt lat="46.021385" lon="13.2660267"><ele>83.0</ele><time>2026-03-22T07:34:56.45Z</time></trkpt><trkpt lat="46.0213433" lon="13.2661967"><ele>83.0</ele><time>2026-03-22T07:34:57.451Z</time></trkpt><trkpt lat="46.0212867" lon="13.2663517"><ele>83.0</ele><time>2026-03-22T07:34:58.451Z</time></trkpt><trkpt lat="46.0212167" lon="13.2664833"><ele>82.75</ele><time>2026-03-22T07:34:59.451Z</time></trkpt><trkpt lat="46.02113" lon="13.2665833"><ele>82.5</ele><time>2026-03-22T07:35:00.452Z</time></trkpt><trkpt lat="46.0210267" lon="13.2666433"><ele>82.25</ele><time>2026-03-22T07:35:01.451Z</time></trkpt><trkpt lat="46.0209017" lon="13.2666683"><ele>82.0</ele><time>2026-03-22T07:35:02.451Z</time></trkpt><trkpt lat="46.020755" lon="13.2666783"><ele>82.0</ele><time>2026-03-22T07:35:03.452Z</time></trkpt><trkpt lat="46.0206" lon="13.2666933"><ele>82.0</ele><time>2026-03-22T07:35:04.45Z</time></trkpt><trkpt lat="46.0204567" lon="13.266715"><ele>82.0</ele><time>2026-03-22T07:35:05.452Z</time></trkpt><trkpt lat="46.0203217" lon="13.266725"><ele>82.0</ele><time>2026-03-22T07:35:06.451Z</time></trkpt><trkpt lat="46.0201967" lon="13.266695"><ele>82.0</ele><time>2026-03-22T07:35:07.452Z</time></trkpt><trkpt lat="46.0200767" lon="13.2666317"><ele>82.0</ele><time>2026-03-22T07:35:08.451Z</time></trkpt><trkpt lat="46.019965" lon="13.266525"><ele>82.0</ele><time>2026-03-22T07:35:09.452Z</time></trkpt><trkpt lat="46.0198633" lon="13.26637"><ele>82.0</ele><time>2026-03-22T07:35:10.452Z</time></trkpt><trkpt lat="46.01977" lon="13.26618"><ele>81.33333333333333</ele><time>2026-03-22T07:35:11.451Z</time></trkpt><trkpt lat="46.0196783" lon="13.26595"><ele>80.66666666666667</ele><time>2026-03-22T07:35:12.45Z</time></trkpt><trkpt lat="46.01957" lon="13.265695"><ele>80.0</ele><time>2026-03-22T07:35:13.452Z</time></trkpt><trkpt lat="46.0194483" lon="13.2654117"><ele>80.0</ele><time>2026-03-22T07:35:14.449Z</time></trkpt><trkpt lat="46.0193233" lon="13.2651167"><ele>80.0</ele><time>2026-03-22T07:35:15.451Z</time></trkpt><trkpt lat="46.019195" lon="13.2648167"><ele>80.5</ele><time>2026-03-22T07:35:16.451Z</time></trkpt><trkpt lat="46.0190617" lon="13.2645033"><ele>81.0</ele><time>2026-03-22T07:35:17.45Z</time></trkpt><trkpt lat="46.0189267" lon="13.2641733"><ele>80.5</ele><time>2026-03-22T07:35:18.452Z</time></trkpt><trkpt lat="46.01879" lon="13.2638267"><ele>80.0</ele><time>2026-03-22T07:35:19.451Z</time></trkpt><trkpt lat="46.0186517" lon="13.263465"><ele>80.0</ele><time>2026-03-22T07:35:20.452Z</time></trkpt><trkpt lat="46.0185117" lon="13.263095"><ele>80.0</ele><time>2026-03-22T07:35:21.451Z</time></trkpt><trkpt lat="46.0183683" lon="13.2627133"><ele>80.0</ele><time>2026-03-22T07:35:22.452Z</time></trkpt><trkpt lat="46.01822" lon="13.26232"><ele>80.0</ele><time>2026-03-22T07:35:23.449Z</time></trkpt><trkpt lat="46.0180683" lon="13.2619233"><ele>79.0</ele><time>2026-03-22T07:35:24.451Z</time></trkpt><trkpt lat="46.0179183" lon="13.2615283"><ele>78.0</ele><time>2026-03-22T07:35:25.46Z</time></trkpt><trkpt lat="46.0177667" lon="13.2611267"><ele>78.0</ele><time>2026-03-22T07:35:26.45Z</time></trkpt><trkpt lat="46.017615" lon="13.26072"><ele>78.0</ele><time>2026-03-22T07:35:27.452Z</time></trkpt><trkpt lat="46.0174583" lon="13.260305"><ele>78.5</ele><time>2026-03-22T07:35:28.451Z</time></trkpt><trkpt lat="46.0173" lon="13.2598833"><ele>79.0</ele><time>2026-03-22T07:35:29.451Z</time></trkpt><trkpt lat="46.017145" lon="13.2594517"><ele>79.0</ele><time>2026-03-22T07:35:30.451Z</time></trkpt><trkpt lat="46.0169917" lon="13.2590133"><ele>79.0</ele><time>2026-03-22T07:35:31.451Z</time></trkpt><trkpt lat="46.0168417" lon="13.25857"><ele>79.0</ele><time>2026-03-22T07:35:32.452Z</time></trkpt><trkpt lat="46.0166967" lon="13.2581333"><ele>79.0</ele><time>2026-03-22T07:35:33.451Z</time></trkpt><trkpt lat="46.01656" lon="13.2576917"><ele>78.0</ele><time>2026-03-22T07:35:34.451Z</time></trkpt><trkpt lat="46.0164283" lon="13.2572467"><ele>77.0</ele><time>2026-03-22T07:35:35.451Z</time></trkpt><trkpt lat="46.0163017" lon="13.256795"><ele>75.5</ele><time>2026-03-22T07:35:36.452Z</time></trkpt><trkpt lat="46.016175" lon="13.25634"><ele>74.0</ele><time>2026-03-22T07:35:37.451Z</time></trkpt><trkpt lat="46.0160583" lon="13.255885"><ele>73.5</ele><time>2026-03-22T07:35:38.451Z</time></trkpt><trkpt lat="46.015945" lon="13.255425"><ele>73.0</ele><time>2026-03-22T07:35:39.451Z</time></trkpt><trkpt lat="46.015845" lon="13.2549633"><ele>74.0</ele><time>2026-03-22T07:35:40.45Z</time></trkpt><trkpt lat="46.0157617" lon="13.2544967"><ele>75.0</ele><time>2026-03-22T07:35:41.451Z</time></trkpt><trkpt lat="46.0156767" lon="13.2540333"><ele>75.5</ele><time>2026-03-22T07:35:42.451Z</time></trkpt><trkpt lat="46.0156067" lon="13.2535617"><ele>76.0</ele><time>2026-03-22T07:35:43.45Z</time></trkpt><trkpt lat="46.0155417" lon="13.2530867"><ele>76.0</ele><time>2026-03-22T07:35:44.451Z</time></trkpt><trkpt lat="46.0154917" lon="13.2526083"><ele>76.0</ele><time>2026-03-22T07:35:45.452Z</time></trkpt><trkpt lat="46.0154533" lon="13.252125"><ele>75.5</ele><time>2026-03-22T07:35:46.451Z</time></trkpt><trkpt lat="46.0154267" lon="13.2516333"><ele>75.0</ele><time>2026-03-22T07:35:47.452Z</time></trkpt><trkpt lat="46.0154117" lon="13.2511317"><ele>75.0</ele><time>2026-03-22T07:35:48.449Z</time></trkpt><trkpt lat="46.0154067" lon="13.2506317"><ele>75.0</ele><time>2026-03-22T07:35:49.45Z</time></trkpt><trkpt lat="46.0154117" lon="13.2501317"><ele>75.5</ele><time>2026-03-22T07:35:50.452Z</time></trkpt><trkpt lat="46.0154217" lon="13.2496317"><ele>76.0</ele><time>2026-03-22T07:35:51.45Z</time></trkpt><trkpt lat="46.0154717" lon="13.2491467"><ele>75.5</ele><time>2026-03-22T07:35:52.453Z</time></trkpt><trkpt lat="46.0155017" lon="13.2486367"><ele>75.0</ele><time>2026-03-22T07:35:53.45Z</time></trkpt><trkpt lat="46.0155483" lon="13.2481333"><ele>74.0</ele><time>2026-03-22T07:35:54.452Z</time></trkpt><trkpt lat="46.0155867" lon="13.247625"><ele>73.0</ele><time>2026-03-22T07:35:55.45Z</time></trkpt><trkpt lat="46.01564" lon="13.24712"><ele>75.0</ele><time>2026-03-22T07:35:56.451Z</time></trkpt><trkpt lat="46.015705" lon="13.2466233"><ele>77.0</ele><time>2026-03-22T07:35:57.452Z</time></trkpt><trkpt lat="46.0157817" lon="13.246135"><ele>76.0</ele><time>2026-03-22T07:35:58.451Z</time></trkpt><trkpt lat="46.0158533" lon="13.2456433"><ele>75.0</ele><time>2026-03-22T07:35:59.451Z</time></trkpt><trkpt lat="46.0159333" lon="13.2451567"><ele>76.5</ele><time>2026-03-22T07:36:00.451Z</time></trkpt><trkpt lat="46.0160117" lon="13.2446683"><ele>78.0</ele><time>2026-03-22T07:36:01.452Z</time></trkpt><trkpt lat="46.016095" lon="13.2441767"><ele>77.5</ele><time>2026-03-22T07:36:02.453Z</time></trkpt><trkpt lat="46.0161717" lon="13.243685"><ele>77.0</ele><time>2026-03-22T07:36:03.45Z</time></trkpt><trkpt lat="46.0162633" lon="13.2431967"><ele>77.5</ele><time>2026-03-22T07:36:04.451Z</time></trkpt><trkpt lat="46.0163633" lon="13.2427183"><ele>78.0</ele><time>2026-03-22T07:36:05.451Z</time></trkpt><trkpt lat="46.0164633" lon="13.24222"><ele>78.0</ele><time>2026-03-22T07:36:06.452Z</time></trkpt><trkpt lat="46.01656" lon="13.241725"><ele>78.0</ele><time>2026-03-22T07:36:07.45Z</time></trkpt><trkpt lat="46.0166583" lon="13.241225"><ele>78.0</ele><time>2026-03-22T07:36:08.45Z</time></trkpt><trkpt lat="46.016755" lon="13.2407333"><ele>78.0</ele><time>2026-03-22T07:36:09.45Z</time></trkpt><trkpt lat="46.0168467" lon="13.2402433"><ele>77.0</ele><time>2026-03-22T07:36:10.45Z</time></trkpt><trkpt lat="46.016945" lon="13.2397483"><ele>76.0</ele><time>2026-03-22T07:36:11.452Z</time></trkpt><trkpt lat="46.0170367" lon="13.2392533"><ele>76.5</ele><time>2026-03-22T07:36:12.451Z</time></trkpt><trkpt lat="46.0171217" lon="13.23876"><ele>77.0</ele><time>2026-03-22T07:36:13.453Z</time></trkpt><trkpt lat="46.0172133" lon="13.2382717"><ele>77.0</ele><time>2026-03-22T07:36:14.452Z</time></trkpt><trkpt lat="46.0173033" lon="13.237785"><ele>77.0</ele><time>2026-03-22T07:36:15.452Z</time></trkpt><trkpt lat="46.017395" lon="13.2373"><ele>77.0</ele><time>2026-03-22T07:36:16.451Z</time></trkpt><trkpt lat="46.0174783" lon="13.23682"><ele>77.0</ele><time>2026-03-22T07:36:17.451Z</time></trkpt><trkpt lat="46.0175633" lon="13.2363517"><ele>77.5</ele><time>2026-03-22T07:36:18.451Z</time></trkpt><trkpt lat="46.0176433" lon="13.2358917"><ele>78.0</ele><time>2026-03-22T07:36:19.451Z</time></trkpt><trkpt lat="46.0177083" lon="13.2354283"><ele>78.0</ele><time>2026-03-22T07:36:20.452Z</time></trkpt><trkpt lat="46.0177617" lon="13.2349583"><ele>78.0</ele><time>2026-03-22T07:36:21.452Z</time></trkpt><trkpt lat="46.017805" lon="13.2344883"><ele>78.0</ele><time>2026-03-22T07:36:22.45Z</time></trkpt><trkpt lat="46.0178233" lon="13.23402"><ele>78.0</ele><time>2026-03-22T07:36:23.451Z</time></trkpt><trkpt lat="46.017835" lon="13.2335567"><ele>78.5</ele><time>2026-03-22T07:36:24.451Z</time></trkpt><trkpt lat="46.0178333" lon="13.23312"><ele>79.0</ele><time>2026-03-22T07:36:25.451Z</time></trkpt><trkpt lat="46.0178183" lon="13.2327017"><ele>78.5</ele><time>2026-03-22T07:36:26.451Z</time></trkpt><trkpt lat="46.0177883" lon="13.23229"><ele>78.0</ele><time>2026-03-22T07:36:27.451Z</time></trkpt><trkpt lat="46.017755" lon="13.23188"><ele>78.0</ele><time>2026-03-22T07:36:28.451Z</time></trkpt><trkpt lat="46.0177067" lon="13.2314833"><ele>78.0</ele><time>2026-03-22T07:36:29.451Z</time></trkpt><trkpt lat="46.0176633" lon="13.2311017"><ele>78.0</ele><time>2026-03-22T07:36:30.453Z</time></trkpt><trkpt lat="46.0176167" lon="13.2307367"><ele>78.0</ele><time>2026-03-22T07:36:31.452Z</time></trkpt><trkpt lat="46.0175683" lon="13.2303817"><ele>78.0</ele><time>2026-03-22T07:36:32.451Z</time></trkpt><trkpt lat="46.017505" lon="13.23004"><ele>78.0</ele><time>2026-03-22T07:36:33.453Z</time></trkpt><trkpt lat="46.0174367" lon="13.2297067"><ele>78.0</ele><time>2026-03-22T07:36:34.453Z</time></trkpt><trkpt lat="46.0173567" lon="13.2293917"><ele>78.0</ele><time>2026-03-22T07:36:35.452Z</time></trkpt><trkpt lat="46.0172717" lon="13.2290883"><ele>78.33333333333333</ele><time>2026-03-22T07:36:36.452Z</time></trkpt><trkpt lat="46.01719" lon="13.2287917"><ele>78.66666666666666</ele><time>2026-03-22T07:36:37.453Z</time></trkpt><trkpt lat="46.0171167" lon="13.228505"><ele>79.0</ele><time>2026-03-22T07:36:38.453Z</time></trkpt><trkpt lat="46.0170633" lon="13.2282267"><ele>79.66666666666666</ele><time>2026-03-22T07:36:39.453Z</time></trkpt><trkpt lat="46.0170217" lon="13.227945"><ele>80.33333333333333</ele><time>2026-03-22T07:36:40.453Z</time></trkpt><trkpt lat="46.01699" lon="13.2276567"><ele>81.0</ele><time>2026-03-22T07:36:41.452Z</time></trkpt><trkpt lat="46.0169767" lon="13.22737"><ele>80.66666666666667</ele><time>2026-03-22T07:36:42.452Z</time></trkpt><trkpt lat="46.0169867" lon="13.22708"><ele>80.33333333333334</ele><time>2026-03-22T07:36:43.451Z</time></trkpt><trkpt lat="46.01701" lon="13.226795"><ele>80.0</ele><time>2026-03-22T07:36:44.449Z</time></trkpt><trkpt lat="46.017045" lon="13.2265217"><ele>80.0</ele><time>2026-03-22T07:36:45.452Z</time></trkpt><trkpt lat="46.01708" lon="13.2262617"><ele>80.0</ele><time>2026-03-22T07:36:46.451Z</time></trkpt><trkpt lat="46.01711" lon="13.2260067"><ele>80.0</ele><time>2026-03-22T07:36:47.449Z</time></trkpt><trkpt lat="46.0171267" lon="13.2257617"><ele>79.33333333333334</ele><time>2026-03-22T07:36:48.451Z</time></trkpt><trkpt lat="46.01712" lon="13.2255183"><ele>78.66666666666667</ele><time>2026-03-22T07:36:49.452Z</time></trkpt><trkpt lat="46.0171067" lon="13.2252783"><ele>78.0</ele><time>2026-03-22T07:36:50.45Z</time></trkpt><trkpt lat="46.0170817" lon="13.2250367"><ele>78.0</ele><time>2026-03-22T07:36:51.452Z</time></trkpt><trkpt lat="46.0170567" lon="13.2247967"><ele>78.0</ele><time>2026-03-22T07:36:52.451Z</time></trkpt><trkpt lat="46.0170167" lon="13.224565"><ele>78.0</ele><time>2026-03-22T07:36:53.45Z</time></trkpt><trkpt lat="46.0169733" lon="13.2243417"><ele>78.0</ele><time>2026-03-22T07:36:54.452Z</time></trkpt><trkpt lat="46.0169267" lon="13.22412"><ele>78.0</ele><time>2026-03-22T07:36:55.451Z</time></trkpt><trkpt lat="46.0168783" lon="13.223895"><ele>78.0</ele><time>2026-03-22T07:36:56.452Z</time></trkpt><trkpt lat="46.0168367" lon="13.2236683"><ele>78.0</ele><time>2026-03-22T07:36:57.452Z</time></trkpt><trkpt lat="46.0168017" lon="13.2234367"><ele>78.0</ele><time>2026-03-22T07:36:58.452Z</time></trkpt><trkpt lat="46.01678" lon="13.2232017"><ele>78.0</ele><time>2026-03-22T07:36:59.451Z</time></trkpt><trkpt lat="46.016775" lon="13.2229683"><ele>78.0</ele><time>2026-03-22T07:37:00.451Z</time></trkpt><trkpt lat="46.01678" lon="13.2227417"><ele>78.0</ele><time>2026-03-22T07:37:01.451Z</time></trkpt><trkpt lat="46.0167967" lon="13.2225183"><ele>78.0</ele><time>2026-03-22T07:37:02.453Z</time></trkpt><trkpt lat="46.0168283" lon="13.2222983"><ele>78.0</ele><time>2026-03-22T07:37:03.452Z</time></trkpt><trkpt lat="46.0168633" lon="13.2220783"><ele>78.0</ele><time>2026-03-22T07:37:04.453Z</time></trkpt><trkpt lat="46.0169067" lon="13.221855"><ele>78.0</ele><time>2026-03-22T07:37:05.452Z</time></trkpt><trkpt lat="46.0169517" lon="13.2216283"><ele>78.0</ele><time>2026-03-22T07:37:06.451Z</time></trkpt><trkpt lat="46.017" lon="13.22139"><ele>78.0</ele><time>2026-03-22T07:37:07.453Z</time></trkpt><trkpt lat="46.0170467" lon="13.2211367"><ele>78.0</ele><time>2026-03-22T07:37:08.453Z</time></trkpt><trkpt lat="46.0170933" lon="13.22087"><ele>78.0</ele><time>2026-03-22T07:37:09.452Z</time></trkpt><trkpt lat="46.01715" lon="13.22059"><ele>78.0</ele><time>2026-03-22T07:37:10.454Z</time></trkpt><trkpt lat="46.0172083" lon="13.22029"><ele>78.0</ele><time>2026-03-22T07:37:11.452Z</time></trkpt><trkpt lat="46.01728" lon="13.219975"><ele>79.0</ele><time>2026-03-22T07:37:12.451Z</time></trkpt><trkpt lat="46.01737" lon="13.21965"><ele>80.0</ele><time>2026-03-22T07:37:13.45Z</time></trkpt><trkpt lat="46.01748" lon="13.21931"><ele>81.0</ele><time>2026-03-22T07:37:14.451Z</time></trkpt><trkpt lat="46.0176083" lon="13.2189667"><ele>82.0</ele><time>2026-03-22T07:37:15.452Z</time></trkpt><trkpt lat="46.01775" lon="13.2186233"><ele>82.0</ele><time>2026-03-22T07:37:16.453Z</time></trkpt><trkpt lat="46.0179033" lon="13.218285"><ele>82.0</ele><time>2026-03-22T07:37:17.45Z</time></trkpt><trkpt lat="46.0180667" lon="13.2179533"><ele>82.0</ele><time>2026-03-22T07:37:18.452Z</time></trkpt><trkpt lat="46.0182383" lon="13.2176233"><ele>82.0</ele><time>2026-03-22T07:37:19.452Z</time></trkpt><trkpt lat="46.0184233" lon="13.21731"><ele>81.5</ele><time>2026-03-22T07:37:20.451Z</time></trkpt><trkpt lat="46.0186333" lon="13.21702"><ele>81.0</ele><time>2026-03-22T07:37:21.453Z</time></trkpt><trkpt lat="46.0188583" lon="13.21674"><ele>81.0</ele><time>2026-03-22T07:37:22.452Z</time></trkpt><trkpt lat="46.0191083" lon="13.216485"><ele>81.0</ele><time>2026-03-22T07:37:23.452Z</time></trkpt><trkpt lat="46.0193617" lon="13.2162333"><ele>80.0</ele><time>2026-03-22T07:37:24.454Z</time></trkpt><trkpt lat="46.0196267" lon="13.2159867"><ele>79.0</ele><time>2026-03-22T07:37:25.45Z</time></trkpt><trkpt lat="46.0198967" lon="13.21575"><ele>79.0</ele><time>2026-03-22T07:37:26.451Z</time></trkpt><trkpt lat="46.0201667" lon="13.2155267"><ele>79.0</ele><time>2026-03-22T07:37:27.452Z</time></trkpt><trkpt lat="46.0204417" lon="13.215305"><ele>79.0</ele><time>2026-03-22T07:37:28.451Z</time></trkpt><trkpt lat="46.0207233" lon="13.2150717"><ele>79.0</ele><time>2026-03-22T07:37:29.452Z</time></trkpt><trkpt lat="46.0210017" lon="13.2148317"><ele>79.5</ele><time>2026-03-22T07:37:30.452Z</time></trkpt><trkpt lat="46.021275" lon="13.2146017"><ele>80.0</ele><time>2026-03-22T07:37:31.453Z</time></trkpt><trkpt lat="46.02154" lon="13.214385"><ele>80.5</ele><time>2026-03-22T07:37:32.452Z</time></trkpt><trkpt lat="46.0218067" lon="13.2141683"><ele>81.0</ele><time>2026-03-22T07:37:33.451Z</time></trkpt><trkpt lat="46.0220733" lon="13.2139533"><ele>81.0</ele><time>2026-03-22T07:37:34.452Z</time></trkpt><trkpt lat="46.02234" lon="13.2137367"><ele>81.0</ele><time>2026-03-22T07:37:35.452Z</time></trkpt><trkpt lat="46.0226117" lon="13.21353"><ele>80.5</ele><time>2026-03-22T07:37:36.451Z</time></trkpt><trkpt lat="46.0228817" lon="13.2133333"><ele>80.0</ele><time>2026-03-22T07:37:37.452Z</time></trkpt><trkpt lat="46.023155" lon="13.2131567"><ele>79.5</ele><time>2026-03-22T07:37:38.452Z</time></trkpt><trkpt lat="46.02343" lon="13.21301"><ele>79.0</ele><time>2026-03-22T07:37:39.453Z</time></trkpt><trkpt lat="46.0237083" lon="13.212895"><ele>79.0</ele><time>2026-03-22T07:37:40.452Z</time></trkpt><trkpt lat="46.023995" lon="13.2128017"><ele>79.0</ele><time>2026-03-22T07:37:41.453Z</time></trkpt><trkpt lat="46.0242883" lon="13.2127333"><ele>79.0</ele><time>2026-03-22T07:37:42.452Z</time></trkpt><trkpt lat="46.0245883" lon="13.2126883"><ele>79.0</ele><time>2026-03-22T07:37:43.45Z</time></trkpt><trkpt lat="46.0248967" lon="13.21267"><ele>78.5</ele><time>2026-03-22T07:37:44.452Z</time></trkpt><trkpt lat="46.0252083" lon="13.2126667"><ele>78.0</ele><time>2026-03-22T07:37:45.451Z</time></trkpt><trkpt lat="46.02552" lon="13.212685"><ele>78.0</ele><time>2026-03-22T07:37:46.452Z</time></trkpt><trkpt lat="46.0258367" lon="13.2127167"><ele>78.0</ele><time>2026-03-22T07:37:47.452Z</time></trkpt><trkpt lat="46.0261533" lon="13.21275"><ele>78.0</ele><time>2026-03-22T07:37:48.451Z</time></trkpt><trkpt lat="46.02647" lon="13.2127967"><ele>78.0</ele><time>2026-03-22T07:37:49.451Z</time></trkpt><trkpt lat="46.0267917" lon="13.21285"><ele>77.5</ele><time>2026-03-22T07:37:50.452Z</time></trkpt><trkpt lat="46.02712" lon="13.2129067"><ele>77.0</ele><time>2026-03-22T07:37:51.451Z</time></trkpt><trkpt lat="46.02745" lon="13.2129533"><ele>78.5</ele><time>2026-03-22T07:37:52.451Z</time></trkpt><trkpt lat="46.027785" lon="13.213005"><ele>80.0</ele><time>2026-03-22T07:37:53.453Z</time></trkpt><trkpt lat="46.02812" lon="13.2130383"><ele>81.5</ele><time>2026-03-22T07:37:54.45Z</time></trkpt><trkpt lat="46.0284567" lon="13.2130717"><ele>83.0</ele><time>2026-03-22T07:37:55.449Z</time></trkpt><trkpt lat="46.0287867" lon="13.2131083"><ele>83.0</ele><time>2026-03-22T07:37:56.452Z</time></trkpt><trkpt lat="46.0291217" lon="13.2131083"><ele>83.0</ele><time>2026-03-22T07:37:57.451Z</time></trkpt><trkpt lat="46.0294567" lon="13.213115"><ele>83.5</ele><time>2026-03-22T07:37:58.452Z</time></trkpt><trkpt lat="46.029795" lon="13.2131067"><ele>84.0</ele><time>2026-03-22T07:37:59.452Z</time></trkpt><trkpt lat="46.0301333" lon="13.2131"><ele>84.0</ele><time>2026-03-22T07:38:00.452Z</time></trkpt><trkpt lat="46.0304683" lon="13.2130833"><ele>84.0</ele><time>2026-03-22T07:38:01.451Z</time></trkpt><trkpt lat="46.0308033" lon="13.21307"><ele>84.5</ele><time>2026-03-22T07:38:02.452Z</time></trkpt><trkpt lat="46.0311333" lon="13.2130617"><ele>85.0</ele><time>2026-03-22T07:38:03.452Z</time></trkpt><trkpt lat="46.0314667" lon="13.2130433"><ele>85.5</ele><time>2026-03-22T07:38:04.451Z</time></trkpt><trkpt lat="46.0318" lon="13.213025"><ele>86.0</ele><time>2026-03-22T07:38:05.452Z</time></trkpt><trkpt lat="46.0321317" lon="13.2130083"><ele>86.0</ele><time>2026-03-22T07:38:06.452Z</time></trkpt><trkpt lat="46.0324633" lon="13.2129817"><ele>86.0</ele><time>2026-03-22T07:38:07.455Z</time></trkpt><trkpt lat="46.0327983" lon="13.21296"><ele>86.0</ele><time>2026-03-22T07:38:08.452Z</time></trkpt><trkpt lat="46.0331317" lon="13.21294"><ele>86.0</ele><time>2026-03-22T07:38:09.452Z</time></trkpt><trkpt lat="46.0334683" lon="13.2129133"><ele>86.5</ele><time>2026-03-22T07:38:10.451Z</time></trkpt><trkpt lat="46.0337983" lon="13.2128867"><ele>87.0</ele><time>2026-03-22T07:38:11.451Z</time></trkpt><trkpt lat="46.034115" lon="13.2128683"><ele>86.5</ele><time>2026-03-22T07:38:12.453Z</time></trkpt><trkpt lat="46.0344217" lon="13.2128533"><ele>86.0</ele><time>2026-03-22T07:38:13.452Z</time></trkpt><trkpt lat="46.0347133" lon="13.212855"><ele>86.0</ele><time>2026-03-22T07:38:14.451Z</time></trkpt><trkpt lat="46.035" lon="13.212885"><ele>86.0</ele><time>2026-03-22T07:38:15.451Z</time></trkpt><trkpt lat="46.0352817" lon="13.212955"><ele>86.0</ele><time>2026-03-22T07:38:16.451Z</time></trkpt><trkpt lat="46.035555" lon="13.21307"><ele>86.0</ele><time>2026-03-22T07:38:17.45Z</time></trkpt><trkpt lat="46.0358217" lon="13.2131833"><ele>87.5</ele><time>2026-03-22T07:38:18.451Z</time></trkpt><trkpt lat="46.036085" lon="13.2132967"><ele>89.0</ele><time>2026-03-22T07:38:19.458Z</time></trkpt><trkpt lat="46.036345" lon="13.2134033"><ele>89.0</ele><time>2026-03-22T07:38:20.452Z</time></trkpt><trkpt lat="46.0366" lon="13.2135017"><ele>89.0</ele><time>2026-03-22T07:38:21.452Z</time></trkpt><trkpt lat="46.0368617" lon="13.2135733"><ele>88.0</ele><time>2026-03-22T07:38:22.452Z</time></trkpt><trkpt lat="46.037125" lon="13.21363"><ele>87.0</ele><time>2026-03-22T07:38:23.451Z</time></trkpt><trkpt lat="46.037395" lon="13.2136667"><ele>87.5</ele><time>2026-03-22T07:38:24.451Z</time></trkpt><trkpt lat="46.0376667" lon="13.2136717"><ele>88.0</ele><time>2026-03-22T07:38:25.451Z</time></trkpt><trkpt lat="46.0379433" lon="13.2136467"><ele>88.0</ele><time>2026-03-22T07:38:26.452Z</time></trkpt><trkpt lat="46.03822" lon="13.2135817"><ele>88.0</ele><time>2026-03-22T07:38:27.451Z</time></trkpt><trkpt lat="46.0384967" lon="13.2134767"><ele>89.0</ele><time>2026-03-22T07:38:28.45Z</time></trkpt><trkpt lat="46.0387733" lon="13.2133417"><ele>90.0</ele><time>2026-03-22T07:38:29.451Z</time></trkpt><trkpt lat="46.0390517" lon="13.2131917"><ele>91.0</ele><time>2026-03-22T07:38:30.452Z</time></trkpt><trkpt lat="46.03933" lon="13.21303"><ele>92.0</ele><time>2026-03-22T07:38:31.453Z</time></trkpt><trkpt lat="46.0396183" lon="13.2128717"><ele>92.0</ele><time>2026-03-22T07:38:32.45Z</time></trkpt><trkpt lat="46.0399033" lon="13.212705"><ele>92.0</ele><time>2026-03-22T07:38:33.452Z</time></trkpt><trkpt lat="46.0401967" lon="13.212565"><ele>90.0</ele><time>2026-03-22T07:38:34.453Z</time></trkpt><trkpt lat="46.0404883" lon="13.2124367"><ele>88.0</ele><time>2026-03-22T07:38:35.452Z</time></trkpt><trkpt lat="46.0407833" lon="13.21233"><ele>88.5</ele><time>2026-03-22T07:38:36.451Z</time></trkpt><trkpt lat="46.0410833" lon="13.21224"><ele>89.0</ele><time>2026-03-22T07:38:37.453Z</time></trkpt><trkpt lat="46.04138" lon="13.212145"><ele>89.5</ele><time>2026-03-22T07:38:38.453Z</time></trkpt><trkpt lat="46.0416683" lon="13.2120633"><ele>90.0</ele><time>2026-03-22T07:38:39.45Z</time></trkpt><trkpt lat="46.0419367" lon="13.21198"><ele>90.0</ele><time>2026-03-22T07:38:40.45Z</time></trkpt><trkpt lat="46.0421967" lon="13.2118817"><ele>90.0</ele><time>2026-03-22T07:38:41.45Z</time></trkpt><trkpt lat="46.042455" lon="13.21178"><ele>89.5</ele><time>2026-03-22T07:38:42.451Z</time></trkpt><trkpt lat="46.0427167" lon="13.21167"><ele>89.0</ele><time>2026-03-22T07:38:43.451Z</time></trkpt><trkpt lat="46.0429833" lon="13.2115417"><ele>89.5</ele><time>2026-03-22T07:38:44.451Z</time></trkpt><trkpt lat="46.043255" lon="13.2114167"><ele>90.0</ele><time>2026-03-22T07:38:45.45Z</time></trkpt><trkpt lat="46.0435267" lon="13.2112817"><ele>89.0</ele><time>2026-03-22T07:38:46.451Z</time></trkpt><trkpt lat="46.04379" lon="13.2111433"><ele>88.0</ele><time>2026-03-22T07:38:47.451Z</time></trkpt><trkpt lat="46.04405" lon="13.210995"><ele>89.5</ele><time>2026-03-22T07:38:48.451Z</time></trkpt><trkpt lat="46.0443217" lon="13.2108333"><ele>91.0</ele><time>2026-03-22T07:38:49.451Z</time></trkpt><trkpt lat="46.044595" lon="13.21064"><ele>92.0</ele><time>2026-03-22T07:38:50.451Z</time></trkpt><trkpt lat="46.0448783" lon="13.2104383"><ele>93.0</ele><time>2026-03-22T07:38:51.451Z</time></trkpt><trkpt lat="46.0451617" lon="13.2102167"><ele>94.5</ele><time>2026-03-22T07:38:52.452Z</time></trkpt><trkpt lat="46.04545" lon="13.2099933"><ele>96.0</ele><time>2026-03-22T07:38:53.452Z</time></trkpt><trkpt lat="46.0457383" lon="13.20975"><ele>94.5</ele><time>2026-03-22T07:38:54.451Z</time></trkpt><trkpt lat="46.0460267" lon="13.2095033"><ele>93.0</ele><time>2026-03-22T07:38:55.452Z</time></trkpt><trkpt lat="46.0463167" lon="13.2092567"><ele>93.0</ele><time>2026-03-22T07:38:56.451Z</time></trkpt><trkpt lat="46.0465967" lon="13.20901"><ele>93.0</ele><time>2026-03-22T07:38:57.452Z</time></trkpt><trkpt lat="46.04687" lon="13.2087633"><ele>93.5</ele><time>2026-03-22T07:38:58.451Z</time></trkpt><trkpt lat="46.0471417" lon="13.2085283"><ele>94.0</ele><time>2026-03-22T07:38:59.451Z</time></trkpt><trkpt lat="46.0474" lon="13.20828"><ele>92.0</ele><time>2026-03-22T07:39:00.451Z</time></trkpt><trkpt lat="46.04765" lon="13.208025"><ele>90.0</ele><time>2026-03-22T07:39:01.451Z</time></trkpt><trkpt lat="46.0478867" lon="13.20776"><ele>90.0</ele><time>2026-03-22T07:39:02.452Z</time></trkpt><trkpt lat="46.0481017" lon="13.2074817"><ele>90.0</ele><time>2026-03-22T07:39:03.452Z</time></trkpt><trkpt lat="46.0483017" lon="13.2072083"><ele>90.5</ele><time>2026-03-22T07:39:04.451Z</time></trkpt><trkpt lat="46.0484883" lon="13.20695"><ele>91.0</ele><time>2026-03-22T07:39:05.451Z</time></trkpt><trkpt lat="46.04866" lon="13.2066883"><ele>90.5</ele><time>2026-03-22T07:39:06.451Z</time></trkpt><trkpt lat="46.04883" lon="13.2064483"><ele>90.0</ele><time>2026-03-22T07:39:07.452Z</time></trkpt><trkpt lat="46.0490033" lon="13.2062083"><ele>91.0</ele><time>2026-03-22T07:39:08.452Z</time></trkpt><trkpt lat="46.0491817" lon="13.205975"><ele>92.0</ele><time>2026-03-22T07:39:09.452Z</time></trkpt><trkpt lat="46.0493683" lon="13.2057783"><ele>92.0</ele><time>2026-03-22T07:39:10.451Z</time></trkpt><trkpt lat="46.0495517" lon="13.2056183"><ele>92.0</ele><time>2026-03-22T07:39:11.45Z</time></trkpt><trkpt lat="46.0497317" lon="13.2054617"><ele>92.0</ele><time>2026-03-22T07:39:12.451Z</time></trkpt><trkpt lat="46.0499067" lon="13.20532"><ele>92.66666666666667</ele><time>2026-03-22T07:39:13.451Z</time></trkpt><trkpt lat="46.0500767" lon="13.2051883"><ele>93.33333333333333</ele><time>2026-03-22T07:39:14.45Z</time></trkpt><trkpt lat="46.0502383" lon="13.2050583"><ele>94.0</ele><time>2026-03-22T07:39:15.451Z</time></trkpt><trkpt lat="46.0503967" lon="13.2049417"><ele>94.0</ele><time>2026-03-22T07:39:16.451Z</time></trkpt><trkpt lat="46.05054" lon="13.2048433"><ele>94.0</ele><time>2026-03-22T07:39:17.451Z</time></trkpt><trkpt lat="46.0506667" lon="13.2047617"><ele>94.0</ele><time>2026-03-22T07:39:18.451Z</time></trkpt><trkpt lat="46.0507883" lon="13.2046967"><ele>94.0</ele><time>2026-03-22T07:39:19.452Z</time></trkpt><trkpt lat="46.050905" lon="13.2046667"><ele>94.0</ele><time>2026-03-22T07:39:20.453Z</time></trkpt><trkpt lat="46.0510167" lon="13.2047017"><ele>94.0</ele><time>2026-03-22T07:39:21.452Z</time></trkpt><trkpt lat="46.0511183" lon="13.2047867"><ele>94.0</ele><time>2026-03-22T07:39:22.452Z</time></trkpt><trkpt lat="46.051205" lon="13.204905"><ele>94.0</ele><time>2026-03-22T07:39:23.452Z</time></trkpt><trkpt lat="46.0512633" lon="13.2050567"><ele>94.5</ele><time>2026-03-22T07:39:24.45Z</time></trkpt><trkpt lat="46.0512917" lon="13.2052267"><ele>95.0</ele><time>2026-03-22T07:39:25.451Z</time></trkpt><trkpt lat="46.0512867" lon="13.20541"><ele>95.5</ele><time>2026-03-22T07:39:26.451Z</time></trkpt><trkpt lat="46.051245" lon="13.205575"><ele>96.0</ele><time>2026-03-22T07:39:27.452Z</time></trkpt><trkpt lat="46.051175" lon="13.205715"><ele>96.25</ele><time>2026-03-22T07:39:28.451Z</time></trkpt><trkpt lat="46.0510817" lon="13.205805"><ele>96.5</ele><time>2026-03-22T07:39:29.451Z</time></trkpt><trkpt lat="46.050965" lon="13.2058533"><ele>96.75</ele><time>2026-03-22T07:39:30.449Z</time></trkpt><trkpt lat="46.05085" lon="13.205855"><ele>97.0</ele><time>2026-03-22T07:39:31.45Z</time></trkpt><trkpt lat="46.0507417" lon="13.20581"><ele>97.0</ele><time>2026-03-22T07:39:32.453Z</time></trkpt><trkpt lat="46.05065" lon="13.2057533"><ele>97.0</ele><time>2026-03-22T07:39:33.449Z</time></trkpt><trkpt lat="46.05058" lon="13.2056717"><ele>97.0</ele><time>2026-03-22T07:39:34.45Z</time></trkpt><trkpt lat="46.0505117" lon="13.2055767"><ele>97.0</ele><time>2026-03-22T07:39:35.449Z</time></trkpt><trkpt lat="46.050445" lon="13.2054533"><ele>97.0</ele><time>2026-03-22T07:39:36.451Z</time></trkpt><trkpt lat="46.0503633" lon="13.205295"><ele>96.33333333333334</ele><time>2026-03-22T07:39:37.449Z</time></trkpt><trkpt lat="46.05027" lon="13.2051"><ele>95.66666666666667</ele><time>2026-03-22T07:39:38.45Z</time></trkpt><trkpt lat="46.05017" lon="13.2048733"><ele>95.0</ele><time>2026-03-22T07:39:39.451Z</time></trkpt><trkpt lat="46.0500683" lon="13.2046317"><ele>95.0</ele><time>2026-03-22T07:39:40.451Z</time></trkpt><trkpt lat="46.0499617" lon="13.20438"><ele>95.0</ele><time>2026-03-22T07:39:41.45Z</time></trkpt><trkpt lat="46.0498483" lon="13.20411"><ele>95.0</ele><time>2026-03-22T07:39:42.45Z</time></trkpt><trkpt lat="46.0497233" lon="13.20382"><ele>94.0</ele><time>2026-03-22T07:39:43.45Z</time></trkpt><trkpt lat="46.0495983" lon="13.2035267"><ele>93.0</ele><time>2026-03-22T07:39:44.451Z</time></trkpt><trkpt lat="46.04947" lon="13.20323"><ele>94.5</ele><time>2026-03-22T07:39:45.453Z</time></trkpt><trkpt lat="46.04934" lon="13.2029233"><ele>96.0</ele><time>2026-03-22T07:39:46.449Z</time></trkpt><trkpt lat="46.049205" lon="13.202615"><ele>96.5</ele><time>2026-03-22T07:39:47.45Z</time></trkpt><trkpt lat="46.0490767" lon="13.202315"><ele>97.0</ele><time>2026-03-22T07:39:48.451Z</time></trkpt><trkpt lat="46.0489583" lon="13.2020317"><ele>97.0</ele><time>2026-03-22T07:39:49.452Z</time></trkpt><trkpt lat="46.0488467" lon="13.2017667"><ele>97.0</ele><time>2026-03-22T07:39:50.452Z</time></trkpt><trkpt lat="46.0487417" lon="13.201515"><ele>97.0</ele><time>2026-03-22T07:39:51.452Z</time></trkpt><trkpt lat="46.0486383" lon="13.2012783"><ele>98.0</ele><time>2026-03-22T07:39:52.451Z</time></trkpt><trkpt lat="46.0485417" lon="13.20105"><ele>99.0</ele><time>2026-03-22T07:39:53.45Z</time></trkpt><trkpt lat="46.0484517" lon="13.2008283"><ele>100.0</ele><time>2026-03-22T07:39:54.451Z</time></trkpt><trkpt lat="46.048365" lon="13.2006233"><ele>99.66666666666667</ele><time>2026-03-22T07:39:55.451Z</time></trkpt><trkpt lat="46.0482817" lon="13.2004317"><ele>99.33333333333334</ele><time>2026-03-22T07:39:56.452Z</time></trkpt><trkpt lat="46.0482017" lon="13.2002467"><ele>99.0</ele><time>2026-03-22T07:39:57.452Z</time></trkpt><trkpt lat="46.0481283" lon="13.2000667"><ele>99.0</ele><time>2026-03-22T07:39:58.451Z</time></trkpt><trkpt lat="46.0480533" lon="13.1998933"><ele>99.0</ele><time>2026-03-22T07:39:59.45Z</time></trkpt><trkpt lat="46.0479833" lon="13.1997267"><ele>99.0</ele><time>2026-03-22T07:40:00.451Z</time></trkpt><trkpt lat="46.04792" lon="13.1995683"><ele>99.0</ele><time>2026-03-22T07:40:01.451Z</time></trkpt><trkpt lat="46.047855" lon="13.1994183"><ele>99.4</ele><time>2026-03-22T07:40:02.451Z</time></trkpt><trkpt lat="46.0477967" lon="13.1992867"><ele>99.80000000000001</ele><time>2026-03-22T07:40:03.453Z</time></trkpt><trkpt lat="46.047755" lon="13.1991817"><ele>100.19999999999999</ele><time>2026-03-22T07:40:04.452Z</time></trkpt><trkpt lat="46.04772" lon="13.1990933"><ele>100.6</ele><time>2026-03-22T07:40:05.451Z</time></trkpt><trkpt lat="46.04765" lon="13.1989483"><ele>101.0</ele><time>2026-03-22T07:40:07.451Z</time></trkpt><trkpt lat="46.0476117" lon="13.1988733"><ele>101.16666666666666</ele><time>2026-03-22T07:40:08.45Z</time></trkpt><trkpt lat="46.0475717" lon="13.1987933"><ele>101.33333333333333</ele><time>2026-03-22T07:40:09.45Z</time></trkpt><trkpt lat="46.04753" lon="13.19871"><ele>101.5</ele><time>2026-03-22T07:40:10.451Z</time></trkpt><trkpt lat="46.04749" lon="13.1986267"><ele>101.66666666666666</ele><time>2026-03-22T07:40:11.45Z</time></trkpt><trkpt lat="46.047455" lon="13.19855"><ele>101.83333333333333</ele><time>2026-03-22T07:40:12.451Z</time></trkpt><trkpt lat="46.0474" lon="13.1984233"><ele>102.0</ele><time>2026-03-22T07:40:14.451Z</time></trkpt><trkpt lat="46.0473533" lon="13.1983083"><ele>102.19999999999999</ele><time>2026-03-22T07:40:17.451Z</time></trkpt><trkpt lat="46.0473133" lon="13.19817"><ele>102.4</ele><time>2026-03-22T07:40:24.452Z</time></trkpt><trkpt lat="46.0472617" lon="13.1980583"><ele>102.6</ele><time>2026-03-22T07:40:25.45Z</time></trkpt><trkpt lat="46.047195" lon="13.1979317"><ele>102.80000000000001</ele><time>2026-03-22T07:40:26.452Z</time></trkpt><trkpt lat="46.0471133" lon="13.197795"><ele>103.0</ele><time>2026-03-22T07:40:27.456Z</time></trkpt><trkpt lat="46.0470167" lon="13.197645"><ele>103.0</ele><time>2026-03-22T07:40:28.45Z</time></trkpt><trkpt lat="46.0468983" lon="13.197495"><ele>103.0</ele><time>2026-03-22T07:40:29.45Z</time></trkpt><trkpt lat="46.0467717" lon="13.1973317"><ele>103.0</ele><time>2026-03-22T07:40:30.452Z</time></trkpt><trkpt lat="46.046645" lon="13.19716"><ele>102.66666666666667</ele><time>2026-03-22T07:40:31.451Z</time></trkpt><trkpt lat="46.04651" lon="13.1969867"><ele>102.33333333333334</ele><time>2026-03-22T07:40:32.451Z</time></trkpt><trkpt lat="46.0463683" lon="13.1967983"><ele>102.0</ele><time>2026-03-22T07:40:33.451Z</time></trkpt><trkpt lat="46.0462167" lon="13.1966"><ele>102.0</ele><time>2026-03-22T07:40:34.451Z</time></trkpt><trkpt lat="46.0460517" lon="13.196395"><ele>102.0</ele><time>2026-03-22T07:40:35.45Z</time></trkpt><trkpt lat="46.0458783" lon="13.1961717"><ele>101.5</ele><time>2026-03-22T07:40:36.45Z</time></trkpt><trkpt lat="46.0456983" lon="13.19594"><ele>101.0</ele><time>2026-03-22T07:40:37.451Z</time></trkpt><trkpt lat="46.0455133" lon="13.1957017"><ele>100.5</ele><time>2026-03-22T07:40:38.452Z</time></trkpt><trkpt lat="46.0453183" lon="13.1954617"><ele>100.0</ele><time>2026-03-22T07:40:39.451Z</time></trkpt><trkpt lat="46.0451233" lon="13.1952033"><ele>100.0</ele><time>2026-03-22T07:40:40.453Z</time></trkpt><trkpt lat="46.04492" lon="13.1949367"><ele>100.0</ele><time>2026-03-22T07:40:41.45Z</time></trkpt><trkpt lat="46.04471" lon="13.1946733"><ele>100.0</ele><time>2026-03-22T07:40:42.452Z</time></trkpt><trkpt lat="46.0445" lon="13.1944"><ele>100.0</ele><time>2026-03-22T07:40:43.451Z</time></trkpt><trkpt lat="46.0442883" lon="13.1941233"><ele>98.5</ele><time>2026-03-22T07:40:44.451Z</time></trkpt><trkpt lat="46.0440733" lon="13.1938417"><ele>97.0</ele><time>2026-03-22T07:40:45.453Z</time></trkpt><trkpt lat="46.0438567" lon="13.193565"><ele>97.0</ele><time>2026-03-22T07:40:46.45Z</time></trkpt><trkpt lat="46.04365" lon="13.193295"><ele>97.0</ele><time>2026-03-22T07:40:47.45Z</time></trkpt><trkpt lat="46.0434533" lon="13.19304"><ele>96.5</ele><time>2026-03-22T07:40:48.452Z</time></trkpt><trkpt lat="46.0432683" lon="13.1927917"><ele>96.0</ele><time>2026-03-22T07:40:49.452Z</time></trkpt><trkpt lat="46.0430917" lon="13.1925567"><ele>96.5</ele><time>2026-03-22T07:40:50.454Z</time></trkpt><trkpt lat="46.0429217" lon="13.192335"><ele>97.0</ele><time>2026-03-22T07:40:51.45Z</time></trkpt><trkpt lat="46.0427533" lon="13.1921167"><ele>97.0</ele><time>2026-03-22T07:40:52.452Z</time></trkpt><trkpt lat="46.0425883" lon="13.19191"><ele>97.0</ele><time>2026-03-22T07:40:53.451Z</time></trkpt><trkpt lat="46.0424267" lon="13.191705"><ele>97.0</ele><time>2026-03-22T07:40:54.451Z</time></trkpt><trkpt lat="46.0422767" lon="13.1914983"><ele>96.66666666666667</ele><time>2026-03-22T07:40:55.45Z</time></trkpt><trkpt lat="46.0421233" lon="13.1913117"><ele>96.33333333333334</ele><time>2026-03-22T07:40:56.451Z</time></trkpt><trkpt lat="46.04198" lon="13.19113"><ele>96.0</ele><time>2026-03-22T07:40:57.452Z</time></trkpt><trkpt lat="46.04185" lon="13.1909533"><ele>96.0</ele><time>2026-03-22T07:40:58.451Z</time></trkpt><trkpt lat="46.0417217" lon="13.1907767"><ele>96.0</ele><time>2026-03-22T07:40:59.451Z</time></trkpt><trkpt lat="46.041605" lon="13.1905717"><ele>96.0</ele><time>2026-03-22T07:41:00.451Z</time></trkpt><trkpt lat="46.0415033" lon="13.190335"><ele>95.66666666666667</ele><time>2026-03-22T07:41:01.45Z</time></trkpt><trkpt lat="46.0414067" lon="13.1900833"><ele>95.33333333333334</ele><time>2026-03-22T07:41:02.451Z</time></trkpt><trkpt lat="46.0413183" lon="13.1898217"><ele>95.0</ele><time>2026-03-22T07:41:03.451Z</time></trkpt><trkpt lat="46.04123" lon="13.1895617"><ele>94.66666666666667</ele><time>2026-03-22T07:41:04.45Z</time></trkpt><trkpt lat="46.0411383" lon="13.189295"><ele>94.33333333333333</ele><time>2026-03-22T07:41:05.451Z</time></trkpt><trkpt lat="46.0410433" lon="13.1890367"><ele>94.0</ele><time>2026-03-22T07:41:06.451Z</time></trkpt><trkpt lat="46.0409567" lon="13.1887817"><ele>94.0</ele><time>2026-03-22T07:41:07.451Z</time></trkpt><trkpt lat="46.04088" lon="13.1885167"><ele>94.0</ele><time>2026-03-22T07:41:08.451Z</time></trkpt><trkpt lat="46.0408167" lon="13.18824"><ele>94.0</ele><time>2026-03-22T07:41:09.451Z</time></trkpt><trkpt lat="46.04077" lon="13.1879683"><ele>94.0</ele><time>2026-03-22T07:41:10.451Z</time></trkpt><trkpt lat="46.0407367" lon="13.1877083"><ele>94.0</ele><time>2026-03-22T07:41:11.451Z</time></trkpt><trkpt lat="46.0407033" lon="13.1874633"><ele>94.0</ele><time>2026-03-22T07:41:12.45Z</time></trkpt><trkpt lat="46.0406633" lon="13.1872417"><ele>93.5</ele><time>2026-03-22T07:41:13.451Z</time></trkpt><trkpt lat="46.0406083" lon="13.1870467"><ele>93.0</ele><time>2026-03-22T07:41:14.451Z</time></trkpt><trkpt lat="46.040535" lon="13.1868733"><ele>92.5</ele><time>2026-03-22T07:41:15.451Z</time></trkpt><trkpt lat="46.0404733" lon="13.1867167"><ele>92.0</ele><time>2026-03-22T07:41:16.451Z</time></trkpt><trkpt lat="46.0404283" lon="13.1865733"><ele>91.5</ele><time>2026-03-22T07:41:17.451Z</time></trkpt><trkpt lat="46.0404117" lon="13.1864267"><ele>91.0</ele><time>2026-03-22T07:41:18.452Z</time></trkpt><trkpt lat="46.0404217" lon="13.1862667"><ele>90.5</ele><time>2026-03-22T07:41:19.45Z</time></trkpt><trkpt lat="46.0404283" lon="13.186095"><ele>90.0</ele><time>2026-03-22T07:41:20.453Z</time></trkpt><trkpt lat="46.0404167" lon="13.1859167"><ele>90.0</ele><time>2026-03-22T07:41:21.452Z</time></trkpt><trkpt lat="46.040375" lon="13.1857367"><ele>90.0</ele><time>2026-03-22T07:41:22.452Z</time></trkpt><trkpt lat="46.0403083" lon="13.1855717"><ele>90.0</ele><time>2026-03-22T07:41:23.451Z</time></trkpt><trkpt lat="46.0402167" lon="13.1854483"><ele>90.0</ele><time>2026-03-22T07:41:24.455Z</time></trkpt><trkpt lat="46.0401033" lon="13.1853717"><ele>90.25</ele><time>2026-03-22T07:41:25.453Z</time></trkpt><trkpt lat="46.03998" lon="13.185345"><ele>90.5</ele><time>2026-03-22T07:41:26.451Z</time></trkpt><trkpt lat="46.039855" lon="13.18537"><ele>90.75</ele><time>2026-03-22T07:41:27.45Z</time></trkpt><trkpt lat="46.0397333" lon="13.1854433"><ele>91.0</ele><time>2026-03-22T07:41:28.451Z</time></trkpt><trkpt lat="46.0396267" lon="13.18554"><ele>91.25</ele><time>2026-03-22T07:41:29.452Z</time></trkpt><trkpt lat="46.0395267" lon="13.1856517"><ele>91.5</ele><time>2026-03-22T07:41:30.451Z</time></trkpt><trkpt lat="46.039425" lon="13.18575"><ele>91.75</ele><time>2026-03-22T07:41:31.45Z</time></trkpt><trkpt lat="46.0393" lon="13.1858183"><ele>92.0</ele><time>2026-03-22T07:41:32.451Z</time></trkpt><trkpt lat="46.0391567" lon="13.1858417"><ele>92.0</ele><time>2026-03-22T07:41:33.451Z</time></trkpt><trkpt lat="46.0389917" lon="13.1858233"><ele>92.0</ele><time>2026-03-22T07:41:34.451Z</time></trkpt><trkpt lat="46.0388083" lon="13.1857833"><ele>92.0</ele><time>2026-03-22T07:41:35.451Z</time></trkpt><trkpt lat="46.03862" lon="13.1857433"><ele>92.0</ele><time>2026-03-22T07:41:36.45Z</time></trkpt><trkpt lat="46.0384267" lon="13.1857067"><ele>92.0</ele><time>2026-03-22T07:41:37.45Z</time></trkpt><trkpt lat="46.0382267" lon="13.18566"><ele>92.0</ele><time>2026-03-22T07:41:38.452Z</time></trkpt><trkpt lat="46.0380317" lon="13.1855867"><ele>91.66666666666667</ele><time>2026-03-22T07:41:39.451Z</time></trkpt><trkpt lat="46.037835" lon="13.1854933"><ele>91.33333333333333</ele><time>2026-03-22T07:41:40.452Z</time></trkpt><trkpt lat="46.0376433" lon="13.185365"><ele>91.0</ele><time>2026-03-22T07:41:41.451Z</time></trkpt><trkpt lat="46.0374517" lon="13.1852083"><ele>91.0</ele><time>2026-03-22T07:41:42.451Z</time></trkpt><trkpt lat="46.037265" lon="13.18502"><ele>91.0</ele><time>2026-03-22T07:41:43.45Z</time></trkpt><trkpt lat="46.03709" lon="13.1848017"><ele>91.0</ele><time>2026-03-22T07:41:44.451Z</time></trkpt><trkpt lat="46.0369167" lon="13.1845717"><ele>91.0</ele><time>2026-03-22T07:41:45.451Z</time></trkpt><trkpt lat="46.036745" lon="13.18434"><ele>91.5</ele><time>2026-03-22T07:41:46.451Z</time></trkpt><trkpt lat="46.036565" lon="13.1841033"><ele>92.0</ele><time>2026-03-22T07:41:47.452Z</time></trkpt><trkpt lat="46.0363717" lon="13.1838767"><ele>92.0</ele><time>2026-03-22T07:41:48.452Z</time></trkpt><trkpt lat="46.03618" lon="13.18364"><ele>92.0</ele><time>2026-03-22T07:41:49.452Z</time></trkpt><trkpt lat="46.03599" lon="13.1833933"><ele>91.5</ele><time>2026-03-22T07:41:50.453Z</time></trkpt><trkpt lat="46.0358033" lon="13.18314"><ele>91.0</ele><time>2026-03-22T07:41:51.451Z</time></trkpt><trkpt lat="46.0356083" lon="13.1828817"><ele>91.0</ele><time>2026-03-22T07:41:52.452Z</time></trkpt><trkpt lat="46.03541" lon="13.182615"><ele>91.0</ele><time>2026-03-22T07:41:53.451Z</time></trkpt><trkpt lat="46.0352083" lon="13.182345"><ele>89.5</ele><time>2026-03-22T07:41:54.452Z</time></trkpt><trkpt lat="46.0349983" lon="13.18207"><ele>88.0</ele><time>2026-03-22T07:41:55.45Z</time></trkpt><trkpt lat="46.0347883" lon="13.1817833"><ele>88.0</ele><time>2026-03-22T07:41:56.451Z</time></trkpt><trkpt lat="46.03457" lon="13.1815017"><ele>88.0</ele><time>2026-03-22T07:41:57.451Z</time></trkpt><trkpt lat="46.034355" lon="13.181215"><ele>87.0</ele><time>2026-03-22T07:41:58.451Z</time></trkpt><trkpt lat="46.0341333" lon="13.1809267"><ele>86.0</ele><time>2026-03-22T07:41:59.451Z</time></trkpt><trkpt lat="46.0339117" lon="13.1806317"><ele>86.0</ele><time>2026-03-22T07:42:00.452Z</time></trkpt><trkpt lat="46.0336783" lon="13.1803367"><ele>86.0</ele><time>2026-03-22T07:42:01.452Z</time></trkpt><trkpt lat="46.0334467" lon="13.1800367"><ele>85.0</ele><time>2026-03-22T07:42:02.451Z</time></trkpt><trkpt lat="46.0332117" lon="13.1797317"><ele>84.0</ele><time>2026-03-22T07:42:03.452Z</time></trkpt><trkpt lat="46.032975" lon="13.1794217"><ele>84.0</ele><time>2026-03-22T07:42:04.453Z</time></trkpt><trkpt lat="46.0327367" lon="13.17911"><ele>84.0</ele><time>2026-03-22T07:42:05.451Z</time></trkpt><trkpt lat="46.0324983" lon="13.178795"><ele>83.5</ele><time>2026-03-22T07:42:06.452Z</time></trkpt><trkpt lat="46.03226" lon="13.1784767"><ele>83.0</ele><time>2026-03-22T07:42:07.452Z</time></trkpt><trkpt lat="46.032015" lon="13.17816"><ele>82.5</ele><time>2026-03-22T07:42:08.453Z</time></trkpt><trkpt lat="46.0317717" lon="13.1778383"><ele>82.0</ele><time>2026-03-22T07:42:09.452Z</time></trkpt><trkpt lat="46.0315217" lon="13.1775233"><ele>83.0</ele><time>2026-03-22T07:42:10.452Z</time></trkpt><trkpt lat="46.0312767" lon="13.1772"><ele>84.0</ele><time>2026-03-22T07:42:11.452Z</time></trkpt><trkpt lat="46.03103" lon="13.1768717"><ele>84.5</ele><time>2026-03-22T07:42:12.452Z</time></trkpt><trkpt lat="46.0307767" lon="13.1765483"><ele>85.0</ele><time>2026-03-22T07:42:13.452Z</time></trkpt><trkpt lat="46.0305267" lon="13.1762233"><ele>85.0</ele><time>2026-03-22T07:42:14.451Z</time></trkpt><trkpt lat="46.030275" lon="13.1758967"><ele>85.0</ele><time>2026-03-22T07:42:15.452Z</time></trkpt><trkpt lat="46.0300233" lon="13.1755633"><ele>85.0</ele><time>2026-03-22T07:42:16.451Z</time></trkpt><trkpt lat="46.02977" lon="13.1752317"><ele>85.0</ele><time>2026-03-22T07:42:17.451Z</time></trkpt><trkpt lat="46.0295183" lon="13.1749017"><ele>84.0</ele><time>2026-03-22T07:42:18.452Z</time></trkpt><trkpt lat="46.029265" lon="13.1745717"><ele>83.0</ele><time>2026-03-22T07:42:19.449Z</time></trkpt><trkpt lat="46.0290133" lon="13.17424"><ele>83.0</ele><time>2026-03-22T07:42:20.451Z</time></trkpt><trkpt lat="46.0287567" lon="13.1739133"><ele>83.0</ele><time>2026-03-22T07:42:21.45Z</time></trkpt><trkpt lat="46.0285033" lon="13.17358"><ele>83.0</ele><time>2026-03-22T07:42:22.451Z</time></trkpt><trkpt lat="46.028245" lon="13.1732483"><ele>83.0</ele><time>2026-03-22T07:42:23.451Z</time></trkpt><trkpt lat="46.0279883" lon="13.1729133"><ele>83.0</ele><time>2026-03-22T07:42:24.454Z</time></trkpt><trkpt lat="46.02773" lon="13.1725767"><ele>83.0</ele><time>2026-03-22T07:42:25.452Z</time></trkpt><trkpt lat="46.02747" lon="13.172245"><ele>83.0</ele><time>2026-03-22T07:42:26.45Z</time></trkpt><trkpt lat="46.0272183" lon="13.1719217"><ele>83.0</ele><time>2026-03-22T07:42:27.451Z</time></trkpt><trkpt lat="46.0269733" lon="13.171605"><ele>83.0</ele><time>2026-03-22T07:42:28.45Z</time></trkpt><trkpt lat="46.02673" lon="13.171295"><ele>83.0</ele><time>2026-03-22T07:42:29.451Z</time></trkpt><trkpt lat="46.0264917" lon="13.1709917"><ele>83.0</ele><time>2026-03-22T07:42:30.45Z</time></trkpt><trkpt lat="46.0262483" lon="13.170685"><ele>83.0</ele><time>2026-03-22T07:42:31.449Z</time></trkpt><trkpt lat="46.0260033" lon="13.1703717"><ele>82.5</ele><time>2026-03-22T07:42:32.451Z</time></trkpt><trkpt lat="46.0257583" lon="13.170055"><ele>82.0</ele><time>2026-03-22T07:42:33.452Z</time></trkpt><trkpt lat="46.025515" lon="13.169735"><ele>81.5</ele><time>2026-03-22T07:42:34.451Z</time></trkpt><trkpt lat="46.0252767" lon="13.1694167"><ele>81.0</ele><time>2026-03-22T07:42:35.451Z</time></trkpt><trkpt lat="46.0250417" lon="13.169095"><ele>81.0</ele><time>2026-03-22T07:42:36.453Z</time></trkpt><trkpt lat="46.0248083" lon="13.1687883"><ele>81.0</ele><time>2026-03-22T07:42:37.451Z</time></trkpt><trkpt lat="46.0245833" lon="13.168485"><ele>81.0</ele><time>2026-03-22T07:42:38.45Z</time></trkpt><trkpt lat="46.02436" lon="13.1681917"><ele>81.0</ele><time>2026-03-22T07:42:39.451Z</time></trkpt><trkpt lat="46.0241333" lon="13.1678883"><ele>80.5</ele><time>2026-03-22T07:42:40.451Z</time></trkpt><trkpt lat="46.02391" lon="13.1675967"><ele>80.0</ele><time>2026-03-22T07:42:41.45Z</time></trkpt><trkpt lat="46.0236933" lon="13.16732"><ele>79.5</ele><time>2026-03-22T07:42:42.451Z</time></trkpt><trkpt lat="46.023485" lon="13.1670533"><ele>79.0</ele><time>2026-03-22T07:42:43.45Z</time></trkpt><trkpt lat="46.0232867" lon="13.1668033"><ele>78.5</ele><time>2026-03-22T07:42:44.451Z</time></trkpt><trkpt lat="46.0231017" lon="13.1665617"><ele>78.0</ele><time>2026-03-22T07:42:45.451Z</time></trkpt><trkpt lat="46.022925" lon="13.1663283"><ele>79.0</ele><time>2026-03-22T07:42:46.448Z</time></trkpt><trkpt lat="46.0227533" lon="13.166105"><ele>80.0</ele><time>2026-03-22T07:42:47.448Z</time></trkpt><trkpt lat="46.0225917" lon="13.1658917"><ele>79.5</ele><time>2026-03-22T07:42:48.447Z</time></trkpt><trkpt lat="46.022425" lon="13.1656783"><ele>79.0</ele><time>2026-03-22T07:42:49.448Z</time></trkpt><trkpt lat="46.0222533" lon="13.1654617"><ele>79.0</ele><time>2026-03-22T07:42:50.449Z</time></trkpt><trkpt lat="46.022085" lon="13.16524"><ele>79.0</ele><time>2026-03-22T07:42:51.45Z</time></trkpt><trkpt lat="46.02192" lon="13.16502"><ele>79.0</ele><time>2026-03-22T07:42:52.448Z</time></trkpt><trkpt lat="46.0217667" lon="13.1648283"><ele>79.0</ele><time>2026-03-22T07:42:53.449Z</time></trkpt><trkpt lat="46.0216233" lon="13.1646467"><ele>79.0</ele><time>2026-03-22T07:42:54.45Z</time></trkpt><trkpt lat="46.0214917" lon="13.1644767"><ele>79.0</ele><time>2026-03-22T07:42:55.45Z</time></trkpt><trkpt lat="46.0213717" lon="13.1643183"><ele>79.0</ele><time>2026-03-22T07:42:56.448Z</time></trkpt><trkpt lat="46.0212617" lon="13.1641733"><ele>79.0</ele><time>2026-03-22T07:42:57.45Z</time></trkpt><trkpt lat="46.0211617" lon="13.16404"><ele>79.0</ele><time>2026-03-22T07:42:58.449Z</time></trkpt><trkpt lat="46.0210667" lon="13.1639167"><ele>78.8</ele><time>2026-03-22T07:42:59.451Z</time></trkpt><trkpt lat="46.0209817" lon="13.1638083"><ele>78.60000000000001</ele><time>2026-03-22T07:43:00.453Z</time></trkpt><trkpt lat="46.0209" lon="13.163705"><ele>78.4</ele><time>2026-03-22T07:43:01.45Z</time></trkpt><trkpt lat="46.0208183" lon="13.1636017"><ele>78.2</ele><time>2026-03-22T07:43:02.45Z</time></trkpt><trkpt lat="46.0207483" lon="13.1635067"><ele>78.0</ele><time>2026-03-22T07:43:03.451Z</time></trkpt><trkpt lat="46.0206817" lon="13.1634167"><ele>78.0</ele><time>2026-03-22T07:43:04.449Z</time></trkpt><trkpt lat="46.0206167" lon="13.163325"><ele>78.0</ele><time>2026-03-22T07:43:05.451Z</time></trkpt><trkpt lat="46.0205517" lon="13.1632433"><ele>78.0</ele><time>2026-03-22T07:43:06.451Z</time></trkpt><trkpt lat="46.020485" lon="13.1631583"><ele>78.0</ele><time>2026-03-22T07:43:07.45Z</time></trkpt><trkpt lat="46.020425" lon="13.16307"><ele>78.0</ele><time>2026-03-22T07:43:08.451Z</time></trkpt><trkpt lat="46.0203683" lon="13.1629767"><ele>78.0</ele><time>2026-03-22T07:43:09.451Z</time></trkpt><trkpt lat="46.0203317" lon="13.1628733"><ele>78.0</ele><time>2026-03-22T07:43:10.45Z</time></trkpt><trkpt lat="46.0203017" lon="13.1627667"><ele>78.0</ele><time>2026-03-22T07:43:11.45Z</time></trkpt><trkpt lat="46.0202767" lon="13.1626583"><ele>78.0</ele><time>2026-03-22T07:43:12.449Z</time></trkpt><trkpt lat="46.02025" lon="13.1625367"><ele>78.0</ele><time>2026-03-22T07:43:13.451Z</time></trkpt><trkpt lat="46.0202133" lon="13.1624233"><ele>78.0</ele><time>2026-03-22T07:43:14.45Z</time></trkpt><trkpt lat="46.02016" lon="13.1623283"><ele>78.0</ele><time>2026-03-22T07:43:15.451Z</time></trkpt><trkpt lat="46.0200967" lon="13.1622383"><ele>77.8</ele><time>2026-03-22T07:43:16.45Z</time></trkpt><trkpt lat="46.0200417" lon="13.16213"><ele>77.6</ele><time>2026-03-22T07:43:17.451Z</time></trkpt><trkpt lat="46.0200017" lon="13.1620033"><ele>77.4</ele><time>2026-03-22T07:43:18.45Z</time></trkpt><trkpt lat="46.0199683" lon="13.1618583"><ele>77.2</ele><time>2026-03-22T07:43:19.451Z</time></trkpt><trkpt lat="46.0199367" lon="13.1616967"><ele>77.0</ele><time>2026-03-22T07:43:20.45Z</time></trkpt><trkpt lat="46.0199017" lon="13.161535"><ele>76.75</ele><time>2026-03-22T07:43:21.451Z</time></trkpt><trkpt lat="46.019865" lon="13.1613767"><ele>76.5</ele><time>2026-03-22T07:43:22.45Z</time></trkpt><trkpt lat="46.0198267" lon="13.161215"><ele>76.25</ele><time>2026-03-22T07:43:23.451Z</time></trkpt><trkpt lat="46.0197917" lon="13.161055"><ele>76.0</ele><time>2026-03-22T07:43:24.452Z</time></trkpt><trkpt lat="46.0197517" lon="13.1608867"><ele>76.0</ele><time>2026-03-22T07:43:25.45Z</time></trkpt><trkpt lat="46.019715" lon="13.1607167"><ele>76.0</ele><time>2026-03-22T07:43:26.45Z</time></trkpt><trkpt lat="46.0196767" lon="13.1605267"><ele>76.0</ele><time>2026-03-22T07:43:27.451Z</time></trkpt><trkpt lat="46.01964" lon="13.16033"><ele>76.0</ele><time>2026-03-22T07:43:28.453Z</time></trkpt><trkpt lat="46.01961" lon="13.1601317"><ele>76.25</ele><time>2026-03-22T07:43:29.452Z</time></trkpt><trkpt lat="46.0195733" lon="13.159935"><ele>76.5</ele><time>2026-03-22T07:43:30.454Z</time></trkpt><trkpt lat="46.0195433" lon="13.1597467"><ele>76.75</ele><time>2026-03-22T07:43:31.45Z</time></trkpt><trkpt lat="46.0195133" lon="13.1595533"><ele>77.0</ele><time>2026-03-22T07:43:32.451Z</time></trkpt><trkpt lat="46.0194783" lon="13.1593617"><ele>77.0</ele><time>2026-03-22T07:43:33.449Z</time></trkpt><trkpt lat="46.0194383" lon="13.1591683"><ele>77.0</ele><time>2026-03-22T07:43:34.45Z</time></trkpt><trkpt lat="46.0194033" lon="13.15897"><ele>77.0</ele><time>2026-03-22T07:43:35.453Z</time></trkpt><trkpt lat="46.01937" lon="13.1587817"><ele>77.0</ele><time>2026-03-22T07:43:36.45Z</time></trkpt><trkpt lat="46.019335" lon="13.158605"><ele>77.25</ele><time>2026-03-22T07:43:37.452Z</time></trkpt><trkpt lat="46.0193033" lon="13.1584383"><ele>77.5</ele><time>2026-03-22T07:43:38.451Z</time></trkpt><trkpt lat="46.0192583" lon="13.15828"><ele>77.75</ele><time>2026-03-22T07:43:39.451Z</time></trkpt><trkpt lat="46.019195" lon="13.1581483"><ele>78.0</ele><time>2026-03-22T07:43:40.453Z</time></trkpt><trkpt lat="46.01913" lon="13.1580233"><ele>77.25</ele><time>2026-03-22T07:43:41.451Z</time></trkpt><trkpt lat="46.0190567" lon="13.1579"><ele>76.5</ele><time>2026-03-22T07:43:42.449Z</time></trkpt><trkpt lat="46.0189833" lon="13.1577717"><ele>75.75</ele><time>2026-03-22T07:43:43.451Z</time></trkpt><trkpt lat="46.01891" lon="13.1576367"><ele>75.0</ele><time>2026-03-22T07:43:44.451Z</time></trkpt><trkpt lat="46.0188467" lon="13.1574967"><ele>75.2</ele><time>2026-03-22T07:43:45.452Z</time></trkpt><trkpt lat="46.0187967" lon="13.15736"><ele>75.4</ele><time>2026-03-22T07:43:46.451Z</time></trkpt><trkpt lat="46.0187567" lon="13.1572167"><ele>75.6</ele><time>2026-03-22T07:43:47.451Z</time></trkpt><trkpt lat="46.018715" lon="13.1570867"><ele>75.8</ele><time>2026-03-22T07:43:48.45Z</time></trkpt><trkpt lat="46.01868" lon="13.1569683"><ele>76.0</ele><time>2026-03-22T07:43:49.451Z</time></trkpt><trkpt lat="46.0186533" lon="13.1568583"><ele>76.0</ele><time>2026-03-22T07:43:50.449Z</time></trkpt><trkpt lat="46.0186367" lon="13.1567683"><ele>76.0</ele><time>2026-03-22T07:43:51.451Z</time></trkpt><trkpt lat="46.0186017" lon="13.156635"><ele>76.0</ele><time>2026-03-22T07:43:53.45Z</time></trkpt><trkpt lat="46.0185783" lon="13.1565483"><ele>76.0</ele><time>2026-03-22T07:43:56.452Z</time></trkpt><trkpt lat="46.018655" lon="13.156625"><ele>76.0</ele><time>2026-03-22T07:49:29.45Z</time></trkpt><trkpt lat="46.018635" lon="13.1565183"><ele>76.0</ele><time>2026-03-22T07:51:33.451Z</time></trkpt><trkpt lat="46.0185433" lon="13.1564617"><ele>76.39999999999999</ele><time>2026-03-22T07:59:03.452Z</time></trkpt><trkpt lat="46.0185083" lon="13.15636"><ele>76.8</ele><time>2026-03-22T07:59:05.451Z</time></trkpt><trkpt lat="46.0184733" lon="13.1562533"><ele>77.19999999999999</ele><time>2026-03-22T07:59:07.45Z</time></trkpt><trkpt lat="46.018425" lon="13.15613"><ele>77.6</ele><time>2026-03-22T07:59:09.452Z</time></trkpt><trkpt lat="46.0183783" lon="13.1560017"><ele>78.0</ele><time>2026-03-22T07:59:11.451Z</time></trkpt><trkpt lat="46.0183433" lon="13.15588"><ele>78.0</ele><time>2026-03-22T07:59:13.449Z</time></trkpt><trkpt lat="46.0183033" lon="13.155755"><ele>78.0</ele><time>2026-03-22T07:59:15.452Z</time></trkpt><trkpt lat="46.0182717" lon="13.15562"><ele>78.0</ele><time>2026-03-22T07:59:17.451Z</time></trkpt><trkpt lat="46.0182383" lon="13.15548"><ele>78.0</ele><time>2026-03-22T07:59:19.452Z</time></trkpt><trkpt lat="46.01819" lon="13.155315"><ele>78.0</ele><time>2026-03-22T07:59:21.451Z</time></trkpt><trkpt lat="46.018165" lon="13.1552317"><ele>78.0</ele><time>2026-03-22T07:59:22.452Z</time></trkpt><trkpt lat="46.0181367" lon="13.1551417"><ele>78.0</ele><time>2026-03-22T07:59:23.452Z</time></trkpt><trkpt lat="46.0181117" lon="13.15505"><ele>78.0</ele><time>2026-03-22T07:59:24.451Z</time></trkpt><trkpt lat="46.0180867" lon="13.15496"><ele>78.0</ele><time>2026-03-22T07:59:25.452Z</time></trkpt><trkpt lat="46.0180567" lon="13.1548617"><ele>78.0</ele><time>2026-03-22T07:59:26.452Z</time></trkpt><trkpt lat="46.0180217" lon="13.154745"><ele>78.0</ele><time>2026-03-22T07:59:27.453Z</time></trkpt><trkpt lat="46.0179817" lon="13.154615"><ele>77.75</ele><time>2026-03-22T07:59:28.451Z</time></trkpt><trkpt lat="46.0179383" lon="13.1544717"><ele>77.5</ele><time>2026-03-22T07:59:29.451Z</time></trkpt><trkpt lat="46.0178933" lon="13.1543183"><ele>77.25</ele><time>2026-03-22T07:59:30.451Z</time></trkpt><trkpt lat="46.0178483" lon="13.1541583"><ele>77.0</ele><time>2026-03-22T07:59:31.451Z</time></trkpt><trkpt lat="46.0177983" lon="13.15399"><ele>76.75</ele><time>2026-03-22T07:59:32.451Z</time></trkpt><trkpt lat="46.01775" lon="13.153815"><ele>76.5</ele><time>2026-03-22T07:59:33.452Z</time></trkpt><trkpt lat="46.0177" lon="13.153645"><ele>76.25</ele><time>2026-03-22T07:59:34.451Z</time></trkpt><trkpt lat="46.01765" lon="13.1534733"><ele>76.0</ele><time>2026-03-22T07:59:35.451Z</time></trkpt><trkpt lat="46.017595" lon="13.1532983"><ele>75.75</ele><time>2026-03-22T07:59:36.45Z</time></trkpt><trkpt lat="46.01754" lon="13.1531183"><ele>75.5</ele><time>2026-03-22T07:59:37.45Z</time></trkpt><trkpt lat="46.0174883" lon="13.1529333"><ele>75.25</ele><time>2026-03-22T07:59:38.449Z</time></trkpt><trkpt lat="46.01743" lon="13.152745"><ele>75.0</ele><time>2026-03-22T07:59:39.452Z</time></trkpt><trkpt lat="46.017375" lon="13.1525483"><ele>75.33333333333333</ele><time>2026-03-22T07:59:40.452Z</time></trkpt><trkpt lat="46.017315" lon="13.1523433"><ele>75.66666666666666</ele><time>2026-03-22T07:59:41.453Z</time></trkpt><trkpt lat="46.0172533" lon="13.1521333"><ele>76.0</ele><time>2026-03-22T07:59:42.452Z</time></trkpt><trkpt lat="46.0171917" lon="13.1519283"><ele>76.0</ele><time>2026-03-22T07:59:43.451Z</time></trkpt><trkpt lat="46.01713" lon="13.1517283"><ele>76.0</ele><time>2026-03-22T07:59:44.451Z</time></trkpt><trkpt lat="46.01707" lon="13.1515233"><ele>76.0</ele><time>2026-03-22T07:59:45.451Z</time></trkpt><trkpt lat="46.0170117" lon="13.1513217"><ele>75.66666666666666</ele><time>2026-03-22T07:59:46.453Z</time></trkpt><trkpt lat="46.0169533" lon="13.151115"><ele>75.33333333333333</ele><time>2026-03-22T07:59:47.451Z</time></trkpt><trkpt lat="46.016895" lon="13.1509133"><ele>75.0</ele><time>2026-03-22T07:59:48.451Z</time></trkpt><trkpt lat="46.0168383" lon="13.1507117"><ele>74.66666666666667</ele><time>2026-03-22T07:59:49.451Z</time></trkpt><trkpt lat="46.0167783" lon="13.1505083"><ele>74.33333333333334</ele><time>2026-03-22T07:59:50.451Z</time></trkpt><trkpt lat="46.0167167" lon="13.1503017"><ele>74.0</ele><time>2026-03-22T07:59:51.453Z</time></trkpt><trkpt lat="46.016655" lon="13.1500917"><ele>74.0</ele><time>2026-03-22T07:59:52.451Z</time></trkpt><trkpt lat="46.0165933" lon="13.14988"><ele>74.0</ele><time>2026-03-22T07:59:53.451Z</time></trkpt><trkpt lat="46.01653" lon="13.14967"><ele>74.0</ele><time>2026-03-22T07:59:54.451Z</time></trkpt><trkpt lat="46.0164667" lon="13.149455"><ele>74.33333333333334</ele><time>2026-03-22T07:59:55.451Z</time></trkpt><trkpt lat="46.0164017" lon="13.1492333"><ele>74.66666666666667</ele><time>2026-03-22T07:59:56.451Z</time></trkpt><trkpt lat="46.0163383" lon="13.1490067"><ele>75.0</ele><time>2026-03-22T07:59:57.452Z</time></trkpt><trkpt lat="46.0162733" lon="13.1487783"><ele>75.0</ele><time>2026-03-22T07:59:58.452Z</time></trkpt><trkpt lat="46.0162083" lon="13.1485517"><ele>75.0</ele><time>2026-03-22T07:59:59.452Z</time></trkpt><trkpt lat="46.0161433" lon="13.14833"><ele>75.0</ele><time>2026-03-22T08:00:00.451Z</time></trkpt><trkpt lat="46.0160783" lon="13.14811"><ele>75.33333333333333</ele><time>2026-03-22T08:00:01.454Z</time></trkpt><trkpt lat="46.0160133" lon="13.14789"><ele>75.66666666666666</ele><time>2026-03-22T08:00:02.452Z</time></trkpt><trkpt lat="46.01595" lon="13.1476617"><ele>76.0</ele><time>2026-03-22T08:00:03.453Z</time></trkpt><trkpt lat="46.0158833" lon="13.147425"><ele>75.33333333333333</ele><time>2026-03-22T08:00:04.453Z</time></trkpt><trkpt lat="46.0158167" lon="13.147185"><ele>74.66666666666667</ele><time>2026-03-22T08:00:05.453Z</time></trkpt><trkpt lat="46.01575" lon="13.1469467"><ele>74.0</ele><time>2026-03-22T08:00:06.453Z</time></trkpt><trkpt lat="46.015685" lon="13.1467133"><ele>74.0</ele><time>2026-03-22T08:00:07.455Z</time></trkpt><trkpt lat="46.0156183" lon="13.1464833"><ele>74.0</ele><time>2026-03-22T08:00:08.453Z</time></trkpt><trkpt lat="46.0155483" lon="13.1462567"><ele>74.0</ele><time>2026-03-22T08:00:09.452Z</time></trkpt><trkpt lat="46.0154783" lon="13.1460233"><ele>74.0</ele><time>2026-03-22T08:00:10.452Z</time></trkpt><trkpt lat="46.0154083" lon="13.1457883"><ele>74.0</ele><time>2026-03-22T08:00:11.452Z</time></trkpt><trkpt lat="46.0153417" lon="13.1455567"><ele>74.0</ele><time>2026-03-22T08:00:12.454Z</time></trkpt><trkpt lat="46.0152767" lon="13.1453267"><ele>74.66666666666667</ele><time>2026-03-22T08:00:13.452Z</time></trkpt><trkpt lat="46.0152083" lon="13.1450967"><ele>75.33333333333333</ele><time>2026-03-22T08:00:14.451Z</time></trkpt><trkpt lat="46.0151417" lon="13.1448633"><ele>76.0</ele><time>2026-03-22T08:00:15.451Z</time></trkpt><trkpt lat="46.0150733" lon="13.1446283"><ele>76.0</ele><time>2026-03-22T08:00:16.452Z</time></trkpt><trkpt lat="46.0150017" lon="13.1443933"><ele>76.0</ele><time>2026-03-22T08:00:17.451Z</time></trkpt><trkpt lat="46.014935" lon="13.1441567"><ele>76.0</ele><time>2026-03-22T08:00:18.451Z</time></trkpt><trkpt lat="46.0148683" lon="13.1439233"><ele>75.0</ele><time>2026-03-22T08:00:19.45Z</time></trkpt><trkpt lat="46.0148017" lon="13.1436867"><ele>74.0</ele><time>2026-03-22T08:00:20.451Z</time></trkpt><trkpt lat="46.0147333" lon="13.1434533"><ele>73.0</ele><time>2026-03-22T08:00:21.453Z</time></trkpt><trkpt lat="46.0146633" lon="13.1432217"><ele>73.33333333333333</ele><time>2026-03-22T08:00:22.45Z</time></trkpt><trkpt lat="46.0145967" lon="13.1429833"><ele>73.66666666666667</ele><time>2026-03-22T08:00:23.451Z</time></trkpt><trkpt lat="46.0145283" lon="13.142745"><ele>74.0</ele><time>2026-03-22T08:00:24.452Z</time></trkpt><trkpt lat="46.0144583" lon="13.1425083"><ele>74.33333333333334</ele><time>2026-03-22T08:00:25.45Z</time></trkpt><trkpt lat="46.01439" lon="13.1422733"><ele>74.66666666666667</ele><time>2026-03-22T08:00:26.451Z</time></trkpt><trkpt lat="46.0143217" lon="13.142035"><ele>75.0</ele><time>2026-03-22T08:00:27.453Z</time></trkpt><trkpt lat="46.0142517" lon="13.1417933"><ele>75.33333333333333</ele><time>2026-03-22T08:00:28.452Z</time></trkpt><trkpt lat="46.01418" lon="13.1415483"><ele>75.66666666666666</ele><time>2026-03-22T08:00:29.452Z</time></trkpt><trkpt lat="46.0141083" lon="13.1413033"><ele>76.0</ele><time>2026-03-22T08:00:30.452Z</time></trkpt><trkpt lat="46.01404" lon="13.1410517"><ele>76.0</ele><time>2026-03-22T08:00:31.454Z</time></trkpt><trkpt lat="46.01397" lon="13.1407983"><ele>76.0</ele><time>2026-03-22T08:00:32.452Z</time></trkpt><trkpt lat="46.0138917" lon="13.1405483"><ele>76.0</ele><time>2026-03-22T08:00:33.453Z</time></trkpt><trkpt lat="46.0138217" lon="13.140295"><ele>76.0</ele><time>2026-03-22T08:00:34.45Z</time></trkpt><trkpt lat="46.0137467" lon="13.14004"><ele>76.0</ele><time>2026-03-22T08:00:35.452Z</time></trkpt><trkpt lat="46.013675" lon="13.13979"><ele>76.0</ele><time>2026-03-22T08:00:36.453Z</time></trkpt><trkpt lat="46.0136033" lon="13.1395567"><ele>76.0</ele><time>2026-03-22T08:00:37.451Z</time></trkpt><trkpt lat="46.0135467" lon="13.1393367"><ele>76.0</ele><time>2026-03-22T08:00:38.45Z</time></trkpt><trkpt lat="46.01349" lon="13.13914"><ele>76.0</ele><time>2026-03-22T08:00:39.452Z</time></trkpt><trkpt lat="46.0134383" lon="13.1389533"><ele>75.5</ele><time>2026-03-22T08:00:40.451Z</time></trkpt><trkpt lat="46.0133933" lon="13.1387767"><ele>75.0</ele><time>2026-03-22T08:00:41.451Z</time></trkpt><trkpt lat="46.0133567" lon="13.1386067"><ele>74.5</ele><time>2026-03-22T08:00:42.451Z</time></trkpt><trkpt lat="46.013345" lon="13.13844"><ele>74.0</ele><time>2026-03-22T08:00:43.451Z</time></trkpt><trkpt lat="46.0133583" lon="13.1382867"><ele>73.8</ele><time>2026-03-22T08:00:44.453Z</time></trkpt><trkpt lat="46.01336" lon="13.138145"><ele>73.60000000000001</ele><time>2026-03-22T08:00:45.451Z</time></trkpt><trkpt lat="46.01334" lon="13.13802"><ele>73.4</ele><time>2026-03-22T08:00:46.45Z</time></trkpt><trkpt lat="46.0132917" lon="13.137915"><ele>73.2</ele><time>2026-03-22T08:00:47.45Z</time></trkpt><trkpt lat="46.0132183" lon="13.1378283"><ele>73.0</ele><time>2026-03-22T08:00:48.45Z</time></trkpt><trkpt lat="46.0131317" lon="13.1377317"><ele>73.0</ele><time>2026-03-22T08:00:49.451Z</time></trkpt><trkpt lat="46.013055" lon="13.1375917"><ele>73.0</ele><time>2026-03-22T08:00:50.451Z</time></trkpt><trkpt lat="46.012985" lon="13.137405"><ele>73.0</ele><time>2026-03-22T08:00:51.45Z</time></trkpt><trkpt lat="46.01292" lon="13.1371883"><ele>73.0</ele><time>2026-03-22T08:00:52.451Z</time></trkpt><trkpt lat="46.0128583" lon="13.1369683"><ele>73.0</ele><time>2026-03-22T08:00:53.45Z</time></trkpt><trkpt lat="46.0127933" lon="13.1367517"><ele>73.0</ele><time>2026-03-22T08:00:54.451Z</time></trkpt><trkpt lat="46.0127283" lon="13.1365333"><ele>73.0</ele><time>2026-03-22T08:00:55.451Z</time></trkpt><trkpt lat="46.0126583" lon="13.1363067"><ele>73.33333333333333</ele><time>2026-03-22T08:00:56.45Z</time></trkpt><trkpt lat="46.012585" lon="13.1360683"><ele>73.66666666666667</ele><time>2026-03-22T08:00:57.451Z</time></trkpt><trkpt lat="46.0125083" lon="13.135815"><ele>74.0</ele><time>2026-03-22T08:00:58.451Z</time></trkpt><trkpt lat="46.0124333" lon="13.135555"><ele>74.0</ele><time>2026-03-22T08:00:59.452Z</time></trkpt><trkpt lat="46.01236" lon="13.1353017"><ele>74.0</ele><time>2026-03-22T08:01:00.45Z</time></trkpt><trkpt lat="46.0122883" lon="13.1350417"><ele>74.0</ele><time>2026-03-22T08:01:01.452Z</time></trkpt><trkpt lat="46.0122133" lon="13.134775"><ele>74.0</ele><time>2026-03-22T08:01:02.453Z</time></trkpt><trkpt lat="46.0121367" lon="13.1344967"><ele>74.0</ele><time>2026-03-22T08:01:03.454Z</time></trkpt><trkpt lat="46.012055" lon="13.1342133"><ele>74.0</ele><time>2026-03-22T08:01:04.451Z</time></trkpt><trkpt lat="46.0119717" lon="13.13392"><ele>73.0</ele><time>2026-03-22T08:01:05.452Z</time></trkpt><trkpt lat="46.0118817" lon="13.1336183"><ele>72.0</ele><time>2026-03-22T08:01:06.452Z</time></trkpt><trkpt lat="46.0117883" lon="13.1333"><ele>72.0</ele><time>2026-03-22T08:01:07.453Z</time></trkpt><trkpt lat="46.0116933" lon="13.1329833"><ele>72.0</ele><time>2026-03-22T08:01:08.453Z</time></trkpt><trkpt lat="46.011605" lon="13.1326717"><ele>71.5</ele><time>2026-03-22T08:01:09.453Z</time></trkpt><trkpt lat="46.0115133" lon="13.1323667"><ele>71.0</ele><time>2026-03-22T08:01:10.452Z</time></trkpt><trkpt lat="46.0114217" lon="13.1320567"><ele>71.0</ele><time>2026-03-22T08:01:11.453Z</time></trkpt><trkpt lat="46.0113333" lon="13.13175"><ele>71.0</ele><time>2026-03-22T08:01:12.452Z</time></trkpt><trkpt lat="46.0112483" lon="13.1314533"><ele>71.0</ele><time>2026-03-22T08:01:13.451Z</time></trkpt><trkpt lat="46.0111683" lon="13.13117"><ele>71.0</ele><time>2026-03-22T08:01:14.451Z</time></trkpt><trkpt lat="46.01109" lon="13.130895"><ele>71.0</ele><time>2026-03-22T08:01:15.455Z</time></trkpt><trkpt lat="46.0110083" lon="13.1306233"><ele>71.66666666666667</ele><time>2026-03-22T08:01:16.452Z</time></trkpt><trkpt lat="46.0109317" lon="13.1303433"><ele>72.33333333333333</ele><time>2026-03-22T08:01:17.452Z</time></trkpt><trkpt lat="46.0108483" lon="13.130065"><ele>73.0</ele><time>2026-03-22T08:01:18.453Z</time></trkpt><trkpt lat="46.0107617" lon="13.129785"><ele>73.0</ele><time>2026-03-22T08:01:19.452Z</time></trkpt><trkpt lat="46.0106767" lon="13.129505"><ele>73.0</ele><time>2026-03-22T08:01:20.453Z</time></trkpt><trkpt lat="46.010595" lon="13.1292283"><ele>73.0</ele><time>2026-03-22T08:01:21.453Z</time></trkpt><trkpt lat="46.0105133" lon="13.12895"><ele>72.33333333333333</ele><time>2026-03-22T08:01:22.452Z</time></trkpt><trkpt lat="46.01043" lon="13.1286733"><ele>71.66666666666667</ele><time>2026-03-22T08:01:23.452Z</time></trkpt><trkpt lat="46.01035" lon="13.1283983"><ele>71.0</ele><time>2026-03-22T08:01:24.453Z</time></trkpt><trkpt lat="46.0102733" lon="13.12813"><ele>71.0</ele><time>2026-03-22T08:01:25.451Z</time></trkpt><trkpt lat="46.0102" lon="13.1278767"><ele>71.0</ele><time>2026-03-22T08:01:26.451Z</time></trkpt><trkpt lat="46.0101283" lon="13.1276383"><ele>71.0</ele><time>2026-03-22T08:01:27.451Z</time></trkpt><trkpt lat="46.0100617" lon="13.1274067"><ele>71.33333333333334</ele><time>2026-03-22T08:01:28.452Z</time></trkpt><trkpt lat="46.009995" lon="13.1271783"><ele>71.66666666666667</ele><time>2026-03-22T08:01:29.452Z</time></trkpt><trkpt lat="46.009925" lon="13.1269467"><ele>72.0</ele><time>2026-03-22T08:01:30.451Z</time></trkpt><trkpt lat="46.009855" lon="13.12672"><ele>71.75</ele><time>2026-03-22T08:01:31.453Z</time></trkpt><trkpt lat="46.0098017" lon="13.1265033"><ele>71.5</ele><time>2026-03-22T08:01:32.452Z</time></trkpt><trkpt lat="46.0097533" lon="13.1263033"><ele>71.25</ele><time>2026-03-22T08:01:33.454Z</time></trkpt><trkpt lat="46.009715" lon="13.1261233"><ele>71.0</ele><time>2026-03-22T08:01:34.453Z</time></trkpt><trkpt lat="46.00969" lon="13.125955"><ele>71.0</ele><time>2026-03-22T08:01:35.452Z</time></trkpt><trkpt lat="46.0096817" lon="13.1257933"><ele>71.0</ele><time>2026-03-22T08:01:36.452Z</time></trkpt><trkpt lat="46.009695" lon="13.1256467"><ele>71.0</ele><time>2026-03-22T08:01:37.452Z</time></trkpt><trkpt lat="46.00969" lon="13.1255067"><ele>71.0</ele><time>2026-03-22T08:01:38.452Z</time></trkpt><trkpt lat="46.009655" lon="13.125385"><ele>71.0</ele><time>2026-03-22T08:01:39.453Z</time></trkpt><trkpt lat="46.0095883" lon="13.1252883"><ele>71.0</ele><time>2026-03-22T08:01:40.452Z</time></trkpt><trkpt lat="46.0095083" lon="13.1252083"><ele>71.0</ele><time>2026-03-22T08:01:41.45Z</time></trkpt><trkpt lat="46.0094317" lon="13.125115"><ele>71.0</ele><time>2026-03-22T08:01:42.452Z</time></trkpt><trkpt lat="46.0093733" lon="13.1249883"><ele>71.0</ele><time>2026-03-22T08:01:43.451Z</time></trkpt><trkpt lat="46.0093217" lon="13.1248317"><ele>71.0</ele><time>2026-03-22T08:01:44.451Z</time></trkpt><trkpt lat="46.0092667" lon="13.1246567"><ele>71.0</ele><time>2026-03-22T08:01:45.452Z</time></trkpt><trkpt lat="46.0092067" lon="13.1244583"><ele>71.0</ele><time>2026-03-22T08:01:46.452Z</time></trkpt><trkpt lat="46.0091433" lon="13.12424"><ele>71.0</ele><time>2026-03-22T08:01:47.452Z</time></trkpt><trkpt lat="46.0090767" lon="13.124005"><ele>70.66666666666667</ele><time>2026-03-22T08:01:48.451Z</time></trkpt><trkpt lat="46.0090017" lon="13.1237533"><ele>70.33333333333333</ele><time>2026-03-22T08:01:49.452Z</time></trkpt><trkpt lat="46.0089233" lon="13.1234933"><ele>70.0</ele><time>2026-03-22T08:01:50.452Z</time></trkpt><trkpt lat="46.0088467" lon="13.1232283"><ele>69.66666666666666</ele><time>2026-03-22T08:01:51.451Z</time></trkpt><trkpt lat="46.0087683" lon="13.1229633"><ele>69.33333333333333</ele><time>2026-03-22T08:01:52.451Z</time></trkpt><trkpt lat="46.0086917" lon="13.1226983"><ele>69.0</ele><time>2026-03-22T08:01:53.452Z</time></trkpt><trkpt lat="46.008615" lon="13.1224317"><ele>69.0</ele><time>2026-03-22T08:01:54.45Z</time></trkpt><trkpt lat="46.0085383" lon="13.1221683"><ele>69.0</ele><time>2026-03-22T08:01:55.45Z</time></trkpt><trkpt lat="46.008465" lon="13.1219033"><ele>69.0</ele><time>2026-03-22T08:01:56.451Z</time></trkpt><trkpt lat="46.0083867" lon="13.12164"><ele>67.66666666666667</ele><time>2026-03-22T08:01:57.452Z</time></trkpt><trkpt lat="46.0083083" lon="13.12138"><ele>66.33333333333334</ele><time>2026-03-22T08:01:58.451Z</time></trkpt><trkpt lat="46.0082317" lon="13.1211217"><ele>65.0</ele><time>2026-03-22T08:01:59.452Z</time></trkpt><trkpt lat="46.008155" lon="13.12086"><ele>65.66666666666667</ele><time>2026-03-22T08:02:00.453Z</time></trkpt><trkpt lat="46.0080767" lon="13.1205917"><ele>66.33333333333333</ele><time>2026-03-22T08:02:01.45Z</time></trkpt><trkpt lat="46.0079967" lon="13.12032"><ele>67.0</ele><time>2026-03-22T08:02:02.454Z</time></trkpt><trkpt lat="46.0079183" lon="13.12005"><ele>66.66666666666666</ele><time>2026-03-22T08:02:03.451Z</time></trkpt><trkpt lat="46.0078383" lon="13.11978"><ele>66.33333333333333</ele><time>2026-03-22T08:02:04.451Z</time></trkpt><trkpt lat="46.0077567" lon="13.11951"><ele>66.0</ele><time>2026-03-22T08:02:05.451Z</time></trkpt><trkpt lat="46.00768" lon="13.11924"><ele>65.66666666666667</ele><time>2026-03-22T08:02:06.451Z</time></trkpt><trkpt lat="46.0076033" lon="13.1189683"><ele>65.33333333333334</ele><time>2026-03-22T08:02:07.449Z</time></trkpt><trkpt lat="46.00753" lon="13.1187"><ele>65.0</ele><time>2026-03-22T08:02:08.451Z</time></trkpt><trkpt lat="46.007455" lon="13.118435"><ele>64.33333333333334</ele><time>2026-03-22T08:02:09.451Z</time></trkpt><trkpt lat="46.0073783" lon="13.1181717"><ele>63.66666666666667</ele><time>2026-03-22T08:02:10.45Z</time></trkpt><trkpt lat="46.0073033" lon="13.1179117"><ele>63.0</ele><time>2026-03-22T08:02:11.45Z</time></trkpt><trkpt lat="46.00723" lon="13.11766"><ele>63.0</ele><time>2026-03-22T08:02:12.452Z</time></trkpt><trkpt lat="46.00716" lon="13.11742"><ele>63.0</ele><time>2026-03-22T08:02:13.451Z</time></trkpt><trkpt lat="46.007095" lon="13.117185"><ele>63.0</ele><time>2026-03-22T08:02:14.451Z</time></trkpt><trkpt lat="46.0070267" lon="13.1169533"><ele>63.33333333333333</ele><time>2026-03-22T08:02:15.452Z</time></trkpt><trkpt lat="46.0069567" lon="13.1167267"><ele>63.666666666666664</ele><time>2026-03-22T08:02:16.451Z</time></trkpt><trkpt lat="46.006895" lon="13.1165033"><ele>64.0</ele><time>2026-03-22T08:02:17.452Z</time></trkpt><trkpt lat="46.0068333" lon="13.116295"><ele>64.0</ele><time>2026-03-22T08:02:18.45Z</time></trkpt><trkpt lat="46.0067817" lon="13.1160967"><ele>64.0</ele><time>2026-03-22T08:02:19.452Z</time></trkpt><trkpt lat="46.0067267" lon="13.1159067"><ele>64.0</ele><time>2026-03-22T08:02:20.451Z</time></trkpt><trkpt lat="46.0066767" lon="13.1157267"><ele>64.0</ele><time>2026-03-22T08:02:21.45Z</time></trkpt><trkpt lat="46.0066317" lon="13.1155617"><ele>63.6</ele><time>2026-03-22T08:02:22.451Z</time></trkpt><trkpt lat="46.0066033" lon="13.1154083"><ele>63.2</ele><time>2026-03-22T08:02:23.453Z</time></trkpt><trkpt lat="46.0065917" lon="13.1152617"><ele>62.800000000000004</ele><time>2026-03-22T08:02:24.451Z</time></trkpt><trkpt lat="46.0066067" lon="13.1151167"><ele>62.400000000000006</ele><time>2026-03-22T08:02:25.451Z</time></trkpt><trkpt lat="46.0066083" lon="13.1149817"><ele>62.0</ele><time>2026-03-22T08:02:26.451Z</time></trkpt><trkpt lat="46.0065817" lon="13.1148583"><ele>62.0</ele><time>2026-03-22T08:02:27.451Z</time></trkpt><trkpt lat="46.0065233" lon="13.1147467"><ele>62.0</ele><time>2026-03-22T08:02:28.452Z</time></trkpt><trkpt lat="46.006445" lon="13.1146533"><ele>62.0</ele><time>2026-03-22T08:02:29.451Z</time></trkpt><trkpt lat="46.0063667" lon="13.1145483"><ele>62.0</ele><time>2026-03-22T08:02:30.451Z</time></trkpt><trkpt lat="46.0062917" lon="13.11441"><ele>62.0</ele><time>2026-03-22T08:02:31.451Z</time></trkpt><trkpt lat="46.0062283" lon="13.1142417"><ele>62.0</ele><time>2026-03-22T08:02:32.451Z</time></trkpt><trkpt lat="46.0061733" lon="13.1140483"><ele>62.0</ele><time>2026-03-22T08:02:33.452Z</time></trkpt><trkpt lat="46.006115" lon="13.113835"><ele>62.0</ele><time>2026-03-22T08:02:34.452Z</time></trkpt><trkpt lat="46.0060483" lon="13.1136"><ele>62.0</ele><time>2026-03-22T08:02:35.451Z</time></trkpt><trkpt lat="46.005975" lon="13.1133433"><ele>62.0</ele><time>2026-03-22T08:02:36.451Z</time></trkpt><trkpt lat="46.0058967" lon="13.113065"><ele>62.0</ele><time>2026-03-22T08:02:37.452Z</time></trkpt><trkpt lat="46.0058083" lon="13.1127633"><ele>62.0</ele><time>2026-03-22T08:02:38.45Z</time></trkpt><trkpt lat="46.0057133" lon="13.112455"><ele>62.0</ele><time>2026-03-22T08:02:39.451Z</time></trkpt><trkpt lat="46.0056217" lon="13.1121517"><ele>63.0</ele><time>2026-03-22T08:02:40.451Z</time></trkpt><trkpt lat="46.0055333" lon="13.1118417"><ele>64.0</ele><time>2026-03-22T08:02:41.451Z</time></trkpt><trkpt lat="46.0054417" lon="13.111535"><ele>64.0</ele><time>2026-03-22T08:02:42.45Z</time></trkpt><trkpt lat="46.00535" lon="13.11123"><ele>64.0</ele><time>2026-03-22T08:02:43.452Z</time></trkpt><trkpt lat="46.0052617" lon="13.1109333"><ele>64.0</ele><time>2026-03-22T08:02:44.452Z</time></trkpt><trkpt lat="46.0051733" lon="13.1106383"><ele>64.0</ele><time>2026-03-22T08:02:45.451Z</time></trkpt><trkpt lat="46.005085" lon="13.110355"><ele>64.0</ele><time>2026-03-22T08:02:46.451Z</time></trkpt><trkpt lat="46.0050033" lon="13.1100833"><ele>63.33333333333333</ele><time>2026-03-22T08:02:47.45Z</time></trkpt><trkpt lat="46.0049283" lon="13.1098233"><ele>62.66666666666667</ele><time>2026-03-22T08:02:48.451Z</time></trkpt><trkpt lat="46.0048567" lon="13.1095783"><ele>62.0</ele><time>2026-03-22T08:02:49.451Z</time></trkpt><trkpt lat="46.00479" lon="13.109345"><ele>62.0</ele><time>2026-03-22T08:02:50.451Z</time></trkpt><trkpt lat="46.0047267" lon="13.109115"><ele>62.0</ele><time>2026-03-22T08:02:51.45Z</time></trkpt><trkpt lat="46.004665" lon="13.1088883"><ele>62.0</ele><time>2026-03-22T08:02:52.452Z</time></trkpt><trkpt lat="46.0045983" lon="13.1086583"><ele>62.333333333333336</ele><time>2026-03-22T08:02:53.451Z</time></trkpt><trkpt lat="46.0045317" lon="13.1084267"><ele>62.66666666666667</ele><time>2026-03-22T08:02:54.451Z</time></trkpt><trkpt lat="46.0044617" lon="13.1081867"><ele>63.0</ele><time>2026-03-22T08:02:55.451Z</time></trkpt><trkpt lat="46.00439" lon="13.1079417"><ele>63.33333333333333</ele><time>2026-03-22T08:02:56.452Z</time></trkpt><trkpt lat="46.0043133" lon="13.1076917"><ele>63.666666666666664</ele><time>2026-03-22T08:02:57.451Z</time></trkpt><trkpt lat="46.0042333" lon="13.1074333"><ele>64.0</ele><time>2026-03-22T08:02:58.453Z</time></trkpt><trkpt lat="46.004155" lon="13.1071683"><ele>64.0</ele><time>2026-03-22T08:02:59.452Z</time></trkpt><trkpt lat="46.00408" lon="13.1068983"><ele>64.0</ele><time>2026-03-22T08:03:00.45Z</time></trkpt><trkpt lat="46.004" lon="13.1066233"><ele>64.0</ele><time>2026-03-22T08:03:01.451Z</time></trkpt><trkpt lat="46.0039183" lon="13.1063483"><ele>64.0</ele><time>2026-03-22T08:03:02.45Z</time></trkpt><trkpt lat="46.0038367" lon="13.1060717"><ele>64.0</ele><time>2026-03-22T08:03:03.451Z</time></trkpt><trkpt lat="46.0037583" lon="13.1058"><ele>64.0</ele><time>2026-03-22T08:03:04.452Z</time></trkpt><trkpt lat="46.0036833" lon="13.1055383"><ele>63.666666666666664</ele><time>2026-03-22T08:03:05.451Z</time></trkpt><trkpt lat="46.00361" lon="13.1052867"><ele>63.33333333333333</ele><time>2026-03-22T08:03:06.451Z</time></trkpt><trkpt lat="46.0035383" lon="13.1050367"><ele>63.0</ele><time>2026-03-22T08:03:07.45Z</time></trkpt><trkpt lat="46.0034683" lon="13.1047867"><ele>63.0</ele><time>2026-03-22T08:03:08.45Z</time></trkpt><trkpt lat="46.0033967" lon="13.1045317"><ele>63.0</ele><time>2026-03-22T08:03:09.453Z</time></trkpt><trkpt lat="46.0033233" lon="13.104275"><ele>63.0</ele><time>2026-03-22T08:03:10.453Z</time></trkpt><trkpt lat="46.0032467" lon="13.1040167"><ele>63.0</ele><time>2026-03-22T08:03:11.451Z</time></trkpt><trkpt lat="46.0031717" lon="13.1037533"><ele>63.0</ele><time>2026-03-22T08:03:12.452Z</time></trkpt><trkpt lat="46.0030933" lon="13.10348"><ele>63.0</ele><time>2026-03-22T08:03:13.452Z</time></trkpt><trkpt lat="46.0030117" lon="13.10321"><ele>62.66666666666667</ele><time>2026-03-22T08:03:14.451Z</time></trkpt><trkpt lat="46.0029367" lon="13.10294"><ele>62.333333333333336</ele><time>2026-03-22T08:03:15.451Z</time></trkpt><trkpt lat="46.0028567" lon="13.1026667"><ele>62.0</ele><time>2026-03-22T08:03:16.452Z</time></trkpt><trkpt lat="46.00278" lon="13.1023917"><ele>62.0</ele><time>2026-03-22T08:03:17.451Z</time></trkpt><trkpt lat="46.0026967" lon="13.102115"><ele>62.0</ele><time>2026-03-22T08:03:18.451Z</time></trkpt><trkpt lat="46.002615" lon="13.1018317"><ele>62.0</ele><time>2026-03-22T08:03:19.451Z</time></trkpt><trkpt lat="46.0025283" lon="13.1015433"><ele>62.0</ele><time>2026-03-22T08:03:20.453Z</time></trkpt><trkpt lat="46.0024433" lon="13.1012517"><ele>62.0</ele><time>2026-03-22T08:03:21.453Z</time></trkpt><trkpt lat="46.0023567" lon="13.1009583"><ele>62.0</ele><time>2026-03-22T08:03:22.459Z</time></trkpt><trkpt lat="46.0022733" lon="13.1006683"><ele>62.0</ele><time>2026-03-22T08:03:23.453Z</time></trkpt><trkpt lat="46.0021883" lon="13.100385"><ele>62.0</ele><time>2026-03-22T08:03:24.453Z</time></trkpt><trkpt lat="46.002105" lon="13.100095"><ele>62.0</ele><time>2026-03-22T08:03:25.453Z</time></trkpt><trkpt lat="46.0020183" lon="13.099805"><ele>62.333333333333336</ele><time>2026-03-22T08:03:26.452Z</time></trkpt><trkpt lat="46.001935" lon="13.0995117"><ele>62.66666666666667</ele><time>2026-03-22T08:03:27.452Z</time></trkpt><trkpt lat="46.0018517" lon="13.09922"><ele>63.0</ele><time>2026-03-22T08:03:28.453Z</time></trkpt><trkpt lat="46.0017667" lon="13.09893"><ele>63.0</ele><time>2026-03-22T08:03:29.451Z</time></trkpt><trkpt lat="46.0016833" lon="13.098645"><ele>63.0</ele><time>2026-03-22T08:03:30.451Z</time></trkpt><trkpt lat="46.0016033" lon="13.098365"><ele>63.0</ele><time>2026-03-22T08:03:31.452Z</time></trkpt><trkpt lat="46.0015217" lon="13.098085"><ele>63.0</ele><time>2026-03-22T08:03:32.451Z</time></trkpt><trkpt lat="46.0014417" lon="13.0978083"><ele>63.0</ele><time>2026-03-22T08:03:33.451Z</time></trkpt><trkpt lat="46.0013583" lon="13.09753"><ele>63.0</ele><time>2026-03-22T08:03:34.451Z</time></trkpt><trkpt lat="46.001275" lon="13.097255"><ele>63.0</ele><time>2026-03-22T08:03:35.451Z</time></trkpt><trkpt lat="46.001195" lon="13.096975"><ele>63.0</ele><time>2026-03-22T08:03:36.452Z</time></trkpt><trkpt lat="46.0011133" lon="13.0966933"><ele>63.0</ele><time>2026-03-22T08:03:37.45Z</time></trkpt><trkpt lat="46.00103" lon="13.096405"><ele>63.0</ele><time>2026-03-22T08:03:38.453Z</time></trkpt><trkpt lat="46.0009467" lon="13.096115"><ele>63.0</ele><time>2026-03-22T08:03:39.451Z</time></trkpt><trkpt lat="46.0008583" lon="13.0958233"><ele>63.0</ele><time>2026-03-22T08:03:40.451Z</time></trkpt><trkpt lat="46.0007733" lon="13.0955317"><ele>63.33333333333333</ele><time>2026-03-22T08:03:41.45Z</time></trkpt><trkpt lat="46.0006883" lon="13.0952383"><ele>63.666666666666664</ele><time>2026-03-22T08:03:42.451Z</time></trkpt><trkpt lat="46.0006017" lon="13.09495"><ele>64.0</ele><time>2026-03-22T08:03:43.452Z</time></trkpt><trkpt lat="46.000515" lon="13.0946617"><ele>64.0</ele><time>2026-03-22T08:03:44.452Z</time></trkpt><trkpt lat="46.0004283" lon="13.0943767"><ele>64.0</ele><time>2026-03-22T08:03:45.452Z</time></trkpt><trkpt lat="46.000345" lon="13.0940883"><ele>64.0</ele><time>2026-03-22T08:03:46.451Z</time></trkpt><trkpt lat="46.0002617" lon="13.0937967"><ele>63.666666666666664</ele><time>2026-03-22T08:03:47.452Z</time></trkpt><trkpt lat="46.0001783" lon="13.0935017"><ele>63.33333333333333</ele><time>2026-03-22T08:03:48.45Z</time></trkpt><trkpt lat="46.000095" lon="13.09321"><ele>63.0</ele><time>2026-03-22T08:03:49.451Z</time></trkpt><trkpt lat="46.0000117" lon="13.0929217"><ele>62.66666666666667</ele><time>2026-03-22T08:03:50.45Z</time></trkpt><trkpt lat="45.9999267" lon="13.0926333"><ele>62.333333333333336</ele><time>2026-03-22T08:03:51.454Z</time></trkpt><trkpt lat="45.9998467" lon="13.0923483"><ele>62.0</ele><time>2026-03-22T08:03:52.452Z</time></trkpt><trkpt lat="45.9997633" lon="13.0920667"><ele>61.66666666666667</ele><time>2026-03-22T08:03:53.451Z</time></trkpt><trkpt lat="45.999685" lon="13.091785"><ele>61.33333333333333</ele><time>2026-03-22T08:03:54.451Z</time></trkpt><trkpt lat="45.999605" lon="13.0915033"><ele>61.0</ele><time>2026-03-22T08:03:55.45Z</time></trkpt><trkpt lat="45.999525" lon="13.0912283"><ele>61.0</ele><time>2026-03-22T08:03:56.452Z</time></trkpt><trkpt lat="45.999445" lon="13.0909467"><ele>61.0</ele><time>2026-03-22T08:03:57.452Z</time></trkpt><trkpt lat="45.999365" lon="13.0906717"><ele>61.0</ele><time>2026-03-22T08:03:58.453Z</time></trkpt><trkpt lat="45.9992817" lon="13.0903983"><ele>61.0</ele><time>2026-03-22T08:03:59.451Z</time></trkpt><trkpt lat="45.9992033" lon="13.0901233"><ele>61.0</ele><time>2026-03-22T08:04:00.451Z</time></trkpt><trkpt lat="45.9991233" lon="13.0898517"><ele>61.0</ele><time>2026-03-22T08:04:01.452Z</time></trkpt><trkpt lat="45.9990417" lon="13.08958"><ele>61.0</ele><time>2026-03-22T08:04:02.451Z</time></trkpt><trkpt lat="45.99896" lon="13.08931"><ele>61.0</ele><time>2026-03-22T08:04:03.452Z</time></trkpt><trkpt lat="45.99888" lon="13.0890417"><ele>61.0</ele><time>2026-03-22T08:04:04.45Z</time></trkpt><trkpt lat="45.9988" lon="13.0887733"><ele>61.0</ele><time>2026-03-22T08:04:05.451Z</time></trkpt><trkpt lat="45.9987217" lon="13.0885067"><ele>61.0</ele><time>2026-03-22T08:04:06.451Z</time></trkpt><trkpt lat="45.998645" lon="13.08824"><ele>61.0</ele><time>2026-03-22T08:04:07.452Z</time></trkpt><trkpt lat="45.998565" lon="13.0879717"><ele>61.0</ele><time>2026-03-22T08:04:08.45Z</time></trkpt><trkpt lat="45.998485" lon="13.0877033"><ele>61.0</ele><time>2026-03-22T08:04:09.45Z</time></trkpt><trkpt lat="45.998405" lon="13.0874383"><ele>61.0</ele><time>2026-03-22T08:04:10.452Z</time></trkpt><trkpt lat="45.9983267" lon="13.08717"><ele>61.0</ele><time>2026-03-22T08:04:11.451Z</time></trkpt><trkpt lat="45.99825" lon="13.086895"><ele>61.0</ele><time>2026-03-22T08:04:12.458Z</time></trkpt><trkpt lat="45.998175" lon="13.0866217"><ele>61.0</ele><time>2026-03-22T08:04:13.457Z</time></trkpt><trkpt lat="45.998095" lon="13.0863467"><ele>61.666666666666664</ele><time>2026-03-22T08:04:14.452Z</time></trkpt><trkpt lat="45.99802" lon="13.0860683"><ele>62.33333333333333</ele><time>2026-03-22T08:04:15.451Z</time></trkpt><trkpt lat="45.99794" lon="13.0857933"><ele>63.0</ele><time>2026-03-22T08:04:16.451Z</time></trkpt><trkpt lat="45.9978583" lon="13.085525"><ele>63.0</ele><time>2026-03-22T08:04:17.452Z</time></trkpt><trkpt lat="45.9977767" lon="13.085255"><ele>63.0</ele><time>2026-03-22T08:04:18.451Z</time></trkpt><trkpt lat="45.9976967" lon="13.08499"><ele>63.0</ele><time>2026-03-22T08:04:19.45Z</time></trkpt><trkpt lat="45.9976183" lon="13.0847217"><ele>63.0</ele><time>2026-03-22T08:04:20.452Z</time></trkpt><trkpt lat="45.9975417" lon="13.0844533"><ele>63.0</ele><time>2026-03-22T08:04:21.452Z</time></trkpt><trkpt lat="45.997465" lon="13.0841917"><ele>63.0</ele><time>2026-03-22T08:04:22.454Z</time></trkpt><trkpt lat="45.9973883" lon="13.0839317"><ele>62.66666666666667</ele><time>2026-03-22T08:04:23.452Z</time></trkpt><trkpt lat="45.9973133" lon="13.0836817"><ele>62.333333333333336</ele><time>2026-03-22T08:04:24.452Z</time></trkpt><trkpt lat="45.9972417" lon="13.08344"><ele>62.0</ele><time>2026-03-22T08:04:25.451Z</time></trkpt><trkpt lat="45.997175" lon="13.083205"><ele>62.0</ele><time>2026-03-22T08:04:26.452Z</time></trkpt><trkpt lat="45.9971133" lon="13.0829767"><ele>62.0</ele><time>2026-03-22T08:04:27.452Z</time></trkpt><trkpt lat="45.99705" lon="13.082755"><ele>62.0</ele><time>2026-03-22T08:04:28.452Z</time></trkpt><trkpt lat="45.9969883" lon="13.0825367"><ele>61.66666666666667</ele><time>2026-03-22T08:04:29.452Z</time></trkpt><trkpt lat="45.9969283" lon="13.0823217"><ele>61.33333333333333</ele><time>2026-03-22T08:04:30.452Z</time></trkpt><trkpt lat="45.99687" lon="13.0821133"><ele>61.0</ele><time>2026-03-22T08:04:31.451Z</time></trkpt><trkpt lat="45.99681" lon="13.0819067"><ele>61.0</ele><time>2026-03-22T08:04:32.451Z</time></trkpt><trkpt lat="45.9967367" lon="13.081705"><ele>61.0</ele><time>2026-03-22T08:04:33.45Z</time></trkpt><trkpt lat="45.99664" lon="13.0815117"><ele>61.0</ele><time>2026-03-22T08:04:34.451Z</time></trkpt><trkpt lat="45.9965383" lon="13.0813033"><ele>61.0</ele><time>2026-03-22T08:04:35.45Z</time></trkpt><trkpt lat="45.9964483" lon="13.08108"><ele>61.0</ele><time>2026-03-22T08:04:36.449Z</time></trkpt><trkpt lat="45.9963617" lon="13.080855"><ele>61.0</ele><time>2026-03-22T08:04:37.451Z</time></trkpt><trkpt lat="45.9962817" lon="13.0806167"><ele>61.0</ele><time>2026-03-22T08:04:38.449Z</time></trkpt><trkpt lat="45.9962017" lon="13.0803717"><ele>61.0</ele><time>2026-03-22T08:04:39.452Z</time></trkpt><trkpt lat="45.9961167" lon="13.080135"><ele>61.0</ele><time>2026-03-22T08:04:40.452Z</time></trkpt><trkpt lat="45.996025" lon="13.079905"><ele>61.0</ele><time>2026-03-22T08:04:41.451Z</time></trkpt><trkpt lat="45.9959367" lon="13.0796783"><ele>61.0</ele><time>2026-03-22T08:04:42.45Z</time></trkpt><trkpt lat="45.9958517" lon="13.07946"><ele>61.0</ele><time>2026-03-22T08:04:43.45Z</time></trkpt><trkpt lat="45.99577" lon="13.07924"><ele>60.666666666666664</ele><time>2026-03-22T08:04:44.45Z</time></trkpt><trkpt lat="45.9956883" lon="13.0790217"><ele>60.33333333333333</ele><time>2026-03-22T08:04:45.452Z</time></trkpt><trkpt lat="45.995595" lon="13.0788067"><ele>60.0</ele><time>2026-03-22T08:04:46.451Z</time></trkpt><trkpt lat="45.9955117" lon="13.0785917"><ele>60.0</ele><time>2026-03-22T08:04:47.45Z</time></trkpt><trkpt lat="45.9954333" lon="13.0783783"><ele>60.0</ele><time>2026-03-22T08:04:48.451Z</time></trkpt><trkpt lat="45.995365" lon="13.0781533"><ele>60.0</ele><time>2026-03-22T08:04:49.451Z</time></trkpt><trkpt lat="45.99534" lon="13.0779133"><ele>60.0</ele><time>2026-03-22T08:04:50.451Z</time></trkpt><trkpt lat="45.99531" lon="13.0776783"><ele>60.0</ele><time>2026-03-22T08:04:51.452Z</time></trkpt><trkpt lat="45.99528" lon="13.0774483"><ele>60.0</ele><time>2026-03-22T08:04:52.45Z</time></trkpt><trkpt lat="45.9952367" lon="13.0772167"><ele>60.0</ele><time>2026-03-22T08:04:53.451Z</time></trkpt><trkpt lat="45.9951917" lon="13.0769817"><ele>60.0</ele><time>2026-03-22T08:04:54.452Z</time></trkpt><trkpt lat="45.995145" lon="13.07674"><ele>60.0</ele><time>2026-03-22T08:04:55.45Z</time></trkpt><trkpt lat="45.99507" lon="13.0765083"><ele>60.66666666666667</ele><time>2026-03-22T08:04:56.45Z</time></trkpt><trkpt lat="45.9949767" lon="13.0762817"><ele>61.333333333333336</ele><time>2026-03-22T08:04:57.451Z</time></trkpt><trkpt lat="45.994875" lon="13.0760467"><ele>62.0</ele><time>2026-03-22T08:04:58.452Z</time></trkpt><trkpt lat="45.9947683" lon="13.0758033"><ele>61.66666666666667</ele><time>2026-03-22T08:04:59.45Z</time></trkpt><trkpt lat="45.9946617" lon="13.075545"><ele>61.33333333333333</ele><time>2026-03-22T08:05:00.449Z</time></trkpt><trkpt lat="45.9945583" lon="13.0752733"><ele>61.0</ele><time>2026-03-22T08:05:01.45Z</time></trkpt><trkpt lat="45.9944433" lon="13.07499"><ele>60.0</ele><time>2026-03-22T08:05:02.45Z</time></trkpt><trkpt lat="45.9943217" lon="13.074705"><ele>59.0</ele><time>2026-03-22T08:05:03.451Z</time></trkpt><trkpt lat="45.9941967" lon="13.0744117"><ele>59.0</ele><time>2026-03-22T08:05:04.449Z</time></trkpt><trkpt lat="45.9940833" lon="13.0741167"><ele>59.0</ele><time>2026-03-22T08:05:05.45Z</time></trkpt><trkpt lat="45.993965" lon="13.0738267"><ele>58.5</ele><time>2026-03-22T08:05:06.451Z</time></trkpt><trkpt lat="45.993845" lon="13.07354"><ele>58.0</ele><time>2026-03-22T08:05:07.451Z</time></trkpt><trkpt lat="45.9937233" lon="13.0732517"><ele>58.0</ele><time>2026-03-22T08:05:08.451Z</time></trkpt><trkpt lat="45.993595" lon="13.0729633"><ele>58.0</ele><time>2026-03-22T08:05:09.45Z</time></trkpt><trkpt lat="45.9934733" lon="13.0726683"><ele>58.0</ele><time>2026-03-22T08:05:10.45Z</time></trkpt><trkpt lat="45.993355" lon="13.07238"><ele>58.0</ele><time>2026-03-22T08:05:11.451Z</time></trkpt><trkpt lat="45.9932383" lon="13.0720967"><ele>58.0</ele><time>2026-03-22T08:05:12.45Z</time></trkpt><trkpt lat="45.9931217" lon="13.0718167"><ele>58.0</ele><time>2026-03-22T08:05:13.451Z</time></trkpt><trkpt lat="45.9930067" lon="13.0715383"><ele>58.0</ele><time>2026-03-22T08:05:14.451Z</time></trkpt><trkpt lat="45.9928883" lon="13.0712633"><ele>58.0</ele><time>2026-03-22T08:05:15.451Z</time></trkpt><trkpt lat="45.992775" lon="13.0709917"><ele>58.0</ele><time>2026-03-22T08:05:16.451Z</time></trkpt><trkpt lat="45.992665" lon="13.0707233"><ele>58.0</ele><time>2026-03-22T08:05:17.45Z</time></trkpt><trkpt lat="45.9925533" lon="13.070455"><ele>58.0</ele><time>2026-03-22T08:05:18.452Z</time></trkpt><trkpt lat="45.99244" lon="13.0701867"><ele>58.0</ele><time>2026-03-22T08:05:19.452Z</time></trkpt><trkpt lat="45.9923283" lon="13.0699133"><ele>57.666666666666664</ele><time>2026-03-22T08:05:20.452Z</time></trkpt><trkpt lat="45.9922183" lon="13.0696417"><ele>57.33333333333333</ele><time>2026-03-22T08:05:21.452Z</time></trkpt><trkpt lat="45.992105" lon="13.0693667"><ele>57.0</ele><time>2026-03-22T08:05:22.451Z</time></trkpt><trkpt lat="45.991995" lon="13.0690917"><ele>57.0</ele><time>2026-03-22T08:05:23.45Z</time></trkpt><trkpt lat="45.9918833" lon="13.0688183"><ele>57.0</ele><time>2026-03-22T08:05:24.453Z</time></trkpt><trkpt lat="45.9917683" lon="13.0685483"><ele>57.0</ele><time>2026-03-22T08:05:25.452Z</time></trkpt><trkpt lat="45.9916533" lon="13.0682767"><ele>56.66666666666667</ele><time>2026-03-22T08:05:26.451Z</time></trkpt><trkpt lat="45.9915383" lon="13.068005"><ele>56.333333333333336</ele><time>2026-03-22T08:05:27.452Z</time></trkpt><trkpt lat="45.9914233" lon="13.0677283"><ele>56.0</ele><time>2026-03-22T08:05:28.452Z</time></trkpt><trkpt lat="45.9913083" lon="13.0674517"><ele>56.0</ele><time>2026-03-22T08:05:29.456Z</time></trkpt><trkpt lat="45.9911983" lon="13.067175"><ele>56.0</ele><time>2026-03-22T08:05:30.451Z</time></trkpt><trkpt lat="45.9910883" lon="13.0669017"><ele>56.0</ele><time>2026-03-22T08:05:31.45Z</time></trkpt><trkpt lat="45.9909717" lon="13.0666333"><ele>56.0</ele><time>2026-03-22T08:05:32.451Z</time></trkpt><trkpt lat="45.9908583" lon="13.0663633"><ele>56.0</ele><time>2026-03-22T08:05:33.452Z</time></trkpt><trkpt lat="45.9907467" lon="13.0661"><ele>56.0</ele><time>2026-03-22T08:05:34.45Z</time></trkpt><trkpt lat="45.990635" lon="13.0658383"><ele>55.66666666666667</ele><time>2026-03-22T08:05:35.451Z</time></trkpt><trkpt lat="45.990525" lon="13.0655733"><ele>55.33333333333333</ele><time>2026-03-22T08:05:36.452Z</time></trkpt><trkpt lat="45.99041" lon="13.065305"><ele>55.0</ele><time>2026-03-22T08:05:37.45Z</time></trkpt><trkpt lat="45.9902983" lon="13.0650317"><ele>54.5</ele><time>2026-03-22T08:05:38.452Z</time></trkpt><trkpt lat="45.9901817" lon="13.0647533"><ele>54.0</ele><time>2026-03-22T08:05:39.451Z</time></trkpt><trkpt lat="45.990065" lon="13.0644733"><ele>55.0</ele><time>2026-03-22T08:05:40.451Z</time></trkpt><trkpt lat="45.9899483" lon="13.0641883"><ele>56.0</ele><time>2026-03-22T08:05:41.451Z</time></trkpt><trkpt lat="45.989825" lon="13.0639033"><ele>56.0</ele><time>2026-03-22T08:05:42.451Z</time></trkpt><trkpt lat="45.9897017" lon="13.0636167"><ele>56.0</ele><time>2026-03-22T08:05:43.451Z</time></trkpt><trkpt lat="45.9895783" lon="13.0633267"><ele>55.5</ele><time>2026-03-22T08:05:44.45Z</time></trkpt><trkpt lat="45.9894583" lon="13.0630367"><ele>55.0</ele><time>2026-03-22T08:05:45.452Z</time></trkpt><trkpt lat="45.989335" lon="13.0627433"><ele>55.0</ele><time>2026-03-22T08:05:46.452Z</time></trkpt><trkpt lat="45.9892167" lon="13.06245"><ele>55.0</ele><time>2026-03-22T08:05:47.451Z</time></trkpt><trkpt lat="45.9890917" lon="13.0621567"><ele>55.0</ele><time>2026-03-22T08:05:48.451Z</time></trkpt><trkpt lat="45.9889633" lon="13.0618567"><ele>55.0</ele><time>2026-03-22T08:05:49.452Z</time></trkpt><trkpt lat="45.9888533" lon="13.0615267"><ele>54.5</ele><time>2026-03-22T08:05:50.452Z</time></trkpt><trkpt lat="45.9886983" lon="13.0612333"><ele>54.0</ele><time>2026-03-22T08:05:51.452Z</time></trkpt><trkpt lat="45.9885683" lon="13.0609233"><ele>53.5</ele><time>2026-03-22T08:05:52.452Z</time></trkpt><trkpt lat="45.98844" lon="13.060605"><ele>53.0</ele><time>2026-03-22T08:05:53.45Z</time></trkpt><trkpt lat="45.988305" lon="13.060285"><ele>54.0</ele><time>2026-03-22T08:05:54.452Z</time></trkpt><trkpt lat="45.9881667" lon="13.0599583"><ele>55.0</ele><time>2026-03-22T08:05:55.452Z</time></trkpt><trkpt lat="45.988035" lon="13.0596233"><ele>55.0</ele><time>2026-03-22T08:05:56.451Z</time></trkpt><trkpt lat="45.9878967" lon="13.0592883"><ele>55.0</ele><time>2026-03-22T08:05:57.451Z</time></trkpt><trkpt lat="45.9877583" lon="13.05896"><ele>54.5</ele><time>2026-03-22T08:05:58.451Z</time></trkpt><trkpt lat="45.9876233" lon="13.0586333"><ele>54.0</ele><time>2026-03-22T08:05:59.451Z</time></trkpt><trkpt lat="45.98749" lon="13.05831"><ele>54.0</ele><time>2026-03-22T08:06:00.451Z</time></trkpt><trkpt lat="45.9873583" lon="13.05799"><ele>54.0</ele><time>2026-03-22T08:06:01.452Z</time></trkpt><trkpt lat="45.9872267" lon="13.057675"><ele>54.0</ele><time>2026-03-22T08:06:02.452Z</time></trkpt><trkpt lat="45.9870983" lon="13.057365"><ele>54.0</ele><time>2026-03-22T08:06:03.453Z</time></trkpt><trkpt lat="45.9869683" lon="13.0570533"><ele>54.0</ele><time>2026-03-22T08:06:04.45Z</time></trkpt><trkpt lat="45.9868383" lon="13.0567383"><ele>54.0</ele><time>2026-03-22T08:06:05.448Z</time></trkpt><trkpt lat="45.9867117" lon="13.0564233"><ele>54.5</ele><time>2026-03-22T08:06:06.451Z</time></trkpt><trkpt lat="45.9865783" lon="13.0561133"><ele>55.0</ele><time>2026-03-22T08:06:07.451Z</time></trkpt><trkpt lat="45.9864483" lon="13.0558017"><ele>54.0</ele><time>2026-03-22T08:06:08.451Z</time></trkpt><trkpt lat="45.9863317" lon="13.0554933"><ele>53.0</ele><time>2026-03-22T08:06:09.452Z</time></trkpt><trkpt lat="45.986205" lon="13.0552067"><ele>52.5</ele><time>2026-03-22T08:06:10.45Z</time></trkpt><trkpt lat="45.9860783" lon="13.0549283"><ele>52.0</ele><time>2026-03-22T08:06:11.451Z</time></trkpt><trkpt lat="45.9859683" lon="13.0546433"><ele>52.0</ele><time>2026-03-22T08:06:12.451Z</time></trkpt><trkpt lat="45.98585" lon="13.0543633"><ele>52.0</ele><time>2026-03-22T08:06:13.451Z</time></trkpt><trkpt lat="45.9857267" lon="13.0540767"><ele>52.5</ele><time>2026-03-22T08:06:14.452Z</time></trkpt><trkpt lat="45.985605" lon="13.0537883"><ele>53.0</ele><time>2026-03-22T08:06:15.452Z</time></trkpt><trkpt lat="45.9854833" lon="13.053495"><ele>53.0</ele><time>2026-03-22T08:06:16.451Z</time></trkpt><trkpt lat="45.985365" lon="13.053205"><ele>53.0</ele><time>2026-03-22T08:06:17.451Z</time></trkpt><trkpt lat="45.985245" lon="13.0529217"><ele>53.0</ele><time>2026-03-22T08:06:18.451Z</time></trkpt><trkpt lat="45.9851317" lon="13.052645"><ele>53.0</ele><time>2026-03-22T08:06:19.45Z</time></trkpt><trkpt lat="45.9850183" lon="13.0523767"><ele>53.0</ele><time>2026-03-22T08:06:20.451Z</time></trkpt><trkpt lat="45.9849083" lon="13.0521083"><ele>53.0</ele><time>2026-03-22T08:06:21.452Z</time></trkpt><trkpt lat="45.9848033" lon="13.0518433"><ele>53.0</ele><time>2026-03-22T08:06:22.451Z</time></trkpt><trkpt lat="45.9846983" lon="13.0515767"><ele>53.0</ele><time>2026-03-22T08:06:23.451Z</time></trkpt><trkpt lat="45.98459" lon="13.0513117"><ele>52.66666666666667</ele><time>2026-03-22T08:06:24.45Z</time></trkpt><trkpt lat="45.984475" lon="13.051045"><ele>52.33333333333333</ele><time>2026-03-22T08:06:25.451Z</time></trkpt><trkpt lat="45.984365" lon="13.05077"><ele>52.0</ele><time>2026-03-22T08:06:26.449Z</time></trkpt><trkpt lat="45.9842533" lon="13.0504967"><ele>52.0</ele><time>2026-03-22T08:06:27.451Z</time></trkpt><trkpt lat="45.9841383" lon="13.0502267"><ele>52.0</ele><time>2026-03-22T08:06:28.451Z</time></trkpt><trkpt lat="45.984025" lon="13.0499533"><ele>52.0</ele><time>2026-03-22T08:06:29.451Z</time></trkpt><trkpt lat="45.98391" lon="13.0496833"><ele>52.0</ele><time>2026-03-22T08:06:30.452Z</time></trkpt><trkpt lat="45.983795" lon="13.049415"><ele>52.0</ele><time>2026-03-22T08:06:31.451Z</time></trkpt><trkpt lat="45.9836833" lon="13.049145"><ele>52.0</ele><time>2026-03-22T08:06:32.453Z</time></trkpt><trkpt lat="45.98357" lon="13.04888"><ele>52.0</ele><time>2026-03-22T08:06:33.451Z</time></trkpt><trkpt lat="45.98346" lon="13.048615"><ele>52.0</ele><time>2026-03-22T08:06:34.452Z</time></trkpt><trkpt lat="45.9833533" lon="13.0483533"><ele>52.0</ele><time>2026-03-22T08:06:35.453Z</time></trkpt><trkpt lat="45.9832467" lon="13.0480967"><ele>52.0</ele><time>2026-03-22T08:06:36.453Z</time></trkpt><trkpt lat="45.9831417" lon="13.04784"><ele>52.0</ele><time>2026-03-22T08:06:37.451Z</time></trkpt><trkpt lat="45.9830383" lon="13.04758"><ele>52.0</ele><time>2026-03-22T08:06:38.452Z</time></trkpt><trkpt lat="45.9829283" lon="13.0473233"><ele>52.0</ele><time>2026-03-22T08:06:39.453Z</time></trkpt><trkpt lat="45.98282" lon="13.0470633"><ele>52.0</ele><time>2026-03-22T08:06:40.453Z</time></trkpt><trkpt lat="45.98271" lon="13.0468017"><ele>52.0</ele><time>2026-03-22T08:06:41.451Z</time></trkpt><trkpt lat="45.9825967" lon="13.0465383"><ele>52.33333333333333</ele><time>2026-03-22T08:06:42.453Z</time></trkpt><trkpt lat="45.982485" lon="13.0462717"><ele>52.66666666666667</ele><time>2026-03-22T08:06:43.451Z</time></trkpt><trkpt lat="45.9823733" lon="13.0460017"><ele>53.0</ele><time>2026-03-22T08:06:44.451Z</time></trkpt><trkpt lat="45.9822583" lon="13.0457283"><ele>53.0</ele><time>2026-03-22T08:06:45.451Z</time></trkpt><trkpt lat="45.982145" lon="13.0454533"><ele>53.0</ele><time>2026-03-22T08:06:46.451Z</time></trkpt><trkpt lat="45.9820333" lon="13.0451783"><ele>53.0</ele><time>2026-03-22T08:06:47.451Z</time></trkpt><trkpt lat="45.98192" lon="13.044905"><ele>53.0</ele><time>2026-03-22T08:06:48.451Z</time></trkpt><trkpt lat="45.9818083" lon="13.0446333"><ele>53.0</ele><time>2026-03-22T08:06:49.451Z</time></trkpt><trkpt lat="45.9816917" lon="13.04436"><ele>53.0</ele><time>2026-03-22T08:06:50.451Z</time></trkpt><trkpt lat="45.9815767" lon="13.04409"><ele>53.0</ele><time>2026-03-22T08:06:51.451Z</time></trkpt><trkpt lat="45.9814633" lon="13.04382"><ele>53.0</ele><time>2026-03-22T08:06:52.451Z</time></trkpt><trkpt lat="45.9813467" lon="13.0435517"><ele>53.0</ele><time>2026-03-22T08:06:53.451Z</time></trkpt><trkpt lat="45.9812333" lon="13.0432833"><ele>53.0</ele><time>2026-03-22T08:06:54.451Z</time></trkpt><trkpt lat="45.9811217" lon="13.043015"><ele>53.0</ele><time>2026-03-22T08:06:55.453Z</time></trkpt><trkpt lat="45.981005" lon="13.0427417"><ele>53.0</ele><time>2026-03-22T08:06:56.451Z</time></trkpt><trkpt lat="45.9808917" lon="13.0424633"><ele>52.333333333333336</ele><time>2026-03-22T08:06:57.451Z</time></trkpt><trkpt lat="45.9807783" lon="13.0421833"><ele>51.66666666666667</ele><time>2026-03-22T08:06:58.451Z</time></trkpt><trkpt lat="45.9806667" lon="13.0419067"><ele>51.0</ele><time>2026-03-22T08:06:59.451Z</time></trkpt><trkpt lat="45.9805583" lon="13.0416317"><ele>51.0</ele><time>2026-03-22T08:07:00.452Z</time></trkpt><trkpt lat="45.980445" lon="13.0413633"><ele>51.0</ele><time>2026-03-22T08:07:01.452Z</time></trkpt><trkpt lat="45.9803317" lon="13.0411"><ele>51.0</ele><time>2026-03-22T08:07:02.452Z</time></trkpt><trkpt lat="45.9802233" lon="13.040835"><ele>51.0</ele><time>2026-03-22T08:07:03.451Z</time></trkpt><trkpt lat="45.9801133" lon="13.0405717"><ele>51.0</ele><time>2026-03-22T08:07:04.453Z</time></trkpt><trkpt lat="45.9800033" lon="13.0403067"><ele>51.0</ele><time>2026-03-22T08:07:05.451Z</time></trkpt><trkpt lat="45.9798933" lon="13.0400433"><ele>51.0</ele><time>2026-03-22T08:07:06.451Z</time></trkpt><trkpt lat="45.9797833" lon="13.0397767"><ele>51.0</ele><time>2026-03-22T08:07:07.452Z</time></trkpt><trkpt lat="45.979675" lon="13.0395117"><ele>51.0</ele><time>2026-03-22T08:07:08.452Z</time></trkpt><trkpt lat="45.9795733" lon="13.039245"><ele>50.33333333333333</ele><time>2026-03-22T08:07:09.453Z</time></trkpt><trkpt lat="45.9794667" lon="13.038995"><ele>49.666666666666664</ele><time>2026-03-22T08:07:10.453Z</time></trkpt><trkpt lat="45.979365" lon="13.0387533"><ele>49.0</ele><time>2026-03-22T08:07:11.451Z</time></trkpt><trkpt lat="45.97927" lon="13.0385167"><ele>49.33333333333333</ele><time>2026-03-22T08:07:12.452Z</time></trkpt><trkpt lat="45.9791733" lon="13.0382833"><ele>49.66666666666667</ele><time>2026-03-22T08:07:13.451Z</time></trkpt><trkpt lat="45.9790767" lon="13.0380483"><ele>50.0</ele><time>2026-03-22T08:07:14.452Z</time></trkpt><trkpt lat="45.9789733" lon="13.0378133"><ele>50.0</ele><time>2026-03-22T08:07:15.453Z</time></trkpt><trkpt lat="45.9788767" lon="13.0375733"><ele>50.0</ele><time>2026-03-22T08:07:16.451Z</time></trkpt><trkpt lat="45.9787817" lon="13.0373283"><ele>50.0</ele><time>2026-03-22T08:07:17.451Z</time></trkpt><trkpt lat="45.9786733" lon="13.0370833"><ele>50.333333333333336</ele><time>2026-03-22T08:07:18.451Z</time></trkpt><trkpt lat="45.9785683" lon="13.0368333"><ele>50.66666666666667</ele><time>2026-03-22T08:07:19.45Z</time></trkpt><trkpt lat="45.97846" lon="13.0365783"><ele>51.0</ele><time>2026-03-22T08:07:20.452Z</time></trkpt><trkpt lat="45.97835" lon="13.03632"><ele>51.66666666666667</ele><time>2026-03-22T08:07:21.452Z</time></trkpt><trkpt lat="45.97824" lon="13.0360567"><ele>52.333333333333336</ele><time>2026-03-22T08:07:22.451Z</time></trkpt><trkpt lat="45.97813" lon="13.0357883"><ele>53.0</ele><time>2026-03-22T08:07:23.451Z</time></trkpt><trkpt lat="45.9780183" lon="13.0355133"><ele>53.0</ele><time>2026-03-22T08:07:24.451Z</time></trkpt><trkpt lat="45.9779083" lon="13.035235"><ele>53.0</ele><time>2026-03-22T08:07:25.451Z</time></trkpt><trkpt lat="45.9777933" lon="13.0349567"><ele>53.0</ele><time>2026-03-22T08:07:26.451Z</time></trkpt><trkpt lat="45.977675" lon="13.034675"><ele>52.5</ele><time>2026-03-22T08:07:27.452Z</time></trkpt><trkpt lat="45.977555" lon="13.0343917"><ele>52.0</ele><time>2026-03-22T08:07:28.451Z</time></trkpt><trkpt lat="45.9774367" lon="13.0341083"><ele>49.5</ele><time>2026-03-22T08:07:29.45Z</time></trkpt><trkpt lat="45.97732" lon="13.033825"><ele>47.0</ele><time>2026-03-22T08:07:30.453Z</time></trkpt><trkpt lat="45.9772067" lon="13.0335467"><ele>48.0</ele><time>2026-03-22T08:07:31.452Z</time></trkpt><trkpt lat="45.9770883" lon="13.033265"><ele>49.0</ele><time>2026-03-22T08:07:32.454Z</time></trkpt><trkpt lat="45.9769683" lon="13.032985"><ele>49.0</ele><time>2026-03-22T08:07:33.452Z</time></trkpt><trkpt lat="45.9768517" lon="13.0327017"><ele>49.0</ele><time>2026-03-22T08:07:34.452Z</time></trkpt><trkpt lat="45.9767333" lon="13.03242"><ele>49.5</ele><time>2026-03-22T08:07:35.452Z</time></trkpt><trkpt lat="45.9766083" lon="13.0321383"><ele>50.0</ele><time>2026-03-22T08:07:36.452Z</time></trkpt><trkpt lat="45.9764867" lon="13.0318533"><ele>49.5</ele><time>2026-03-22T08:07:37.451Z</time></trkpt><trkpt lat="45.97637" lon="13.0315667"><ele>49.0</ele><time>2026-03-22T08:07:38.452Z</time></trkpt><trkpt lat="45.9762567" lon="13.03128"><ele>49.0</ele><time>2026-03-22T08:07:39.452Z</time></trkpt><trkpt lat="45.9761383" lon="13.0310017"><ele>49.0</ele><time>2026-03-22T08:07:40.452Z</time></trkpt><trkpt lat="45.9760233" lon="13.0307233"><ele>49.0</ele><time>2026-03-22T08:07:41.452Z</time></trkpt><trkpt lat="45.9759083" lon="13.03045"><ele>49.0</ele><time>2026-03-22T08:07:42.455Z</time></trkpt><trkpt lat="45.975795" lon="13.0301783"><ele>49.0</ele><time>2026-03-22T08:07:43.451Z</time></trkpt><trkpt lat="45.9756833" lon="13.02991"><ele>49.0</ele><time>2026-03-22T08:07:44.451Z</time></trkpt><trkpt lat="45.975575" lon="13.0296417"><ele>49.0</ele><time>2026-03-22T08:07:45.453Z</time></trkpt><trkpt lat="45.9754667" lon="13.0293783"><ele>49.0</ele><time>2026-03-22T08:07:46.451Z</time></trkpt><trkpt lat="45.9753583" lon="13.0291167"><ele>49.33333333333333</ele><time>2026-03-22T08:07:47.451Z</time></trkpt><trkpt lat="45.9752483" lon="13.0288533"><ele>49.66666666666667</ele><time>2026-03-22T08:07:48.451Z</time></trkpt><trkpt lat="45.9751417" lon="13.0285917"><ele>50.0</ele><time>2026-03-22T08:07:49.451Z</time></trkpt><trkpt lat="45.975035" lon="13.0283267"><ele>49.333333333333336</ele><time>2026-03-22T08:07:50.453Z</time></trkpt><trkpt lat="45.9749267" lon="13.0280617"><ele>48.66666666666667</ele><time>2026-03-22T08:07:51.449Z</time></trkpt><trkpt lat="45.9748167" lon="13.0277933"><ele>48.0</ele><time>2026-03-22T08:07:52.45Z</time></trkpt><trkpt lat="45.9747017" lon="13.0275217"><ele>48.33333333333333</ele><time>2026-03-22T08:07:53.45Z</time></trkpt><trkpt lat="45.9745883" lon="13.0272483"><ele>48.666666666666664</ele><time>2026-03-22T08:07:54.45Z</time></trkpt><trkpt lat="45.9744733" lon="13.0269733"><ele>49.0</ele><time>2026-03-22T08:07:55.456Z</time></trkpt><trkpt lat="45.9743567" lon="13.026695"><ele>49.0</ele><time>2026-03-22T08:07:56.462Z</time></trkpt><trkpt lat="45.9742417" lon="13.0264167"><ele>49.0</ele><time>2026-03-22T08:07:57.453Z</time></trkpt><trkpt lat="45.9741233" lon="13.0261467"><ele>49.0</ele><time>2026-03-22T08:07:58.45Z</time></trkpt><trkpt lat="45.9740067" lon="13.0258683"><ele>49.0</ele><time>2026-03-22T08:07:59.451Z</time></trkpt><trkpt lat="45.9738867" lon="13.0255867"><ele>49.0</ele><time>2026-03-22T08:08:00.451Z</time></trkpt><trkpt lat="45.9737683" lon="13.0253033"><ele>49.0</ele><time>2026-03-22T08:08:01.451Z</time></trkpt><trkpt lat="45.9736467" lon="13.0250167"><ele>49.0</ele><time>2026-03-22T08:08:02.449Z</time></trkpt><trkpt lat="45.9735267" lon="13.0247283"><ele>48.0</ele><time>2026-03-22T08:08:03.451Z</time></trkpt><trkpt lat="45.9734067" lon="13.0244433"><ele>47.0</ele><time>2026-03-22T08:08:04.451Z</time></trkpt><trkpt lat="45.97329" lon="13.0241583"><ele>46.0</ele><time>2026-03-22T08:08:05.451Z</time></trkpt><trkpt lat="45.973175" lon="13.02388"><ele>45.0</ele><time>2026-03-22T08:08:06.452Z</time></trkpt><trkpt lat="45.9730617" lon="13.0236"><ele>45.0</ele><time>2026-03-22T08:08:07.454Z</time></trkpt><trkpt lat="45.9729517" lon="13.0233233"><ele>45.0</ele><time>2026-03-22T08:08:08.451Z</time></trkpt><trkpt lat="45.9728383" lon="13.0230533"><ele>45.0</ele><time>2026-03-22T08:08:09.451Z</time></trkpt><trkpt lat="45.9727267" lon="13.022785"><ele>45.333333333333336</ele><time>2026-03-22T08:08:10.451Z</time></trkpt><trkpt lat="45.9726183" lon="13.02252"><ele>45.66666666666667</ele><time>2026-03-22T08:08:11.452Z</time></trkpt><trkpt lat="45.9725117" lon="13.0222633"><ele>46.0</ele><time>2026-03-22T08:08:12.451Z</time></trkpt><trkpt lat="45.9724067" lon="13.0220083"><ele>46.0</ele><time>2026-03-22T08:08:13.451Z</time></trkpt><trkpt lat="45.9723033" lon="13.0217617"><ele>46.0</ele><time>2026-03-22T08:08:14.451Z</time></trkpt><trkpt lat="45.9722067" lon="13.02152"><ele>46.0</ele><time>2026-03-22T08:08:15.451Z</time></trkpt><trkpt lat="45.972115" lon="13.0212817"><ele>46.0</ele><time>2026-03-22T08:08:16.451Z</time></trkpt><trkpt lat="45.9720167" lon="13.02105"><ele>46.0</ele><time>2026-03-22T08:08:17.45Z</time></trkpt><trkpt lat="45.97192" lon="13.020815"><ele>46.0</ele><time>2026-03-22T08:08:18.45Z</time></trkpt><trkpt lat="45.9718217" lon="13.0205817"><ele>46.0</ele><time>2026-03-22T08:08:19.452Z</time></trkpt><trkpt lat="45.9717183" lon="13.02035"><ele>46.0</ele><time>2026-03-22T08:08:20.451Z</time></trkpt><trkpt lat="45.9716217" lon="13.0201267"><ele>46.0</ele><time>2026-03-22T08:08:21.451Z</time></trkpt><trkpt lat="45.9715317" lon="13.019905"><ele>46.0</ele><time>2026-03-22T08:08:22.451Z</time></trkpt><trkpt lat="45.97144" lon="13.0196833"><ele>46.0</ele><time>2026-03-22T08:08:23.451Z</time></trkpt><trkpt lat="45.971345" lon="13.0194567"><ele>46.0</ele><time>2026-03-22T08:08:24.451Z</time></trkpt><trkpt lat="45.97125" lon="13.0192383"><ele>46.0</ele><time>2026-03-22T08:08:25.452Z</time></trkpt><trkpt lat="45.97116" lon="13.01903"><ele>46.0</ele><time>2026-03-22T08:08:26.451Z</time></trkpt><trkpt lat="45.9710783" lon="13.0188333"><ele>46.0</ele><time>2026-03-22T08:08:27.452Z</time></trkpt><trkpt lat="45.9710033" lon="13.0186517"><ele>46.0</ele><time>2026-03-22T08:08:28.451Z</time></trkpt><trkpt lat="45.9709367" lon="13.0184817"><ele>46.0</ele><time>2026-03-22T08:08:29.451Z</time></trkpt><trkpt lat="45.970865" lon="13.0183183"><ele>46.0</ele><time>2026-03-22T08:08:30.449Z</time></trkpt><trkpt lat="45.970795" lon="13.0181567"><ele>46.0</ele><time>2026-03-22T08:08:31.451Z</time></trkpt><trkpt lat="45.97073" lon="13.017995"><ele>46.0</ele><time>2026-03-22T08:08:32.451Z</time></trkpt><trkpt lat="45.9706783" lon="13.017835"><ele>46.0</ele><time>2026-03-22T08:08:33.452Z</time></trkpt><trkpt lat="45.9706383" lon="13.0176783"><ele>46.0</ele><time>2026-03-22T08:08:34.45Z</time></trkpt><trkpt lat="45.970605" lon="13.0175417"><ele>46.0</ele><time>2026-03-22T08:08:35.451Z</time></trkpt><trkpt lat="45.9705933" lon="13.0174283"><ele>46.0</ele><time>2026-03-22T08:08:36.452Z</time></trkpt><trkpt lat="45.9705817" lon="13.0173217"><ele>46.0</ele><time>2026-03-22T08:08:37.454Z</time></trkpt><trkpt lat="45.9705733" lon="13.017215"><ele>46.0</ele><time>2026-03-22T08:08:38.451Z</time></trkpt><trkpt lat="45.9705667" lon="13.0171017"><ele>46.0</ele><time>2026-03-22T08:08:39.453Z</time></trkpt><trkpt lat="45.9705633" lon="13.0169817"><ele>46.0</ele><time>2026-03-22T08:08:40.452Z</time></trkpt><trkpt lat="45.9705367" lon="13.0168517"><ele>46.0</ele><time>2026-03-22T08:08:41.452Z</time></trkpt><trkpt lat="45.9704967" lon="13.0167117"><ele>46.0</ele><time>2026-03-22T08:08:42.451Z</time></trkpt><trkpt lat="45.970435" lon="13.0165617"><ele>45.75</ele><time>2026-03-22T08:08:43.451Z</time></trkpt><trkpt lat="45.97035" lon="13.0164167"><ele>45.5</ele><time>2026-03-22T08:08:44.451Z</time></trkpt><trkpt lat="45.9702433" lon="13.016295"><ele>45.25</ele><time>2026-03-22T08:08:45.452Z</time></trkpt><trkpt lat="45.9701283" lon="13.0161833"><ele>45.0</ele><time>2026-03-22T08:08:46.451Z</time></trkpt><trkpt lat="45.9700067" lon="13.016055"><ele>45.0</ele><time>2026-03-22T08:08:47.451Z</time></trkpt><trkpt lat="45.96989" lon="13.0159067"><ele>45.0</ele><time>2026-03-22T08:08:48.451Z</time></trkpt><trkpt lat="45.9697867" lon="13.015735"><ele>45.0</ele><time>2026-03-22T08:08:49.451Z</time></trkpt><trkpt lat="45.9696983" lon="13.0155283"><ele>45.0</ele><time>2026-03-22T08:08:50.449Z</time></trkpt><trkpt lat="45.9696067" lon="13.015305"><ele>45.0</ele><time>2026-03-22T08:08:51.451Z</time></trkpt><trkpt lat="45.96951" lon="13.0150583"><ele>45.0</ele><time>2026-03-22T08:08:52.451Z</time></trkpt><trkpt lat="45.9694067" lon="13.014805"><ele>45.0</ele><time>2026-03-22T08:08:53.451Z</time></trkpt><trkpt lat="45.9693017" lon="13.0145583"><ele>45.0</ele><time>2026-03-22T08:08:54.45Z</time></trkpt><trkpt lat="45.9692" lon="13.0143217"><ele>45.0</ele><time>2026-03-22T08:08:55.45Z</time></trkpt><trkpt lat="45.9691033" lon="13.0140883"><ele>45.333333333333336</ele><time>2026-03-22T08:08:56.453Z</time></trkpt><trkpt lat="45.9690017" lon="13.0138533"><ele>45.66666666666667</ele><time>2026-03-22T08:08:57.451Z</time></trkpt><trkpt lat="45.9689017" lon="13.013615"><ele>46.0</ele><time>2026-03-22T08:08:58.451Z</time></trkpt><trkpt lat="45.9688117" lon="13.013365"><ele>46.0</ele><time>2026-03-22T08:08:59.451Z</time></trkpt><trkpt lat="45.968735" lon="13.0131"><ele>46.0</ele><time>2026-03-22T08:09:00.45Z</time></trkpt><trkpt lat="45.9686667" lon="13.012825"><ele>46.0</ele><time>2026-03-22T08:09:01.451Z</time></trkpt><trkpt lat="45.9685933" lon="13.0125417"><ele>46.0</ele><time>2026-03-22T08:09:02.45Z</time></trkpt><trkpt lat="45.9685367" lon="13.0122483"><ele>46.0</ele><time>2026-03-22T08:09:03.452Z</time></trkpt><trkpt lat="45.96849" lon="13.0119617"><ele>46.0</ele><time>2026-03-22T08:09:04.451Z</time></trkpt><trkpt lat="45.9684533" lon="13.011675"><ele>45.66666666666667</ele><time>2026-03-22T08:09:05.451Z</time></trkpt><trkpt lat="45.9684183" lon="13.0113833"><ele>45.333333333333336</ele><time>2026-03-22T08:09:06.453Z</time></trkpt><trkpt lat="45.9683917" lon="13.0110933"><ele>45.0</ele><time>2026-03-22T08:09:07.451Z</time></trkpt><trkpt lat="45.9683817" lon="13.010805"><ele>44.666666666666664</ele><time>2026-03-22T08:09:08.452Z</time></trkpt><trkpt lat="45.9683817" lon="13.0105267"><ele>44.33333333333333</ele><time>2026-03-22T08:09:09.452Z</time></trkpt><trkpt lat="45.9683883" lon="13.0102517"><ele>44.0</ele><time>2026-03-22T08:09:10.452Z</time></trkpt><trkpt lat="45.9684" lon="13.0099867"><ele>44.0</ele><time>2026-03-22T08:09:11.45Z</time></trkpt><trkpt lat="45.9684233" lon="13.0097233"><ele>44.0</ele><time>2026-03-22T08:09:12.451Z</time></trkpt><trkpt lat="45.9684517" lon="13.009455"><ele>44.0</ele><time>2026-03-22T08:09:13.449Z</time></trkpt><trkpt lat="45.9684967" lon="13.00917"><ele>45.0</ele><time>2026-03-22T08:09:14.451Z</time></trkpt><trkpt lat="45.9685367" lon="13.008855"><ele>46.0</ele><time>2026-03-22T08:09:15.452Z</time></trkpt><trkpt lat="45.96859" lon="13.0085167"><ele>45.5</ele><time>2026-03-22T08:09:16.451Z</time></trkpt><trkpt lat="45.96866" lon="13.0081767"><ele>45.0</ele><time>2026-03-22T08:09:17.451Z</time></trkpt><trkpt lat="45.9687383" lon="13.0078483"><ele>45.0</ele><time>2026-03-22T08:09:18.453Z</time></trkpt><trkpt lat="45.968815" lon="13.0075067"><ele>45.0</ele><time>2026-03-22T08:09:19.45Z</time></trkpt><trkpt lat="45.9688833" lon="13.00712"><ele>45.0</ele><time>2026-03-22T08:09:20.451Z</time></trkpt><trkpt lat="45.9689583" lon="13.0067167"><ele>45.0</ele><time>2026-03-22T08:09:21.451Z</time></trkpt><trkpt lat="45.9690433" lon="13.0063167"><ele>44.5</ele><time>2026-03-22T08:09:22.451Z</time></trkpt><trkpt lat="45.969125" lon="13.00594"><ele>44.0</ele><time>2026-03-22T08:09:23.452Z</time></trkpt><trkpt lat="45.9692067" lon="13.00558"><ele>44.0</ele><time>2026-03-22T08:09:24.452Z</time></trkpt><trkpt lat="45.9692833" lon="13.0052267"><ele>44.0</ele><time>2026-03-22T08:09:25.451Z</time></trkpt><trkpt lat="45.9693567" lon="13.0048783"><ele>44.0</ele><time>2026-03-22T08:09:26.452Z</time></trkpt><trkpt lat="45.9694333" lon="13.0045417"><ele>44.0</ele><time>2026-03-22T08:09:27.452Z</time></trkpt><trkpt lat="45.9695" lon="13.0042"><ele>44.0</ele><time>2026-03-22T08:09:28.451Z</time></trkpt><trkpt lat="45.9695717" lon="13.0038633"><ele>44.0</ele><time>2026-03-22T08:09:29.452Z</time></trkpt><trkpt lat="45.9696417" lon="13.0035233"><ele>44.5</ele><time>2026-03-22T08:09:30.452Z</time></trkpt><trkpt lat="45.9697117" lon="13.0031867"><ele>45.0</ele><time>2026-03-22T08:09:31.451Z</time></trkpt><trkpt lat="45.9697833" lon="13.0028467"><ele>45.0</ele><time>2026-03-22T08:09:32.452Z</time></trkpt><trkpt lat="45.9698533" lon="13.0025017"><ele>45.0</ele><time>2026-03-22T08:09:33.453Z</time></trkpt><trkpt lat="45.9699217" lon="13.0021567"><ele>44.5</ele><time>2026-03-22T08:09:34.453Z</time></trkpt><trkpt lat="45.9699917" lon="13.001815"><ele>44.0</ele><time>2026-03-22T08:09:35.451Z</time></trkpt><trkpt lat="45.97006" lon="13.0014817"><ele>44.5</ele><time>2026-03-22T08:09:36.453Z</time></trkpt><trkpt lat="45.9701283" lon="13.0011517"><ele>45.0</ele><time>2026-03-22T08:09:37.452Z</time></trkpt><trkpt lat="45.9701983" lon="13.000815"><ele>45.0</ele><time>2026-03-22T08:09:38.452Z</time></trkpt><trkpt lat="45.97027" lon="13.000475"><ele>45.0</ele><time>2026-03-22T08:09:39.453Z</time></trkpt><trkpt lat="45.9703417" lon="13.00012"><ele>45.0</ele><time>2026-03-22T08:09:40.454Z</time></trkpt><trkpt lat="45.970415" lon="12.99975"><ele>45.0</ele><time>2026-03-22T08:09:41.451Z</time></trkpt><trkpt lat="45.97049" lon="12.9993667"><ele>45.0</ele><time>2026-03-22T08:09:42.452Z</time></trkpt><trkpt lat="45.970565" lon="12.998975"><ele>45.0</ele><time>2026-03-22T08:09:43.452Z</time></trkpt><trkpt lat="45.970645" lon="12.9985783"><ele>45.5</ele><time>2026-03-22T08:09:44.452Z</time></trkpt><trkpt lat="45.9707233" lon="12.99819"><ele>46.0</ele><time>2026-03-22T08:09:45.452Z</time></trkpt><trkpt lat="45.9708117" lon="12.9978183"><ele>45.5</ele><time>2026-03-22T08:09:46.45Z</time></trkpt><trkpt lat="45.97089" lon="12.9974533"><ele>45.0</ele><time>2026-03-22T08:09:47.452Z</time></trkpt><trkpt lat="45.9709633" lon="12.9970883"><ele>45.0</ele><time>2026-03-22T08:09:48.451Z</time></trkpt><trkpt lat="45.9710333" lon="12.99672"><ele>45.0</ele><time>2026-03-22T08:09:49.453Z</time></trkpt><trkpt lat="45.9711067" lon="12.996355"><ele>45.0</ele><time>2026-03-22T08:09:50.451Z</time></trkpt><trkpt lat="45.971175" lon="12.9960017"><ele>45.0</ele><time>2026-03-22T08:09:51.45Z</time></trkpt><trkpt lat="45.97124" lon="12.9956633"><ele>45.0</ele><time>2026-03-22T08:09:52.45Z</time></trkpt><trkpt lat="45.9713033" lon="12.9953417"><ele>45.0</ele><time>2026-03-22T08:09:53.451Z</time></trkpt><trkpt lat="45.9713667" lon="12.9950333"><ele>45.0</ele><time>2026-03-22T08:09:54.451Z</time></trkpt><trkpt lat="45.9714283" lon="12.9947333"><ele>45.0</ele><time>2026-03-22T08:09:55.452Z</time></trkpt><trkpt lat="45.97149" lon="12.9944383"><ele>45.0</ele><time>2026-03-22T08:09:56.452Z</time></trkpt><trkpt lat="45.9715467" lon="12.9941483"><ele>45.0</ele><time>2026-03-22T08:09:57.452Z</time></trkpt><trkpt lat="45.971605" lon="12.9938633"><ele>45.0</ele><time>2026-03-22T08:09:58.452Z</time></trkpt><trkpt lat="45.9716617" lon="12.9935783"><ele>45.0</ele><time>2026-03-22T08:09:59.451Z</time></trkpt><trkpt lat="45.9717183" lon="12.9932917"><ele>44.666666666666664</ele><time>2026-03-22T08:10:00.453Z</time></trkpt><trkpt lat="45.9717767" lon="12.993"><ele>44.33333333333333</ele><time>2026-03-22T08:10:01.452Z</time></trkpt><trkpt lat="45.9718367" lon="12.9927033"><ele>44.0</ele><time>2026-03-22T08:10:02.453Z</time></trkpt><trkpt lat="45.9718967" lon="12.9924017"><ele>44.0</ele><time>2026-03-22T08:10:03.451Z</time></trkpt><trkpt lat="45.9719567" lon="12.9920983"><ele>44.0</ele><time>2026-03-22T08:10:04.453Z</time></trkpt><trkpt lat="45.972015" lon="12.99179"><ele>44.0</ele><time>2026-03-22T08:10:05.451Z</time></trkpt><trkpt lat="45.972075" lon="12.9914833"><ele>44.33333333333333</ele><time>2026-03-22T08:10:06.451Z</time></trkpt><trkpt lat="45.9721333" lon="12.9911767"><ele>44.666666666666664</ele><time>2026-03-22T08:10:07.452Z</time></trkpt><trkpt lat="45.9721933" lon="12.9908733"><ele>45.0</ele><time>2026-03-22T08:10:08.451Z</time></trkpt><trkpt lat="45.9722517" lon="12.9905733"><ele>44.666666666666664</ele><time>2026-03-22T08:10:09.452Z</time></trkpt><trkpt lat="45.9723067" lon="12.9902783"><ele>44.33333333333333</ele><time>2026-03-22T08:10:10.451Z</time></trkpt><trkpt lat="45.9723617" lon="12.9899933"><ele>44.0</ele><time>2026-03-22T08:10:11.451Z</time></trkpt><trkpt lat="45.97241" lon="12.9897183"><ele>44.0</ele><time>2026-03-22T08:10:12.452Z</time></trkpt><trkpt lat="45.97244" lon="12.9894517"><ele>44.0</ele><time>2026-03-22T08:10:13.452Z</time></trkpt><trkpt lat="45.9724583" lon="12.989195"><ele>44.0</ele><time>2026-03-22T08:10:14.453Z</time></trkpt><trkpt lat="45.972465" lon="12.9889533"><ele>44.25</ele><time>2026-03-22T08:10:15.452Z</time></trkpt><trkpt lat="45.9724633" lon="12.98873"><ele>44.5</ele><time>2026-03-22T08:10:16.451Z</time></trkpt><trkpt lat="45.97245" lon="12.9885283"><ele>44.75</ele><time>2026-03-22T08:10:17.451Z</time></trkpt><trkpt lat="45.972435" lon="12.9883483"><ele>45.0</ele><time>2026-03-22T08:10:18.451Z</time></trkpt><trkpt lat="45.972425" lon="12.9881767"><ele>45.0</ele><time>2026-03-22T08:10:19.449Z</time></trkpt><trkpt lat="45.97243" lon="12.9880217"><ele>45.0</ele><time>2026-03-22T08:10:20.451Z</time></trkpt><trkpt lat="45.9724367" lon="12.9878733"><ele>45.0</ele><time>2026-03-22T08:10:21.452Z</time></trkpt><trkpt lat="45.972455" lon="12.9877383"><ele>45.0</ele><time>2026-03-22T08:10:22.45Z</time></trkpt><trkpt lat="45.97249" lon="12.9876067"><ele>45.0</ele><time>2026-03-22T08:10:23.452Z</time></trkpt><trkpt lat="45.9725317" lon="12.9874783"><ele>45.166666666666664</ele><time>2026-03-22T08:10:24.451Z</time></trkpt><trkpt lat="45.9725833" lon="12.9873683"><ele>45.333333333333336</ele><time>2026-03-22T08:10:25.451Z</time></trkpt><trkpt lat="45.97263" lon="12.987265"><ele>45.5</ele><time>2026-03-22T08:10:26.45Z</time></trkpt><trkpt lat="45.9726533" lon="12.9871517"><ele>45.66666666666667</ele><time>2026-03-22T08:10:27.452Z</time></trkpt><trkpt lat="45.9726467" lon="12.9870317"><ele>45.833333333333336</ele><time>2026-03-22T08:10:28.451Z</time></trkpt><trkpt lat="45.97261" lon="12.9869183"><ele>46.0</ele><time>2026-03-22T08:10:29.451Z</time></trkpt><trkpt lat="45.972545" lon="12.9868183"><ele>45.75</ele><time>2026-03-22T08:10:30.45Z</time></trkpt><trkpt lat="45.9724583" lon="12.9867317"><ele>45.5</ele><time>2026-03-22T08:10:31.451Z</time></trkpt><trkpt lat="45.9723633" lon="12.986645"><ele>45.25</ele><time>2026-03-22T08:10:32.45Z</time></trkpt><trkpt lat="45.97226" lon="12.98655"><ele>45.0</ele><time>2026-03-22T08:10:33.451Z</time></trkpt><trkpt lat="45.972155" lon="12.98644"><ele>44.333333333333336</ele><time>2026-03-22T08:10:34.452Z</time></trkpt><trkpt lat="45.9720517" lon="12.9863017"><ele>43.66666666666667</ele><time>2026-03-22T08:10:35.451Z</time></trkpt><trkpt lat="45.9719533" lon="12.98614"><ele>43.0</ele><time>2026-03-22T08:10:36.449Z</time></trkpt><trkpt lat="45.9718717" lon="12.9859433"><ele>43.333333333333336</ele><time>2026-03-22T08:10:37.45Z</time></trkpt><trkpt lat="45.9718083" lon="12.9857317"><ele>43.666666666666664</ele><time>2026-03-22T08:10:38.45Z</time></trkpt><trkpt lat="45.971755" lon="12.9855217"><ele>44.0</ele><time>2026-03-22T08:10:39.451Z</time></trkpt><trkpt lat="45.9716933" lon="12.9853"><ele>44.33333333333333</ele><time>2026-03-22T08:10:40.45Z</time></trkpt><trkpt lat="45.971625" lon="12.9850617"><ele>44.666666666666664</ele><time>2026-03-22T08:10:41.452Z</time></trkpt><trkpt lat="45.97155" lon="12.9848083"><ele>45.0</ele><time>2026-03-22T08:10:42.451Z</time></trkpt><trkpt lat="45.97147" lon="12.9845417"><ele>45.0</ele><time>2026-03-22T08:10:43.45Z</time></trkpt><trkpt lat="45.9713933" lon="12.9842733"><ele>45.0</ele><time>2026-03-22T08:10:44.451Z</time></trkpt><trkpt lat="45.971315" lon="12.98401"><ele>45.0</ele><time>2026-03-22T08:10:45.452Z</time></trkpt><trkpt lat="45.971235" lon="12.9837467"><ele>45.0</ele><time>2026-03-22T08:10:46.45Z</time></trkpt><trkpt lat="45.9711583" lon="12.9834817"><ele>45.0</ele><time>2026-03-22T08:10:47.45Z</time></trkpt><trkpt lat="45.97108" lon="12.98321"><ele>45.0</ele><time>2026-03-22T08:10:48.451Z</time></trkpt><trkpt lat="45.9709983" lon="12.9829333"><ele>44.666666666666664</ele><time>2026-03-22T08:10:49.452Z</time></trkpt><trkpt lat="45.9709167" lon="12.9826583"><ele>44.33333333333333</ele><time>2026-03-22T08:10:50.452Z</time></trkpt><trkpt lat="45.970835" lon="12.9823933"><ele>44.0</ele><time>2026-03-22T08:10:51.452Z</time></trkpt><trkpt lat="45.9707583" lon="12.9821267"><ele>43.666666666666664</ele><time>2026-03-22T08:10:52.453Z</time></trkpt><trkpt lat="45.97068" lon="12.9818583"><ele>43.333333333333336</ele><time>2026-03-22T08:10:53.452Z</time></trkpt><trkpt lat="45.9706" lon="12.9815933"><ele>43.0</ele><time>2026-03-22T08:10:54.452Z</time></trkpt><trkpt lat="45.97052" lon="12.981335"><ele>43.0</ele><time>2026-03-22T08:10:55.451Z</time></trkpt><trkpt lat="45.9704417" lon="12.9810733"><ele>43.0</ele><time>2026-03-22T08:10:56.451Z</time></trkpt><trkpt lat="45.9703617" lon="12.9808083"><ele>43.0</ele><time>2026-03-22T08:10:57.451Z</time></trkpt><trkpt lat="45.9702833" lon="12.9805383"><ele>43.0</ele><time>2026-03-22T08:10:58.45Z</time></trkpt><trkpt lat="45.9702067" lon="12.980275"><ele>43.0</ele><time>2026-03-22T08:10:59.451Z</time></trkpt><trkpt lat="45.9701317" lon="12.98001"><ele>43.0</ele><time>2026-03-22T08:11:00.45Z</time></trkpt><trkpt lat="45.9700533" lon="12.97975"><ele>43.0</ele><time>2026-03-22T08:11:01.45Z</time></trkpt><trkpt lat="45.9699767" lon="12.9794917"><ele>43.0</ele><time>2026-03-22T08:11:02.45Z</time></trkpt><trkpt lat="45.9699033" lon="12.9792383"><ele>43.0</ele><time>2026-03-22T08:11:03.451Z</time></trkpt><trkpt lat="45.9698333" lon="12.9789917"><ele>43.333333333333336</ele><time>2026-03-22T08:11:04.451Z</time></trkpt><trkpt lat="45.969765" lon="12.9787567"><ele>43.666666666666664</ele><time>2026-03-22T08:11:05.451Z</time></trkpt><trkpt lat="45.9696983" lon="12.9785283"><ele>44.0</ele><time>2026-03-22T08:11:06.451Z</time></trkpt><trkpt lat="45.969635" lon="12.9783117"><ele>44.33333333333333</ele><time>2026-03-22T08:11:07.451Z</time></trkpt><trkpt lat="45.9695733" lon="12.9781"><ele>44.666666666666664</ele><time>2026-03-22T08:11:08.451Z</time></trkpt><trkpt lat="45.9695117" lon="12.97789"><ele>45.0</ele><time>2026-03-22T08:11:09.451Z</time></trkpt><trkpt lat="45.969455" lon="12.97769"><ele>45.0</ele><time>2026-03-22T08:11:10.451Z</time></trkpt><trkpt lat="45.9693967" lon="12.977495"><ele>45.0</ele><time>2026-03-22T08:11:11.451Z</time></trkpt><trkpt lat="45.9693467" lon="12.9773083"><ele>45.0</ele><time>2026-03-22T08:11:12.452Z</time></trkpt><trkpt lat="45.9692983" lon="12.9771333"><ele>45.0</ele><time>2026-03-22T08:11:13.451Z</time></trkpt><trkpt lat="45.9692533" lon="12.9769783"><ele>45.0</ele><time>2026-03-22T08:11:14.453Z</time></trkpt><trkpt lat="45.9692083" lon="12.9768317"><ele>45.0</ele><time>2026-03-22T08:11:15.453Z</time></trkpt><trkpt lat="45.9691717" lon="12.9766967"><ele>45.0</ele><time>2026-03-22T08:11:16.452Z</time></trkpt><trkpt lat="45.9691467" lon="12.9765633"><ele>45.0</ele><time>2026-03-22T08:11:17.451Z</time></trkpt><trkpt lat="45.9691367" lon="12.97643"><ele>45.0</ele><time>2026-03-22T08:11:18.452Z</time></trkpt><trkpt lat="45.9691433" lon="12.976295"><ele>44.6</ele><time>2026-03-22T08:11:19.451Z</time></trkpt><trkpt lat="45.9691467" lon="12.9761583"><ele>44.2</ele><time>2026-03-22T08:11:20.451Z</time></trkpt><trkpt lat="45.9691317" lon="12.9760317"><ele>43.8</ele><time>2026-03-22T08:11:21.452Z</time></trkpt><trkpt lat="45.969085" lon="12.9759133"><ele>43.4</ele><time>2026-03-22T08:11:22.452Z</time></trkpt><trkpt lat="45.9690133" lon="12.97582"><ele>43.0</ele><time>2026-03-22T08:11:23.452Z</time></trkpt><trkpt lat="45.9689333" lon="12.9757267"><ele>43.0</ele><time>2026-03-22T08:11:24.451Z</time></trkpt><trkpt lat="45.9688633" lon="12.9756017"><ele>43.0</ele><time>2026-03-22T08:11:25.451Z</time></trkpt><trkpt lat="45.9688133" lon="12.9754383"><ele>43.0</ele><time>2026-03-22T08:11:26.45Z</time></trkpt><trkpt lat="45.968765" lon="12.9752517"><ele>43.0</ele><time>2026-03-22T08:11:27.451Z</time></trkpt><trkpt lat="45.9687033" lon="12.9750417"><ele>43.66666666666667</ele><time>2026-03-22T08:11:28.45Z</time></trkpt><trkpt lat="45.968635" lon="12.97482"><ele>44.333333333333336</ele><time>2026-03-22T08:11:29.451Z</time></trkpt><trkpt lat="45.96857" lon="12.9746"><ele>45.0</ele><time>2026-03-22T08:11:30.452Z</time></trkpt><trkpt lat="45.9685017" lon="12.974375"><ele>44.0</ele><time>2026-03-22T08:11:31.452Z</time></trkpt><trkpt lat="45.9684317" lon="12.9741467"><ele>43.0</ele><time>2026-03-22T08:11:32.452Z</time></trkpt><trkpt lat="45.96836" lon="12.97392"><ele>42.0</ele><time>2026-03-22T08:11:33.452Z</time></trkpt><trkpt lat="45.9682883" lon="12.9736867"><ele>42.0</ele><time>2026-03-22T08:11:34.453Z</time></trkpt><trkpt lat="45.9682167" lon="12.9734383"><ele>42.0</ele><time>2026-03-22T08:11:35.452Z</time></trkpt><trkpt lat="45.9681467" lon="12.9731867"><ele>42.0</ele><time>2026-03-22T08:11:36.451Z</time></trkpt><trkpt lat="45.968075" lon="12.9729267"><ele>42.0</ele><time>2026-03-22T08:11:37.45Z</time></trkpt><trkpt lat="45.9679967" lon="12.972665"><ele>42.0</ele><time>2026-03-22T08:11:38.451Z</time></trkpt><trkpt lat="45.96792" lon="12.9723983"><ele>42.0</ele><time>2026-03-22T08:11:39.451Z</time></trkpt><trkpt lat="45.9678433" lon="12.9721367"><ele>41.666666666666664</ele><time>2026-03-22T08:11:40.45Z</time></trkpt><trkpt lat="45.967755" lon="12.9718767"><ele>41.33333333333333</ele><time>2026-03-22T08:11:41.452Z</time></trkpt><trkpt lat="45.9676833" lon="12.9716"><ele>41.0</ele><time>2026-03-22T08:11:42.45Z</time></trkpt><trkpt lat="45.9676" lon="12.9713317"><ele>41.33333333333333</ele><time>2026-03-22T08:11:43.451Z</time></trkpt><trkpt lat="45.96752" lon="12.97106"><ele>41.666666666666664</ele><time>2026-03-22T08:11:44.451Z</time></trkpt><trkpt lat="45.96744" lon="12.97079"><ele>42.0</ele><time>2026-03-22T08:11:45.452Z</time></trkpt><trkpt lat="45.9673633" lon="12.9705167"><ele>42.0</ele><time>2026-03-22T08:11:46.452Z</time></trkpt><trkpt lat="45.967285" lon="12.970245"><ele>42.0</ele><time>2026-03-22T08:11:47.452Z</time></trkpt><trkpt lat="45.96721" lon="12.9699783"><ele>42.0</ele><time>2026-03-22T08:11:48.45Z</time></trkpt><trkpt lat="45.9671333" lon="12.9697183"><ele>42.333333333333336</ele><time>2026-03-22T08:11:49.449Z</time></trkpt><trkpt lat="45.9670583" lon="12.9694567"><ele>42.66666666666667</ele><time>2026-03-22T08:11:50.452Z</time></trkpt><trkpt lat="45.9669833" lon="12.9692"><ele>43.0</ele><time>2026-03-22T08:11:51.451Z</time></trkpt><trkpt lat="45.9669067" lon="12.9689417"><ele>42.333333333333336</ele><time>2026-03-22T08:11:52.451Z</time></trkpt><trkpt lat="45.9668267" lon="12.9686833"><ele>41.666666666666664</ele><time>2026-03-22T08:11:53.451Z</time></trkpt><trkpt lat="45.96675" lon="12.9684267"><ele>41.0</ele><time>2026-03-22T08:11:54.452Z</time></trkpt><trkpt lat="45.9666767" lon="12.9681783"><ele>41.0</ele><time>2026-03-22T08:11:55.451Z</time></trkpt><trkpt lat="45.9666083" lon="12.9679383"><ele>41.0</ele><time>2026-03-22T08:11:56.451Z</time></trkpt><trkpt lat="45.9665467" lon="12.9677117"><ele>41.0</ele><time>2026-03-22T08:11:57.451Z</time></trkpt><trkpt lat="45.9664817" lon="12.967485"><ele>41.0</ele><time>2026-03-22T08:11:58.451Z</time></trkpt><trkpt lat="45.9664167" lon="12.967265"><ele>41.0</ele><time>2026-03-22T08:11:59.453Z</time></trkpt><trkpt lat="45.96635" lon="12.967035"><ele>41.0</ele><time>2026-03-22T08:12:00.45Z</time></trkpt><trkpt lat="45.96628" lon="12.9668067"><ele>41.33333333333333</ele><time>2026-03-22T08:12:01.45Z</time></trkpt><trkpt lat="45.96621" lon="12.9665717"><ele>41.666666666666664</ele><time>2026-03-22T08:12:02.451Z</time></trkpt><trkpt lat="45.96614" lon="12.9663267"><ele>42.0</ele><time>2026-03-22T08:12:03.452Z</time></trkpt><trkpt lat="45.96607" lon="12.9660767"><ele>42.0</ele><time>2026-03-22T08:12:04.452Z</time></trkpt><trkpt lat="45.9659983" lon="12.9658233"><ele>42.0</ele><time>2026-03-22T08:12:05.451Z</time></trkpt><trkpt lat="45.9659217" lon="12.9655617"><ele>42.0</ele><time>2026-03-22T08:12:06.452Z</time></trkpt><trkpt lat="45.9658417" lon="12.9652967"><ele>41.333333333333336</ele><time>2026-03-22T08:12:07.452Z</time></trkpt><trkpt lat="45.96576" lon="12.9650267"><ele>40.66666666666667</ele><time>2026-03-22T08:12:08.451Z</time></trkpt><trkpt lat="45.965675" lon="12.9647517"><ele>40.0</ele><time>2026-03-22T08:12:09.451Z</time></trkpt><trkpt lat="45.9655867" lon="12.96447"><ele>41.0</ele><time>2026-03-22T08:12:10.45Z</time></trkpt><trkpt lat="45.9655033" lon="12.96418"><ele>42.0</ele><time>2026-03-22T08:12:11.452Z</time></trkpt><trkpt lat="45.9654183" lon="12.9638883"><ele>43.0</ele><time>2026-03-22T08:12:12.451Z</time></trkpt><trkpt lat="45.9653333" lon="12.96359"><ele>43.0</ele><time>2026-03-22T08:12:13.451Z</time></trkpt><trkpt lat="45.9652433" lon="12.96329"><ele>43.0</ele><time>2026-03-22T08:12:14.45Z</time></trkpt><trkpt lat="45.96515" lon="12.9629783"><ele>43.0</ele><time>2026-03-22T08:12:15.452Z</time></trkpt><trkpt lat="45.965045" lon="12.9626617"><ele>43.0</ele><time>2026-03-22T08:12:16.451Z</time></trkpt><trkpt lat="45.96494" lon="12.9623317"><ele>42.5</ele><time>2026-03-22T08:12:17.449Z</time></trkpt><trkpt lat="45.9648483" lon="12.9620033"><ele>42.0</ele><time>2026-03-22T08:12:18.451Z</time></trkpt><trkpt lat="45.9647717" lon="12.9616817"><ele>42.0</ele><time>2026-03-22T08:12:19.451Z</time></trkpt><trkpt lat="45.9647" lon="12.961375"><ele>42.0</ele><time>2026-03-22T08:12:20.451Z</time></trkpt><trkpt lat="45.9646217" lon="12.9610883"><ele>42.0</ele><time>2026-03-22T08:12:21.452Z</time></trkpt><trkpt lat="45.964535" lon="12.9608067"><ele>42.0</ele><time>2026-03-22T08:12:22.451Z</time></trkpt><trkpt lat="45.96445" lon="12.96052"><ele>42.0</ele><time>2026-03-22T08:12:23.451Z</time></trkpt><trkpt lat="45.96438" lon="12.960225"><ele>42.0</ele><time>2026-03-22T08:12:24.451Z</time></trkpt><trkpt lat="45.9643133" lon="12.959925"><ele>42.0</ele><time>2026-03-22T08:12:25.451Z</time></trkpt><trkpt lat="45.964255" lon="12.95962"><ele>42.0</ele><time>2026-03-22T08:12:26.45Z</time></trkpt><trkpt lat="45.9642133" lon="12.959305"><ele>42.0</ele><time>2026-03-22T08:12:27.451Z</time></trkpt><trkpt lat="45.9641933" lon="12.958985"><ele>42.0</ele><time>2026-03-22T08:12:28.451Z</time></trkpt><trkpt lat="45.9641867" lon="12.958665"><ele>42.0</ele><time>2026-03-22T08:12:29.453Z</time></trkpt><trkpt lat="45.9642017" lon="12.958345"><ele>42.0</ele><time>2026-03-22T08:12:30.451Z</time></trkpt><trkpt lat="45.96423" lon="12.9580317"><ele>41.666666666666664</ele><time>2026-03-22T08:12:31.451Z</time></trkpt><trkpt lat="45.9642683" lon="12.9577183"><ele>41.33333333333333</ele><time>2026-03-22T08:12:32.451Z</time></trkpt><trkpt lat="45.964315" lon="12.9574133"><ele>41.0</ele><time>2026-03-22T08:12:33.451Z</time></trkpt><trkpt lat="45.96436" lon="12.9571133"><ele>41.0</ele><time>2026-03-22T08:12:34.451Z</time></trkpt><trkpt lat="45.9644083" lon="12.95682"><ele>41.0</ele><time>2026-03-22T08:12:35.451Z</time></trkpt><trkpt lat="45.9644533" lon="12.9565267"><ele>41.0</ele><time>2026-03-22T08:12:36.45Z</time></trkpt><trkpt lat="45.9644933" lon="12.9562333"><ele>41.33333333333333</ele><time>2026-03-22T08:12:37.451Z</time></trkpt><trkpt lat="45.9645333" lon="12.95594"><ele>41.666666666666664</ele><time>2026-03-22T08:12:38.45Z</time></trkpt><trkpt lat="45.9645767" lon="12.9556467"><ele>42.0</ele><time>2026-03-22T08:12:39.451Z</time></trkpt><trkpt lat="45.9646217" lon="12.9553683"><ele>42.0</ele><time>2026-03-22T08:12:40.45Z</time></trkpt><trkpt lat="45.964665" lon="12.9550867"><ele>42.0</ele><time>2026-03-22T08:12:41.451Z</time></trkpt><trkpt lat="45.9647083" lon="12.95481"><ele>42.0</ele><time>2026-03-22T08:12:42.451Z</time></trkpt><trkpt lat="45.96475" lon="12.9545367"><ele>42.0</ele><time>2026-03-22T08:12:43.451Z</time></trkpt><trkpt lat="45.964795" lon="12.9542683"><ele>42.0</ele><time>2026-03-22T08:12:44.45Z</time></trkpt><trkpt lat="45.96484" lon="12.9540017"><ele>42.0</ele><time>2026-03-22T08:12:45.451Z</time></trkpt><trkpt lat="45.96488" lon="12.9537317"><ele>42.0</ele><time>2026-03-22T08:12:46.451Z</time></trkpt><trkpt lat="45.9649217" lon="12.9534683"><ele>42.0</ele><time>2026-03-22T08:12:47.451Z</time></trkpt><trkpt lat="45.9649617" lon="12.95321"><ele>42.0</ele><time>2026-03-22T08:12:48.45Z</time></trkpt><trkpt lat="45.9650017" lon="12.95295"><ele>42.0</ele><time>2026-03-22T08:12:49.45Z</time></trkpt><trkpt lat="45.9650433" lon="12.9526917"><ele>42.0</ele><time>2026-03-22T08:12:50.45Z</time></trkpt><trkpt lat="45.9650833" lon="12.952435"><ele>42.0</ele><time>2026-03-22T08:12:51.45Z</time></trkpt><trkpt lat="45.9651233" lon="12.9521733"><ele>41.666666666666664</ele><time>2026-03-22T08:12:52.45Z</time></trkpt><trkpt lat="45.9651617" lon="12.9519117"><ele>41.33333333333333</ele><time>2026-03-22T08:12:53.451Z</time></trkpt><trkpt lat="45.9652" lon="12.9516517"><ele>41.0</ele><time>2026-03-22T08:12:54.451Z</time></trkpt><trkpt lat="45.96524" lon="12.9513917"><ele>41.0</ele><time>2026-03-22T08:12:55.449Z</time></trkpt><trkpt lat="45.9652817" lon="12.9511333"><ele>41.0</ele><time>2026-03-22T08:12:56.451Z</time></trkpt><trkpt lat="45.96532" lon="12.9508717"><ele>41.0</ele><time>2026-03-22T08:12:57.45Z</time></trkpt><trkpt lat="45.96536" lon="12.9506083"><ele>41.33333333333333</ele><time>2026-03-22T08:12:58.451Z</time></trkpt><trkpt lat="45.9654" lon="12.9503383"><ele>41.666666666666664</ele><time>2026-03-22T08:12:59.45Z</time></trkpt><trkpt lat="45.96544" lon="12.950065"><ele>42.0</ele><time>2026-03-22T08:13:00.451Z</time></trkpt><trkpt lat="45.9654783" lon="12.949795"><ele>42.0</ele><time>2026-03-22T08:13:01.452Z</time></trkpt><trkpt lat="45.9655217" lon="12.9495267"><ele>42.0</ele><time>2026-03-22T08:13:02.45Z</time></trkpt><trkpt lat="45.9655633" lon="12.949265"><ele>42.0</ele><time>2026-03-22T08:13:03.451Z</time></trkpt><trkpt lat="45.9656067" lon="12.949005"><ele>42.0</ele><time>2026-03-22T08:13:04.451Z</time></trkpt><trkpt lat="45.96565" lon="12.9487467"><ele>42.0</ele><time>2026-03-22T08:13:05.45Z</time></trkpt><trkpt lat="45.9656883" lon="12.948485"><ele>42.0</ele><time>2026-03-22T08:13:06.452Z</time></trkpt><trkpt lat="45.9657267" lon="12.9482217"><ele>42.0</ele><time>2026-03-22T08:13:07.452Z</time></trkpt><trkpt lat="45.9657667" lon="12.9479583"><ele>42.0</ele><time>2026-03-22T08:13:08.449Z</time></trkpt><trkpt lat="45.9658117" lon="12.947695"><ele>42.0</ele><time>2026-03-22T08:13:09.451Z</time></trkpt><trkpt lat="45.9658533" lon="12.94743"><ele>42.0</ele><time>2026-03-22T08:13:10.452Z</time></trkpt><trkpt lat="45.9658917" lon="12.9471633"><ele>42.0</ele><time>2026-03-22T08:13:11.451Z</time></trkpt><trkpt lat="45.9659267" lon="12.9469067"><ele>42.0</ele><time>2026-03-22T08:13:12.449Z</time></trkpt><trkpt lat="45.9659617" lon="12.9466583"><ele>42.0</ele><time>2026-03-22T08:13:13.451Z</time></trkpt><trkpt lat="45.966" lon="12.946415"><ele>42.0</ele><time>2026-03-22T08:13:14.451Z</time></trkpt><trkpt lat="45.9660333" lon="12.9461767"><ele>42.0</ele><time>2026-03-22T08:13:15.452Z</time></trkpt><trkpt lat="45.9660683" lon="12.94594"><ele>42.333333333333336</ele><time>2026-03-22T08:13:16.45Z</time></trkpt><trkpt lat="45.9661" lon="12.9457067"><ele>42.66666666666667</ele><time>2026-03-22T08:13:17.45Z</time></trkpt><trkpt lat="45.9661383" lon="12.9454733"><ele>43.0</ele><time>2026-03-22T08:13:18.451Z</time></trkpt><trkpt lat="45.96617" lon="12.9452383"><ele>43.333333333333336</ele><time>2026-03-22T08:13:19.451Z</time></trkpt><trkpt lat="45.96621" lon="12.945005"><ele>43.666666666666664</ele><time>2026-03-22T08:13:20.453Z</time></trkpt><trkpt lat="45.9662467" lon="12.944775"><ele>44.0</ele><time>2026-03-22T08:13:21.452Z</time></trkpt><trkpt lat="45.9662817" lon="12.9445433"><ele>44.0</ele><time>2026-03-22T08:13:22.453Z</time></trkpt><trkpt lat="45.966315" lon="12.944315"><ele>44.0</ele><time>2026-03-22T08:13:23.451Z</time></trkpt><trkpt lat="45.9663483" lon="12.9440867"><ele>44.0</ele><time>2026-03-22T08:13:24.452Z</time></trkpt><trkpt lat="45.9663817" lon="12.9438617"><ele>44.0</ele><time>2026-03-22T08:13:25.451Z</time></trkpt><trkpt lat="45.966415" lon="12.94364"><ele>44.0</ele><time>2026-03-22T08:13:26.45Z</time></trkpt><trkpt lat="45.9664467" lon="12.9434183"><ele>44.0</ele><time>2026-03-22T08:13:27.452Z</time></trkpt><trkpt lat="45.9664833" lon="12.9432017"><ele>44.33333333333333</ele><time>2026-03-22T08:13:28.45Z</time></trkpt><trkpt lat="45.9665183" lon="12.9429883"><ele>44.666666666666664</ele><time>2026-03-22T08:13:29.453Z</time></trkpt><trkpt lat="45.96655" lon="12.942775"><ele>45.0</ele><time>2026-03-22T08:13:30.452Z</time></trkpt><trkpt lat="45.966585" lon="12.9425717"><ele>45.0</ele><time>2026-03-22T08:13:31.45Z</time></trkpt><trkpt lat="45.9666167" lon="12.942375"><ele>45.0</ele><time>2026-03-22T08:13:32.449Z</time></trkpt><trkpt lat="45.9666433" lon="12.9421767"><ele>45.0</ele><time>2026-03-22T08:13:33.451Z</time></trkpt><trkpt lat="45.96667" lon="12.9419767"><ele>45.0</ele><time>2026-03-22T08:13:34.45Z</time></trkpt><trkpt lat="45.9667" lon="12.9417783"><ele>45.25</ele><time>2026-03-22T08:13:35.451Z</time></trkpt><trkpt lat="45.9667283" lon="12.9415783"><ele>45.5</ele><time>2026-03-22T08:13:36.452Z</time></trkpt><trkpt lat="45.966755" lon="12.9413767"><ele>45.75</ele><time>2026-03-22T08:13:37.453Z</time></trkpt><trkpt lat="45.9667833" lon="12.9411783"><ele>46.0</ele><time>2026-03-22T08:13:38.45Z</time></trkpt><trkpt lat="45.9668167" lon="12.94098"><ele>45.75</ele><time>2026-03-22T08:13:39.452Z</time></trkpt><trkpt lat="45.9668467" lon="12.940775"><ele>45.5</ele><time>2026-03-22T08:13:40.452Z</time></trkpt><trkpt lat="45.96688" lon="12.9405683"><ele>45.25</ele><time>2026-03-22T08:13:41.451Z</time></trkpt><trkpt lat="45.96691" lon="12.9403583"><ele>45.0</ele><time>2026-03-22T08:13:42.451Z</time></trkpt><trkpt lat="45.9669467" lon="12.9401467"><ele>45.333333333333336</ele><time>2026-03-22T08:13:43.451Z</time></trkpt><trkpt lat="45.9669817" lon="12.9399333"><ele>45.66666666666667</ele><time>2026-03-22T08:13:44.451Z</time></trkpt><trkpt lat="45.9670133" lon="12.939715"><ele>46.0</ele><time>2026-03-22T08:13:45.452Z</time></trkpt><trkpt lat="45.967045" lon="12.9394917"><ele>46.0</ele><time>2026-03-22T08:13:46.452Z</time></trkpt><trkpt lat="45.9670783" lon="12.939265"><ele>46.0</ele><time>2026-03-22T08:13:47.451Z</time></trkpt><trkpt lat="45.9671167" lon="12.93903"><ele>46.0</ele><time>2026-03-22T08:13:48.453Z</time></trkpt><trkpt lat="45.967155" lon="12.9387867"><ele>46.0</ele><time>2026-03-22T08:13:49.45Z</time></trkpt><trkpt lat="45.9671917" lon="12.9385317"><ele>46.0</ele><time>2026-03-22T08:13:50.45Z</time></trkpt><trkpt lat="45.9672233" lon="12.9382633"><ele>46.0</ele><time>2026-03-22T08:13:51.452Z</time></trkpt><trkpt lat="45.967265" lon="12.9379883"><ele>46.0</ele><time>2026-03-22T08:13:52.451Z</time></trkpt><trkpt lat="45.967305" lon="12.937705"><ele>46.0</ele><time>2026-03-22T08:13:53.451Z</time></trkpt><trkpt lat="45.9673467" lon="12.9374083"><ele>46.0</ele><time>2026-03-22T08:13:54.451Z</time></trkpt><trkpt lat="45.9673917" lon="12.9370983"><ele>45.5</ele><time>2026-03-22T08:13:55.452Z</time></trkpt><trkpt lat="45.967435" lon="12.9367667"><ele>45.0</ele><time>2026-03-22T08:13:56.45Z</time></trkpt><trkpt lat="45.9674867" lon="12.93643"><ele>45.0</ele><time>2026-03-22T08:13:57.451Z</time></trkpt><trkpt lat="45.967545" lon="12.9360883"><ele>45.0</ele><time>2026-03-22T08:13:58.45Z</time></trkpt><trkpt lat="45.9676" lon="12.9357267"><ele>45.0</ele><time>2026-03-22T08:13:59.451Z</time></trkpt><trkpt lat="45.9676517" lon="12.93535"><ele>45.0</ele><time>2026-03-22T08:14:00.449Z</time></trkpt><trkpt lat="45.9677083" lon="12.9349733"><ele>46.0</ele><time>2026-03-22T08:14:01.449Z</time></trkpt><trkpt lat="45.9677667" lon="12.9346017"><ele>47.0</ele><time>2026-03-22T08:14:02.452Z</time></trkpt><trkpt lat="45.967825" lon="12.9342383"><ele>47.0</ele><time>2026-03-22T08:14:03.452Z</time></trkpt><trkpt lat="45.9678767" lon="12.9338733"><ele>47.0</ele><time>2026-03-22T08:14:04.451Z</time></trkpt><trkpt lat="45.9679283" lon="12.933515"><ele>46.5</ele><time>2026-03-22T08:14:05.451Z</time></trkpt><trkpt lat="45.9679817" lon="12.933175"><ele>46.0</ele><time>2026-03-22T08:14:06.451Z</time></trkpt><trkpt lat="45.96803" lon="12.932845"><ele>46.5</ele><time>2026-03-22T08:14:07.454Z</time></trkpt><trkpt lat="45.9681233" lon="12.93222"><ele>47.0</ele><time>2026-03-22T08:14:09.451Z</time></trkpt><trkpt lat="45.9681717" lon="12.9319083"><ele>46.33333333333333</ele><time>2026-03-22T08:14:10.45Z</time></trkpt><trkpt lat="45.9682167" lon="12.9315967"><ele>45.666666666666664</ele><time>2026-03-22T08:14:11.451Z</time></trkpt><trkpt lat="45.9682617" lon="12.93129"><ele>45.0</ele><time>2026-03-22T08:14:12.451Z</time></trkpt><trkpt lat="45.9683067" lon="12.9309833"><ele>45.333333333333336</ele><time>2026-03-22T08:14:13.451Z</time></trkpt><trkpt lat="45.9683483" lon="12.930675"><ele>45.66666666666667</ele><time>2026-03-22T08:14:14.452Z</time></trkpt><trkpt lat="45.968395" lon="12.9303767"><ele>46.0</ele><time>2026-03-22T08:14:15.451Z</time></trkpt><trkpt lat="45.9684383" lon="12.930075"><ele>46.0</ele><time>2026-03-22T08:14:16.45Z</time></trkpt><trkpt lat="45.9684717" lon="12.9297833"><ele>46.0</ele><time>2026-03-22T08:14:17.451Z</time></trkpt><trkpt lat="45.968505" lon="12.9295067"><ele>46.0</ele><time>2026-03-22T08:14:18.451Z</time></trkpt><trkpt lat="45.96853" lon="12.9292433"><ele>46.0</ele><time>2026-03-22T08:14:19.45Z</time></trkpt><trkpt lat="45.9685617" lon="12.9289967"><ele>46.0</ele><time>2026-03-22T08:14:20.45Z</time></trkpt><trkpt lat="45.9685883" lon="12.928765"><ele>46.0</ele><time>2026-03-22T08:14:21.45Z</time></trkpt><trkpt lat="45.9686183" lon="12.9285517"><ele>46.0</ele><time>2026-03-22T08:14:22.451Z</time></trkpt><trkpt lat="45.9686467" lon="12.928355"><ele>46.0</ele><time>2026-03-22T08:14:23.451Z</time></trkpt><trkpt lat="45.96868" lon="12.9281683"><ele>46.0</ele><time>2026-03-22T08:14:24.45Z</time></trkpt><trkpt lat="45.9687133" lon="12.9279917"><ele>46.0</ele><time>2026-03-22T08:14:25.451Z</time></trkpt><trkpt lat="45.9687517" lon="12.927825"><ele>46.0</ele><time>2026-03-22T08:14:26.452Z</time></trkpt><trkpt lat="45.9687917" lon="12.927675"><ele>46.0</ele><time>2026-03-22T08:14:27.452Z</time></trkpt><trkpt lat="45.968845" lon="12.92754"><ele>46.0</ele><time>2026-03-22T08:14:28.45Z</time></trkpt><trkpt lat="45.9689083" lon="12.9274167"><ele>46.0</ele><time>2026-03-22T08:14:29.45Z</time></trkpt><trkpt lat="45.9689583" lon="12.9272817"><ele>46.0</ele><time>2026-03-22T08:14:30.45Z</time></trkpt><trkpt lat="45.968975" lon="12.9271333"><ele>46.5</ele><time>2026-03-22T08:14:31.452Z</time></trkpt><trkpt lat="45.968955" lon="12.9269883"><ele>47.0</ele><time>2026-03-22T08:14:32.451Z</time></trkpt><trkpt lat="45.9689" lon="12.92686"><ele>47.5</ele><time>2026-03-22T08:14:33.451Z</time></trkpt><trkpt lat="45.96882" lon="12.9267383"><ele>48.0</ele><time>2026-03-22T08:14:34.451Z</time></trkpt><trkpt lat="45.9687417" lon="12.9265917"><ele>48.0</ele><time>2026-03-22T08:14:35.451Z</time></trkpt><trkpt lat="45.9686733" lon="12.9264"><ele>48.0</ele><time>2026-03-22T08:14:36.452Z</time></trkpt><trkpt lat="45.9686183" lon="12.9261667"><ele>48.0</ele><time>2026-03-22T08:14:37.451Z</time></trkpt><trkpt lat="45.9685633" lon="12.9259167"><ele>47.666666666666664</ele><time>2026-03-22T08:14:38.452Z</time></trkpt><trkpt lat="45.96851" lon="12.9256617"><ele>47.33333333333333</ele><time>2026-03-22T08:14:39.451Z</time></trkpt><trkpt lat="45.96846" lon="12.925405"><ele>47.0</ele><time>2026-03-22T08:14:40.451Z</time></trkpt><trkpt lat="45.9684117" lon="12.925145"><ele>47.0</ele><time>2026-03-22T08:14:41.449Z</time></trkpt><trkpt lat="45.9683567" lon="12.92487"><ele>47.0</ele><time>2026-03-22T08:14:42.45Z</time></trkpt><trkpt lat="45.9682817" lon="12.924575"><ele>47.0</ele><time>2026-03-22T08:14:43.451Z</time></trkpt><trkpt lat="45.9681883" lon="12.92425"><ele>46.5</ele><time>2026-03-22T08:14:44.45Z</time></trkpt><trkpt lat="45.9680883" lon="12.9239"><ele>46.0</ele><time>2026-03-22T08:14:45.45Z</time></trkpt><trkpt lat="45.9679817" lon="12.9235533"><ele>45.5</ele><time>2026-03-22T08:14:46.45Z</time></trkpt><trkpt lat="45.9678967" lon="12.923205"><ele>45.0</ele><time>2026-03-22T08:14:47.451Z</time></trkpt><trkpt lat="45.96781" lon="12.9228533"><ele>44.0</ele><time>2026-03-22T08:14:48.45Z</time></trkpt><trkpt lat="45.967715" lon="12.9225167"><ele>43.0</ele><time>2026-03-22T08:14:49.451Z</time></trkpt><trkpt lat="45.9676183" lon="12.9221967"><ele>45.0</ele><time>2026-03-22T08:14:50.45Z</time></trkpt><trkpt lat="45.967525" lon="12.921875"><ele>47.0</ele><time>2026-03-22T08:14:51.45Z</time></trkpt><trkpt lat="45.9674333" lon="12.921565"><ele>47.0</ele><time>2026-03-22T08:14:52.451Z</time></trkpt><trkpt lat="45.9673483" lon="12.9212617"><ele>47.0</ele><time>2026-03-22T08:14:53.45Z</time></trkpt><trkpt lat="45.9672667" lon="12.9209683"><ele>47.0</ele><time>2026-03-22T08:14:54.451Z</time></trkpt><trkpt lat="45.9671817" lon="12.920675"><ele>47.0</ele><time>2026-03-22T08:14:55.451Z</time></trkpt><trkpt lat="45.9671" lon="12.9203917"><ele>47.0</ele><time>2026-03-22T08:14:56.451Z</time></trkpt><trkpt lat="45.9670233" lon="12.9201183"><ele>47.0</ele><time>2026-03-22T08:14:57.45Z</time></trkpt><trkpt lat="45.9669467" lon="12.9198517"><ele>47.0</ele><time>2026-03-22T08:14:58.452Z</time></trkpt><trkpt lat="45.9668717" lon="12.9195867"><ele>47.0</ele><time>2026-03-22T08:14:59.451Z</time></trkpt><trkpt lat="45.9667967" lon="12.91933"><ele>47.0</ele><time>2026-03-22T08:15:00.452Z</time></trkpt><trkpt lat="45.9667217" lon="12.9190717"><ele>46.666666666666664</ele><time>2026-03-22T08:15:01.457Z</time></trkpt><trkpt lat="45.9666517" lon="12.918815"><ele>46.333333333333336</ele><time>2026-03-22T08:15:02.45Z</time></trkpt><trkpt lat="45.9665767" lon="12.9185617"><ele>46.0</ele><time>2026-03-22T08:15:03.453Z</time></trkpt><trkpt lat="45.9665033" lon="12.9183083"><ele>45.66666666666667</ele><time>2026-03-22T08:15:04.45Z</time></trkpt><trkpt lat="45.96643" lon="12.9180517"><ele>45.333333333333336</ele><time>2026-03-22T08:15:05.451Z</time></trkpt><trkpt lat="45.9663583" lon="12.9177933"><ele>45.0</ele><time>2026-03-22T08:15:06.451Z</time></trkpt><trkpt lat="45.966285" lon="12.9175333"><ele>45.0</ele><time>2026-03-22T08:15:07.452Z</time></trkpt><trkpt lat="45.9662133" lon="12.9172867"><ele>45.0</ele><time>2026-03-22T08:15:08.452Z</time></trkpt><trkpt lat="45.966145" lon="12.9170483"><ele>45.0</ele><time>2026-03-22T08:15:09.452Z</time></trkpt><trkpt lat="45.9660833" lon="12.9168233"><ele>45.0</ele><time>2026-03-22T08:15:10.451Z</time></trkpt><trkpt lat="45.9660267" lon="12.9166233"><ele>45.0</ele><time>2026-03-22T08:15:11.452Z</time></trkpt><trkpt lat="45.965975" lon="12.9164417"><ele>45.0</ele><time>2026-03-22T08:15:12.451Z</time></trkpt><trkpt lat="45.9659233" lon="12.91627"><ele>45.0</ele><time>2026-03-22T08:15:13.452Z</time></trkpt><trkpt lat="45.9658783" lon="12.91611"><ele>44.8</ele><time>2026-03-22T08:15:14.45Z</time></trkpt><trkpt lat="45.9658333" lon="12.91595"><ele>44.6</ele><time>2026-03-22T08:15:15.452Z</time></trkpt><trkpt lat="45.9657933" lon="12.9158033"><ele>44.400000000000006</ele><time>2026-03-22T08:15:16.452Z</time></trkpt><trkpt lat="45.9657533" lon="12.9156633"><ele>44.2</ele><time>2026-03-22T08:15:17.453Z</time></trkpt><trkpt lat="45.96572" lon="12.91553"><ele>44.0</ele><time>2026-03-22T08:15:18.449Z</time></trkpt><trkpt lat="45.9656817" lon="12.9154017"><ele>44.166666666666664</ele><time>2026-03-22T08:15:19.451Z</time></trkpt><trkpt lat="45.9656417" lon="12.9152783"><ele>44.33333333333333</ele><time>2026-03-22T08:15:20.451Z</time></trkpt><trkpt lat="45.9656017" lon="12.91516"><ele>44.5</ele><time>2026-03-22T08:15:21.452Z</time></trkpt><trkpt lat="45.9655633" lon="12.9150517"><ele>44.666666666666664</ele><time>2026-03-22T08:15:22.451Z</time></trkpt><trkpt lat="45.96553" lon="12.9149533"><ele>44.833333333333336</ele><time>2026-03-22T08:15:23.451Z</time></trkpt><trkpt lat="45.965495" lon="12.914865"><ele>45.0</ele><time>2026-03-22T08:15:24.453Z</time></trkpt><trkpt lat="45.96546" lon="12.9147733"><ele>45.0</ele><time>2026-03-22T08:15:25.451Z</time></trkpt><trkpt lat="45.9654267" lon="12.9146833"><ele>45.0</ele><time>2026-03-22T08:15:26.453Z</time></trkpt><trkpt lat="45.96539" lon="12.9145917"><ele>45.0</ele><time>2026-03-22T08:15:27.451Z</time></trkpt><trkpt lat="45.9653567" lon="12.9144983"><ele>45.0</ele><time>2026-03-22T08:15:28.451Z</time></trkpt><trkpt lat="45.9653217" lon="12.9144067"><ele>45.0</ele><time>2026-03-22T08:15:29.449Z</time></trkpt><trkpt lat="45.9652933" lon="12.914315"><ele>45.0</ele><time>2026-03-22T08:15:30.451Z</time></trkpt><trkpt lat="45.96526" lon="12.9142217"><ele>45.0</ele><time>2026-03-22T08:15:31.45Z</time></trkpt><trkpt lat="45.9652267" lon="12.9141283"><ele>44.833333333333336</ele><time>2026-03-22T08:15:32.45Z</time></trkpt><trkpt lat="45.9651917" lon="12.9140383"><ele>44.666666666666664</ele><time>2026-03-22T08:15:33.45Z</time></trkpt><trkpt lat="45.9651633" lon="12.9139467"><ele>44.5</ele><time>2026-03-22T08:15:34.451Z</time></trkpt><trkpt lat="45.965135" lon="12.9138567"><ele>44.33333333333333</ele><time>2026-03-22T08:15:35.452Z</time></trkpt><trkpt lat="45.9651117" lon="12.91377"><ele>44.166666666666664</ele><time>2026-03-22T08:15:36.45Z</time></trkpt><trkpt lat="45.96507" lon="12.91361"><ele>44.0</ele><time>2026-03-22T08:15:38.451Z</time></trkpt><trkpt lat="45.965025" lon="12.913465"><ele>44.166666666666664</ele><time>2026-03-22T08:15:40.451Z</time></trkpt><trkpt lat="45.9649983" lon="12.9133483"><ele>44.33333333333333</ele><time>2026-03-22T08:15:42.45Z</time></trkpt><trkpt lat="45.96497" lon="12.9132417"><ele>44.5</ele><time>2026-03-22T08:15:45.451Z</time></trkpt><trkpt lat="45.9649467" lon="12.91315"><ele>44.666666666666664</ele><time>2026-03-22T08:16:45.451Z</time></trkpt><trkpt lat="45.964895" lon="12.9129867"><ele>44.833333333333336</ele><time>2026-03-22T08:16:47.45Z</time></trkpt><trkpt lat="45.9648617" lon="12.91289"><ele>45.0</ele><time>2026-03-22T08:16:48.451Z</time></trkpt><trkpt lat="45.96483" lon="12.912785"><ele>45.0</ele><time>2026-03-22T08:16:49.451Z</time></trkpt><trkpt lat="45.964795" lon="12.9126633"><ele>45.0</ele><time>2026-03-22T08:16:50.452Z</time></trkpt><trkpt lat="45.96476" lon="12.9125283"><ele>45.0</ele><time>2026-03-22T08:16:51.451Z</time></trkpt><trkpt lat="45.96474" lon="12.9123767"><ele>45.0</ele><time>2026-03-22T08:16:52.454Z</time></trkpt><trkpt lat="45.9647167" lon="12.9122117"><ele>45.0</ele><time>2026-03-22T08:16:53.451Z</time></trkpt><trkpt lat="45.96469" lon="12.9120283"><ele>45.25</ele><time>2026-03-22T08:16:54.452Z</time></trkpt><trkpt lat="45.9646683" lon="12.911835"><ele>45.5</ele><time>2026-03-22T08:16:55.451Z</time></trkpt><trkpt lat="45.96465" lon="12.91162"><ele>45.75</ele><time>2026-03-22T08:16:56.453Z</time></trkpt><trkpt lat="45.96463" lon="12.91139"><ele>46.0</ele><time>2026-03-22T08:16:57.452Z</time></trkpt><trkpt lat="45.964615" lon="12.9111583"><ele>46.66666666666667</ele><time>2026-03-22T08:16:58.454Z</time></trkpt><trkpt lat="45.96461" lon="12.9109233"><ele>47.333333333333336</ele><time>2026-03-22T08:16:59.45Z</time></trkpt><trkpt lat="45.9646083" lon="12.9106833"><ele>48.0</ele><time>2026-03-22T08:17:00.451Z</time></trkpt><trkpt lat="45.9646133" lon="12.9104433"><ele>48.0</ele><time>2026-03-22T08:17:01.451Z</time></trkpt><trkpt lat="45.9646217" lon="12.9101967"><ele>48.0</ele><time>2026-03-22T08:17:02.451Z</time></trkpt><trkpt lat="45.9646317" lon="12.9099467"><ele>48.0</ele><time>2026-03-22T08:17:03.452Z</time></trkpt><trkpt lat="45.96464" lon="12.9096917"><ele>47.666666666666664</ele><time>2026-03-22T08:17:04.451Z</time></trkpt><trkpt lat="45.9646483" lon="12.909445"><ele>47.33333333333333</ele><time>2026-03-22T08:17:05.45Z</time></trkpt><trkpt lat="45.96466" lon="12.9092083"><ele>47.0</ele><time>2026-03-22T08:17:06.451Z</time></trkpt><trkpt lat="45.9646683" lon="12.908965"><ele>46.0</ele><time>2026-03-22T08:17:07.45Z</time></trkpt><trkpt lat="45.9646783" lon="12.90871"><ele>45.0</ele><time>2026-03-22T08:17:08.451Z</time></trkpt><trkpt lat="45.96469" lon="12.9084517"><ele>44.0</ele><time>2026-03-22T08:17:09.452Z</time></trkpt><trkpt lat="45.9647033" lon="12.90819"><ele>44.0</ele><time>2026-03-22T08:17:10.45Z</time></trkpt><trkpt lat="45.9647167" lon="12.9079267"><ele>44.0</ele><time>2026-03-22T08:17:11.451Z</time></trkpt><trkpt lat="45.9647317" lon="12.9076583"><ele>44.0</ele><time>2026-03-22T08:17:12.45Z</time></trkpt><trkpt lat="45.9647483" lon="12.9073883"><ele>43.666666666666664</ele><time>2026-03-22T08:17:13.452Z</time></trkpt><trkpt lat="45.9647633" lon="12.90711"><ele>43.333333333333336</ele><time>2026-03-22T08:17:14.45Z</time></trkpt><trkpt lat="45.964775" lon="12.9068233"><ele>43.0</ele><time>2026-03-22T08:17:15.451Z</time></trkpt><trkpt lat="45.96479" lon="12.9065383"><ele>42.66666666666667</ele><time>2026-03-22T08:17:16.45Z</time></trkpt><trkpt lat="45.9648017" lon="12.9062533"><ele>42.333333333333336</ele><time>2026-03-22T08:17:17.452Z</time></trkpt><trkpt lat="45.964815" lon="12.905965"><ele>42.0</ele><time>2026-03-22T08:17:18.451Z</time></trkpt><trkpt lat="45.96483" lon="12.9056717"><ele>43.333333333333336</ele><time>2026-03-22T08:17:19.451Z</time></trkpt><trkpt lat="45.9648433" lon="12.9053767"><ele>44.66666666666667</ele><time>2026-03-22T08:17:20.452Z</time></trkpt><trkpt lat="45.9648567" lon="12.9050883"><ele>46.0</ele><time>2026-03-22T08:17:21.452Z</time></trkpt><trkpt lat="45.964875" lon="12.9048133"><ele>46.333333333333336</ele><time>2026-03-22T08:17:22.452Z</time></trkpt><trkpt lat="45.96489" lon="12.9045383"><ele>46.666666666666664</ele><time>2026-03-22T08:17:23.451Z</time></trkpt><trkpt lat="45.9649" lon="12.9042567"><ele>47.0</ele><time>2026-03-22T08:17:24.452Z</time></trkpt><trkpt lat="45.9649117" lon="12.903965"><ele>46.33333333333333</ele><time>2026-03-22T08:17:25.45Z</time></trkpt><trkpt lat="45.9649217" lon="12.90367"><ele>45.666666666666664</ele><time>2026-03-22T08:17:26.452Z</time></trkpt><trkpt lat="45.96493" lon="12.9033667"><ele>45.0</ele><time>2026-03-22T08:17:27.452Z</time></trkpt><trkpt lat="45.9649433" lon="12.9030517"><ele>44.5</ele><time>2026-03-22T08:17:28.449Z</time></trkpt><trkpt lat="45.964955" lon="12.9027217"><ele>44.0</ele><time>2026-03-22T08:17:29.451Z</time></trkpt><trkpt lat="45.9649717" lon="12.90238"><ele>43.5</ele><time>2026-03-22T08:17:30.451Z</time></trkpt><trkpt lat="45.964985" lon="12.9020217"><ele>43.0</ele><time>2026-03-22T08:17:31.451Z</time></trkpt><trkpt lat="45.965" lon="12.9016633"><ele>43.0</ele><time>2026-03-22T08:17:32.45Z</time></trkpt><trkpt lat="45.965015" lon="12.9013167"><ele>43.0</ele><time>2026-03-22T08:17:33.452Z</time></trkpt><trkpt lat="45.96503" lon="12.9009767"><ele>43.5</ele><time>2026-03-22T08:17:34.451Z</time></trkpt><trkpt lat="45.965045" lon="12.9006467"><ele>44.0</ele><time>2026-03-22T08:17:35.451Z</time></trkpt><trkpt lat="45.9650583" lon="12.9003267"><ele>44.0</ele><time>2026-03-22T08:17:36.451Z</time></trkpt><trkpt lat="45.9650767" lon="12.9000183"><ele>44.0</ele><time>2026-03-22T08:17:37.45Z</time></trkpt><trkpt lat="45.9650883" lon="12.8997133"><ele>44.0</ele><time>2026-03-22T08:17:38.45Z</time></trkpt><trkpt lat="45.9651" lon="12.89941"><ele>44.33333333333333</ele><time>2026-03-22T08:17:39.451Z</time></trkpt><trkpt lat="45.965115" lon="12.8991133"><ele>44.666666666666664</ele><time>2026-03-22T08:17:40.45Z</time></trkpt><trkpt lat="45.9651317" lon="12.8988167"><ele>45.0</ele><time>2026-03-22T08:17:41.45Z</time></trkpt><trkpt lat="45.965145" lon="12.89852"><ele>45.666666666666664</ele><time>2026-03-22T08:17:42.45Z</time></trkpt><trkpt lat="45.9651583" lon="12.898225"><ele>46.33333333333333</ele><time>2026-03-22T08:17:43.45Z</time></trkpt><trkpt lat="45.9651733" lon="12.8979383"><ele>47.0</ele><time>2026-03-22T08:17:44.45Z</time></trkpt><trkpt lat="45.9651867" lon="12.8976567"><ele>47.0</ele><time>2026-03-22T08:17:45.451Z</time></trkpt><trkpt lat="45.965195" lon="12.8973767"><ele>47.0</ele><time>2026-03-22T08:17:46.45Z</time></trkpt><trkpt lat="45.9652067" lon="12.8970933"><ele>47.0</ele><time>2026-03-22T08:17:47.456Z</time></trkpt><trkpt lat="45.9652183" lon="12.8968033"><ele>46.666666666666664</ele><time>2026-03-22T08:17:48.45Z</time></trkpt><trkpt lat="45.96523" lon="12.89651"><ele>46.333333333333336</ele><time>2026-03-22T08:17:49.451Z</time></trkpt><trkpt lat="45.9652383" lon="12.8962117"><ele>46.0</ele><time>2026-03-22T08:17:50.452Z</time></trkpt><trkpt lat="45.9652367" lon="12.8959067"><ele>45.66666666666667</ele><time>2026-03-22T08:17:51.451Z</time></trkpt><trkpt lat="45.9652283" lon="12.895595"><ele>45.333333333333336</ele><time>2026-03-22T08:17:52.451Z</time></trkpt><trkpt lat="45.9652117" lon="12.8952817"><ele>45.0</ele><time>2026-03-22T08:17:53.45Z</time></trkpt><trkpt lat="45.96519" lon="12.8949633"><ele>45.0</ele><time>2026-03-22T08:17:54.449Z</time></trkpt><trkpt lat="45.9651633" lon="12.8946467"><ele>45.0</ele><time>2026-03-22T08:17:55.451Z</time></trkpt><trkpt lat="45.9651333" lon="12.8943317"><ele>45.0</ele><time>2026-03-22T08:17:56.45Z</time></trkpt><trkpt lat="45.965095" lon="12.8940217"><ele>45.666666666666664</ele><time>2026-03-22T08:17:57.453Z</time></trkpt><trkpt lat="45.9650517" lon="12.8937133"><ele>46.33333333333333</ele><time>2026-03-22T08:17:58.45Z</time></trkpt><trkpt lat="45.965" lon="12.89341"><ele>47.0</ele><time>2026-03-22T08:17:59.452Z</time></trkpt><trkpt lat="45.9649467" lon="12.8931183"><ele>47.33333333333333</ele><time>2026-03-22T08:18:00.45Z</time></trkpt><trkpt lat="45.9648917" lon="12.8928383"><ele>47.666666666666664</ele><time>2026-03-22T08:18:01.45Z</time></trkpt><trkpt lat="45.9648383" lon="12.892565"><ele>48.0</ele><time>2026-03-22T08:18:02.45Z</time></trkpt><trkpt lat="45.9647817" lon="12.8922883"><ele>47.333333333333336</ele><time>2026-03-22T08:18:03.451Z</time></trkpt><trkpt lat="45.9647183" lon="12.8920117"><ele>46.66666666666667</ele><time>2026-03-22T08:18:04.451Z</time></trkpt><trkpt lat="45.964655" lon="12.891735"><ele>46.0</ele><time>2026-03-22T08:18:05.449Z</time></trkpt><trkpt lat="45.96459" lon="12.8914567"><ele>46.0</ele><time>2026-03-22T08:18:06.45Z</time></trkpt><trkpt lat="45.9645267" lon="12.8911717"><ele>46.0</ele><time>2026-03-22T08:18:07.45Z</time></trkpt><trkpt lat="45.9644617" lon="12.890885"><ele>46.0</ele><time>2026-03-22T08:18:08.45Z</time></trkpt><trkpt lat="45.9644067" lon="12.8905917"><ele>45.66666666666667</ele><time>2026-03-22T08:18:09.451Z</time></trkpt><trkpt lat="45.9643567" lon="12.8903"><ele>45.333333333333336</ele><time>2026-03-22T08:18:10.45Z</time></trkpt><trkpt lat="45.9643117" lon="12.89002"><ele>45.0</ele><time>2026-03-22T08:18:11.451Z</time></trkpt><trkpt lat="45.9642583" lon="12.8897567"><ele>45.0</ele><time>2026-03-22T08:18:12.451Z</time></trkpt><trkpt lat="45.964205" lon="12.8895083"><ele>45.0</ele><time>2026-03-22T08:18:13.452Z</time></trkpt><trkpt lat="45.9641417" lon="12.889265"><ele>45.0</ele><time>2026-03-22T08:18:14.45Z</time></trkpt><trkpt lat="45.96407" lon="12.8890283"><ele>45.0</ele><time>2026-03-22T08:18:15.451Z</time></trkpt><trkpt lat="45.9639917" lon="12.8888033"><ele>45.0</ele><time>2026-03-22T08:18:16.452Z</time></trkpt><trkpt lat="45.9638917" lon="12.8885967"><ele>45.0</ele><time>2026-03-22T08:18:17.451Z</time></trkpt><trkpt lat="45.9637733" lon="12.8883983"><ele>45.0</ele><time>2026-03-22T08:18:18.451Z</time></trkpt><trkpt lat="45.9636433" lon="12.8882083"><ele>45.0</ele><time>2026-03-22T08:18:19.452Z</time></trkpt><trkpt lat="45.9634983" lon="12.8880367"><ele>45.0</ele><time>2026-03-22T08:18:20.45Z</time></trkpt><trkpt lat="45.9633367" lon="12.887885"><ele>45.0</ele><time>2026-03-22T08:18:21.452Z</time></trkpt><trkpt lat="45.963165" lon="12.8877583"><ele>45.0</ele><time>2026-03-22T08:18:22.451Z</time></trkpt><trkpt lat="45.962995" lon="12.88766"><ele>45.0</ele><time>2026-03-22T08:18:23.449Z</time></trkpt><trkpt lat="45.96282" lon="12.8875917"><ele>45.0</ele><time>2026-03-22T08:18:24.45Z</time></trkpt><trkpt lat="45.962645" lon="12.88755"><ele>45.0</ele><time>2026-03-22T08:18:25.45Z</time></trkpt><trkpt lat="45.9624667" lon="12.8875283"><ele>45.0</ele><time>2026-03-22T08:18:26.45Z</time></trkpt><trkpt lat="45.9622917" lon="12.8875333"><ele>45.333333333333336</ele><time>2026-03-22T08:18:27.45Z</time></trkpt><trkpt lat="45.962115" lon="12.88756"><ele>45.66666666666667</ele><time>2026-03-22T08:18:28.451Z</time></trkpt><trkpt lat="45.9619417" lon="12.8876033"><ele>46.0</ele><time>2026-03-22T08:18:29.452Z</time></trkpt><trkpt lat="45.961765" lon="12.8876633"><ele>45.333333333333336</ele><time>2026-03-22T08:18:30.45Z</time></trkpt><trkpt lat="45.9615883" lon="12.887735"><ele>44.666666666666664</ele><time>2026-03-22T08:18:31.45Z</time></trkpt><trkpt lat="45.96141" lon="12.8878067"><ele>44.0</ele><time>2026-03-22T08:18:32.449Z</time></trkpt><trkpt lat="45.9612283" lon="12.8878833"><ele>44.0</ele><time>2026-03-22T08:18:33.452Z</time></trkpt><trkpt lat="45.9610433" lon="12.88797"><ele>44.0</ele><time>2026-03-22T08:18:34.451Z</time></trkpt><trkpt lat="45.9608583" lon="12.8880617"><ele>44.0</ele><time>2026-03-22T08:18:35.45Z</time></trkpt><trkpt lat="45.9606683" lon="12.8881517"><ele>43.666666666666664</ele><time>2026-03-22T08:18:36.451Z</time></trkpt><trkpt lat="45.960475" lon="12.888245"><ele>43.333333333333336</ele><time>2026-03-22T08:18:37.45Z</time></trkpt><trkpt lat="45.9602767" lon="12.8883333"><ele>43.0</ele><time>2026-03-22T08:18:38.45Z</time></trkpt><trkpt lat="45.9600733" lon="12.8884217"><ele>43.66666666666667</ele><time>2026-03-22T08:18:39.451Z</time></trkpt><trkpt lat="45.959865" lon="12.88851"><ele>44.333333333333336</ele><time>2026-03-22T08:18:40.452Z</time></trkpt><trkpt lat="45.9596533" lon="12.8886033"><ele>45.0</ele><time>2026-03-22T08:18:41.451Z</time></trkpt><trkpt lat="45.95945" lon="12.888705"><ele>45.0</ele><time>2026-03-22T08:18:42.452Z</time></trkpt><trkpt lat="45.959245" lon="12.8888117"><ele>45.0</ele><time>2026-03-22T08:18:43.451Z</time></trkpt><trkpt lat="45.9590433" lon="12.8889133"><ele>45.0</ele><time>2026-03-22T08:18:44.45Z</time></trkpt><trkpt lat="45.9588533" lon="12.889"><ele>45.0</ele><time>2026-03-22T08:18:45.451Z</time></trkpt><trkpt lat="45.958665" lon="12.88904"><ele>45.0</ele><time>2026-03-22T08:18:46.449Z</time></trkpt><trkpt lat="45.9584833" lon="12.8890417"><ele>45.0</ele><time>2026-03-22T08:18:47.451Z</time></trkpt><trkpt lat="45.9583067" lon="12.8889967"><ele>44.0</ele><time>2026-03-22T08:18:48.45Z</time></trkpt><trkpt lat="45.95814" lon="12.8889283"><ele>43.0</ele><time>2026-03-22T08:18:49.449Z</time></trkpt><trkpt lat="45.9579767" lon="12.88883"><ele>42.0</ele><time>2026-03-22T08:18:50.45Z</time></trkpt><trkpt lat="45.9578083" lon="12.8887133"><ele>42.0</ele><time>2026-03-22T08:18:51.451Z</time></trkpt><trkpt lat="45.9576367" lon="12.8885883"><ele>42.0</ele><time>2026-03-22T08:18:52.451Z</time></trkpt><trkpt lat="45.9574617" lon="12.8884617"><ele>42.0</ele><time>2026-03-22T08:18:53.45Z</time></trkpt><trkpt lat="45.95729" lon="12.8883283"><ele>41.666666666666664</ele><time>2026-03-22T08:18:54.452Z</time></trkpt><trkpt lat="45.9571183" lon="12.8882067"><ele>41.33333333333333</ele><time>2026-03-22T08:18:55.456Z</time></trkpt><trkpt lat="45.956955" lon="12.8880867"><ele>41.0</ele><time>2026-03-22T08:18:56.451Z</time></trkpt><trkpt lat="45.9567967" lon="12.8879767"><ele>41.666666666666664</ele><time>2026-03-22T08:18:57.45Z</time></trkpt><trkpt lat="45.9566483" lon="12.8878683"><ele>42.333333333333336</ele><time>2026-03-22T08:18:58.452Z</time></trkpt><trkpt lat="45.9565" lon="12.8877633"><ele>43.0</ele><time>2026-03-22T08:18:59.45Z</time></trkpt><trkpt lat="45.9563567" lon="12.8876617"><ele>43.0</ele><time>2026-03-22T08:19:00.45Z</time></trkpt><trkpt lat="45.9562233" lon="12.88755"><ele>43.0</ele><time>2026-03-22T08:19:01.45Z</time></trkpt><trkpt lat="45.9560933" lon="12.8874533"><ele>43.0</ele><time>2026-03-22T08:19:02.451Z</time></trkpt><trkpt lat="45.9559733" lon="12.8873683"><ele>43.0</ele><time>2026-03-22T08:19:03.451Z</time></trkpt><trkpt lat="45.9558733" lon="12.887285"><ele>42.66666666666667</ele><time>2026-03-22T08:19:04.452Z</time></trkpt><trkpt lat="45.9557883" lon="12.8872017"><ele>42.333333333333336</ele><time>2026-03-22T08:19:05.452Z</time></trkpt><trkpt lat="45.955715" lon="12.8871217"><ele>42.0</ele><time>2026-03-22T08:19:06.45Z</time></trkpt><trkpt lat="45.9556517" lon="12.8870383"><ele>41.666666666666664</ele><time>2026-03-22T08:19:07.45Z</time></trkpt><trkpt lat="45.9555967" lon="12.8869567"><ele>41.33333333333333</ele><time>2026-03-22T08:19:08.45Z</time></trkpt><trkpt lat="45.9555583" lon="12.886855"><ele>41.0</ele><time>2026-03-22T08:19:09.452Z</time></trkpt><trkpt lat="45.9555283" lon="12.88674"><ele>41.0</ele><time>2026-03-22T08:19:10.451Z</time></trkpt><trkpt lat="45.9554883" lon="12.886635"><ele>41.0</ele><time>2026-03-22T08:19:11.45Z</time></trkpt><trkpt lat="45.9554283" lon="12.8865483"><ele>41.0</ele><time>2026-03-22T08:19:12.452Z</time></trkpt><trkpt lat="45.9553517" lon="12.8864867"><ele>41.0</ele><time>2026-03-22T08:19:13.451Z</time></trkpt><trkpt lat="45.9552583" lon="12.8864733"><ele>41.0</ele><time>2026-03-22T08:19:14.451Z</time></trkpt><trkpt lat="45.95516" lon="12.8864967"><ele>41.0</ele><time>2026-03-22T08:19:15.451Z</time></trkpt><trkpt lat="45.9550617" lon="12.8865217"><ele>41.0</ele><time>2026-03-22T08:19:16.451Z</time></trkpt><trkpt lat="45.954955" lon="12.8865083"><ele>41.0</ele><time>2026-03-22T08:19:17.45Z</time></trkpt><trkpt lat="45.9548433" lon="12.8864433"><ele>41.0</ele><time>2026-03-22T08:19:18.451Z</time></trkpt><trkpt lat="45.9547167" lon="12.886355"><ele>40.666666666666664</ele><time>2026-03-22T08:19:19.45Z</time></trkpt><trkpt lat="45.95457" lon="12.88626"><ele>40.333333333333336</ele><time>2026-03-22T08:19:20.451Z</time></trkpt><trkpt lat="45.954405" lon="12.8861467"><ele>40.0</ele><time>2026-03-22T08:19:21.451Z</time></trkpt><trkpt lat="45.9542317" lon="12.88602"><ele>40.333333333333336</ele><time>2026-03-22T08:19:22.451Z</time></trkpt><trkpt lat="45.9540583" lon="12.8858933"><ele>40.666666666666664</ele><time>2026-03-22T08:19:23.45Z</time></trkpt><trkpt lat="45.9538733" lon="12.88576"><ele>41.0</ele><time>2026-03-22T08:19:24.45Z</time></trkpt><trkpt lat="45.9536867" lon="12.8856217"><ele>41.0</ele><time>2026-03-22T08:19:25.451Z</time></trkpt><trkpt lat="45.9535017" lon="12.88548"><ele>41.0</ele><time>2026-03-22T08:19:26.451Z</time></trkpt><trkpt lat="45.95331" lon="12.88534"><ele>41.0</ele><time>2026-03-22T08:19:27.451Z</time></trkpt><trkpt lat="45.9531167" lon="12.8852"><ele>41.0</ele><time>2026-03-22T08:19:28.45Z</time></trkpt><trkpt lat="45.9529233" lon="12.885055"><ele>41.0</ele><time>2026-03-22T08:19:29.451Z</time></trkpt><trkpt lat="45.9527267" lon="12.8849067"><ele>41.0</ele><time>2026-03-22T08:19:30.451Z</time></trkpt><trkpt lat="45.9525267" lon="12.8847617"><ele>41.33333333333333</ele><time>2026-03-22T08:19:31.451Z</time></trkpt><trkpt lat="45.952335" lon="12.88462"><ele>41.666666666666664</ele><time>2026-03-22T08:19:32.451Z</time></trkpt><trkpt lat="45.95215" lon="12.884485"><ele>42.0</ele><time>2026-03-22T08:19:33.45Z</time></trkpt><trkpt lat="45.9519667" lon="12.8843483"><ele>41.666666666666664</ele><time>2026-03-22T08:19:34.45Z</time></trkpt><trkpt lat="45.9517817" lon="12.8842117"><ele>41.33333333333333</ele><time>2026-03-22T08:19:35.449Z</time></trkpt><trkpt lat="45.9516" lon="12.8840783"><ele>41.0</ele><time>2026-03-22T08:19:36.451Z</time></trkpt><trkpt lat="45.95142" lon="12.8839417"><ele>41.0</ele><time>2026-03-22T08:19:37.452Z</time></trkpt><trkpt lat="45.9512417" lon="12.883805"><ele>41.0</ele><time>2026-03-22T08:19:38.451Z</time></trkpt><trkpt lat="45.9510633" lon="12.8836733"><ele>41.0</ele><time>2026-03-22T08:19:39.451Z</time></trkpt><trkpt lat="45.9508933" lon="12.8835433"><ele>40.666666666666664</ele><time>2026-03-22T08:19:40.452Z</time></trkpt><trkpt lat="45.9507233" lon="12.88342"><ele>40.333333333333336</ele><time>2026-03-22T08:19:41.451Z</time></trkpt><trkpt lat="45.95056" lon="12.8832983"><ele>40.0</ele><time>2026-03-22T08:19:42.451Z</time></trkpt><trkpt lat="45.9504017" lon="12.88318"><ele>40.0</ele><time>2026-03-22T08:19:43.451Z</time></trkpt><trkpt lat="45.9502533" lon="12.8830583"><ele>40.0</ele><time>2026-03-22T08:19:44.451Z</time></trkpt><trkpt lat="45.9501067" lon="12.8829433"><ele>40.0</ele><time>2026-03-22T08:19:45.451Z</time></trkpt><trkpt lat="45.9499617" lon="12.8828333"><ele>39.66666666666667</ele><time>2026-03-22T08:19:46.452Z</time></trkpt><trkpt lat="45.9498167" lon="12.8827233"><ele>39.333333333333336</ele><time>2026-03-22T08:19:47.452Z</time></trkpt><trkpt lat="45.9496733" lon="12.8826167"><ele>39.0</ele><time>2026-03-22T08:19:48.45Z</time></trkpt><trkpt lat="45.9495283" lon="12.8825033"><ele>39.0</ele><time>2026-03-22T08:19:49.45Z</time></trkpt><trkpt lat="45.94938" lon="12.8823867"><ele>39.0</ele><time>2026-03-22T08:19:50.451Z</time></trkpt><trkpt lat="45.949225" lon="12.8822733"><ele>39.0</ele><time>2026-03-22T08:19:51.452Z</time></trkpt><trkpt lat="45.9490617" lon="12.8821617"><ele>39.333333333333336</ele><time>2026-03-22T08:19:52.451Z</time></trkpt><trkpt lat="45.9489" lon="12.882045"><ele>39.66666666666667</ele><time>2026-03-22T08:19:53.45Z</time></trkpt><trkpt lat="45.9487383" lon="12.8819233"><ele>40.0</ele><time>2026-03-22T08:19:54.451Z</time></trkpt><trkpt lat="45.9485817" lon="12.8818067"><ele>40.333333333333336</ele><time>2026-03-22T08:19:55.451Z</time></trkpt><trkpt lat="45.9484317" lon="12.88169"><ele>40.666666666666664</ele><time>2026-03-22T08:19:56.45Z</time></trkpt><trkpt lat="45.948285" lon="12.88158"><ele>41.0</ele><time>2026-03-22T08:19:57.45Z</time></trkpt><trkpt lat="45.9481433" lon="12.881475"><ele>41.0</ele><time>2026-03-22T08:19:58.451Z</time></trkpt><trkpt lat="45.948" lon="12.881365"><ele>41.0</ele><time>2026-03-22T08:19:59.45Z</time></trkpt><trkpt lat="45.94786" lon="12.8812533"><ele>41.0</ele><time>2026-03-22T08:20:00.451Z</time></trkpt><trkpt lat="45.94772" lon="12.88114"><ele>41.0</ele><time>2026-03-22T08:20:01.45Z</time></trkpt><trkpt lat="45.9475867" lon="12.8810383"><ele>41.0</ele><time>2026-03-22T08:20:02.451Z</time></trkpt><trkpt lat="45.9474617" lon="12.8809367"><ele>41.0</ele><time>2026-03-22T08:20:03.451Z</time></trkpt><trkpt lat="45.9473383" lon="12.8808383"><ele>41.0</ele><time>2026-03-22T08:20:04.451Z</time></trkpt><trkpt lat="45.9472167" lon="12.8807467"><ele>40.5</ele><time>2026-03-22T08:20:05.45Z</time></trkpt><trkpt lat="45.9471033" lon="12.8806533"><ele>40.0</ele><time>2026-03-22T08:20:06.45Z</time></trkpt><trkpt lat="45.9469983" lon="12.8805683"><ele>39.5</ele><time>2026-03-22T08:20:07.451Z</time></trkpt><trkpt lat="45.9469067" lon="12.88048"><ele>39.0</ele><time>2026-03-22T08:20:08.452Z</time></trkpt><trkpt lat="45.9468283" lon="12.880385"><ele>39.0</ele><time>2026-03-22T08:20:09.452Z</time></trkpt><trkpt lat="45.9467667" lon="12.880275"><ele>39.0</ele><time>2026-03-22T08:20:10.45Z</time></trkpt><trkpt lat="45.9467317" lon="12.88015"><ele>39.0</ele><time>2026-03-22T08:20:11.451Z</time></trkpt><trkpt lat="45.9467033" lon="12.8800083"><ele>39.0</ele><time>2026-03-22T08:20:12.449Z</time></trkpt><trkpt lat="45.94666" lon="12.87986"><ele>39.0</ele><time>2026-03-22T08:20:13.449Z</time></trkpt><trkpt lat="45.9465967" lon="12.8797217"><ele>39.25</ele><time>2026-03-22T08:20:14.45Z</time></trkpt><trkpt lat="45.9465133" lon="12.879615"><ele>39.5</ele><time>2026-03-22T08:20:15.453Z</time></trkpt><trkpt lat="45.9464133" lon="12.8795367"><ele>39.75</ele><time>2026-03-22T08:20:16.452Z</time></trkpt><trkpt lat="45.9463033" lon="12.8795033"><ele>40.0</ele><time>2026-03-22T08:20:17.453Z</time></trkpt><trkpt lat="45.9461917" lon="12.8795167"><ele>40.0</ele><time>2026-03-22T08:20:18.45Z</time></trkpt><trkpt lat="45.9460833" lon="12.8795683"><ele>40.0</ele><time>2026-03-22T08:20:19.452Z</time></trkpt><trkpt lat="45.945985" lon="12.8796533"><ele>40.0</ele><time>2026-03-22T08:20:20.452Z</time></trkpt><trkpt lat="45.9459067" lon="12.8797667"><ele>40.0</ele><time>2026-03-22T08:20:21.451Z</time></trkpt><trkpt lat="45.94585" lon="12.8798983"><ele>40.0</ele><time>2026-03-22T08:20:22.45Z</time></trkpt><trkpt lat="45.9458183" lon="12.8800433"><ele>39.8</ele><time>2026-03-22T08:20:23.451Z</time></trkpt><trkpt lat="45.945815" lon="12.88019"><ele>39.6</ele><time>2026-03-22T08:20:24.453Z</time></trkpt><trkpt lat="45.9458417" lon="12.8803367"><ele>39.4</ele><time>2026-03-22T08:20:25.452Z</time></trkpt><trkpt lat="45.9458967" lon="12.8804783"><ele>39.2</ele><time>2026-03-22T08:20:26.451Z</time></trkpt><trkpt lat="45.945965" lon="12.8806017"><ele>39.0</ele><time>2026-03-22T08:20:27.451Z</time></trkpt><trkpt lat="45.9460383" lon="12.8807"><ele>39.0</ele><time>2026-03-22T08:20:28.451Z</time></trkpt><trkpt lat="45.94611" lon="12.880795"><ele>39.0</ele><time>2026-03-22T08:20:29.45Z</time></trkpt><trkpt lat="45.9461717" lon="12.8808967"><ele>39.0</ele><time>2026-03-22T08:20:30.451Z</time></trkpt><trkpt lat="45.9462167" lon="12.881015"><ele>39.0</ele><time>2026-03-22T08:20:31.453Z</time></trkpt><trkpt lat="45.94625" lon="12.8811467"><ele>39.0</ele><time>2026-03-22T08:20:32.45Z</time></trkpt><trkpt lat="45.9462783" lon="12.88128"><ele>38.8</ele><time>2026-03-22T08:20:33.451Z</time></trkpt><trkpt lat="45.9463017" lon="12.8814017"><ele>38.599999999999994</ele><time>2026-03-22T08:20:34.451Z</time></trkpt><trkpt lat="45.9463167" lon="12.8814967"><ele>38.4</ele><time>2026-03-22T08:20:35.451Z</time></trkpt><trkpt lat="45.9463383" lon="12.8816517"><ele>38.199999999999996</ele><time>2026-03-22T08:20:37.45Z</time></trkpt><trkpt lat="45.94635" lon="12.881795"><ele>38.0</ele><time>2026-03-22T08:20:39.451Z</time></trkpt><trkpt lat="45.9463633" lon="12.8819567"><ele>38.4</ele><time>2026-03-22T08:20:41.449Z</time></trkpt><trkpt lat="45.9463183" lon="12.8820817"><ele>38.8</ele><time>2026-03-22T08:20:43.45Z</time></trkpt><trkpt lat="45.9462333" lon="12.8821767"><ele>39.2</ele><time>2026-03-22T08:20:45.45Z</time></trkpt><trkpt lat="45.9461267" lon="12.8822217"><ele>39.6</ele><time>2026-03-22T08:20:47.449Z</time></trkpt><trkpt lat="45.9460317" lon="12.8822517"><ele>40.0</ele><time>2026-03-22T08:20:49.451Z</time></trkpt><trkpt lat="45.9459367" lon="12.8822683"><ele>39.833333333333336</ele><time>2026-03-22T08:20:51.451Z</time></trkpt><trkpt lat="45.9458483" lon="12.882285"><ele>39.66666666666667</ele><time>2026-03-22T08:20:53.45Z</time></trkpt><trkpt lat="45.945755" lon="12.8823067"><ele>39.5</ele><time>2026-03-22T08:20:55.451Z</time></trkpt><trkpt lat="45.94569" lon="12.882325"><ele>39.333333333333336</ele><time>2026-03-22T08:20:57.451Z</time></trkpt><trkpt lat="45.94562" lon="12.882335"><ele>39.166666666666664</ele><time>2026-03-22T08:20:59.45Z</time></trkpt><trkpt lat="45.9455517" lon="12.88235"><ele>39.0</ele><time>2026-03-22T08:21:01.449Z</time></trkpt><trkpt lat="45.9454767" lon="12.8823667"><ele>39.0</ele><time>2026-03-22T08:21:03.452Z</time></trkpt><trkpt lat="45.9453817" lon="12.882395"><ele>39.0</ele><time>2026-03-22T08:21:05.451Z</time></trkpt><trkpt lat="45.945295" lon="12.88241"><ele>39.0</ele><time>2026-03-22T08:21:07.452Z</time></trkpt><trkpt lat="45.94522" lon="12.8824233"><ele>39.0</ele><time>2026-03-22T08:21:09.451Z</time></trkpt><trkpt lat="45.9451533" lon="12.8824367"><ele>39.0</ele><time>2026-03-22T08:21:11.451Z</time></trkpt><trkpt lat="45.9450683" lon="12.88246"><ele>39.0</ele><time>2026-03-22T08:21:14.45Z</time></trkpt><trkpt lat="45.9450017" lon="12.8824717"><ele>38.833333333333336</ele><time>2026-03-22T08:21:17.451Z</time></trkpt><trkpt lat="45.94492" lon="12.8824717"><ele>38.666666666666664</ele><time>2026-03-22T08:21:21.451Z</time></trkpt><trkpt lat="45.9448667" lon="12.8824217"><ele>38.5</ele><time>2026-03-22T08:21:25.451Z</time></trkpt><trkpt lat="45.9448267" lon="12.8823383"><ele>38.33333333333333</ele><time>2026-03-22T08:21:53.45Z</time></trkpt><trkpt lat="45.94484" lon="12.8821733"><ele>38.166666666666664</ele><time>2026-03-22T08:22:11.45Z</time></trkpt><trkpt lat="45.94483" lon="12.8820433"><ele>38.0</ele><time>2026-03-22T08:22:14.45Z</time></trkpt><trkpt lat="45.944825" lon="12.881925"><ele>38.0</ele><time>2026-03-22T08:22:16.449Z</time></trkpt><trkpt lat="45.9448183" lon="12.8818267"><ele>38.0</ele><time>2026-03-22T08:22:18.45Z</time></trkpt><trkpt lat="45.94482" lon="12.881715"><ele>38.0</ele><time>2026-03-22T08:22:20.45Z</time></trkpt><trkpt lat="45.9447667" lon="12.8817717"><ele>38.0</ele><time>2026-03-22T08:22:24.45Z</time></trkpt><trkpt lat="45.9447717" lon="12.8818883"><ele>38.0</ele><time>2026-03-22T08:22:50.45Z</time></trkpt><trkpt lat="45.9448167" lon="12.8818083"><ele>38.0</ele><time>2026-03-22T08:29:09.45Z</time></trkpt><trkpt lat="45.9448317" lon="12.8817117"><ele>38.0</ele><time>2026-03-22T08:29:29.449Z</time></trkpt><trkpt lat="45.9448917" lon="12.8816683"><ele>38.0</ele><time>2026-03-22T08:29:35.45Z</time></trkpt><trkpt lat="45.9449512" lon="12.8816341"><ele>38.0</ele><time>2026-03-22T08:29:39.54Z</time></trkpt><trkpt lat="45.9450139" lon="12.8816064"><ele>38.0</ele><time>2026-03-22T08:29:44.484Z</time></trkpt><trkpt lat="45.9450785" lon="12.8815776"><ele>38.0</ele><time>2026-03-22T08:29:49.473Z</time></trkpt><trkpt lat="45.9451422" lon="12.8815548"><ele>38.0</ele><time>2026-03-22T08:29:54.481Z</time></trkpt><trkpt lat="45.94508" lon="12.88162"><ele>38.0</ele><time>2026-03-22T08:40:10.449Z</time></trkpt><trkpt lat="45.945025" lon="12.8816767"><ele>38.0</ele><time>2026-03-22T08:40:14.45Z</time></trkpt><trkpt lat="45.9449583" lon="12.8817"><ele>38.0</ele><time>2026-03-22T08:40:19.45Z</time></trkpt><trkpt lat="45.944894" lon="12.8817104"><ele>38.0</ele><time>2026-03-22T08:40:24.52Z</time></trkpt><trkpt lat="45.9448293" lon="12.8816947"><ele>38.0</ele><time>2026-03-22T08:40:29.464Z</time></trkpt><trkpt lat="45.9447682" lon="12.8817492"><ele>38.0</ele><time>2026-03-22T08:40:36.496Z</time></trkpt><trkpt lat="45.9447736" lon="12.8818496"><ele>38.0</ele><time>2026-03-22T08:40:41.55Z</time></trkpt><trkpt lat="45.944781" lon="12.8819482"><ele>38.0</ele><time>2026-03-22T08:40:47.482Z</time></trkpt><trkpt lat="45.9447134" lon="12.8819546"><ele>38.0</ele><time>2026-03-22T08:42:54.493Z</time></trkpt><trkpt lat="45.9446582" lon="12.8818995"><ele>38.0</ele><time>2026-03-22T08:42:59.534Z</time></trkpt><trkpt lat="45.9445912" lon="12.8818526"><ele>38.0</ele><time>2026-03-22T08:43:05.414Z</time></trkpt><trkpt lat="45.9445529" lon="12.8817773"><ele>38.0</ele><time>2026-03-22T08:43:09.53Z</time></trkpt><trkpt lat="45.9446422" lon="12.8816392"><ele>38.0</ele><time>2026-03-22T08:43:13.486Z</time></trkpt><trkpt lat="45.9448159" lon="12.8814557"><ele>38.0</ele><time>2026-03-22T08:43:14.475Z</time></trkpt><trkpt lat="45.9448688" lon="12.8813766"><ele>38.0</ele><time>2026-03-22T08:43:28.536Z</time></trkpt><trkpt lat="45.9449356" lon="12.8813454"><ele>38.0</ele><time>2026-03-22T08:43:33.481Z</time></trkpt><trkpt lat="45.9450303" lon="12.8813306"><ele>38.0</ele><time>2026-03-22T08:43:37.546Z</time></trkpt><trkpt lat="45.9449697" lon="12.8813021"><ele>38.0</ele><time>2026-03-22T08:44:02.398Z</time></trkpt><trkpt lat="45.9448885" lon="12.8812454"><ele>38.0</ele><time>2026-03-22T08:44:15.117Z</time></trkpt><trkpt lat="45.9448277" lon="12.881221"><ele>38.0</ele><time>2026-03-22T08:44:23.467Z</time></trkpt><trkpt lat="45.9447534" lon="12.8812109"><ele>38.0</ele><time>2026-03-22T08:44:26.543Z</time></trkpt><trkpt lat="45.9446707" lon="12.8812075"><ele>38.0</ele><time>2026-03-22T08:44:30.497Z</time></trkpt><trkpt lat="45.9446081" lon="12.8811649"><ele>38.0</ele><time>2026-03-22T08:44:33.464Z</time></trkpt><trkpt lat="45.9445417" lon="12.88115"><ele>38.0</ele><time>2026-03-22T08:44:49.451Z</time></trkpt><trkpt lat="45.9444617" lon="12.88115"><ele>38.0</ele><time>2026-03-22T08:45:02.451Z</time></trkpt><trkpt lat="45.9448873" lon="12.881299"><ele>37.0</ele><time>2026-03-22T08:45:27.992Z</time></trkpt><trkpt lat="45.9442" lon="12.8808283"><ele>38.0</ele><time>2026-03-22T08:45:51.454Z</time></trkpt><trkpt lat="45.9449021" lon="12.881434"><ele>38.0</ele><time>2026-03-22T08:46:06.147Z</time></trkpt><trkpt lat="45.9448872" lon="12.8812997"><ele>38.0</ele><time>2026-03-22T08:46:12.55Z</time></trkpt><trkpt lat="45.94462" lon="12.88129"><ele>38.0</ele><time>2026-03-22T08:46:18.45Z</time></trkpt><trkpt lat="45.9445533" lon="12.8814267"><ele>38.0</ele><time>2026-03-22T08:46:27.452Z</time></trkpt><trkpt lat="45.9444267" lon="12.8814133"><ele>38.0</ele><time>2026-03-22T08:46:36.452Z</time></trkpt><trkpt lat="45.9445117" lon="12.8813333"><ele>38.0</ele><time>2026-03-22T08:46:38.45Z</time></trkpt><trkpt lat="45.9445917" lon="12.8812733"><ele>38.0</ele><time>2026-03-22T08:46:40.451Z</time></trkpt><trkpt lat="45.94472" lon="12.8812133"><ele>38.0</ele><time>2026-03-22T08:46:48.451Z</time></trkpt><trkpt lat="45.944785" lon="12.88124"><ele>38.0</ele><time>2026-03-22T08:46:51.451Z</time></trkpt><trkpt lat="45.9447317" lon="12.88116"><ele>38.0</ele><time>2026-03-22T08:47:26.451Z</time></trkpt><trkpt lat="45.944888" lon="12.8813043"><ele>38.0</ele><time>2026-03-22T08:48:11.239Z</time></trkpt><trkpt lat="45.9448976" lon="12.8814812"><ele>38.0</ele><time>2026-03-22T08:48:55.737Z</time></trkpt><trkpt lat="45.944888" lon="12.8813009"><ele>38.0</ele><time>2026-03-22T08:49:18.967Z</time></trkpt><trkpt lat="45.9448583" lon="12.8811417"><ele>38.0</ele><time>2026-03-22T08:49:50.452Z</time></trkpt><trkpt lat="45.9447733" lon="12.8811317"><ele>38.0</ele><time>2026-03-22T08:49:57.451Z</time></trkpt><trkpt lat="45.9447017" lon="12.88118"><ele>38.0</ele><time>2026-03-22T08:50:00.451Z</time></trkpt><trkpt lat="45.94477" lon="12.8811983"><ele>38.0</ele><time>2026-03-22T08:50:06.451Z</time></trkpt><trkpt lat="45.9448383" lon="12.8811317"><ele>38.0</ele><time>2026-03-22T08:50:17.45Z</time></trkpt><trkpt lat="45.9448859" lon="12.8812971"><ele>38.0</ele><time>2026-03-22T08:50:42.316Z</time></trkpt><trkpt lat="45.9448887" lon="12.8814709"><ele>38.0</ele><time>2026-03-22T08:50:48.668Z</time></trkpt><trkpt lat="45.9448849" lon="12.8812938"><ele>38.0</ele><time>2026-03-22T08:51:12.896Z</time></trkpt><trkpt lat="45.945215" lon="12.8809817"><ele>38.0</ele><time>2026-03-22T08:51:15.451Z</time></trkpt><trkpt lat="45.9448862" lon="12.8813086"><ele>38.0</ele><time>2026-03-22T08:51:33.195Z</time></trkpt><trkpt lat="45.9448852" lon="12.8814781"><ele>38.0</ele><time>2026-03-22T08:52:37.169Z</time></trkpt><trkpt lat="45.9448873" lon="12.8812987"><ele>38.0</ele><time>2026-03-22T08:53:09.01Z</time></trkpt><trkpt lat="45.9449717" lon="12.8812383"><ele>38.0</ele><time>2026-03-22T08:53:33.451Z</time></trkpt><trkpt lat="45.9449583" lon="12.8813467"><ele>38.0</ele><time>2026-03-22T08:53:44.453Z</time></trkpt><trkpt lat="45.944895" lon="12.88133"><ele>38.0</ele><time>2026-03-22T08:54:12.45Z</time></trkpt><trkpt lat="45.9447917" lon="12.8812917"><ele>38.0</ele><time>2026-03-22T08:54:33.451Z</time></trkpt><trkpt lat="45.9447467" lon="12.8812233"><ele>38.0</ele><time>2026-03-22T08:54:39.451Z</time></trkpt><trkpt lat="45.944665" lon="12.8811883"><ele>38.0</ele><time>2026-03-22T08:54:45.451Z</time></trkpt><trkpt lat="45.9448882" lon="12.8813012"><ele>38.0</ele><time>2026-03-22T08:54:55.998Z</time></trkpt><trkpt lat="45.94492" lon="12.8811383"><ele>38.0</ele><time>2026-03-22T08:55:48.451Z</time></trkpt><trkpt lat="45.9450033" lon="12.8811683"><ele>38.0</ele><time>2026-03-22T08:55:53.45Z</time></trkpt><trkpt lat="45.9449017" lon="12.8812033"><ele>38.0</ele><time>2026-03-22T08:55:56.451Z</time></trkpt><trkpt lat="45.944835" lon="12.8812183"><ele>38.0</ele><time>2026-03-22T08:55:57.451Z</time></trkpt><trkpt lat="45.9447633" lon="12.8812183"><ele>38.0</ele><time>2026-03-22T08:55:59.45Z</time></trkpt><trkpt lat="45.944555" lon="12.88122"><ele>38.0</ele><time>2026-03-22T08:56:17.452Z</time></trkpt><trkpt lat="45.9445467" lon="12.88132"><ele>38.0</ele><time>2026-03-22T08:56:25.453Z</time></trkpt><trkpt lat="45.9449356" lon="12.881399"><ele>38.0</ele><time>2026-03-22T08:56:35.968Z</time></trkpt><trkpt lat="45.9448877" lon="12.8813025"><ele>38.0</ele><time>2026-03-22T09:01:07.18Z</time></trkpt><trkpt lat="45.9447067" lon="12.8809967"><ele>38.0</ele><time>2026-03-22T09:01:14.449Z</time></trkpt><trkpt lat="45.944635" lon="12.8809717"><ele>38.0</ele><time>2026-03-22T09:01:17.45Z</time></trkpt><trkpt lat="45.9445667" lon="12.8811883"><ele>38.0</ele><time>2026-03-22T09:01:22.451Z</time></trkpt><trkpt lat="45.9445433" lon="12.8812933"><ele>38.0</ele><time>2026-03-22T09:01:24.45Z</time></trkpt><trkpt lat="45.944585" lon="12.8814233"><ele>38.0</ele><time>2026-03-22T09:01:31.453Z</time></trkpt><trkpt lat="45.9445283" lon="12.8815717"><ele>38.0</ele><time>2026-03-22T09:01:36.452Z</time></trkpt><trkpt lat="45.9444917" lon="12.8816617"><ele>38.0</ele><time>2026-03-22T09:01:39.451Z</time></trkpt><trkpt lat="45.9445683" lon="12.8815633"><ele>38.0</ele><time>2026-03-22T09:01:55.45Z</time></trkpt><trkpt lat="45.9446467" lon="12.8815283"><ele>38.0</ele><time>2026-03-22T09:01:59.45Z</time></trkpt><trkpt lat="45.944735" lon="12.881465"><ele>38.0</ele><time>2026-03-22T09:02:11.451Z</time></trkpt><trkpt lat="45.9448867" lon="12.8813069"><ele>38.0</ele><time>2026-03-22T09:02:34.263Z</time></trkpt><trkpt lat="45.9448667" lon="12.8816983"><ele>38.0</ele><time>2026-03-22T09:02:43.452Z</time></trkpt><trkpt lat="45.9448888" lon="12.8813038"><ele>38.0</ele><time>2026-03-22T09:03:01.959Z</time></trkpt><trkpt lat="45.9446567" lon="12.881685"><ele>38.0</ele><time>2026-03-22T09:07:07.453Z</time></trkpt><trkpt lat="45.9448083" lon="12.8814933"><ele>38.0</ele><time>2026-03-22T09:07:09.451Z</time></trkpt><trkpt lat="45.9448667" lon="12.88144"><ele>38.0</ele><time>2026-03-22T09:07:18.45Z</time></trkpt><trkpt lat="45.9447783" lon="12.8814533"><ele>38.0</ele><time>2026-03-22T09:08:08.452Z</time></trkpt></trkseg><trkseg><trkpt lat="45.9447575" lon="12.881971"><ele>38.0</ele><time>2026-03-22T10:05:15.449Z</time></trkpt><trkpt lat="45.9448143" lon="12.8820718"><ele>38.0</ele><time>2026-03-22T10:09:08.55Z</time></trkpt><trkpt lat="45.9448381" lon="12.8822031"><ele>38.0</ele><time>2026-03-22T10:09:10.552Z</time></trkpt><trkpt lat="45.9448417" lon="12.8823019"><ele>38.0</ele><time>2026-03-22T10:09:12.549Z</time></trkpt><trkpt lat="45.9448563" lon="12.8823944"><ele>38.0</ele><time>2026-03-22T10:09:14.55Z</time></trkpt><trkpt lat="45.9449113" lon="12.8824468"><ele>38.0</ele><time>2026-03-22T10:09:16.55Z</time></trkpt><trkpt lat="45.9450024" lon="12.8825217"><ele>38.166666666666664</ele><time>2026-03-22T10:09:18.461Z</time></trkpt><trkpt lat="45.9450925" lon="12.8825433"><ele>38.33333333333333</ele><time>2026-03-22T10:09:20.55Z</time></trkpt><trkpt lat="45.9451885" lon="12.8825039"><ele>38.5</ele><time>2026-03-22T10:09:22.549Z</time></trkpt><trkpt lat="45.9452621" lon="12.882479"><ele>38.666666666666664</ele><time>2026-03-22T10:09:24.55Z</time></trkpt><trkpt lat="45.9453308" lon="12.8824719"><ele>38.833333333333336</ele><time>2026-03-22T10:09:26.482Z</time></trkpt><trkpt lat="45.9453984" lon="12.8824507"><ele>39.0</ele><time>2026-03-22T10:09:40.55Z</time></trkpt><trkpt lat="45.9456563" lon="12.8823869"><ele>39.0</ele><time>2026-03-22T10:10:35.449Z</time></trkpt><trkpt lat="45.945746" lon="12.8823559"><ele>39.0</ele><time>2026-03-22T10:10:36.452Z</time></trkpt><trkpt lat="45.9458121" lon="12.8823383"><ele>39.0</ele><time>2026-03-22T10:10:37.45Z</time></trkpt><trkpt lat="45.9459208" lon="12.8823049"><ele>39.0</ele><time>2026-03-22T10:10:39.451Z</time></trkpt><trkpt lat="45.9460072" lon="12.8822827"><ele>39.0</ele><time>2026-03-22T10:10:41.449Z</time></trkpt><trkpt lat="45.9460842" lon="12.8822664"><ele>39.0</ele><time>2026-03-22T10:10:43.451Z</time></trkpt><trkpt lat="45.9461733" lon="12.8822512"><ele>39.2</ele><time>2026-03-22T10:10:45.451Z</time></trkpt><trkpt lat="45.9462573" lon="12.8822514"><ele>39.4</ele><time>2026-03-22T10:10:47.45Z</time></trkpt><trkpt lat="45.9463354" lon="12.8822518"><ele>39.6</ele><time>2026-03-22T10:10:49.451Z</time></trkpt><trkpt lat="45.9464116" lon="12.8822245"><ele>39.8</ele><time>2026-03-22T10:10:51.452Z</time></trkpt><trkpt lat="45.9464861" lon="12.8821387"><ele>40.0</ele><time>2026-03-22T10:10:53.451Z</time></trkpt><trkpt lat="45.9464928" lon="12.8819058"><ele>39.5</ele><time>2026-03-22T10:10:55.453Z</time></trkpt><trkpt lat="45.9464676" lon="12.8817138"><ele>39.0</ele><time>2026-03-22T10:10:56.451Z</time></trkpt><trkpt lat="45.9464437" lon="12.8815253"><ele>38.5</ele><time>2026-03-22T10:10:57.451Z</time></trkpt><trkpt lat="45.9464202" lon="12.8813666"><ele>38.0</ele><time>2026-03-22T10:10:58.452Z</time></trkpt><trkpt lat="45.9464023" lon="12.8812423"><ele>38.0</ele><time>2026-03-22T10:10:59.45Z</time></trkpt><trkpt lat="45.9463917" lon="12.8811417"><ele>38.0</ele><time>2026-03-22T10:11:00.453Z</time></trkpt><trkpt lat="45.9463817" lon="12.8810433"><ele>38.0</ele><time>2026-03-22T10:11:01.451Z</time></trkpt><trkpt lat="45.94639" lon="12.8808967"><ele>38.0</ele><time>2026-03-22T10:11:03.45Z</time></trkpt><trkpt lat="45.9464567" lon="12.8807617"><ele>38.0</ele><time>2026-03-22T10:11:05.45Z</time></trkpt><trkpt lat="45.946515" lon="12.8806917"><ele>38.0</ele><time>2026-03-22T10:11:06.452Z</time></trkpt><trkpt lat="45.94657" lon="12.8806267"><ele>38.166666666666664</ele><time>2026-03-22T10:11:07.45Z</time></trkpt><trkpt lat="45.9466183" lon="12.88056"><ele>38.33333333333333</ele><time>2026-03-22T10:11:08.451Z</time></trkpt><trkpt lat="45.9466633" lon="12.8804817"><ele>38.5</ele><time>2026-03-22T10:11:09.452Z</time></trkpt><trkpt lat="45.946705" lon="12.8803833"><ele>38.666666666666664</ele><time>2026-03-22T10:11:10.451Z</time></trkpt><trkpt lat="45.946735" lon="12.8802783"><ele>38.833333333333336</ele><time>2026-03-22T10:11:11.452Z</time></trkpt><trkpt lat="45.9467533" lon="12.8801633"><ele>39.0</ele><time>2026-03-22T10:11:12.45Z</time></trkpt><trkpt lat="45.9467583" lon="12.8800383"><ele>39.0</ele><time>2026-03-22T10:11:13.45Z</time></trkpt><trkpt lat="45.9467467" lon="12.8799133"><ele>39.0</ele><time>2026-03-22T10:11:14.452Z</time></trkpt><trkpt lat="45.9467117" lon="12.8797867"><ele>39.0</ele><time>2026-03-22T10:11:15.45Z</time></trkpt><trkpt lat="45.9466583" lon="12.8796717"><ele>39.0</ele><time>2026-03-22T10:11:16.451Z</time></trkpt><trkpt lat="45.94658" lon="12.879565"><ele>39.0</ele><time>2026-03-22T10:11:17.45Z</time></trkpt><trkpt lat="45.9465" lon="12.879455"><ele>39.25</ele><time>2026-03-22T10:11:18.452Z</time></trkpt><trkpt lat="45.9464283" lon="12.8793233"><ele>39.5</ele><time>2026-03-22T10:11:19.452Z</time></trkpt><trkpt lat="45.9463683" lon="12.87916"><ele>39.75</ele><time>2026-03-22T10:11:20.449Z</time></trkpt><trkpt lat="45.9463217" lon="12.878975"><ele>40.0</ele><time>2026-03-22T10:11:21.45Z</time></trkpt><trkpt lat="45.9462683" lon="12.878775"><ele>40.0</ele><time>2026-03-22T10:11:22.451Z</time></trkpt><trkpt lat="45.9462133" lon="12.8785717"><ele>40.0</ele><time>2026-03-22T10:11:23.45Z</time></trkpt><trkpt lat="45.9461567" lon="12.878365"><ele>40.0</ele><time>2026-03-22T10:11:24.449Z</time></trkpt><trkpt lat="45.9461017" lon="12.87816"><ele>40.0</ele><time>2026-03-22T10:11:25.451Z</time></trkpt><trkpt lat="45.9460433" lon="12.8779433"><ele>40.0</ele><time>2026-03-22T10:11:26.452Z</time></trkpt><trkpt lat="45.94599" lon="12.8777083"><ele>40.0</ele><time>2026-03-22T10:11:27.452Z</time></trkpt><trkpt lat="45.94594" lon="12.8774533"><ele>40.333333333333336</ele><time>2026-03-22T10:11:28.449Z</time></trkpt><trkpt lat="45.9459033" lon="12.877195"><ele>40.666666666666664</ele><time>2026-03-22T10:11:29.452Z</time></trkpt><trkpt lat="45.945875" lon="12.8769433"><ele>41.0</ele><time>2026-03-22T10:11:30.451Z</time></trkpt><trkpt lat="45.9458517" lon="12.8766933"><ele>41.33333333333333</ele><time>2026-03-22T10:11:31.45Z</time></trkpt><trkpt lat="45.94582" lon="12.8764517"><ele>41.666666666666664</ele><time>2026-03-22T10:11:32.452Z</time></trkpt><trkpt lat="45.9457817" lon="12.876215"><ele>42.0</ele><time>2026-03-22T10:11:33.451Z</time></trkpt><trkpt lat="45.9457533" lon="12.87598"><ele>41.666666666666664</ele><time>2026-03-22T10:11:34.451Z</time></trkpt><trkpt lat="45.945725" lon="12.8757417"><ele>41.33333333333333</ele><time>2026-03-22T10:11:35.45Z</time></trkpt><trkpt lat="45.9456967" lon="12.875505"><ele>41.0</ele><time>2026-03-22T10:11:36.45Z</time></trkpt><trkpt lat="45.9456733" lon="12.8752733"><ele>41.33333333333333</ele><time>2026-03-22T10:11:37.451Z</time></trkpt><trkpt lat="45.9456483" lon="12.8750433"><ele>41.666666666666664</ele><time>2026-03-22T10:11:38.451Z</time></trkpt><trkpt lat="45.9456267" lon="12.8748167"><ele>42.0</ele><time>2026-03-22T10:11:39.452Z</time></trkpt><trkpt lat="45.9456033" lon="12.8745917"><ele>42.0</ele><time>2026-03-22T10:11:40.451Z</time></trkpt><trkpt lat="45.9455767" lon="12.8743683"><ele>42.0</ele><time>2026-03-22T10:11:41.451Z</time></trkpt><trkpt lat="45.94555" lon="12.8741467"><ele>42.0</ele><time>2026-03-22T10:11:42.452Z</time></trkpt><trkpt lat="45.945525" lon="12.87392"><ele>41.333333333333336</ele><time>2026-03-22T10:11:43.451Z</time></trkpt><trkpt lat="45.9454983" lon="12.8736883"><ele>40.66666666666667</ele><time>2026-03-22T10:11:44.454Z</time></trkpt><trkpt lat="45.9454717" lon="12.8734467"><ele>40.0</ele><time>2026-03-22T10:11:45.451Z</time></trkpt><trkpt lat="45.9454433" lon="12.8732017"><ele>40.0</ele><time>2026-03-22T10:11:46.45Z</time></trkpt><trkpt lat="45.9454133" lon="12.8729467"><ele>40.0</ele><time>2026-03-22T10:11:47.45Z</time></trkpt><trkpt lat="45.9453867" lon="12.87269"><ele>40.0</ele><time>2026-03-22T10:11:48.451Z</time></trkpt><trkpt lat="45.9453617" lon="12.872445"><ele>39.66666666666667</ele><time>2026-03-22T10:11:49.452Z</time></trkpt><trkpt lat="45.9453367" lon="12.8722167"><ele>39.333333333333336</ele><time>2026-03-22T10:11:50.452Z</time></trkpt><trkpt lat="45.9453117" lon="12.8719983"><ele>39.0</ele><time>2026-03-22T10:11:51.452Z</time></trkpt><trkpt lat="45.94529" lon="12.87179"><ele>39.25</ele><time>2026-03-22T10:11:52.451Z</time></trkpt><trkpt lat="45.9452667" lon="12.8715883"><ele>39.5</ele><time>2026-03-22T10:11:53.451Z</time></trkpt><trkpt lat="45.9452433" lon="12.871395"><ele>39.75</ele><time>2026-03-22T10:11:54.451Z</time></trkpt><trkpt lat="45.9452217" lon="12.8712133"><ele>40.0</ele><time>2026-03-22T10:11:55.45Z</time></trkpt><trkpt lat="45.9452017" lon="12.8710433"><ele>39.5</ele><time>2026-03-22T10:11:56.45Z</time></trkpt><trkpt lat="45.9451833" lon="12.8708733"><ele>39.0</ele><time>2026-03-22T10:11:57.451Z</time></trkpt><trkpt lat="45.9451683" lon="12.8707067"><ele>38.5</ele><time>2026-03-22T10:11:58.449Z</time></trkpt><trkpt lat="45.94517" lon="12.87054"><ele>38.0</ele><time>2026-03-22T10:11:59.451Z</time></trkpt><trkpt lat="45.945185" lon="12.870375"><ele>38.0</ele><time>2026-03-22T10:12:00.452Z</time></trkpt><trkpt lat="45.94521" lon="12.8702083"><ele>38.0</ele><time>2026-03-22T10:12:01.451Z</time></trkpt><trkpt lat="45.9452517" lon="12.870045"><ele>38.0</ele><time>2026-03-22T10:12:02.451Z</time></trkpt><trkpt lat="45.945305" lon="12.8698867"><ele>38.0</ele><time>2026-03-22T10:12:03.452Z</time></trkpt><trkpt lat="45.945375" lon="12.8697333"><ele>38.0</ele><time>2026-03-22T10:12:04.452Z</time></trkpt><trkpt lat="45.94546" lon="12.8695883"><ele>38.0</ele><time>2026-03-22T10:12:05.45Z</time></trkpt><trkpt lat="45.9455583" lon="12.8694467"><ele>38.0</ele><time>2026-03-22T10:12:06.451Z</time></trkpt><trkpt lat="45.945675" lon="12.86932"><ele>38.0</ele><time>2026-03-22T10:12:07.45Z</time></trkpt><trkpt lat="45.945805" lon="12.8692083"><ele>37.75</ele><time>2026-03-22T10:12:08.452Z</time></trkpt><trkpt lat="45.9459383" lon="12.8691183"><ele>37.5</ele><time>2026-03-22T10:12:09.452Z</time></trkpt><trkpt lat="45.946055" lon="12.8690517"><ele>37.25</ele><time>2026-03-22T10:12:10.452Z</time></trkpt><trkpt lat="45.9461633" lon="12.8690033"><ele>37.0</ele><time>2026-03-22T10:12:11.45Z</time></trkpt><trkpt lat="45.9462583" lon="12.8689633"><ele>37.0</ele><time>2026-03-22T10:12:12.45Z</time></trkpt><trkpt lat="45.946355" lon="12.8689333"><ele>37.0</ele><time>2026-03-22T10:12:13.451Z</time></trkpt><trkpt lat="45.9464583" lon="12.8689267"><ele>37.0</ele><time>2026-03-22T10:12:14.451Z</time></trkpt><trkpt lat="45.9465683" lon="12.8689317"><ele>37.0</ele><time>2026-03-22T10:12:15.451Z</time></trkpt><trkpt lat="45.9466833" lon="12.868935"><ele>37.0</ele><time>2026-03-22T10:12:16.451Z</time></trkpt><trkpt lat="45.946795" lon="12.8689417"><ele>37.0</ele><time>2026-03-22T10:12:17.45Z</time></trkpt><trkpt lat="45.9469183" lon="12.8689467"><ele>37.0</ele><time>2026-03-22T10:12:18.451Z</time></trkpt><trkpt lat="45.9470417" lon="12.8689417"><ele>37.0</ele><time>2026-03-22T10:12:19.452Z</time></trkpt><trkpt lat="45.9471733" lon="12.8689433"><ele>37.0</ele><time>2026-03-22T10:12:20.451Z</time></trkpt><trkpt lat="45.94731" lon="12.8689383"><ele>37.0</ele><time>2026-03-22T10:12:21.452Z</time></trkpt><trkpt lat="45.9474617" lon="12.8689433"><ele>37.0</ele><time>2026-03-22T10:12:22.449Z</time></trkpt><trkpt lat="45.9476217" lon="12.86895"><ele>37.0</ele><time>2026-03-22T10:12:23.45Z</time></trkpt><trkpt lat="45.9477917" lon="12.8689567"><ele>36.66666666666667</ele><time>2026-03-22T10:12:24.451Z</time></trkpt><trkpt lat="45.9479617" lon="12.8689617"><ele>36.333333333333336</ele><time>2026-03-22T10:12:25.451Z</time></trkpt><trkpt lat="45.9481267" lon="12.8689717"><ele>36.0</ele><time>2026-03-22T10:12:26.451Z</time></trkpt><trkpt lat="45.9482883" lon="12.86898"><ele>36.333333333333336</ele><time>2026-03-22T10:12:27.45Z</time></trkpt><trkpt lat="45.94845" lon="12.868995"><ele>36.66666666666667</ele><time>2026-03-22T10:12:28.449Z</time></trkpt><trkpt lat="45.9486117" lon="12.869005"><ele>37.0</ele><time>2026-03-22T10:12:29.45Z</time></trkpt><trkpt lat="45.9487783" lon="12.8690083"><ele>37.0</ele><time>2026-03-22T10:12:30.449Z</time></trkpt><trkpt lat="45.9489467" lon="12.868995"><ele>37.0</ele><time>2026-03-22T10:12:31.451Z</time></trkpt><trkpt lat="45.9491133" lon="12.8689633"><ele>37.0</ele><time>2026-03-22T10:12:32.45Z</time></trkpt><trkpt lat="45.94928" lon="12.8689183"><ele>37.66666666666667</ele><time>2026-03-22T10:12:33.451Z</time></trkpt><trkpt lat="45.94945" lon="12.8688767"><ele>38.333333333333336</ele><time>2026-03-22T10:12:34.45Z</time></trkpt><trkpt lat="45.9496183" lon="12.8688233"><ele>39.0</ele><time>2026-03-22T10:12:35.45Z</time></trkpt><trkpt lat="45.9497917" lon="12.8687733"><ele>39.0</ele><time>2026-03-22T10:12:36.45Z</time></trkpt><trkpt lat="45.9499633" lon="12.868715"><ele>39.0</ele><time>2026-03-22T10:12:37.451Z</time></trkpt><trkpt lat="45.9501367" lon="12.8686733"><ele>39.0</ele><time>2026-03-22T10:12:38.45Z</time></trkpt><trkpt lat="45.9503083" lon="12.8686133"><ele>39.333333333333336</ele><time>2026-03-22T10:12:39.451Z</time></trkpt><trkpt lat="45.9504833" lon="12.86855"><ele>39.66666666666667</ele><time>2026-03-22T10:12:40.451Z</time></trkpt><trkpt lat="45.9506583" lon="12.8684883"><ele>40.0</ele><time>2026-03-22T10:12:41.45Z</time></trkpt><trkpt lat="45.9508333" lon="12.8684333"><ele>40.333333333333336</ele><time>2026-03-22T10:12:42.449Z</time></trkpt><trkpt lat="45.9510117" lon="12.8683733"><ele>40.666666666666664</ele><time>2026-03-22T10:12:43.451Z</time></trkpt><trkpt lat="45.95119" lon="12.8683117"><ele>41.0</ele><time>2026-03-22T10:12:44.45Z</time></trkpt><trkpt lat="45.9513667" lon="12.8682533"><ele>41.0</ele><time>2026-03-22T10:12:45.449Z</time></trkpt><trkpt lat="45.9515383" lon="12.8682017"><ele>41.0</ele><time>2026-03-22T10:12:46.45Z</time></trkpt><trkpt lat="45.9517067" lon="12.8681517"><ele>41.0</ele><time>2026-03-22T10:12:47.45Z</time></trkpt><trkpt lat="45.9518817" lon="12.8680967"><ele>40.33333333333333</ele><time>2026-03-22T10:12:48.451Z</time></trkpt><trkpt lat="45.9520633" lon="12.8680433"><ele>39.666666666666664</ele><time>2026-03-22T10:12:49.453Z</time></trkpt><trkpt lat="45.95225" lon="12.8679883"><ele>39.0</ele><time>2026-03-22T10:12:50.452Z</time></trkpt><trkpt lat="45.952445" lon="12.8679183"><ele>39.333333333333336</ele><time>2026-03-22T10:12:51.449Z</time></trkpt><trkpt lat="45.9526517" lon="12.8678583"><ele>39.66666666666667</ele><time>2026-03-22T10:12:52.451Z</time></trkpt><trkpt lat="45.9528633" lon="12.8677917"><ele>40.0</ele><time>2026-03-22T10:12:53.451Z</time></trkpt><trkpt lat="45.9530667" lon="12.8677267"><ele>40.0</ele><time>2026-03-22T10:12:54.453Z</time></trkpt><trkpt lat="45.95326" lon="12.867665"><ele>40.0</ele><time>2026-03-22T10:12:55.451Z</time></trkpt><trkpt lat="45.953445" lon="12.8676067"><ele>40.0</ele><time>2026-03-22T10:12:56.451Z</time></trkpt><trkpt lat="45.95362" lon="12.8675583"><ele>40.0</ele><time>2026-03-22T10:12:57.451Z</time></trkpt><trkpt lat="45.953795" lon="12.8674967"><ele>40.0</ele><time>2026-03-22T10:12:58.45Z</time></trkpt><trkpt lat="45.9539683" lon="12.8674417"><ele>40.0</ele><time>2026-03-22T10:12:59.449Z</time></trkpt><trkpt lat="45.9541483" lon="12.867385"><ele>40.333333333333336</ele><time>2026-03-22T10:13:00.449Z</time></trkpt><trkpt lat="45.954335" lon="12.867335"><ele>40.666666666666664</ele><time>2026-03-22T10:13:01.449Z</time></trkpt><trkpt lat="45.9545183" lon="12.8672733"><ele>41.0</ele><time>2026-03-22T10:13:02.45Z</time></trkpt><trkpt lat="45.954705" lon="12.8672167"><ele>41.0</ele><time>2026-03-22T10:13:03.451Z</time></trkpt><trkpt lat="45.9548883" lon="12.8671683"><ele>41.0</ele><time>2026-03-22T10:13:04.449Z</time></trkpt><trkpt lat="45.9550683" lon="12.867115"><ele>41.0</ele><time>2026-03-22T10:13:05.449Z</time></trkpt><trkpt lat="45.955245" lon="12.86706"><ele>42.0</ele><time>2026-03-22T10:13:06.451Z</time></trkpt><trkpt lat="45.9554217" lon="12.8670033"><ele>43.0</ele><time>2026-03-22T10:13:07.45Z</time></trkpt><trkpt lat="45.9555967" lon="12.8669467"><ele>44.0</ele><time>2026-03-22T10:13:08.457Z</time></trkpt><trkpt lat="45.95577" lon="12.866895"><ele>43.666666666666664</ele><time>2026-03-22T10:13:09.45Z</time></trkpt><trkpt lat="45.9559417" lon="12.8668467"><ele>43.333333333333336</ele><time>2026-03-22T10:13:10.451Z</time></trkpt><trkpt lat="45.9561133" lon="12.866795"><ele>43.0</ele><time>2026-03-22T10:13:11.45Z</time></trkpt><trkpt lat="45.9562817" lon="12.8667383"><ele>42.66666666666667</ele><time>2026-03-22T10:13:12.45Z</time></trkpt><trkpt lat="45.95645" lon="12.8666867"><ele>42.333333333333336</ele><time>2026-03-22T10:13:13.45Z</time></trkpt><trkpt lat="45.9566117" lon="12.8666383"><ele>42.0</ele><time>2026-03-22T10:13:14.45Z</time></trkpt><trkpt lat="45.9567617" lon="12.866595"><ele>42.0</ele><time>2026-03-22T10:13:15.451Z</time></trkpt><trkpt lat="45.9569117" lon="12.86655"><ele>42.0</ele><time>2026-03-22T10:13:16.452Z</time></trkpt><trkpt lat="45.95706" lon="12.8665067"><ele>42.0</ele><time>2026-03-22T10:13:17.448Z</time></trkpt><trkpt lat="45.9572067" lon="12.8664667"><ele>42.0</ele><time>2026-03-22T10:13:18.45Z</time></trkpt><trkpt lat="45.9573533" lon="12.8664167"><ele>42.0</ele><time>2026-03-22T10:13:19.45Z</time></trkpt><trkpt lat="45.9574917" lon="12.86637"><ele>42.0</ele><time>2026-03-22T10:13:20.451Z</time></trkpt><trkpt lat="45.9576233" lon="12.866325"><ele>42.0</ele><time>2026-03-22T10:13:21.451Z</time></trkpt><trkpt lat="45.957745" lon="12.866285"><ele>42.0</ele><time>2026-03-22T10:13:22.45Z</time></trkpt><trkpt lat="45.9578583" lon="12.86625"><ele>42.0</ele><time>2026-03-22T10:13:23.451Z</time></trkpt><trkpt lat="45.9579617" lon="12.8662233"><ele>42.0</ele><time>2026-03-22T10:13:24.451Z</time></trkpt><trkpt lat="45.95806" lon="12.8662033"><ele>42.0</ele><time>2026-03-22T10:13:25.449Z</time></trkpt><trkpt lat="45.9581567" lon="12.8661867"><ele>42.0</ele><time>2026-03-22T10:13:26.451Z</time></trkpt><trkpt lat="45.958255" lon="12.8661667"><ele>42.0</ele><time>2026-03-22T10:13:27.451Z</time></trkpt><trkpt lat="45.9583583" lon="12.8661367"><ele>42.0</ele><time>2026-03-22T10:13:28.45Z</time></trkpt><trkpt lat="45.95846" lon="12.86609"><ele>42.0</ele><time>2026-03-22T10:13:29.449Z</time></trkpt><trkpt lat="45.958555" lon="12.8660417"><ele>42.0</ele><time>2026-03-22T10:13:30.451Z</time></trkpt><trkpt lat="45.9586483" lon="12.8659967"><ele>42.0</ele><time>2026-03-22T10:13:31.451Z</time></trkpt><trkpt lat="45.958735" lon="12.86596"><ele>42.166666666666664</ele><time>2026-03-22T10:13:32.45Z</time></trkpt><trkpt lat="45.9588133" lon="12.8659167"><ele>42.333333333333336</ele><time>2026-03-22T10:13:33.452Z</time></trkpt><trkpt lat="45.95888" lon="12.8658817"><ele>42.5</ele><time>2026-03-22T10:13:34.451Z</time></trkpt><trkpt lat="45.9589483" lon="12.8658533"><ele>42.66666666666667</ele><time>2026-03-22T10:13:35.451Z</time></trkpt><trkpt lat="45.9590117" lon="12.8658283"><ele>42.833333333333336</ele><time>2026-03-22T10:13:36.45Z</time></trkpt><trkpt lat="45.9590717" lon="12.8657967"><ele>43.0</ele><time>2026-03-22T10:13:37.452Z</time></trkpt><trkpt lat="45.9591783" lon="12.865755"><ele>42.599999999999994</ele><time>2026-03-22T10:13:39.453Z</time></trkpt><trkpt lat="45.9592783" lon="12.8657517"><ele>42.199999999999996</ele><time>2026-03-22T10:13:41.45Z</time></trkpt><trkpt lat="45.9594" lon="12.865825"><ele>41.8</ele><time>2026-03-22T10:13:43.45Z</time></trkpt><trkpt lat="45.9594533" lon="12.865905"><ele>41.4</ele><time>2026-03-22T10:13:44.451Z</time></trkpt><trkpt lat="45.9595067" lon="12.8660017"><ele>41.0</ele><time>2026-03-22T10:13:45.451Z</time></trkpt><trkpt lat="45.9595467" lon="12.8661267"><ele>41.0</ele><time>2026-03-22T10:13:46.451Z</time></trkpt><trkpt lat="45.9595817" lon="12.866285"><ele>41.0</ele><time>2026-03-22T10:13:47.452Z</time></trkpt><trkpt lat="45.95962" lon="12.8664667"><ele>41.0</ele><time>2026-03-22T10:13:48.449Z</time></trkpt><trkpt lat="45.959655" lon="12.86665"><ele>41.0</ele><time>2026-03-22T10:13:49.451Z</time></trkpt><trkpt lat="45.9596867" lon="12.8668283"><ele>41.0</ele><time>2026-03-22T10:13:50.45Z</time></trkpt><trkpt lat="45.9597217" lon="12.8670083"><ele>41.0</ele><time>2026-03-22T10:13:51.451Z</time></trkpt><trkpt lat="45.9597683" lon="12.8671817"><ele>41.0</ele><time>2026-03-22T10:13:52.45Z</time></trkpt><trkpt lat="45.95981" lon="12.8673583"><ele>41.0</ele><time>2026-03-22T10:13:53.451Z</time></trkpt><trkpt lat="45.9598467" lon="12.8675417"><ele>41.75</ele><time>2026-03-22T10:13:54.45Z</time></trkpt><trkpt lat="45.9598833" lon="12.8677317"><ele>42.5</ele><time>2026-03-22T10:13:55.452Z</time></trkpt><trkpt lat="45.9599217" lon="12.8679217"><ele>43.25</ele><time>2026-03-22T10:13:56.452Z</time></trkpt><trkpt lat="45.9599617" lon="12.8681167"><ele>44.0</ele><time>2026-03-22T10:13:57.451Z</time></trkpt><trkpt lat="45.9600017" lon="12.8683183"><ele>44.25</ele><time>2026-03-22T10:13:58.45Z</time></trkpt><trkpt lat="45.9600417" lon="12.8685167"><ele>44.5</ele><time>2026-03-22T10:13:59.45Z</time></trkpt><trkpt lat="45.9600867" lon="12.8687167"><ele>44.75</ele><time>2026-03-22T10:14:00.45Z</time></trkpt><trkpt lat="45.9601267" lon="12.8689067"><ele>45.0</ele><time>2026-03-22T10:14:01.45Z</time></trkpt><trkpt lat="45.9601617" lon="12.8690833"><ele>45.0</ele><time>2026-03-22T10:14:02.448Z</time></trkpt><trkpt lat="45.96019" lon="12.86925"><ele>45.0</ele><time>2026-03-22T10:14:03.449Z</time></trkpt><trkpt lat="45.9602083" lon="12.8694083"><ele>45.0</ele><time>2026-03-22T10:14:04.451Z</time></trkpt><trkpt lat="45.9602167" lon="12.8695533"><ele>45.0</ele><time>2026-03-22T10:14:05.45Z</time></trkpt><trkpt lat="45.96022" lon="12.8696783"><ele>45.0</ele><time>2026-03-22T10:14:06.45Z</time></trkpt><trkpt lat="45.9602217" lon="12.869795"><ele>44.833333333333336</ele><time>2026-03-22T10:14:07.451Z</time></trkpt><trkpt lat="45.9602217" lon="12.869915"><ele>44.666666666666664</ele><time>2026-03-22T10:14:08.45Z</time></trkpt><trkpt lat="45.9602133" lon="12.8700383"><ele>44.5</ele><time>2026-03-22T10:14:09.45Z</time></trkpt><trkpt lat="45.9601833" lon="12.8701617"><ele>44.33333333333333</ele><time>2026-03-22T10:14:10.449Z</time></trkpt><trkpt lat="45.960175" lon="12.8702817"><ele>44.166666666666664</ele><time>2026-03-22T10:14:11.449Z</time></trkpt><trkpt lat="45.9602" lon="12.8704"><ele>44.0</ele><time>2026-03-22T10:14:12.45Z</time></trkpt><trkpt lat="45.9602583" lon="12.870495"><ele>44.0</ele><time>2026-03-22T10:14:13.449Z</time></trkpt><trkpt lat="45.960335" lon="12.8705467"><ele>44.0</ele><time>2026-03-22T10:14:14.449Z</time></trkpt><trkpt lat="45.9604167" lon="12.8705433"><ele>44.0</ele><time>2026-03-22T10:14:15.45Z</time></trkpt><trkpt lat="45.9604883" lon="12.87051"><ele>44.0</ele><time>2026-03-22T10:14:16.451Z</time></trkpt><trkpt lat="45.96055" lon="12.8704417"><ele>44.0</ele><time>2026-03-22T10:14:17.449Z</time></trkpt><trkpt lat="45.9606033" lon="12.870355"><ele>44.0</ele><time>2026-03-22T10:14:18.451Z</time></trkpt><trkpt lat="45.9606533" lon="12.870245"><ele>44.0</ele><time>2026-03-22T10:14:19.45Z</time></trkpt><trkpt lat="45.9607167" lon="12.8701417"><ele>44.0</ele><time>2026-03-22T10:14:20.449Z</time></trkpt><trkpt lat="45.9608183" lon="12.8700783"><ele>44.0</ele><time>2026-03-22T10:14:21.45Z</time></trkpt><trkpt lat="45.9609333" lon="12.8700433"><ele>44.0</ele><time>2026-03-22T10:14:22.45Z</time></trkpt><trkpt lat="45.9610717" lon="12.8700233"><ele>43.5</ele><time>2026-03-22T10:14:23.45Z</time></trkpt><trkpt lat="45.9612083" lon="12.8699967"><ele>43.0</ele><time>2026-03-22T10:14:24.45Z</time></trkpt><trkpt lat="45.9613467" lon="12.8699717"><ele>42.5</ele><time>2026-03-22T10:14:25.449Z</time></trkpt><trkpt lat="45.9614867" lon="12.8699517"><ele>42.0</ele><time>2026-03-22T10:14:26.45Z</time></trkpt><trkpt lat="45.9616283" lon="12.869935"><ele>42.0</ele><time>2026-03-22T10:14:27.452Z</time></trkpt><trkpt lat="45.9617733" lon="12.8699183"><ele>42.0</ele><time>2026-03-22T10:14:28.45Z</time></trkpt><trkpt lat="45.96192" lon="12.869895"><ele>42.0</ele><time>2026-03-22T10:14:29.45Z</time></trkpt><trkpt lat="45.9620717" lon="12.8698717"><ele>42.0</ele><time>2026-03-22T10:14:30.451Z</time></trkpt><trkpt lat="45.9622267" lon="12.8698483"><ele>42.0</ele><time>2026-03-22T10:14:31.45Z</time></trkpt><trkpt lat="45.962385" lon="12.8698283"><ele>42.0</ele><time>2026-03-22T10:14:32.449Z</time></trkpt><trkpt lat="45.9625483" lon="12.869805"><ele>42.0</ele><time>2026-03-22T10:14:33.452Z</time></trkpt><trkpt lat="45.9627167" lon="12.8697783"><ele>42.333333333333336</ele><time>2026-03-22T10:14:34.45Z</time></trkpt><trkpt lat="45.9628867" lon="12.8697517"><ele>42.66666666666667</ele><time>2026-03-22T10:14:35.45Z</time></trkpt><trkpt lat="45.96306" lon="12.8697267"><ele>43.0</ele><time>2026-03-22T10:14:36.451Z</time></trkpt><trkpt lat="45.96324" lon="12.8697017"><ele>43.66666666666667</ele><time>2026-03-22T10:14:37.45Z</time></trkpt><trkpt lat="45.9634267" lon="12.869675"><ele>44.333333333333336</ele><time>2026-03-22T10:14:38.45Z</time></trkpt><trkpt lat="45.9636167" lon="12.8696517"><ele>45.0</ele><time>2026-03-22T10:14:39.451Z</time></trkpt><trkpt lat="45.9638" lon="12.8696267"><ele>45.0</ele><time>2026-03-22T10:14:40.45Z</time></trkpt><trkpt lat="45.9639817" lon="12.8696067"><ele>45.0</ele><time>2026-03-22T10:14:41.45Z</time></trkpt><trkpt lat="45.964165" lon="12.8695783"><ele>45.0</ele><time>2026-03-22T10:14:42.449Z</time></trkpt><trkpt lat="45.96435" lon="12.8695517"><ele>44.333333333333336</ele><time>2026-03-22T10:14:43.451Z</time></trkpt><trkpt lat="45.964535" lon="12.8695233"><ele>43.66666666666667</ele><time>2026-03-22T10:14:44.451Z</time></trkpt><trkpt lat="45.9647233" lon="12.8694967"><ele>43.0</ele><time>2026-03-22T10:14:45.451Z</time></trkpt><trkpt lat="45.9649067" lon="12.8694717"><ele>43.333333333333336</ele><time>2026-03-22T10:14:46.451Z</time></trkpt><trkpt lat="45.9650883" lon="12.869445"><ele>43.666666666666664</ele><time>2026-03-22T10:14:47.45Z</time></trkpt><trkpt lat="45.96527" lon="12.8694233"><ele>44.0</ele><time>2026-03-22T10:14:48.45Z</time></trkpt><trkpt lat="45.965445" lon="12.8693967"><ele>44.0</ele><time>2026-03-22T10:14:49.451Z</time></trkpt><trkpt lat="45.9656183" lon="12.86937"><ele>44.0</ele><time>2026-03-22T10:14:50.45Z</time></trkpt><trkpt lat="45.9657983" lon="12.8693467"><ele>44.0</ele><time>2026-03-22T10:14:51.451Z</time></trkpt><trkpt lat="45.9659817" lon="12.8693167"><ele>44.0</ele><time>2026-03-22T10:14:52.45Z</time></trkpt><trkpt lat="45.9661667" lon="12.8692917"><ele>44.0</ele><time>2026-03-22T10:14:53.45Z</time></trkpt><trkpt lat="45.96635" lon="12.86926"><ele>44.0</ele><time>2026-03-22T10:14:54.45Z</time></trkpt><trkpt lat="45.966535" lon="12.8692333"><ele>44.33333333333333</ele><time>2026-03-22T10:14:55.45Z</time></trkpt><trkpt lat="45.966715" lon="12.8692083"><ele>44.666666666666664</ele><time>2026-03-22T10:14:56.451Z</time></trkpt><trkpt lat="45.9668917" lon="12.8691867"><ele>45.0</ele><time>2026-03-22T10:14:57.45Z</time></trkpt><trkpt lat="45.9670633" lon="12.86916"><ele>45.0</ele><time>2026-03-22T10:14:58.45Z</time></trkpt><trkpt lat="45.9672317" lon="12.869135"><ele>45.0</ele><time>2026-03-22T10:14:59.451Z</time></trkpt><trkpt lat="45.9673983" lon="12.86911"><ele>45.0</ele><time>2026-03-22T10:15:00.45Z</time></trkpt><trkpt lat="45.9675667" lon="12.8690867"><ele>44.333333333333336</ele><time>2026-03-22T10:15:01.45Z</time></trkpt><trkpt lat="45.9677383" lon="12.8690583"><ele>43.66666666666667</ele><time>2026-03-22T10:15:02.451Z</time></trkpt><trkpt lat="45.9679117" lon="12.8690317"><ele>43.0</ele><time>2026-03-22T10:15:03.451Z</time></trkpt><trkpt lat="45.9680867" lon="12.8690067"><ele>43.0</ele><time>2026-03-22T10:15:04.45Z</time></trkpt><trkpt lat="45.968255" lon="12.8689883"><ele>43.0</ele><time>2026-03-22T10:15:05.45Z</time></trkpt><trkpt lat="45.96842" lon="12.868965"><ele>43.0</ele><time>2026-03-22T10:15:06.45Z</time></trkpt><trkpt lat="45.9685867" lon="12.8689367"><ele>43.0</ele><time>2026-03-22T10:15:07.449Z</time></trkpt><trkpt lat="45.9687533" lon="12.8689133"><ele>43.0</ele><time>2026-03-22T10:15:08.451Z</time></trkpt><trkpt lat="45.968925" lon="12.868885"><ele>43.0</ele><time>2026-03-22T10:15:09.45Z</time></trkpt><trkpt lat="45.9690967" lon="12.868855"><ele>43.66666666666667</ele><time>2026-03-22T10:15:10.45Z</time></trkpt><trkpt lat="45.96927" lon="12.8688283"><ele>44.333333333333336</ele><time>2026-03-22T10:15:11.45Z</time></trkpt><trkpt lat="45.9694467" lon="12.868805"><ele>45.0</ele><time>2026-03-22T10:15:12.449Z</time></trkpt><trkpt lat="45.9696267" lon="12.86878"><ele>45.0</ele><time>2026-03-22T10:15:13.45Z</time></trkpt><trkpt lat="45.9698067" lon="12.8687533"><ele>45.0</ele><time>2026-03-22T10:15:14.449Z</time></trkpt><trkpt lat="45.9699867" lon="12.8687217"><ele>45.0</ele><time>2026-03-22T10:15:15.45Z</time></trkpt><trkpt lat="45.9701717" lon="12.868695"><ele>44.666666666666664</ele><time>2026-03-22T10:15:16.45Z</time></trkpt><trkpt lat="45.970365" lon="12.86868"><ele>44.33333333333333</ele><time>2026-03-22T10:15:17.451Z</time></trkpt><trkpt lat="45.97056" lon="12.86866"><ele>44.0</ele><time>2026-03-22T10:15:18.451Z</time></trkpt><trkpt lat="45.9707617" lon="12.8686467"><ele>43.666666666666664</ele><time>2026-03-22T10:15:19.45Z</time></trkpt><trkpt lat="45.9709667" lon="12.86864"><ele>43.333333333333336</ele><time>2026-03-22T10:15:20.451Z</time></trkpt><trkpt lat="45.9711717" lon="12.8686433"><ele>43.0</ele><time>2026-03-22T10:15:21.451Z</time></trkpt><trkpt lat="45.971385" lon="12.8686317"><ele>43.0</ele><time>2026-03-22T10:15:22.451Z</time></trkpt><trkpt lat="45.971595" lon="12.8686083"><ele>43.0</ele><time>2026-03-22T10:15:23.451Z</time></trkpt><trkpt lat="45.9718017" lon="12.8685617"><ele>43.0</ele><time>2026-03-22T10:15:24.451Z</time></trkpt><trkpt lat="45.972005" lon="12.8685267"><ele>43.66666666666667</ele><time>2026-03-22T10:15:25.451Z</time></trkpt><trkpt lat="45.9722017" lon="12.8684983"><ele>44.333333333333336</ele><time>2026-03-22T10:15:26.45Z</time></trkpt><trkpt lat="45.9723983" lon="12.86846"><ele>45.0</ele><time>2026-03-22T10:15:27.451Z</time></trkpt><trkpt lat="45.9725967" lon="12.86842"><ele>45.333333333333336</ele><time>2026-03-22T10:15:28.45Z</time></trkpt><trkpt lat="45.9728" lon="12.8683717"><ele>45.66666666666667</ele><time>2026-03-22T10:15:29.451Z</time></trkpt><trkpt lat="45.9730017" lon="12.8683033"><ele>46.0</ele><time>2026-03-22T10:15:30.449Z</time></trkpt><trkpt lat="45.973205" lon="12.8682183"><ele>46.333333333333336</ele><time>2026-03-22T10:15:31.451Z</time></trkpt><trkpt lat="45.9734083" lon="12.8681183"><ele>46.666666666666664</ele><time>2026-03-22T10:15:32.451Z</time></trkpt><trkpt lat="45.9736117" lon="12.8680233"><ele>47.0</ele><time>2026-03-22T10:15:33.451Z</time></trkpt><trkpt lat="45.973815" lon="12.8679317"><ele>47.0</ele><time>2026-03-22T10:15:34.451Z</time></trkpt><trkpt lat="45.9740183" lon="12.867835"><ele>47.0</ele><time>2026-03-22T10:15:35.45Z</time></trkpt><trkpt lat="45.974225" lon="12.8677433"><ele>47.0</ele><time>2026-03-22T10:15:36.45Z</time></trkpt><trkpt lat="45.9744367" lon="12.86766"><ele>47.0</ele><time>2026-03-22T10:15:37.451Z</time></trkpt><trkpt lat="45.974645" lon="12.8675717"><ele>47.0</ele><time>2026-03-22T10:15:38.448Z</time></trkpt><trkpt lat="45.9748533" lon="12.867505"><ele>47.0</ele><time>2026-03-22T10:15:39.451Z</time></trkpt><trkpt lat="45.9750633" lon="12.867435"><ele>47.33333333333333</ele><time>2026-03-22T10:15:40.45Z</time></trkpt><trkpt lat="45.97526" lon="12.8673417"><ele>47.666666666666664</ele><time>2026-03-22T10:15:41.45Z</time></trkpt><trkpt lat="45.9754567" lon="12.8672817"><ele>48.0</ele><time>2026-03-22T10:15:42.451Z</time></trkpt><trkpt lat="45.975645" lon="12.8672083"><ele>48.0</ele><time>2026-03-22T10:15:43.45Z</time></trkpt><trkpt lat="45.9758267" lon="12.86713"><ele>48.0</ele><time>2026-03-22T10:15:44.45Z</time></trkpt><trkpt lat="45.976005" lon="12.8670617"><ele>48.0</ele><time>2026-03-22T10:15:45.451Z</time></trkpt><trkpt lat="45.9761833" lon="12.8670017"><ele>48.0</ele><time>2026-03-22T10:15:46.45Z</time></trkpt><trkpt lat="45.9763617" lon="12.866955"><ele>48.0</ele><time>2026-03-22T10:15:47.451Z</time></trkpt><trkpt lat="45.9765333" lon="12.8669183"><ele>48.0</ele><time>2026-03-22T10:15:48.45Z</time></trkpt><trkpt lat="45.9767033" lon="12.8669067"><ele>48.0</ele><time>2026-03-22T10:15:49.45Z</time></trkpt><trkpt lat="45.9768767" lon="12.8669033"><ele>48.0</ele><time>2026-03-22T10:15:50.452Z</time></trkpt><trkpt lat="45.9770467" lon="12.8668833"><ele>48.0</ele><time>2026-03-22T10:15:51.451Z</time></trkpt><trkpt lat="45.977215" lon="12.866835"><ele>48.0</ele><time>2026-03-22T10:15:52.451Z</time></trkpt><trkpt lat="45.9773817" lon="12.8667567"><ele>48.0</ele><time>2026-03-22T10:15:53.45Z</time></trkpt><trkpt lat="45.9775467" lon="12.86668"><ele>48.0</ele><time>2026-03-22T10:15:54.453Z</time></trkpt><trkpt lat="45.9777117" lon="12.8666067"><ele>48.0</ele><time>2026-03-22T10:15:55.451Z</time></trkpt><trkpt lat="45.9778767" lon="12.866525"><ele>48.0</ele><time>2026-03-22T10:15:56.451Z</time></trkpt><trkpt lat="45.9780383" lon="12.8664333"><ele>48.0</ele><time>2026-03-22T10:15:57.452Z</time></trkpt><trkpt lat="45.9782" lon="12.8663433"><ele>48.33333333333333</ele><time>2026-03-22T10:15:58.452Z</time></trkpt><trkpt lat="45.978365" lon="12.8662517"><ele>48.666666666666664</ele><time>2026-03-22T10:15:59.451Z</time></trkpt><trkpt lat="45.97853" lon="12.8661583"><ele>49.0</ele><time>2026-03-22T10:16:00.452Z</time></trkpt><trkpt lat="45.9786983" lon="12.866065"><ele>49.0</ele><time>2026-03-22T10:16:01.45Z</time></trkpt><trkpt lat="45.978865" lon="12.8659733"><ele>49.0</ele><time>2026-03-22T10:16:02.45Z</time></trkpt><trkpt lat="45.97903" lon="12.8658883"><ele>49.0</ele><time>2026-03-22T10:16:03.451Z</time></trkpt><trkpt lat="45.9791867" lon="12.8658033"><ele>48.33333333333333</ele><time>2026-03-22T10:16:04.45Z</time></trkpt><trkpt lat="45.97934" lon="12.8657167"><ele>47.666666666666664</ele><time>2026-03-22T10:16:05.45Z</time></trkpt><trkpt lat="45.979485" lon="12.8656267"><ele>47.0</ele><time>2026-03-22T10:16:06.449Z</time></trkpt><trkpt lat="45.9796283" lon="12.865535"><ele>47.0</ele><time>2026-03-22T10:16:07.452Z</time></trkpt><trkpt lat="45.9797717" lon="12.8654433"><ele>47.0</ele><time>2026-03-22T10:16:08.45Z</time></trkpt><trkpt lat="45.9799167" lon="12.865345"><ele>47.0</ele><time>2026-03-22T10:16:09.451Z</time></trkpt><trkpt lat="45.9800667" lon="12.86524"><ele>47.33333333333333</ele><time>2026-03-22T10:16:10.451Z</time></trkpt><trkpt lat="45.9802217" lon="12.865135"><ele>47.666666666666664</ele><time>2026-03-22T10:16:11.45Z</time></trkpt><trkpt lat="45.9803817" lon="12.8650267"><ele>48.0</ele><time>2026-03-22T10:16:12.452Z</time></trkpt><trkpt lat="45.980545" lon="12.8649133"><ele>48.0</ele><time>2026-03-22T10:16:13.449Z</time></trkpt><trkpt lat="45.9807133" lon="12.864805"><ele>48.0</ele><time>2026-03-22T10:16:14.45Z</time></trkpt><trkpt lat="45.9808883" lon="12.8646933"><ele>48.0</ele><time>2026-03-22T10:16:15.45Z</time></trkpt><trkpt lat="45.98106" lon="12.8645733"><ele>47.666666666666664</ele><time>2026-03-22T10:16:16.45Z</time></trkpt><trkpt lat="45.9812283" lon="12.8644633"><ele>47.33333333333333</ele><time>2026-03-22T10:16:17.45Z</time></trkpt><trkpt lat="45.9813883" lon="12.86436"><ele>47.0</ele><time>2026-03-22T10:16:18.45Z</time></trkpt><trkpt lat="45.9815533" lon="12.8642933"><ele>47.666666666666664</ele><time>2026-03-22T10:16:19.451Z</time></trkpt><trkpt lat="45.9817283" lon="12.8642833"><ele>48.33333333333333</ele><time>2026-03-22T10:16:20.452Z</time></trkpt><trkpt lat="45.981905" lon="12.86429"><ele>49.0</ele><time>2026-03-22T10:16:21.452Z</time></trkpt><trkpt lat="45.9820783" lon="12.8643017"><ele>49.0</ele><time>2026-03-22T10:16:22.449Z</time></trkpt><trkpt lat="45.9822467" lon="12.86431"><ele>49.0</ele><time>2026-03-22T10:16:23.45Z</time></trkpt><trkpt lat="45.98241" lon="12.86432"><ele>49.0</ele><time>2026-03-22T10:16:24.451Z</time></trkpt><trkpt lat="45.982575" lon="12.8643283"><ele>49.0</ele><time>2026-03-22T10:16:25.452Z</time></trkpt><trkpt lat="45.9827417" lon="12.86433"><ele>49.0</ele><time>2026-03-22T10:16:26.449Z</time></trkpt><trkpt lat="45.9829083" lon="12.864335"><ele>49.0</ele><time>2026-03-22T10:16:27.45Z</time></trkpt><trkpt lat="45.9830683" lon="12.8643483"><ele>49.0</ele><time>2026-03-22T10:16:28.45Z</time></trkpt><trkpt lat="45.9832233" lon="12.8643683"><ele>49.0</ele><time>2026-03-22T10:16:29.45Z</time></trkpt><trkpt lat="45.9833833" lon="12.8643867"><ele>49.0</ele><time>2026-03-22T10:16:30.45Z</time></trkpt><trkpt lat="45.9835433" lon="12.8644017"><ele>49.666666666666664</ele><time>2026-03-22T10:16:31.451Z</time></trkpt><trkpt lat="45.9837017" lon="12.864415"><ele>50.33333333333333</ele><time>2026-03-22T10:16:32.45Z</time></trkpt><trkpt lat="45.9838633" lon="12.8644317"><ele>51.0</ele><time>2026-03-22T10:16:33.45Z</time></trkpt><trkpt lat="45.9840233" lon="12.8644467"><ele>51.0</ele><time>2026-03-22T10:16:34.45Z</time></trkpt><trkpt lat="45.984185" lon="12.8644667"><ele>51.0</ele><time>2026-03-22T10:16:35.45Z</time></trkpt><trkpt lat="45.9843433" lon="12.86449"><ele>51.0</ele><time>2026-03-22T10:16:36.45Z</time></trkpt><trkpt lat="45.9845017" lon="12.8645183"><ele>51.0</ele><time>2026-03-22T10:16:37.451Z</time></trkpt><trkpt lat="45.9846633" lon="12.86454"><ele>51.0</ele><time>2026-03-22T10:16:38.451Z</time></trkpt><trkpt lat="45.9848217" lon="12.8645617"><ele>51.0</ele><time>2026-03-22T10:16:39.45Z</time></trkpt><trkpt lat="45.98497" lon="12.864575"><ele>50.75</ele><time>2026-03-22T10:16:40.449Z</time></trkpt><trkpt lat="45.98511" lon="12.86459"><ele>50.5</ele><time>2026-03-22T10:16:41.451Z</time></trkpt><trkpt lat="45.9852383" lon="12.86461"><ele>50.25</ele><time>2026-03-22T10:16:42.451Z</time></trkpt><trkpt lat="45.985355" lon="12.8646217"><ele>50.0</ele><time>2026-03-22T10:16:43.45Z</time></trkpt><trkpt lat="45.9854617" lon="12.86464"><ele>50.00000000000001</ele><time>2026-03-22T10:16:44.449Z</time></trkpt><trkpt lat="45.985555" lon="12.8646533"><ele>50.0</ele><time>2026-03-22T10:16:45.451Z</time></trkpt><trkpt lat="45.9856433" lon="12.8646633"><ele>50.0</ele><time>2026-03-22T10:16:46.449Z</time></trkpt><trkpt lat="45.985725" lon="12.8646867"><ele>50.0</ele><time>2026-03-22T10:16:47.449Z</time></trkpt><trkpt lat="45.9858033" lon="12.864685"><ele>50.00000000000001</ele><time>2026-03-22T10:16:48.451Z</time></trkpt><trkpt lat="45.98589" lon="12.864685"><ele>50.0</ele><time>2026-03-22T10:16:49.452Z</time></trkpt><trkpt lat="45.985985" lon="12.864685"><ele>50.25</ele><time>2026-03-22T10:16:50.451Z</time></trkpt><trkpt lat="45.98609" lon="12.86469"><ele>50.5</ele><time>2026-03-22T10:16:51.452Z</time></trkpt><trkpt lat="45.9862117" lon="12.86472"><ele>50.75</ele><time>2026-03-22T10:16:52.451Z</time></trkpt><trkpt lat="45.9863517" lon="12.8647533"><ele>51.0</ele><time>2026-03-22T10:16:53.45Z</time></trkpt><trkpt lat="45.9865067" lon="12.8648083"><ele>51.0</ele><time>2026-03-22T10:16:54.451Z</time></trkpt><trkpt lat="45.98667" lon="12.8648717"><ele>51.0</ele><time>2026-03-22T10:16:55.452Z</time></trkpt><trkpt lat="45.986835" lon="12.8649383"><ele>51.0</ele><time>2026-03-22T10:16:56.451Z</time></trkpt><trkpt lat="45.987005" lon="12.865005"><ele>51.0</ele><time>2026-03-22T10:16:57.451Z</time></trkpt><trkpt lat="45.987175" lon="12.86507"><ele>51.0</ele><time>2026-03-22T10:16:58.45Z</time></trkpt><trkpt lat="45.9873433" lon="12.865125"><ele>51.0</ele><time>2026-03-22T10:16:59.45Z</time></trkpt><trkpt lat="45.9875" lon="12.8651833"><ele>51.0</ele><time>2026-03-22T10:17:00.451Z</time></trkpt><trkpt lat="45.9876483" lon="12.8652383"><ele>51.0</ele><time>2026-03-22T10:17:01.451Z</time></trkpt><trkpt lat="45.9877967" lon="12.865295"><ele>51.0</ele><time>2026-03-22T10:17:02.451Z</time></trkpt><trkpt lat="45.9879433" lon="12.8653517"><ele>51.0</ele><time>2026-03-22T10:17:03.45Z</time></trkpt><trkpt lat="45.9880883" lon="12.865405"><ele>51.0</ele><time>2026-03-22T10:17:04.45Z</time></trkpt><trkpt lat="45.98823" lon="12.8654617"><ele>51.0</ele><time>2026-03-22T10:17:05.45Z</time></trkpt><trkpt lat="45.988375" lon="12.865515"><ele>51.0</ele><time>2026-03-22T10:17:06.449Z</time></trkpt><trkpt lat="45.9885183" lon="12.86557"><ele>51.25</ele><time>2026-03-22T10:17:07.449Z</time></trkpt><trkpt lat="45.9886533" lon="12.8656233"><ele>51.5</ele><time>2026-03-22T10:17:08.45Z</time></trkpt><trkpt lat="45.9887867" lon="12.8656767"><ele>51.75</ele><time>2026-03-22T10:17:09.449Z</time></trkpt><trkpt lat="45.98892" lon="12.865725"><ele>52.0</ele><time>2026-03-22T10:17:10.45Z</time></trkpt><trkpt lat="45.9890517" lon="12.8657833"><ele>51.75</ele><time>2026-03-22T10:17:11.45Z</time></trkpt><trkpt lat="45.9891833" lon="12.86583"><ele>51.5</ele><time>2026-03-22T10:17:12.451Z</time></trkpt><trkpt lat="45.989315" lon="12.8658717"><ele>51.25</ele><time>2026-03-22T10:17:13.45Z</time></trkpt><trkpt lat="45.9894467" lon="12.8659233"><ele>51.0</ele><time>2026-03-22T10:17:14.451Z</time></trkpt><trkpt lat="45.989585" lon="12.8659767"><ele>51.0</ele><time>2026-03-22T10:17:15.45Z</time></trkpt><trkpt lat="45.9897267" lon="12.8660333"><ele>51.0</ele><time>2026-03-22T10:17:16.449Z</time></trkpt><trkpt lat="45.98988" lon="12.8660967"><ele>51.0</ele><time>2026-03-22T10:17:17.45Z</time></trkpt><trkpt lat="45.9900333" lon="12.8661567"><ele>51.0</ele><time>2026-03-22T10:17:18.451Z</time></trkpt><trkpt lat="45.990185" lon="12.866215"><ele>51.0</ele><time>2026-03-22T10:17:19.452Z</time></trkpt><trkpt lat="45.990335" lon="12.8662683"><ele>51.0</ele><time>2026-03-22T10:17:20.452Z</time></trkpt><trkpt lat="45.9904833" lon="12.866325"><ele>51.0</ele><time>2026-03-22T10:17:21.453Z</time></trkpt><trkpt lat="45.990635" lon="12.86638"><ele>51.0</ele><time>2026-03-22T10:17:22.451Z</time></trkpt><trkpt lat="45.99078" lon="12.86644"><ele>51.0</ele><time>2026-03-22T10:17:23.449Z</time></trkpt><trkpt lat="45.9909317" lon="12.8664983"><ele>51.66666666666667</ele><time>2026-03-22T10:17:24.452Z</time></trkpt><trkpt lat="45.9910917" lon="12.8665583"><ele>52.333333333333336</ele><time>2026-03-22T10:17:25.451Z</time></trkpt><trkpt lat="45.9912517" lon="12.866615"><ele>53.0</ele><time>2026-03-22T10:17:26.45Z</time></trkpt><trkpt lat="45.991405" lon="12.8666733"><ele>53.0</ele><time>2026-03-22T10:17:27.451Z</time></trkpt><trkpt lat="45.9915483" lon="12.8667267"><ele>53.0</ele><time>2026-03-22T10:17:28.449Z</time></trkpt><trkpt lat="45.99169" lon="12.866775"><ele>53.0</ele><time>2026-03-22T10:17:29.449Z</time></trkpt><trkpt lat="45.991825" lon="12.8668317"><ele>53.0</ele><time>2026-03-22T10:17:30.45Z</time></trkpt><trkpt lat="45.9919633" lon="12.86688"><ele>53.0</ele><time>2026-03-22T10:17:31.449Z</time></trkpt><trkpt lat="45.9921" lon="12.8669317"><ele>53.0</ele><time>2026-03-22T10:17:32.45Z</time></trkpt><trkpt lat="45.9922367" lon="12.866985"><ele>53.0</ele><time>2026-03-22T10:17:33.45Z</time></trkpt><trkpt lat="45.992375" lon="12.8670367"><ele>53.0</ele><time>2026-03-22T10:17:34.452Z</time></trkpt><trkpt lat="45.99251" lon="12.8670883"><ele>53.25</ele><time>2026-03-22T10:17:35.452Z</time></trkpt><trkpt lat="45.9926467" lon="12.8671467"><ele>53.5</ele><time>2026-03-22T10:17:36.451Z</time></trkpt><trkpt lat="45.9927867" lon="12.867195"><ele>53.75</ele><time>2026-03-22T10:17:37.451Z</time></trkpt><trkpt lat="45.99292" lon="12.867245"><ele>54.0</ele><time>2026-03-22T10:17:38.45Z</time></trkpt><trkpt lat="45.9930583" lon="12.867295"><ele>54.0</ele><time>2026-03-22T10:17:39.451Z</time></trkpt><trkpt lat="45.99319" lon="12.867345"><ele>54.0</ele><time>2026-03-22T10:17:40.45Z</time></trkpt><trkpt lat="45.9933133" lon="12.86739"><ele>54.0</ele><time>2026-03-22T10:17:41.449Z</time></trkpt><trkpt lat="45.9934317" lon="12.8674383"><ele>54.0</ele><time>2026-03-22T10:17:42.451Z</time></trkpt><trkpt lat="45.9935517" lon="12.8674817"><ele>54.25</ele><time>2026-03-22T10:17:43.451Z</time></trkpt><trkpt lat="45.9936683" lon="12.8675233"><ele>54.5</ele><time>2026-03-22T10:17:44.45Z</time></trkpt><trkpt lat="45.9937883" lon="12.8675617"><ele>54.75</ele><time>2026-03-22T10:17:45.45Z</time></trkpt><trkpt lat="45.99391" lon="12.867595"><ele>55.0</ele><time>2026-03-22T10:17:46.449Z</time></trkpt><trkpt lat="45.994025" lon="12.8676433"><ele>55.0</ele><time>2026-03-22T10:17:47.451Z</time></trkpt><trkpt lat="45.9941317" lon="12.8676867"><ele>55.0</ele><time>2026-03-22T10:17:48.452Z</time></trkpt><trkpt lat="45.9942317" lon="12.867725"><ele>55.0</ele><time>2026-03-22T10:17:49.451Z</time></trkpt><trkpt lat="45.99432" lon="12.8677583"><ele>55.0</ele><time>2026-03-22T10:17:50.45Z</time></trkpt><trkpt lat="45.994405" lon="12.86778"><ele>55.0</ele><time>2026-03-22T10:17:51.452Z</time></trkpt><trkpt lat="45.9944817" lon="12.867815"><ele>54.99999999999999</ele><time>2026-03-22T10:17:52.449Z</time></trkpt><trkpt lat="45.9945467" lon="12.8678567"><ele>55.0</ele><time>2026-03-22T10:17:53.451Z</time></trkpt><trkpt lat="45.9946033" lon="12.8679033"><ele>55.0</ele><time>2026-03-22T10:17:54.451Z</time></trkpt><trkpt lat="45.9946583" lon="12.8679483"><ele>55.0</ele><time>2026-03-22T10:17:55.452Z</time></trkpt><trkpt lat="45.9947133" lon="12.8680617"><ele>54.99999999999999</ele><time>2026-03-22T10:17:57.45Z</time></trkpt><trkpt lat="45.9947367" lon="12.868205"><ele>55.0</ele><time>2026-03-22T10:17:59.451Z</time></trkpt><trkpt lat="45.9947917" lon="12.868305"><ele>54.99999999999999</ele><time>2026-03-22T10:18:01.451Z</time></trkpt><trkpt lat="45.99487" lon="12.86832"><ele>55.0</ele><time>2026-03-22T10:18:03.452Z</time></trkpt><trkpt lat="45.9949333" lon="12.8683067"><ele>55.0</ele><time>2026-03-22T10:18:04.451Z</time></trkpt><trkpt lat="45.995015" lon="12.8682933"><ele>55.0</ele><time>2026-03-22T10:18:05.45Z</time></trkpt><trkpt lat="45.995105" lon="12.86829"><ele>54.99999999999999</ele><time>2026-03-22T10:18:06.45Z</time></trkpt><trkpt lat="45.9952133" lon="12.868295"><ele>55.0</ele><time>2026-03-22T10:18:07.451Z</time></trkpt><trkpt lat="45.9953233" lon="12.8683217"><ele>55.0</ele><time>2026-03-22T10:18:08.45Z</time></trkpt><trkpt lat="45.9954267" lon="12.8683583"><ele>55.0</ele><time>2026-03-22T10:18:09.45Z</time></trkpt><trkpt lat="45.9955317" lon="12.8683883"><ele>55.0</ele><time>2026-03-22T10:18:10.451Z</time></trkpt><trkpt lat="45.9956367" lon="12.868415"><ele>55.0</ele><time>2026-03-22T10:18:11.452Z</time></trkpt><trkpt lat="45.9957433" lon="12.8684317"><ele>55.0</ele><time>2026-03-22T10:18:12.45Z</time></trkpt><trkpt lat="45.995855" lon="12.8684317"><ele>55.25</ele><time>2026-03-22T10:18:13.45Z</time></trkpt><trkpt lat="45.9959633" lon="12.86844"><ele>55.5</ele><time>2026-03-22T10:18:14.451Z</time></trkpt><trkpt lat="45.99608" lon="12.868415"><ele>55.75</ele><time>2026-03-22T10:18:15.451Z</time></trkpt><trkpt lat="45.9961983" lon="12.86843"><ele>56.0</ele><time>2026-03-22T10:18:16.45Z</time></trkpt><trkpt lat="45.9963183" lon="12.8684233"><ele>56.0</ele><time>2026-03-22T10:18:17.45Z</time></trkpt><trkpt lat="45.9964383" lon="12.8684233"><ele>56.0</ele><time>2026-03-22T10:18:18.45Z</time></trkpt><trkpt lat="45.9965667" lon="12.868425"><ele>56.0</ele><time>2026-03-22T10:18:19.45Z</time></trkpt><trkpt lat="45.9967017" lon="12.8684217"><ele>56.0</ele><time>2026-03-22T10:18:20.45Z</time></trkpt><trkpt lat="45.9968417" lon="12.8684333"><ele>55.75</ele><time>2026-03-22T10:18:21.451Z</time></trkpt><trkpt lat="45.9969833" lon="12.86844"><ele>55.5</ele><time>2026-03-22T10:18:22.452Z</time></trkpt><trkpt lat="45.99713" lon="12.8684367"><ele>55.25</ele><time>2026-03-22T10:18:23.45Z</time></trkpt><trkpt lat="45.99728" lon="12.868455"><ele>55.0</ele><time>2026-03-22T10:18:24.451Z</time></trkpt><trkpt lat="45.997435" lon="12.8684767"><ele>55.33333333333333</ele><time>2026-03-22T10:18:25.452Z</time></trkpt><trkpt lat="45.997595" lon="12.8684583"><ele>55.66666666666667</ele><time>2026-03-22T10:18:26.451Z</time></trkpt><trkpt lat="45.9977567" lon="12.8684667"><ele>56.0</ele><time>2026-03-22T10:18:27.451Z</time></trkpt><trkpt lat="45.99792" lon="12.8684833"><ele>56.0</ele><time>2026-03-22T10:18:28.449Z</time></trkpt><trkpt lat="45.9980883" lon="12.8684717"><ele>56.0</ele><time>2026-03-22T10:18:29.45Z</time></trkpt><trkpt lat="45.9982517" lon="12.8684933"><ele>56.0</ele><time>2026-03-22T10:18:30.451Z</time></trkpt><trkpt lat="45.998405" lon="12.8685367"><ele>56.25</ele><time>2026-03-22T10:18:31.451Z</time></trkpt><trkpt lat="45.9985467" lon="12.868555"><ele>56.5</ele><time>2026-03-22T10:18:32.45Z</time></trkpt><trkpt lat="45.99869" lon="12.8685717"><ele>56.75</ele><time>2026-03-22T10:18:33.452Z</time></trkpt><trkpt lat="45.9988333" lon="12.8685833"><ele>57.0</ele><time>2026-03-22T10:18:34.451Z</time></trkpt><trkpt lat="45.99898" lon="12.86859"><ele>57.0</ele><time>2026-03-22T10:18:35.45Z</time></trkpt><trkpt lat="45.9991267" lon="12.8686083"><ele>57.0</ele><time>2026-03-22T10:18:36.45Z</time></trkpt><trkpt lat="45.999275" lon="12.86865"><ele>57.0</ele><time>2026-03-22T10:18:37.451Z</time></trkpt><trkpt lat="45.9994317" lon="12.86869"><ele>57.33333333333333</ele><time>2026-03-22T10:18:38.451Z</time></trkpt><trkpt lat="45.999595" lon="12.8687383"><ele>57.666666666666664</ele><time>2026-03-22T10:18:39.45Z</time></trkpt><trkpt lat="45.9997583" lon="12.8687933"><ele>58.0</ele><time>2026-03-22T10:18:40.45Z</time></trkpt><trkpt lat="45.99993" lon="12.86885"><ele>58.0</ele><time>2026-03-22T10:18:41.449Z</time></trkpt><trkpt lat="46.0001" lon="12.8689033"><ele>58.0</ele><time>2026-03-22T10:18:42.45Z</time></trkpt><trkpt lat="46.0002667" lon="12.8689583"><ele>58.0</ele><time>2026-03-22T10:18:43.449Z</time></trkpt><trkpt lat="46.0004267" lon="12.869015"><ele>58.0</ele><time>2026-03-22T10:18:44.45Z</time></trkpt><trkpt lat="46.0005833" lon="12.86907"><ele>58.0</ele><time>2026-03-22T10:18:45.451Z</time></trkpt><trkpt lat="46.00074" lon="12.86913"><ele>58.0</ele><time>2026-03-22T10:18:46.45Z</time></trkpt><trkpt lat="46.0009" lon="12.86919"><ele>57.666666666666664</ele><time>2026-03-22T10:18:47.45Z</time></trkpt><trkpt lat="46.001065" lon="12.869245"><ele>57.33333333333333</ele><time>2026-03-22T10:18:48.451Z</time></trkpt><trkpt lat="46.0012317" lon="12.8693083"><ele>57.0</ele><time>2026-03-22T10:18:49.45Z</time></trkpt><trkpt lat="46.0014017" lon="12.869375"><ele>57.0</ele><time>2026-03-22T10:18:50.45Z</time></trkpt><trkpt lat="46.0015767" lon="12.86944"><ele>57.0</ele><time>2026-03-22T10:18:51.451Z</time></trkpt><trkpt lat="46.0017517" lon="12.86951"><ele>57.0</ele><time>2026-03-22T10:18:52.448Z</time></trkpt><trkpt lat="46.00193" lon="12.8695833"><ele>57.66666666666667</ele><time>2026-03-22T10:18:53.45Z</time></trkpt><trkpt lat="46.00211" lon="12.869655"><ele>58.333333333333336</ele><time>2026-03-22T10:18:54.45Z</time></trkpt><trkpt lat="46.0022883" lon="12.8697317"><ele>59.0</ele><time>2026-03-22T10:18:55.45Z</time></trkpt><trkpt lat="46.0024683" lon="12.86981"><ele>58.66666666666667</ele><time>2026-03-22T10:18:56.45Z</time></trkpt><trkpt lat="46.00265" lon="12.869895"><ele>58.33333333333333</ele><time>2026-03-22T10:18:57.451Z</time></trkpt><trkpt lat="46.0028333" lon="12.8699833"><ele>58.0</ele><time>2026-03-22T10:18:58.45Z</time></trkpt><trkpt lat="46.0030217" lon="12.87007"><ele>58.0</ele><time>2026-03-22T10:18:59.45Z</time></trkpt><trkpt lat="46.0032083" lon="12.870165"><ele>58.0</ele><time>2026-03-22T10:19:00.452Z</time></trkpt><trkpt lat="46.003395" lon="12.870255"><ele>58.0</ele><time>2026-03-22T10:19:01.45Z</time></trkpt><trkpt lat="46.0035833" lon="12.8703383"><ele>57.666666666666664</ele><time>2026-03-22T10:19:02.451Z</time></trkpt><trkpt lat="46.0037667" lon="12.87042"><ele>57.33333333333333</ele><time>2026-03-22T10:19:03.452Z</time></trkpt><trkpt lat="46.00395" lon="12.8705083"><ele>57.0</ele><time>2026-03-22T10:19:04.451Z</time></trkpt><trkpt lat="46.004135" lon="12.870605"><ele>56.66666666666667</ele><time>2026-03-22T10:19:05.451Z</time></trkpt><trkpt lat="46.004325" lon="12.8706983"><ele>56.333333333333336</ele><time>2026-03-22T10:19:06.45Z</time></trkpt><trkpt lat="46.0045183" lon="12.87079"><ele>56.0</ele><time>2026-03-22T10:19:07.449Z</time></trkpt><trkpt lat="46.0047067" lon="12.8708767"><ele>56.333333333333336</ele><time>2026-03-22T10:19:08.449Z</time></trkpt><trkpt lat="46.004885" lon="12.8709583"><ele>56.66666666666667</ele><time>2026-03-22T10:19:09.452Z</time></trkpt><trkpt lat="46.0050583" lon="12.8710483"><ele>57.0</ele><time>2026-03-22T10:19:10.45Z</time></trkpt><trkpt lat="46.0052333" lon="12.8711283"><ele>57.0</ele><time>2026-03-22T10:19:11.451Z</time></trkpt><trkpt lat="46.0054083" lon="12.871215"><ele>57.0</ele><time>2026-03-22T10:19:12.451Z</time></trkpt><trkpt lat="46.005585" lon="12.8713"><ele>57.0</ele><time>2026-03-22T10:19:13.456Z</time></trkpt><trkpt lat="46.0057633" lon="12.871385"><ele>57.33333333333333</ele><time>2026-03-22T10:19:14.451Z</time></trkpt><trkpt lat="46.0059383" lon="12.8714633"><ele>57.666666666666664</ele><time>2026-03-22T10:19:15.451Z</time></trkpt><trkpt lat="46.006105" lon="12.871535"><ele>58.0</ele><time>2026-03-22T10:19:16.451Z</time></trkpt><trkpt lat="46.0062717" lon="12.8716017"><ele>58.0</ele><time>2026-03-22T10:19:17.45Z</time></trkpt><trkpt lat="46.0064417" lon="12.8716717"><ele>58.0</ele><time>2026-03-22T10:19:18.451Z</time></trkpt><trkpt lat="46.0066167" lon="12.8717433"><ele>58.0</ele><time>2026-03-22T10:19:19.45Z</time></trkpt><trkpt lat="46.0068" lon="12.87182"><ele>58.666666666666664</ele><time>2026-03-22T10:19:20.451Z</time></trkpt><trkpt lat="46.0069867" lon="12.8718917"><ele>59.33333333333333</ele><time>2026-03-22T10:19:21.449Z</time></trkpt><trkpt lat="46.0071733" lon="12.87196"><ele>60.0</ele><time>2026-03-22T10:19:22.45Z</time></trkpt><trkpt lat="46.0073567" lon="12.8720233"><ele>60.0</ele><time>2026-03-22T10:19:23.452Z</time></trkpt><trkpt lat="46.0075383" lon="12.8720817"><ele>60.0</ele><time>2026-03-22T10:19:24.451Z</time></trkpt><trkpt lat="46.007715" lon="12.87213"><ele>60.0</ele><time>2026-03-22T10:19:25.449Z</time></trkpt><trkpt lat="46.0078833" lon="12.87218"><ele>60.0</ele><time>2026-03-22T10:19:26.45Z</time></trkpt><trkpt lat="46.00804" lon="12.8722233"><ele>60.0</ele><time>2026-03-22T10:19:27.451Z</time></trkpt><trkpt lat="46.0081817" lon="12.8722633"><ele>60.0</ele><time>2026-03-22T10:19:28.45Z</time></trkpt><trkpt lat="46.0083117" lon="12.8723033"><ele>60.0</ele><time>2026-03-22T10:19:29.451Z</time></trkpt><trkpt lat="46.008435" lon="12.8723417"><ele>60.5</ele><time>2026-03-22T10:19:30.451Z</time></trkpt><trkpt lat="46.008555" lon="12.8723783"><ele>61.0</ele><time>2026-03-22T10:19:31.45Z</time></trkpt><trkpt lat="46.0086817" lon="12.872415"><ele>61.5</ele><time>2026-03-22T10:19:32.449Z</time></trkpt><trkpt lat="46.0088183" lon="12.8724517"><ele>62.0</ele><time>2026-03-22T10:19:33.451Z</time></trkpt><trkpt lat="46.0089583" lon="12.8724883"><ele>62.0</ele><time>2026-03-22T10:19:34.452Z</time></trkpt><trkpt lat="46.009105" lon="12.8725283"><ele>62.0</ele><time>2026-03-22T10:19:35.451Z</time></trkpt><trkpt lat="46.0092583" lon="12.8725733"><ele>62.0</ele><time>2026-03-22T10:19:36.449Z</time></trkpt><trkpt lat="46.0094183" lon="12.8726167"><ele>61.0</ele><time>2026-03-22T10:19:37.45Z</time></trkpt><trkpt lat="46.0095833" lon="12.872665"><ele>60.0</ele><time>2026-03-22T10:19:38.451Z</time></trkpt><trkpt lat="46.0097433" lon="12.8727067"><ele>59.0</ele><time>2026-03-22T10:19:39.45Z</time></trkpt><trkpt lat="46.0099017" lon="12.8727517"><ele>60.333333333333336</ele><time>2026-03-22T10:19:40.45Z</time></trkpt><trkpt lat="46.010065" lon="12.8727983"><ele>61.66666666666667</ele><time>2026-03-22T10:19:41.45Z</time></trkpt><trkpt lat="46.0102367" lon="12.87284"><ele>63.0</ele><time>2026-03-22T10:19:42.451Z</time></trkpt><trkpt lat="46.0104067" lon="12.8728817"><ele>63.0</ele><time>2026-03-22T10:19:43.45Z</time></trkpt><trkpt lat="46.0105733" lon="12.8729267"><ele>63.0</ele><time>2026-03-22T10:19:44.452Z</time></trkpt><trkpt lat="46.0107433" lon="12.8729733"><ele>63.0</ele><time>2026-03-22T10:19:45.451Z</time></trkpt><trkpt lat="46.0109117" lon="12.8730133"><ele>62.33333333333333</ele><time>2026-03-22T10:19:46.451Z</time></trkpt><trkpt lat="46.0110833" lon="12.873045"><ele>61.666666666666664</ele><time>2026-03-22T10:19:47.449Z</time></trkpt><trkpt lat="46.0112617" lon="12.8730783"><ele>61.0</ele><time>2026-03-22T10:19:48.451Z</time></trkpt><trkpt lat="46.0114383" lon="12.87311"><ele>61.0</ele><time>2026-03-22T10:19:49.45Z</time></trkpt><trkpt lat="46.0116117" lon="12.873145"><ele>61.0</ele><time>2026-03-22T10:19:50.451Z</time></trkpt><trkpt lat="46.0117817" lon="12.8731817"><ele>61.0</ele><time>2026-03-22T10:19:51.45Z</time></trkpt><trkpt lat="46.0119533" lon="12.873215"><ele>61.0</ele><time>2026-03-22T10:19:52.45Z</time></trkpt><trkpt lat="46.0121267" lon="12.8732567"><ele>61.0</ele><time>2026-03-22T10:19:53.45Z</time></trkpt><trkpt lat="46.0123017" lon="12.8732983"><ele>61.0</ele><time>2026-03-22T10:19:54.451Z</time></trkpt><trkpt lat="46.0124767" lon="12.8733417"><ele>61.33333333333333</ele><time>2026-03-22T10:19:55.45Z</time></trkpt><trkpt lat="46.0126533" lon="12.8733867"><ele>61.66666666666667</ele><time>2026-03-22T10:19:56.451Z</time></trkpt><trkpt lat="46.0128317" lon="12.87343"><ele>62.0</ele><time>2026-03-22T10:19:57.45Z</time></trkpt><trkpt lat="46.0130167" lon="12.8734767"><ele>62.0</ele><time>2026-03-22T10:19:58.448Z</time></trkpt><trkpt lat="46.013205" lon="12.873525"><ele>62.0</ele><time>2026-03-22T10:19:59.449Z</time></trkpt><trkpt lat="46.0134017" lon="12.8735817"><ele>62.0</ele><time>2026-03-22T10:20:00.449Z</time></trkpt><trkpt lat="46.0136033" lon="12.87364"><ele>61.66666666666667</ele><time>2026-03-22T10:20:01.451Z</time></trkpt><trkpt lat="46.0138" lon="12.8736917"><ele>61.33333333333333</ele><time>2026-03-22T10:20:02.45Z</time></trkpt><trkpt lat="46.0139933" lon="12.8737383"><ele>61.0</ele><time>2026-03-22T10:20:03.451Z</time></trkpt><trkpt lat="46.0141883" lon="12.8737867"><ele>61.0</ele><time>2026-03-22T10:20:04.45Z</time></trkpt><trkpt lat="46.014385" lon="12.87384"><ele>61.0</ele><time>2026-03-22T10:20:05.451Z</time></trkpt><trkpt lat="46.0145733" lon="12.8738917"><ele>61.0</ele><time>2026-03-22T10:20:06.45Z</time></trkpt><trkpt lat="46.01476" lon="12.87394"><ele>61.0</ele><time>2026-03-22T10:20:07.449Z</time></trkpt><trkpt lat="46.0149417" lon="12.87399"><ele>61.0</ele><time>2026-03-22T10:20:08.448Z</time></trkpt><trkpt lat="46.0151267" lon="12.8740417"><ele>61.0</ele><time>2026-03-22T10:20:09.451Z</time></trkpt><trkpt lat="46.0153117" lon="12.8740933"><ele>61.33333333333333</ele><time>2026-03-22T10:20:10.45Z</time></trkpt><trkpt lat="46.0155033" lon="12.8741417"><ele>61.66666666666667</ele><time>2026-03-22T10:20:11.448Z</time></trkpt><trkpt lat="46.0156933" lon="12.87419"><ele>62.0</ele><time>2026-03-22T10:20:12.45Z</time></trkpt><trkpt lat="46.0158833" lon="12.8742367"><ele>62.0</ele><time>2026-03-22T10:20:13.45Z</time></trkpt><trkpt lat="46.0160783" lon="12.8742917"><ele>62.0</ele><time>2026-03-22T10:20:14.45Z</time></trkpt><trkpt lat="46.0162667" lon="12.8743433"><ele>62.0</ele><time>2026-03-22T10:20:15.456Z</time></trkpt><trkpt lat="46.0164567" lon="12.8743933"><ele>62.0</ele><time>2026-03-22T10:20:16.45Z</time></trkpt><trkpt lat="46.01665" lon="12.8744467"><ele>62.0</ele><time>2026-03-22T10:20:17.45Z</time></trkpt><trkpt lat="46.0168433" lon="12.8744967"><ele>62.0</ele><time>2026-03-22T10:20:18.45Z</time></trkpt><trkpt lat="46.0170333" lon="12.8745383"><ele>61.66666666666667</ele><time>2026-03-22T10:20:19.449Z</time></trkpt><trkpt lat="46.0172233" lon="12.874585"><ele>61.33333333333333</ele><time>2026-03-22T10:20:20.451Z</time></trkpt><trkpt lat="46.0174017" lon="12.8746283"><ele>61.0</ele><time>2026-03-22T10:20:21.451Z</time></trkpt><trkpt lat="46.0175717" lon="12.8746667"><ele>62.0</ele><time>2026-03-22T10:20:22.45Z</time></trkpt><trkpt lat="46.0177367" lon="12.8747"><ele>63.0</ele><time>2026-03-22T10:20:23.449Z</time></trkpt><trkpt lat="46.017895" lon="12.8747317"><ele>64.0</ele><time>2026-03-22T10:20:24.451Z</time></trkpt><trkpt lat="46.0180517" lon="12.8747617"><ele>64.0</ele><time>2026-03-22T10:20:25.449Z</time></trkpt><trkpt lat="46.018215" lon="12.87479"><ele>64.0</ele><time>2026-03-22T10:20:26.45Z</time></trkpt><trkpt lat="46.01838" lon="12.8748117"><ele>64.0</ele><time>2026-03-22T10:20:27.45Z</time></trkpt><trkpt lat="46.018535" lon="12.8748267"><ele>64.5</ele><time>2026-03-22T10:20:28.451Z</time></trkpt><trkpt lat="46.0186883" lon="12.8748433"><ele>65.0</ele><time>2026-03-22T10:20:29.449Z</time></trkpt><trkpt lat="46.0188333" lon="12.87486"><ele>65.5</ele><time>2026-03-22T10:20:30.45Z</time></trkpt><trkpt lat="46.0189833" lon="12.87487"><ele>66.0</ele><time>2026-03-22T10:20:31.449Z</time></trkpt><trkpt lat="46.0191333" lon="12.8748733"><ele>65.75</ele><time>2026-03-22T10:20:32.451Z</time></trkpt><trkpt lat="46.01928" lon="12.8748817"><ele>65.5</ele><time>2026-03-22T10:20:33.45Z</time></trkpt><trkpt lat="46.019425" lon="12.87489"><ele>65.25</ele><time>2026-03-22T10:20:34.45Z</time></trkpt><trkpt lat="46.0195667" lon="12.874895"><ele>65.0</ele><time>2026-03-22T10:20:35.449Z</time></trkpt><trkpt lat="46.0197117" lon="12.874895"><ele>65.0</ele><time>2026-03-22T10:20:36.45Z</time></trkpt><trkpt lat="46.0198533" lon="12.8748983"><ele>65.0</ele><time>2026-03-22T10:20:37.451Z</time></trkpt><trkpt lat="46.01999" lon="12.8749017"><ele>65.0</ele><time>2026-03-22T10:20:38.451Z</time></trkpt><trkpt lat="46.02012" lon="12.8749067"><ele>65.0</ele><time>2026-03-22T10:20:39.45Z</time></trkpt><trkpt lat="46.0202383" lon="12.8749167"><ele>65.2</ele><time>2026-03-22T10:20:40.45Z</time></trkpt><trkpt lat="46.0203417" lon="12.874915"><ele>65.4</ele><time>2026-03-22T10:20:41.451Z</time></trkpt><trkpt lat="46.020445" lon="12.8749183"><ele>65.6</ele><time>2026-03-22T10:20:42.451Z</time></trkpt><trkpt lat="46.02055" lon="12.8749167"><ele>65.8</ele><time>2026-03-22T10:20:43.45Z</time></trkpt><trkpt lat="46.0206517" lon="12.8749133"><ele>66.0</ele><time>2026-03-22T10:20:44.45Z</time></trkpt><trkpt lat="46.020755" lon="12.87491"><ele>66.25</ele><time>2026-03-22T10:20:45.45Z</time></trkpt><trkpt lat="46.02086" lon="12.8749183"><ele>66.5</ele><time>2026-03-22T10:20:46.449Z</time></trkpt><trkpt lat="46.02097" lon="12.87493"><ele>66.75</ele><time>2026-03-22T10:20:47.452Z</time></trkpt><trkpt lat="46.0210867" lon="12.87494"><ele>67.0</ele><time>2026-03-22T10:20:48.45Z</time></trkpt><trkpt lat="46.0212083" lon="12.8749483"><ele>67.0</ele><time>2026-03-22T10:20:49.45Z</time></trkpt><trkpt lat="46.021335" lon="12.8749567"><ele>67.0</ele><time>2026-03-22T10:20:50.452Z</time></trkpt><trkpt lat="46.0214667" lon="12.87497"><ele>67.0</ele><time>2026-03-22T10:20:51.452Z</time></trkpt><trkpt lat="46.021605" lon="12.8749917"><ele>67.0</ele><time>2026-03-22T10:20:52.451Z</time></trkpt><trkpt lat="46.0217533" lon="12.8750233"><ele>67.0</ele><time>2026-03-22T10:20:53.451Z</time></trkpt><trkpt lat="46.0219067" lon="12.8750617"><ele>67.0</ele><time>2026-03-22T10:20:54.45Z</time></trkpt><trkpt lat="46.0220633" lon="12.8751133"><ele>67.0</ele><time>2026-03-22T10:20:55.452Z</time></trkpt><trkpt lat="46.02222" lon="12.87518"><ele>66.66666666666666</ele><time>2026-03-22T10:20:56.451Z</time></trkpt><trkpt lat="46.02238" lon="12.8752583"><ele>66.33333333333333</ele><time>2026-03-22T10:20:57.451Z</time></trkpt><trkpt lat="46.0225417" lon="12.875345"><ele>66.0</ele><time>2026-03-22T10:20:58.45Z</time></trkpt><trkpt lat="46.0226983" lon="12.8754483"><ele>67.33333333333333</ele><time>2026-03-22T10:20:59.449Z</time></trkpt><trkpt lat="46.0228633" lon="12.8755617"><ele>68.66666666666666</ele><time>2026-03-22T10:21:00.449Z</time></trkpt><trkpt lat="46.0230467" lon="12.8756667"><ele>70.0</ele><time>2026-03-22T10:21:01.45Z</time></trkpt><trkpt lat="46.0232317" lon="12.87578"><ele>69.66666666666666</ele><time>2026-03-22T10:21:02.451Z</time></trkpt><trkpt lat="46.0234167" lon="12.875895"><ele>69.33333333333333</ele><time>2026-03-22T10:21:03.45Z</time></trkpt><trkpt lat="46.0236" lon="12.8760067"><ele>69.0</ele><time>2026-03-22T10:21:04.45Z</time></trkpt><trkpt lat="46.023775" lon="12.876115"><ele>69.0</ele><time>2026-03-22T10:21:05.451Z</time></trkpt><trkpt lat="46.0239383" lon="12.8762217"><ele>69.0</ele><time>2026-03-22T10:21:06.45Z</time></trkpt><trkpt lat="46.0240933" lon="12.8763217"><ele>69.0</ele><time>2026-03-22T10:21:07.45Z</time></trkpt><trkpt lat="46.0242433" lon="12.87643"><ele>69.33333333333333</ele><time>2026-03-22T10:21:08.45Z</time></trkpt><trkpt lat="46.0243983" lon="12.8765283"><ele>69.66666666666666</ele><time>2026-03-22T10:21:09.449Z</time></trkpt><trkpt lat="46.0245633" lon="12.87662"><ele>70.0</ele><time>2026-03-22T10:21:10.451Z</time></trkpt><trkpt lat="46.024725" lon="12.8767217"><ele>69.66666666666666</ele><time>2026-03-22T10:21:11.45Z</time></trkpt><trkpt lat="46.02489" lon="12.8768333"><ele>69.33333333333333</ele><time>2026-03-22T10:21:12.45Z</time></trkpt><trkpt lat="46.0250583" lon="12.8769483"><ele>69.0</ele><time>2026-03-22T10:21:13.45Z</time></trkpt><trkpt lat="46.0252417" lon="12.87706"><ele>69.0</ele><time>2026-03-22T10:21:14.451Z</time></trkpt><trkpt lat="46.0254433" lon="12.87715"><ele>69.0</ele><time>2026-03-22T10:21:15.451Z</time></trkpt><trkpt lat="46.0256483" lon="12.8772083"><ele>69.0</ele><time>2026-03-22T10:21:16.45Z</time></trkpt><trkpt lat="46.02585" lon="12.87726"><ele>69.33333333333333</ele><time>2026-03-22T10:21:17.45Z</time></trkpt><trkpt lat="46.0260517" lon="12.8773133"><ele>69.66666666666666</ele><time>2026-03-22T10:21:18.451Z</time></trkpt><trkpt lat="46.0262583" lon="12.87737"><ele>70.0</ele><time>2026-03-22T10:21:19.452Z</time></trkpt><trkpt lat="46.0264683" lon="12.877425"><ele>70.33333333333333</ele><time>2026-03-22T10:21:20.45Z</time></trkpt><trkpt lat="46.026675" lon="12.8774817"><ele>70.66666666666667</ele><time>2026-03-22T10:21:21.45Z</time></trkpt><trkpt lat="46.0268867" lon="12.8775283"><ele>71.0</ele><time>2026-03-22T10:21:22.45Z</time></trkpt><trkpt lat="46.0271033" lon="12.8775583"><ele>71.0</ele><time>2026-03-22T10:21:23.452Z</time></trkpt><trkpt lat="46.0273233" lon="12.87757"><ele>71.0</ele><time>2026-03-22T10:21:24.451Z</time></trkpt><trkpt lat="46.0275417" lon="12.87756"><ele>71.0</ele><time>2026-03-22T10:21:25.45Z</time></trkpt><trkpt lat="46.0277567" lon="12.8775417"><ele>70.66666666666667</ele><time>2026-03-22T10:21:26.45Z</time></trkpt><trkpt lat="46.0279667" lon="12.8775333"><ele>70.33333333333333</ele><time>2026-03-22T10:21:27.45Z</time></trkpt><trkpt lat="46.028175" lon="12.87752"><ele>70.0</ele><time>2026-03-22T10:21:28.451Z</time></trkpt><trkpt lat="46.0283867" lon="12.877505"><ele>70.0</ele><time>2026-03-22T10:21:29.452Z</time></trkpt><trkpt lat="46.0286" lon="12.8774933"><ele>70.0</ele><time>2026-03-22T10:21:30.45Z</time></trkpt><trkpt lat="46.0288117" lon="12.8774833"><ele>70.0</ele><time>2026-03-22T10:21:31.45Z</time></trkpt><trkpt lat="46.0290283" lon="12.8774667"><ele>70.33333333333333</ele><time>2026-03-22T10:21:32.45Z</time></trkpt><trkpt lat="46.0292433" lon="12.8774483"><ele>70.66666666666667</ele><time>2026-03-22T10:21:33.45Z</time></trkpt><trkpt lat="46.02946" lon="12.8774283"><ele>71.0</ele><time>2026-03-22T10:21:34.45Z</time></trkpt><trkpt lat="46.029675" lon="12.8774117"><ele>71.0</ele><time>2026-03-22T10:21:35.451Z</time></trkpt><trkpt lat="46.0298867" lon="12.8773983"><ele>71.0</ele><time>2026-03-22T10:21:36.45Z</time></trkpt><trkpt lat="46.0301" lon="12.877385"><ele>71.0</ele><time>2026-03-22T10:21:37.449Z</time></trkpt><trkpt lat="46.030315" lon="12.8773717"><ele>71.0</ele><time>2026-03-22T10:21:38.45Z</time></trkpt><trkpt lat="46.0305317" lon="12.8773583"><ele>71.0</ele><time>2026-03-22T10:21:39.451Z</time></trkpt><trkpt lat="46.0307467" lon="12.8773467"><ele>71.0</ele><time>2026-03-22T10:21:40.45Z</time></trkpt><trkpt lat="46.0309633" lon="12.8773267"><ele>71.0</ele><time>2026-03-22T10:21:41.45Z</time></trkpt><trkpt lat="46.0311833" lon="12.8773067"><ele>71.0</ele><time>2026-03-22T10:21:42.456Z</time></trkpt><trkpt lat="46.0314067" lon="12.8772917"><ele>71.0</ele><time>2026-03-22T10:21:43.45Z</time></trkpt><trkpt lat="46.0316367" lon="12.8772733"><ele>70.5</ele><time>2026-03-22T10:21:44.45Z</time></trkpt><trkpt lat="46.0318633" lon="12.877255"><ele>70.0</ele><time>2026-03-22T10:21:45.451Z</time></trkpt><trkpt lat="46.0320883" lon="12.8772317"><ele>70.0</ele><time>2026-03-22T10:21:46.45Z</time></trkpt><trkpt lat="46.0323117" lon="12.877205"><ele>70.0</ele><time>2026-03-22T10:21:47.449Z</time></trkpt><trkpt lat="46.0325367" lon="12.8771767"><ele>70.66666666666666</ele><time>2026-03-22T10:21:48.451Z</time></trkpt><trkpt lat="46.0327583" lon="12.8771367"><ele>71.33333333333333</ele><time>2026-03-22T10:21:49.45Z</time></trkpt><trkpt lat="46.0329767" lon="12.8771033"><ele>72.0</ele><time>2026-03-22T10:21:50.45Z</time></trkpt><trkpt lat="46.0331917" lon="12.87707"><ele>72.0</ele><time>2026-03-22T10:21:51.451Z</time></trkpt><trkpt lat="46.0334117" lon="12.87704"><ele>72.0</ele><time>2026-03-22T10:21:52.451Z</time></trkpt><trkpt lat="46.033635" lon="12.877005"><ele>72.0</ele><time>2026-03-22T10:21:53.45Z</time></trkpt><trkpt lat="46.0338583" lon="12.876975"><ele>72.0</ele><time>2026-03-22T10:21:54.45Z</time></trkpt><trkpt lat="46.0340833" lon="12.8769383"><ele>72.0</ele><time>2026-03-22T10:21:55.449Z</time></trkpt><trkpt lat="46.03431" lon="12.87691"><ele>73.0</ele><time>2026-03-22T10:21:56.45Z</time></trkpt><trkpt lat="46.03454" lon="12.8768817"><ele>74.0</ele><time>2026-03-22T10:21:57.45Z</time></trkpt><trkpt lat="46.034765" lon="12.8768417"><ele>73.0</ele><time>2026-03-22T10:21:58.451Z</time></trkpt><trkpt lat="46.0349933" lon="12.87681"><ele>72.0</ele><time>2026-03-22T10:21:59.45Z</time></trkpt><trkpt lat="46.03522" lon="12.8767767"><ele>72.5</ele><time>2026-03-22T10:22:00.451Z</time></trkpt><trkpt lat="46.0354483" lon="12.87674"><ele>73.0</ele><time>2026-03-22T10:22:01.449Z</time></trkpt><trkpt lat="46.03567" lon="12.876695"><ele>73.0</ele><time>2026-03-22T10:22:02.45Z</time></trkpt><trkpt lat="46.0358833" lon="12.87666"><ele>73.0</ele><time>2026-03-22T10:22:03.45Z</time></trkpt><trkpt lat="46.0360917" lon="12.876635"><ele>73.0</ele><time>2026-03-22T10:22:04.45Z</time></trkpt><trkpt lat="46.0363033" lon="12.8766017"><ele>73.0</ele><time>2026-03-22T10:22:05.45Z</time></trkpt><trkpt lat="46.03652" lon="12.87657"><ele>73.0</ele><time>2026-03-22T10:22:06.451Z</time></trkpt><trkpt lat="46.0367383" lon="12.8765433"><ele>73.0</ele><time>2026-03-22T10:22:07.451Z</time></trkpt><trkpt lat="46.0369583" lon="12.876515"><ele>73.0</ele><time>2026-03-22T10:22:08.45Z</time></trkpt><trkpt lat="46.0371817" lon="12.8764783"><ele>73.0</ele><time>2026-03-22T10:22:09.451Z</time></trkpt><trkpt lat="46.0374083" lon="12.8764367"><ele>73.0</ele><time>2026-03-22T10:22:10.451Z</time></trkpt><trkpt lat="46.037635" lon="12.8764"><ele>73.0</ele><time>2026-03-22T10:22:11.451Z</time></trkpt><trkpt lat="46.0378617" lon="12.8763667"><ele>73.0</ele><time>2026-03-22T10:22:12.45Z</time></trkpt><trkpt lat="46.03809" lon="12.8763267"><ele>73.0</ele><time>2026-03-22T10:22:13.451Z</time></trkpt><trkpt lat="46.0383167" lon="12.8762883"><ele>73.66666666666666</ele><time>2026-03-22T10:22:14.45Z</time></trkpt><trkpt lat="46.03854" lon="12.876255"><ele>74.33333333333333</ele><time>2026-03-22T10:22:15.45Z</time></trkpt><trkpt lat="46.0387617" lon="12.8762283"><ele>75.0</ele><time>2026-03-22T10:22:16.45Z</time></trkpt><trkpt lat="46.0389817" lon="12.8761983"><ele>75.0</ele><time>2026-03-22T10:22:17.45Z</time></trkpt><trkpt lat="46.0391983" lon="12.8761633"><ele>75.0</ele><time>2026-03-22T10:22:18.45Z</time></trkpt><trkpt lat="46.0394133" lon="12.8761317"><ele>75.0</ele><time>2026-03-22T10:22:19.45Z</time></trkpt><trkpt lat="46.0396217" lon="12.8761017"><ele>75.0</ele><time>2026-03-22T10:22:20.45Z</time></trkpt><trkpt lat="46.0398283" lon="12.8760683"><ele>75.0</ele><time>2026-03-22T10:22:21.45Z</time></trkpt><trkpt lat="46.0400317" lon="12.8760367"><ele>75.0</ele><time>2026-03-22T10:22:22.45Z</time></trkpt><trkpt lat="46.0402333" lon="12.8760083"><ele>75.33333333333333</ele><time>2026-03-22T10:22:23.449Z</time></trkpt><trkpt lat="46.040435" lon="12.8759767"><ele>75.66666666666666</ele><time>2026-03-22T10:22:24.449Z</time></trkpt><trkpt lat="46.0406417" lon="12.8759483"><ele>76.0</ele><time>2026-03-22T10:22:25.449Z</time></trkpt><trkpt lat="46.0408517" lon="12.8759167"><ele>76.0</ele><time>2026-03-22T10:22:26.451Z</time></trkpt><trkpt lat="46.04106" lon="12.8758833"><ele>76.0</ele><time>2026-03-22T10:22:27.451Z</time></trkpt><trkpt lat="46.0412683" lon="12.87585"><ele>76.0</ele><time>2026-03-22T10:22:28.45Z</time></trkpt><trkpt lat="46.0414717" lon="12.875815"><ele>76.33333333333333</ele><time>2026-03-22T10:22:29.45Z</time></trkpt><trkpt lat="46.04166" lon="12.8757833"><ele>76.66666666666667</ele><time>2026-03-22T10:22:30.451Z</time></trkpt><trkpt lat="46.04184" lon="12.8757583"><ele>77.0</ele><time>2026-03-22T10:22:31.45Z</time></trkpt><trkpt lat="46.04202" lon="12.87573"><ele>77.0</ele><time>2026-03-22T10:22:32.451Z</time></trkpt><trkpt lat="46.042205" lon="12.875705"><ele>77.0</ele><time>2026-03-22T10:22:33.451Z</time></trkpt><trkpt lat="46.0423933" lon="12.8756767"><ele>77.0</ele><time>2026-03-22T10:22:34.45Z</time></trkpt><trkpt lat="46.0425867" lon="12.8756517"><ele>77.66666666666667</ele><time>2026-03-22T10:22:35.451Z</time></trkpt><trkpt lat="46.042785" lon="12.8756217"><ele>78.33333333333333</ele><time>2026-03-22T10:22:36.45Z</time></trkpt><trkpt lat="46.0429833" lon="12.8755933"><ele>79.0</ele><time>2026-03-22T10:22:37.451Z</time></trkpt><trkpt lat="46.0431883" lon="12.87556"><ele>78.33333333333333</ele><time>2026-03-22T10:22:38.45Z</time></trkpt><trkpt lat="46.0433933" lon="12.87553"><ele>77.66666666666667</ele><time>2026-03-22T10:22:39.45Z</time></trkpt><trkpt lat="46.0435967" lon="12.8754983"><ele>77.0</ele><time>2026-03-22T10:22:40.45Z</time></trkpt><trkpt lat="46.0438033" lon="12.875465"><ele>77.0</ele><time>2026-03-22T10:22:41.45Z</time></trkpt><trkpt lat="46.0440067" lon="12.8754333"><ele>77.0</ele><time>2026-03-22T10:22:42.45Z</time></trkpt><trkpt lat="46.0442117" lon="12.8753983"><ele>77.0</ele><time>2026-03-22T10:22:43.45Z</time></trkpt><trkpt lat="46.0444133" lon="12.8753667"><ele>77.66666666666667</ele><time>2026-03-22T10:22:44.451Z</time></trkpt><trkpt lat="46.04461" lon="12.8753383"><ele>78.33333333333333</ele><time>2026-03-22T10:22:45.45Z</time></trkpt><trkpt lat="46.0448033" lon="12.8753083"><ele>79.0</ele><time>2026-03-22T10:22:46.45Z</time></trkpt><trkpt lat="46.045" lon="12.8752833"><ele>79.66666666666666</ele><time>2026-03-22T10:22:47.45Z</time></trkpt><trkpt lat="46.0451967" lon="12.8752517"><ele>80.33333333333333</ele><time>2026-03-22T10:22:48.45Z</time></trkpt><trkpt lat="46.04539" lon="12.8752217"><ele>81.0</ele><time>2026-03-22T10:22:49.452Z</time></trkpt><trkpt lat="46.0455817" lon="12.8751967"><ele>81.0</ele><time>2026-03-22T10:22:50.452Z</time></trkpt><trkpt lat="46.0457767" lon="12.8751583"><ele>81.0</ele><time>2026-03-22T10:22:51.451Z</time></trkpt><trkpt lat="46.04597" lon="12.87513"><ele>81.0</ele><time>2026-03-22T10:22:52.45Z</time></trkpt><trkpt lat="46.046165" lon="12.8751017"><ele>81.0</ele><time>2026-03-22T10:22:53.45Z</time></trkpt><trkpt lat="46.0463583" lon="12.8750783"><ele>81.0</ele><time>2026-03-22T10:22:54.452Z</time></trkpt><trkpt lat="46.0465533" lon="12.8750483"><ele>81.0</ele><time>2026-03-22T10:22:55.451Z</time></trkpt><trkpt lat="46.0467467" lon="12.8750217"><ele>81.33333333333333</ele><time>2026-03-22T10:22:56.451Z</time></trkpt><trkpt lat="46.0469383" lon="12.87499"><ele>81.66666666666666</ele><time>2026-03-22T10:22:57.45Z</time></trkpt><trkpt lat="46.04713" lon="12.8749583"><ele>82.0</ele><time>2026-03-22T10:22:58.449Z</time></trkpt><trkpt lat="46.04732" lon="12.87492"><ele>82.0</ele><time>2026-03-22T10:22:59.45Z</time></trkpt><trkpt lat="46.047505" lon="12.87489"><ele>82.0</ele><time>2026-03-22T10:23:00.449Z</time></trkpt><trkpt lat="46.04769" lon="12.8748633"><ele>82.0</ele><time>2026-03-22T10:23:01.45Z</time></trkpt><trkpt lat="46.047875" lon="12.874835"><ele>82.0</ele><time>2026-03-22T10:23:02.449Z</time></trkpt><trkpt lat="46.0480567" lon="12.8748083"><ele>82.0</ele><time>2026-03-22T10:23:03.45Z</time></trkpt><trkpt lat="46.04824" lon="12.8747817"><ele>82.0</ele><time>2026-03-22T10:23:04.449Z</time></trkpt><trkpt lat="46.0484267" lon="12.87475"><ele>81.66666666666666</ele><time>2026-03-22T10:23:05.451Z</time></trkpt><trkpt lat="46.0486133" lon="12.87472"><ele>81.33333333333333</ele><time>2026-03-22T10:23:06.45Z</time></trkpt><trkpt lat="46.0488" lon="12.8746883"><ele>81.0</ele><time>2026-03-22T10:23:07.45Z</time></trkpt><trkpt lat="46.048985" lon="12.874655"><ele>81.33333333333333</ele><time>2026-03-22T10:23:08.451Z</time></trkpt><trkpt lat="46.0491733" lon="12.8746267"><ele>81.66666666666666</ele><time>2026-03-22T10:23:09.45Z</time></trkpt><trkpt lat="46.0493633" lon="12.8746033"><ele>82.0</ele><time>2026-03-22T10:23:10.45Z</time></trkpt><trkpt lat="46.0495533" lon="12.8745767"><ele>82.0</ele><time>2026-03-22T10:23:11.451Z</time></trkpt><trkpt lat="46.0497433" lon="12.8745483"><ele>82.0</ele><time>2026-03-22T10:23:12.45Z</time></trkpt><trkpt lat="46.0499333" lon="12.87452"><ele>82.0</ele><time>2026-03-22T10:23:13.45Z</time></trkpt><trkpt lat="46.050125" lon="12.8744983"><ele>81.66666666666666</ele><time>2026-03-22T10:23:14.451Z</time></trkpt><trkpt lat="46.050315" lon="12.8744833"><ele>81.33333333333333</ele><time>2026-03-22T10:23:15.451Z</time></trkpt><trkpt lat="46.050495" lon="12.874475"><ele>81.0</ele><time>2026-03-22T10:23:16.452Z</time></trkpt><trkpt lat="46.05067" lon="12.874485"><ele>81.66666666666667</ele><time>2026-03-22T10:23:17.45Z</time></trkpt><trkpt lat="46.05084" lon="12.8745"><ele>82.33333333333334</ele><time>2026-03-22T10:23:18.452Z</time></trkpt><trkpt lat="46.0510017" lon="12.8745133"><ele>83.0</ele><time>2026-03-22T10:23:19.452Z</time></trkpt><trkpt lat="46.0511467" lon="12.8745433"><ele>83.0</ele><time>2026-03-22T10:23:20.452Z</time></trkpt><trkpt lat="46.051285" lon="12.8745783"><ele>83.0</ele><time>2026-03-22T10:23:21.451Z</time></trkpt><trkpt lat="46.0514183" lon="12.8746033"><ele>83.0</ele><time>2026-03-22T10:23:22.451Z</time></trkpt><trkpt lat="46.0515517" lon="12.874635"><ele>83.0</ele><time>2026-03-22T10:23:23.451Z</time></trkpt><trkpt lat="46.05168" lon="12.8746717"><ele>83.25</ele><time>2026-03-22T10:23:24.451Z</time></trkpt><trkpt lat="46.0518033" lon="12.8747117"><ele>83.5</ele><time>2026-03-22T10:23:25.451Z</time></trkpt><trkpt lat="46.051925" lon="12.8747567"><ele>83.75</ele><time>2026-03-22T10:23:26.449Z</time></trkpt><trkpt lat="46.0520517" lon="12.874805"><ele>84.0</ele><time>2026-03-22T10:23:27.451Z</time></trkpt><trkpt lat="46.05218" lon="12.8748633"><ele>84.0</ele><time>2026-03-22T10:23:28.449Z</time></trkpt><trkpt lat="46.0523133" lon="12.8749267"><ele>84.0</ele><time>2026-03-22T10:23:29.451Z</time></trkpt><trkpt lat="46.05245" lon="12.8750033"><ele>84.0</ele><time>2026-03-22T10:23:30.45Z</time></trkpt><trkpt lat="46.0525917" lon="12.8750883"><ele>84.0</ele><time>2026-03-22T10:23:31.452Z</time></trkpt><trkpt lat="46.0527383" lon="12.8751817"><ele>84.0</ele><time>2026-03-22T10:23:32.449Z</time></trkpt><trkpt lat="46.05289" lon="12.8752917"><ele>84.0</ele><time>2026-03-22T10:23:33.451Z</time></trkpt><trkpt lat="46.0530517" lon="12.8754083"><ele>84.0</ele><time>2026-03-22T10:23:34.45Z</time></trkpt><trkpt lat="46.0532167" lon="12.8755267"><ele>84.33333333333333</ele><time>2026-03-22T10:23:35.45Z</time></trkpt><trkpt lat="46.0533967" lon="12.8756483"><ele>84.66666666666666</ele><time>2026-03-22T10:23:36.45Z</time></trkpt><trkpt lat="46.053575" lon="12.8757733"><ele>85.0</ele><time>2026-03-22T10:23:37.45Z</time></trkpt><trkpt lat="46.0537367" lon="12.8759017"><ele>85.33333333333333</ele><time>2026-03-22T10:23:38.45Z</time></trkpt><trkpt lat="46.0538933" lon="12.8760117"><ele>85.66666666666667</ele><time>2026-03-22T10:23:39.452Z</time></trkpt><trkpt lat="46.05404" lon="12.8761117"><ele>86.0</ele><time>2026-03-22T10:23:40.452Z</time></trkpt><trkpt lat="46.054185" lon="12.8762217"><ele>86.0</ele><time>2026-03-22T10:23:41.45Z</time></trkpt><trkpt lat="46.0543367" lon="12.8763317"><ele>86.0</ele><time>2026-03-22T10:23:42.449Z</time></trkpt><trkpt lat="46.0544933" lon="12.87645"><ele>86.0</ele><time>2026-03-22T10:23:43.45Z</time></trkpt><trkpt lat="46.054655" lon="12.8765667"><ele>86.0</ele><time>2026-03-22T10:23:44.45Z</time></trkpt><trkpt lat="46.0548233" lon="12.8766883"><ele>86.0</ele><time>2026-03-22T10:23:45.452Z</time></trkpt><trkpt lat="46.0549933" lon="12.8768"><ele>86.0</ele><time>2026-03-22T10:23:46.45Z</time></trkpt><trkpt lat="46.0551617" lon="12.8769133"><ele>86.0</ele><time>2026-03-22T10:23:47.45Z</time></trkpt><trkpt lat="46.055325" lon="12.87704"><ele>86.0</ele><time>2026-03-22T10:23:48.45Z</time></trkpt><trkpt lat="46.0554917" lon="12.8771667"><ele>86.0</ele><time>2026-03-22T10:23:49.452Z</time></trkpt><trkpt lat="46.05565" lon="12.8772983"><ele>85.66666666666667</ele><time>2026-03-22T10:23:50.452Z</time></trkpt><trkpt lat="46.05581" lon="12.8774133"><ele>85.33333333333333</ele><time>2026-03-22T10:23:51.451Z</time></trkpt><trkpt lat="46.0559683" lon="12.8775183"><ele>85.0</ele><time>2026-03-22T10:23:52.45Z</time></trkpt><trkpt lat="46.0561217" lon="12.8776233"><ele>85.0</ele><time>2026-03-22T10:23:53.45Z</time></trkpt><trkpt lat="46.05627" lon="12.8777317"><ele>85.0</ele><time>2026-03-22T10:23:54.451Z</time></trkpt><trkpt lat="46.0564117" lon="12.8778317"><ele>85.0</ele><time>2026-03-22T10:23:55.451Z</time></trkpt><trkpt lat="46.056545" lon="12.877925"><ele>85.25</ele><time>2026-03-22T10:23:56.453Z</time></trkpt><trkpt lat="46.0566683" lon="12.8780167"><ele>85.5</ele><time>2026-03-22T10:23:57.452Z</time></trkpt><trkpt lat="46.0567817" lon="12.8781"><ele>85.75</ele><time>2026-03-22T10:23:58.45Z</time></trkpt><trkpt lat="46.05689" lon="12.87818"><ele>86.0</ele><time>2026-03-22T10:23:59.45Z</time></trkpt><trkpt lat="46.0569917" lon="12.8782567"><ele>86.0</ele><time>2026-03-22T10:24:00.451Z</time></trkpt><trkpt lat="46.05709" lon="12.8783283"><ele>86.0</ele><time>2026-03-22T10:24:01.45Z</time></trkpt><trkpt lat="46.057185" lon="12.878395"><ele>86.0</ele><time>2026-03-22T10:24:02.45Z</time></trkpt><trkpt lat="46.057275" lon="12.87846"><ele>86.0</ele><time>2026-03-22T10:24:03.451Z</time></trkpt><trkpt lat="46.057365" lon="12.8785233"><ele>86.0</ele><time>2026-03-22T10:24:04.449Z</time></trkpt><trkpt lat="46.05745" lon="12.8785867"><ele>85.8</ele><time>2026-03-22T10:24:05.451Z</time></trkpt><trkpt lat="46.057535" lon="12.87865"><ele>85.6</ele><time>2026-03-22T10:24:06.452Z</time></trkpt><trkpt lat="46.057615" lon="12.8787083"><ele>85.4</ele><time>2026-03-22T10:24:07.456Z</time></trkpt><trkpt lat="46.0576867" lon="12.878765"><ele>85.2</ele><time>2026-03-22T10:24:08.449Z</time></trkpt><trkpt lat="46.05775" lon="12.8788167"><ele>85.0</ele><time>2026-03-22T10:24:09.451Z</time></trkpt><trkpt lat="46.0578517" lon="12.8789367"><ele>85.0</ele><time>2026-03-22T10:24:11.45Z</time></trkpt><trkpt lat="46.0578983" lon="12.879015"><ele>85.0</ele><time>2026-03-22T10:24:12.449Z</time></trkpt><trkpt lat="46.057915" lon="12.8791567"><ele>85.0</ele><time>2026-03-22T10:24:14.449Z</time></trkpt><trkpt lat="46.0578967" lon="12.8792767"><ele>85.0</ele><time>2026-03-22T10:24:16.449Z</time></trkpt><trkpt lat="46.0578817" lon="12.87938"><ele>85.0</ele><time>2026-03-22T10:24:18.45Z</time></trkpt><trkpt lat="46.0578783" lon="12.8794717"><ele>85.0</ele><time>2026-03-22T10:24:20.449Z</time></trkpt><trkpt lat="46.0578983" lon="12.879585"><ele>85.0</ele><time>2026-03-22T10:24:23.45Z</time></trkpt><trkpt lat="46.0579567" lon="12.879655"><ele>85.0</ele><time>2026-03-22T10:24:27.449Z</time></trkpt><trkpt lat="46.0580367" lon="12.8796633"><ele>85.0</ele><time>2026-03-22T10:24:31.451Z</time></trkpt><trkpt lat="46.0581033" lon="12.8796667"><ele>85.0</ele><time>2026-03-22T10:24:34.451Z</time></trkpt><trkpt lat="46.058165" lon="12.8796483"><ele>85.0</ele><time>2026-03-22T10:24:37.451Z</time></trkpt><trkpt lat="46.0582367" lon="12.8796333"><ele>85.0</ele><time>2026-03-22T10:24:42.45Z</time></trkpt><trkpt lat="46.058315" lon="12.8796717"><ele>85.0</ele><time>2026-03-22T10:24:54.45Z</time></trkpt><trkpt lat="46.0583683" lon="12.87974"><ele>87.0</ele><time>2026-03-22T10:24:58.449Z</time></trkpt><trkpt lat="46.0584483" lon="12.8798033"><ele>87.0</ele><time>2026-03-22T10:25:36.449Z</time></trkpt><trkpt lat="46.05837" lon="12.87974"><ele>87.0</ele><time>2026-03-22T10:35:57.45Z</time></trkpt><trkpt lat="46.0583033" lon="12.8797617"><ele>87.0</ele><time>2026-03-22T10:36:18.45Z</time></trkpt><trkpt lat="46.0582844" lon="12.8798538"><ele>85.0</ele><time>2026-03-22T10:36:42.558Z</time></trkpt></trkseg><trkseg><trkpt lat="46.058455" lon="12.8797317"><ele>87.0</ele><time>2026-03-22T12:15:55.451Z</time></trkpt><trkpt lat="46.058375" lon="12.8796883"><ele>87.0</ele><time>2026-03-22T12:15:58.451Z</time></trkpt><trkpt lat="46.0583017" lon="12.8796683"><ele>87.0</ele><time>2026-03-22T12:16:00.45Z</time></trkpt><trkpt lat="46.0582217" lon="12.8796517"><ele>87.0</ele><time>2026-03-22T12:16:02.451Z</time></trkpt><trkpt lat="46.0581467" lon="12.8796567"><ele>87.0</ele><time>2026-03-22T12:16:04.451Z</time></trkpt><trkpt lat="46.05807" lon="12.8796683"><ele>87.0</ele><time>2026-03-22T12:16:07.451Z</time></trkpt><trkpt lat="46.0580033" lon="12.8796533"><ele>86.66666666666667</ele><time>2026-03-22T12:16:12.45Z</time></trkpt><trkpt lat="46.0579317" lon="12.87954"><ele>86.33333333333333</ele><time>2026-03-22T12:16:22.45Z</time></trkpt><trkpt lat="46.0579133" lon="12.879375"><ele>86.0</ele><time>2026-03-22T12:16:24.45Z</time></trkpt><trkpt lat="46.0579267" lon="12.8792767"><ele>85.66666666666666</ele><time>2026-03-22T12:16:25.451Z</time></trkpt><trkpt lat="46.0579533" lon="12.8791883"><ele>85.33333333333333</ele><time>2026-03-22T12:16:26.451Z</time></trkpt><trkpt lat="46.058" lon="12.87912"><ele>85.0</ele><time>2026-03-22T12:16:27.451Z</time></trkpt><trkpt lat="46.058055" lon="12.87907"><ele>85.0</ele><time>2026-03-22T12:16:28.451Z</time></trkpt><trkpt lat="46.05812" lon="12.87904"><ele>85.0</ele><time>2026-03-22T12:16:29.45Z</time></trkpt><trkpt lat="46.0582233" lon="12.8790867"><ele>85.0</ele><time>2026-03-22T12:16:30.45Z</time></trkpt><trkpt lat="46.058375" lon="12.8791933"><ele>85.0</ele><time>2026-03-22T12:16:31.45Z</time></trkpt><trkpt lat="46.0585417" lon="12.8793133"><ele>85.66666666666666</ele><time>2026-03-22T12:16:32.449Z</time></trkpt><trkpt lat="46.05872" lon="12.8794267"><ele>86.33333333333333</ele><time>2026-03-22T12:16:33.451Z</time></trkpt><trkpt lat="46.0588933" lon="12.8795333"><ele>87.0</ele><time>2026-03-22T12:16:34.451Z</time></trkpt><trkpt lat="46.059075" lon="12.879645"><ele>87.33333333333333</ele><time>2026-03-22T12:16:35.45Z</time></trkpt><trkpt lat="46.059275" lon="12.87975"><ele>87.66666666666666</ele><time>2026-03-22T12:16:36.449Z</time></trkpt><trkpt lat="46.05948" lon="12.8798583"><ele>88.0</ele><time>2026-03-22T12:16:37.449Z</time></trkpt><trkpt lat="46.0596833" lon="12.8799667"><ele>88.0</ele><time>2026-03-22T12:16:38.451Z</time></trkpt><trkpt lat="46.0598867" lon="12.8800733"><ele>88.0</ele><time>2026-03-22T12:16:39.451Z</time></trkpt><trkpt lat="46.060095" lon="12.8801833"><ele>88.0</ele><time>2026-03-22T12:16:40.449Z</time></trkpt><trkpt lat="46.0602983" lon="12.88029"><ele>87.66666666666666</ele><time>2026-03-22T12:16:41.451Z</time></trkpt><trkpt lat="46.060505" lon="12.8804"><ele>87.33333333333333</ele><time>2026-03-22T12:16:42.449Z</time></trkpt><trkpt lat="46.060705" lon="12.8805067"><ele>87.0</ele><time>2026-03-22T12:16:43.45Z</time></trkpt><trkpt lat="46.0609033" lon="12.88061"><ele>87.66666666666667</ele><time>2026-03-22T12:16:44.451Z</time></trkpt><trkpt lat="46.0610983" lon="12.8807133"><ele>88.33333333333334</ele><time>2026-03-22T12:16:45.451Z</time></trkpt><trkpt lat="46.061295" lon="12.8808183"><ele>89.0</ele><time>2026-03-22T12:16:46.45Z</time></trkpt><trkpt lat="46.061495" lon="12.8809183"><ele>89.33333333333334</ele><time>2026-03-22T12:16:47.451Z</time></trkpt><trkpt lat="46.0616967" lon="12.881025"><ele>89.66666666666667</ele><time>2026-03-22T12:16:48.45Z</time></trkpt><trkpt lat="46.0619067" lon="12.881135"><ele>90.0</ele><time>2026-03-22T12:16:49.45Z</time></trkpt><trkpt lat="46.0621183" lon="12.8812467"><ele>90.0</ele><time>2026-03-22T12:16:50.451Z</time></trkpt><trkpt lat="46.0623317" lon="12.8813567"><ele>90.0</ele><time>2026-03-22T12:16:51.451Z</time></trkpt><trkpt lat="46.0625417" lon="12.8814683"><ele>90.0</ele><time>2026-03-22T12:16:52.451Z</time></trkpt><trkpt lat="46.062755" lon="12.8815817"><ele>90.0</ele><time>2026-03-22T12:16:53.451Z</time></trkpt><trkpt lat="46.0629717" lon="12.8816933"><ele>90.0</ele><time>2026-03-22T12:16:54.45Z</time></trkpt><trkpt lat="46.06319" lon="12.8818067"><ele>90.0</ele><time>2026-03-22T12:16:55.451Z</time></trkpt><trkpt lat="46.0634067" lon="12.8819167"><ele>90.0</ele><time>2026-03-22T12:16:56.451Z</time></trkpt><trkpt lat="46.0636167" lon="12.8820267"><ele>90.0</ele><time>2026-03-22T12:16:57.45Z</time></trkpt><trkpt lat="46.0638117" lon="12.8821317"><ele>90.0</ele><time>2026-03-22T12:16:58.451Z</time></trkpt><trkpt lat="46.0639967" lon="12.8822367"><ele>90.0</ele><time>2026-03-22T12:16:59.451Z</time></trkpt><trkpt lat="46.0641733" lon="12.8823567"><ele>90.0</ele><time>2026-03-22T12:17:00.451Z</time></trkpt><trkpt lat="46.06434" lon="12.8825083"><ele>90.0</ele><time>2026-03-22T12:17:01.449Z</time></trkpt><trkpt lat="46.06449" lon="12.8826883"><ele>90.66666666666667</ele><time>2026-03-22T12:17:02.451Z</time></trkpt><trkpt lat="46.0646267" lon="12.8828933"><ele>91.33333333333334</ele><time>2026-03-22T12:17:03.451Z</time></trkpt><trkpt lat="46.06476" lon="12.8831183"><ele>92.0</ele><time>2026-03-22T12:17:04.451Z</time></trkpt><trkpt lat="46.0648867" lon="12.8833517"><ele>92.66666666666667</ele><time>2026-03-22T12:17:05.45Z</time></trkpt><trkpt lat="46.06501" lon="12.8835967"><ele>93.33333333333333</ele><time>2026-03-22T12:17:06.45Z</time></trkpt><trkpt lat="46.0651317" lon="12.883855"><ele>94.0</ele><time>2026-03-22T12:17:07.451Z</time></trkpt><trkpt lat="46.0652567" lon="12.8841217"><ele>94.0</ele><time>2026-03-22T12:17:08.45Z</time></trkpt><trkpt lat="46.06538" lon="12.8843983"><ele>94.0</ele><time>2026-03-22T12:17:09.451Z</time></trkpt><trkpt lat="46.065505" lon="12.884675"><ele>94.0</ele><time>2026-03-22T12:17:10.451Z</time></trkpt><trkpt lat="46.0656283" lon="12.884945"><ele>94.0</ele><time>2026-03-22T12:17:11.451Z</time></trkpt><trkpt lat="46.0657483" lon="12.8852083"><ele>94.0</ele><time>2026-03-22T12:17:12.451Z</time></trkpt><trkpt lat="46.0658633" lon="12.8854683"><ele>93.33333333333333</ele><time>2026-03-22T12:17:13.451Z</time></trkpt><trkpt lat="46.0659767" lon="12.88572"><ele>92.66666666666667</ele><time>2026-03-22T12:17:14.451Z</time></trkpt><trkpt lat="46.066085" lon="12.88596"><ele>92.0</ele><time>2026-03-22T12:17:15.45Z</time></trkpt><trkpt lat="46.066185" lon="12.8861717"><ele>92.0</ele><time>2026-03-22T12:17:16.449Z</time></trkpt><trkpt lat="46.06628" lon="12.8863783"><ele>92.0</ele><time>2026-03-22T12:17:17.45Z</time></trkpt><trkpt lat="46.0663783" lon="12.8865833"><ele>92.0</ele><time>2026-03-22T12:17:18.45Z</time></trkpt><trkpt lat="46.0664833" lon="12.88679"><ele>92.0</ele><time>2026-03-22T12:17:19.45Z</time></trkpt><trkpt lat="46.066595" lon="12.886995"><ele>92.0</ele><time>2026-03-22T12:17:20.451Z</time></trkpt><trkpt lat="46.06672" lon="12.8872033"><ele>92.0</ele><time>2026-03-22T12:17:21.451Z</time></trkpt><trkpt lat="46.0668583" lon="12.88741"><ele>91.66666666666667</ele><time>2026-03-22T12:17:22.451Z</time></trkpt><trkpt lat="46.06701" lon="12.8876183"><ele>91.33333333333333</ele><time>2026-03-22T12:17:23.451Z</time></trkpt><trkpt lat="46.0671683" lon="12.8878317"><ele>91.0</ele><time>2026-03-22T12:17:24.451Z</time></trkpt><trkpt lat="46.0673317" lon="12.8880517"><ele>91.5</ele><time>2026-03-22T12:17:25.452Z</time></trkpt><trkpt lat="46.067505" lon="12.8882733"><ele>92.0</ele><time>2026-03-22T12:17:26.452Z</time></trkpt><trkpt lat="46.0676817" lon="12.8885"><ele>92.0</ele><time>2026-03-22T12:17:27.452Z</time></trkpt><trkpt lat="46.0678633" lon="12.88873"><ele>92.0</ele><time>2026-03-22T12:17:28.451Z</time></trkpt><trkpt lat="46.0680483" lon="12.8889633"><ele>92.0</ele><time>2026-03-22T12:17:29.451Z</time></trkpt><trkpt lat="46.0682367" lon="12.8892017"><ele>92.0</ele><time>2026-03-22T12:17:30.451Z</time></trkpt><trkpt lat="46.0684267" lon="12.8894417"><ele>92.5</ele><time>2026-03-22T12:17:31.452Z</time></trkpt><trkpt lat="46.0686183" lon="12.88968"><ele>93.0</ele><time>2026-03-22T12:17:32.451Z</time></trkpt><trkpt lat="46.0688133" lon="12.8899267"><ele>93.0</ele><time>2026-03-22T12:17:33.45Z</time></trkpt><trkpt lat="46.0690183" lon="12.8901767"><ele>93.0</ele><time>2026-03-22T12:17:34.45Z</time></trkpt><trkpt lat="46.069225" lon="12.8904283"><ele>93.0</ele><time>2026-03-22T12:17:35.452Z</time></trkpt><trkpt lat="46.0694333" lon="12.890685"><ele>93.0</ele><time>2026-03-22T12:17:36.45Z</time></trkpt><trkpt lat="46.069645" lon="12.8909383"><ele>93.0</ele><time>2026-03-22T12:17:37.45Z</time></trkpt><trkpt lat="46.0698517" lon="12.8911983"><ele>93.0</ele><time>2026-03-22T12:17:38.45Z</time></trkpt><trkpt lat="46.0700583" lon="12.8914483"><ele>92.5</ele><time>2026-03-22T12:17:39.45Z</time></trkpt><trkpt lat="46.0702533" lon="12.8917033"><ele>92.0</ele><time>2026-03-22T12:17:40.45Z</time></trkpt><trkpt lat="46.0704517" lon="12.891955"><ele>91.5</ele><time>2026-03-22T12:17:41.449Z</time></trkpt><trkpt lat="46.0706533" lon="12.8922033"><ele>91.0</ele><time>2026-03-22T12:17:42.45Z</time></trkpt><trkpt lat="46.0708583" lon="12.8924467"><ele>91.0</ele><time>2026-03-22T12:17:43.451Z</time></trkpt><trkpt lat="46.0710667" lon="12.8926783"><ele>91.0</ele><time>2026-03-22T12:17:44.45Z</time></trkpt><trkpt lat="46.071275" lon="12.89289"><ele>91.0</ele><time>2026-03-22T12:17:45.451Z</time></trkpt><trkpt lat="46.0714767" lon="12.89307"><ele>91.0</ele><time>2026-03-22T12:17:46.45Z</time></trkpt><trkpt lat="46.0716567" lon="12.8932433"><ele>90.66666666666666</ele><time>2026-03-22T12:17:47.449Z</time></trkpt><trkpt lat="46.0718217" lon="12.8933933"><ele>90.33333333333333</ele><time>2026-03-22T12:17:48.45Z</time></trkpt><trkpt lat="46.0719733" lon="12.8935333"><ele>90.0</ele><time>2026-03-22T12:17:49.451Z</time></trkpt><trkpt lat="46.0721167" lon="12.893655"><ele>90.0</ele><time>2026-03-22T12:17:50.451Z</time></trkpt><trkpt lat="46.07226" lon="12.8937533"><ele>90.0</ele><time>2026-03-22T12:17:51.451Z</time></trkpt><trkpt lat="46.0724067" lon="12.8938333"><ele>90.0</ele><time>2026-03-22T12:17:52.451Z</time></trkpt><trkpt lat="46.072545" lon="12.8939067"><ele>90.25</ele><time>2026-03-22T12:17:53.45Z</time></trkpt><trkpt lat="46.0726733" lon="12.89399"><ele>90.5</ele><time>2026-03-22T12:17:54.451Z</time></trkpt><trkpt lat="46.07278" lon="12.8941217"><ele>90.75</ele><time>2026-03-22T12:17:55.449Z</time></trkpt><trkpt lat="46.0728717" lon="12.8942917"><ele>91.0</ele><time>2026-03-22T12:17:56.45Z</time></trkpt><trkpt lat="46.0729833" lon="12.8944517"><ele>91.0</ele><time>2026-03-22T12:17:57.449Z</time></trkpt><trkpt lat="46.07312" lon="12.8946083"><ele>91.0</ele><time>2026-03-22T12:17:58.45Z</time></trkpt><trkpt lat="46.0732783" lon="12.89476"><ele>91.0</ele><time>2026-03-22T12:17:59.45Z</time></trkpt><trkpt lat="46.07346" lon="12.89492"><ele>91.0</ele><time>2026-03-22T12:18:00.45Z</time></trkpt><trkpt lat="46.073655" lon="12.895075"><ele>91.0</ele><time>2026-03-22T12:18:01.449Z</time></trkpt><trkpt lat="46.0738517" lon="12.8952467"><ele>91.0</ele><time>2026-03-22T12:18:02.45Z</time></trkpt><trkpt lat="46.0740367" lon="12.89543"><ele>91.0</ele><time>2026-03-22T12:18:03.45Z</time></trkpt><trkpt lat="46.074225" lon="12.8956117"><ele>91.0</ele><time>2026-03-22T12:18:04.45Z</time></trkpt><trkpt lat="46.0744167" lon="12.8957867"><ele>91.0</ele><time>2026-03-22T12:18:05.448Z</time></trkpt><trkpt lat="46.0746033" lon="12.895965"><ele>91.0</ele><time>2026-03-22T12:18:06.45Z</time></trkpt><trkpt lat="46.0747883" lon="12.8961433"><ele>91.0</ele><time>2026-03-22T12:18:07.449Z</time></trkpt><trkpt lat="46.0749717" lon="12.8963283"><ele>91.0</ele><time>2026-03-22T12:18:08.448Z</time></trkpt><trkpt lat="46.0751567" lon="12.896505"><ele>91.66666666666666</ele><time>2026-03-22T12:18:09.449Z</time></trkpt><trkpt lat="46.0753433" lon="12.896675"><ele>92.33333333333333</ele><time>2026-03-22T12:18:10.45Z</time></trkpt><trkpt lat="46.0755333" lon="12.8968483"><ele>93.0</ele><time>2026-03-22T12:18:11.449Z</time></trkpt><trkpt lat="46.075715" lon="12.8970183"><ele>93.66666666666667</ele><time>2026-03-22T12:18:12.448Z</time></trkpt><trkpt lat="46.0758867" lon="12.8971767"><ele>94.33333333333334</ele><time>2026-03-22T12:18:13.45Z</time></trkpt><trkpt lat="46.0760617" lon="12.8973433"><ele>95.0</ele><time>2026-03-22T12:18:14.449Z</time></trkpt><trkpt lat="46.0762317" lon="12.8975083"><ele>95.0</ele><time>2026-03-22T12:18:15.45Z</time></trkpt><trkpt lat="46.0764017" lon="12.89767"><ele>95.0</ele><time>2026-03-22T12:18:16.448Z</time></trkpt><trkpt lat="46.076565" lon="12.89783"><ele>95.0</ele><time>2026-03-22T12:18:17.449Z</time></trkpt><trkpt lat="46.0767317" lon="12.8979867"><ele>95.0</ele><time>2026-03-22T12:18:18.448Z</time></trkpt><trkpt lat="46.0769083" lon="12.8981483"><ele>95.0</ele><time>2026-03-22T12:18:19.449Z</time></trkpt><trkpt lat="46.0770883" lon="12.898315"><ele>95.0</ele><time>2026-03-22T12:18:20.448Z</time></trkpt><trkpt lat="46.0772683" lon="12.8984883"><ele>94.5</ele><time>2026-03-22T12:18:21.449Z</time></trkpt><trkpt lat="46.0774567" lon="12.898665"><ele>94.0</ele><time>2026-03-22T12:18:22.45Z</time></trkpt><trkpt lat="46.0776433" lon="12.8988517"><ele>94.0</ele><time>2026-03-22T12:18:23.45Z</time></trkpt><trkpt lat="46.0778383" lon="12.89904"><ele>94.0</ele><time>2026-03-22T12:18:24.449Z</time></trkpt><trkpt lat="46.0780417" lon="12.8992167"><ele>92.5</ele><time>2026-03-22T12:18:25.45Z</time></trkpt><trkpt lat="46.0782583" lon="12.8993917"><ele>91.0</ele><time>2026-03-22T12:18:26.451Z</time></trkpt><trkpt lat="46.07848" lon="12.8995567"><ele>91.0</ele><time>2026-03-22T12:18:27.451Z</time></trkpt><trkpt lat="46.0786933" lon="12.8997267"><ele>91.0</ele><time>2026-03-22T12:18:28.45Z</time></trkpt><trkpt lat="46.078915" lon="12.8999"><ele>91.5</ele><time>2026-03-22T12:18:29.45Z</time></trkpt><trkpt lat="46.0791383" lon="12.9000833"><ele>92.0</ele><time>2026-03-22T12:18:30.449Z</time></trkpt><trkpt lat="46.0793683" lon="12.90027"><ele>92.0</ele><time>2026-03-22T12:18:31.45Z</time></trkpt><trkpt lat="46.0796017" lon="12.9004517"><ele>92.0</ele><time>2026-03-22T12:18:32.45Z</time></trkpt><trkpt lat="46.0798383" lon="12.9006367"><ele>91.5</ele><time>2026-03-22T12:18:33.45Z</time></trkpt><trkpt lat="46.080075" lon="12.9008283"><ele>91.0</ele><time>2026-03-22T12:18:34.45Z</time></trkpt><trkpt lat="46.080315" lon="12.9010167"><ele>91.0</ele><time>2026-03-22T12:18:35.449Z</time></trkpt><trkpt lat="46.08056" lon="12.90121"><ele>91.0</ele><time>2026-03-22T12:18:36.451Z</time></trkpt><trkpt lat="46.0808033" lon="12.9014133"><ele>92.0</ele><time>2026-03-22T12:18:37.45Z</time></trkpt><trkpt lat="46.0810533" lon="12.9016117"><ele>93.0</ele><time>2026-03-22T12:18:38.449Z</time></trkpt><trkpt lat="46.081305" lon="12.9018017"><ele>93.0</ele><time>2026-03-22T12:18:39.45Z</time></trkpt><trkpt lat="46.08156" lon="12.90199"><ele>93.0</ele><time>2026-03-22T12:18:40.448Z</time></trkpt><trkpt lat="46.0818017" lon="12.9021883"><ele>94.0</ele><time>2026-03-22T12:18:41.45Z</time></trkpt><trkpt lat="46.0820467" lon="12.902385"><ele>95.0</ele><time>2026-03-22T12:18:42.45Z</time></trkpt><trkpt lat="46.0822883" lon="12.902575"><ele>94.5</ele><time>2026-03-22T12:18:43.45Z</time></trkpt><trkpt lat="46.082525" lon="12.9027633"><ele>94.0</ele><time>2026-03-22T12:18:44.45Z</time></trkpt><trkpt lat="46.0827667" lon="12.9029533"><ele>94.0</ele><time>2026-03-22T12:18:45.45Z</time></trkpt><trkpt lat="46.0830033" lon="12.9031433"><ele>94.0</ele><time>2026-03-22T12:18:46.45Z</time></trkpt><trkpt lat="46.0832367" lon="12.9033267"><ele>94.0</ele><time>2026-03-22T12:18:47.449Z</time></trkpt><trkpt lat="46.0834717" lon="12.9035083"><ele>94.0</ele><time>2026-03-22T12:18:48.45Z</time></trkpt><trkpt lat="46.083705" lon="12.9036917"><ele>94.0</ele><time>2026-03-22T12:18:49.449Z</time></trkpt><trkpt lat="46.0839317" lon="12.9038783"><ele>94.0</ele><time>2026-03-22T12:18:50.449Z</time></trkpt><trkpt lat="46.0841633" lon="12.9040533"><ele>94.5</ele><time>2026-03-22T12:18:51.45Z</time></trkpt><trkpt lat="46.0843967" lon="12.904235"><ele>95.0</ele><time>2026-03-22T12:18:52.449Z</time></trkpt><trkpt lat="46.0846317" lon="12.9044183"><ele>95.0</ele><time>2026-03-22T12:18:53.449Z</time></trkpt><trkpt lat="46.0848717" lon="12.90461"><ele>95.0</ele><time>2026-03-22T12:18:54.45Z</time></trkpt><trkpt lat="46.0851133" lon="12.9047967"><ele>96.5</ele><time>2026-03-22T12:18:55.449Z</time></trkpt><trkpt lat="46.0853467" lon="12.9049883"><ele>98.0</ele><time>2026-03-22T12:18:56.448Z</time></trkpt><trkpt lat="46.0855833" lon="12.905175"><ele>95.5</ele><time>2026-03-22T12:18:57.45Z</time></trkpt><trkpt lat="46.0858183" lon="12.9053633"><ele>93.0</ele><time>2026-03-22T12:18:58.449Z</time></trkpt><trkpt lat="46.08606" lon="12.905545"><ele>93.0</ele><time>2026-03-22T12:18:59.45Z</time></trkpt><trkpt lat="46.0862933" lon="12.90573"><ele>93.0</ele><time>2026-03-22T12:19:00.45Z</time></trkpt><trkpt lat="46.0865217" lon="12.9059117"><ele>93.0</ele><time>2026-03-22T12:19:01.449Z</time></trkpt><trkpt lat="46.0867517" lon="12.90609"><ele>93.0</ele><time>2026-03-22T12:19:02.448Z</time></trkpt><trkpt lat="46.08698" lon="12.9062717"><ele>93.0</ele><time>2026-03-22T12:19:03.449Z</time></trkpt><trkpt lat="46.0872033" lon="12.9064533"><ele>93.0</ele><time>2026-03-22T12:19:04.448Z</time></trkpt><trkpt lat="46.087425" lon="12.906635"><ele>92.5</ele><time>2026-03-22T12:19:05.45Z</time></trkpt><trkpt lat="46.0876517" lon="12.9068133"><ele>92.0</ele><time>2026-03-22T12:19:06.45Z</time></trkpt><trkpt lat="46.0878783" lon="12.9069917"><ele>92.0</ele><time>2026-03-22T12:19:07.455Z</time></trkpt><trkpt lat="46.0880983" lon="12.9071717"><ele>92.0</ele><time>2026-03-22T12:19:08.449Z</time></trkpt><trkpt lat="46.0883167" lon="12.9073417"><ele>93.0</ele><time>2026-03-22T12:19:09.45Z</time></trkpt><trkpt lat="46.0885233" lon="12.9075083"><ele>94.0</ele><time>2026-03-22T12:19:10.449Z</time></trkpt><trkpt lat="46.0887183" lon="12.9076633"><ele>94.0</ele><time>2026-03-22T12:19:11.449Z</time></trkpt><trkpt lat="46.0889033" lon="12.9078083"><ele>94.0</ele><time>2026-03-22T12:19:12.448Z</time></trkpt><trkpt lat="46.08908" lon="12.9079533"><ele>94.0</ele><time>2026-03-22T12:19:13.449Z</time></trkpt><trkpt lat="46.0892417" lon="12.908095"><ele>94.33333333333333</ele><time>2026-03-22T12:19:14.45Z</time></trkpt><trkpt lat="46.089395" lon="12.90824"><ele>94.66666666666667</ele><time>2026-03-22T12:19:15.45Z</time></trkpt><trkpt lat="46.0895333" lon="12.9083983"><ele>95.0</ele><time>2026-03-22T12:19:16.449Z</time></trkpt><trkpt lat="46.0896483" lon="12.90857"><ele>95.0</ele><time>2026-03-22T12:19:17.45Z</time></trkpt><trkpt lat="46.0897467" lon="12.9087433"><ele>95.0</ele><time>2026-03-22T12:19:18.45Z</time></trkpt><trkpt lat="46.089835" lon="12.9089267"><ele>95.0</ele><time>2026-03-22T12:19:19.45Z</time></trkpt><trkpt lat="46.0899133" lon="12.9091183"><ele>95.0</ele><time>2026-03-22T12:19:20.449Z</time></trkpt><trkpt lat="46.0899817" lon="12.9093167"><ele>95.0</ele><time>2026-03-22T12:19:21.45Z</time></trkpt><trkpt lat="46.09004" lon="12.909515"><ele>95.0</ele><time>2026-03-22T12:19:22.449Z</time></trkpt><trkpt lat="46.0900867" lon="12.9097"><ele>95.0</ele><time>2026-03-22T12:19:23.448Z</time></trkpt><trkpt lat="46.090125" lon="12.9098783"><ele>95.0</ele><time>2026-03-22T12:19:24.448Z</time></trkpt><trkpt lat="46.09015" lon="12.9100433"><ele>95.0</ele><time>2026-03-22T12:19:25.451Z</time></trkpt><trkpt lat="46.0901683" lon="12.910195"><ele>95.0</ele><time>2026-03-22T12:19:26.45Z</time></trkpt><trkpt lat="46.0901783" lon="12.910315"><ele>95.0</ele><time>2026-03-22T12:19:27.448Z</time></trkpt><trkpt lat="46.0901867" lon="12.9104167"><ele>95.0</ele><time>2026-03-22T12:19:28.45Z</time></trkpt><trkpt lat="46.0901933" lon="12.9105083"><ele>95.0</ele><time>2026-03-22T12:19:29.448Z</time></trkpt><trkpt lat="46.0902067" lon="12.91061"><ele>94.5</ele><time>2026-03-22T12:19:30.45Z</time></trkpt><trkpt lat="46.0902117" lon="12.91073"><ele>94.0</ele><time>2026-03-22T12:19:31.45Z</time></trkpt><trkpt lat="46.0901833" lon="12.9108783"><ele>93.5</ele><time>2026-03-22T12:19:32.449Z</time></trkpt><trkpt lat="46.0901333" lon="12.9110517"><ele>93.0</ele><time>2026-03-22T12:19:33.451Z</time></trkpt><trkpt lat="46.090075" lon="12.9112517"><ele>93.0</ele><time>2026-03-22T12:19:34.45Z</time></trkpt><trkpt lat="46.09001" lon="12.9114833"><ele>93.0</ele><time>2026-03-22T12:19:35.45Z</time></trkpt><trkpt lat="46.08994" lon="12.911755"><ele>93.0</ele><time>2026-03-22T12:19:36.449Z</time></trkpt><trkpt lat="46.08987" lon="12.9120417"><ele>93.33333333333333</ele><time>2026-03-22T12:19:37.45Z</time></trkpt><trkpt lat="46.089805" lon="12.91234"><ele>93.66666666666666</ele><time>2026-03-22T12:19:38.451Z</time></trkpt><trkpt lat="46.08973" lon="12.9126533"><ele>94.0</ele><time>2026-03-22T12:19:39.45Z</time></trkpt><trkpt lat="46.0896417" lon="12.91297"><ele>94.5</ele><time>2026-03-22T12:19:40.448Z</time></trkpt><trkpt lat="46.0895517" lon="12.9132783"><ele>95.0</ele><time>2026-03-22T12:19:41.449Z</time></trkpt><trkpt lat="46.0894617" lon="12.9135833"><ele>95.0</ele><time>2026-03-22T12:19:42.449Z</time></trkpt><trkpt lat="46.0893783" lon="12.9138817"><ele>95.0</ele><time>2026-03-22T12:19:43.45Z</time></trkpt><trkpt lat="46.0892983" lon="12.9141767"><ele>95.0</ele><time>2026-03-22T12:19:44.448Z</time></trkpt><trkpt lat="46.0892133" lon="12.9144733"><ele>95.0</ele><time>2026-03-22T12:19:45.449Z</time></trkpt><trkpt lat="46.08913" lon="12.9147667"><ele>95.0</ele><time>2026-03-22T12:19:46.449Z</time></trkpt><trkpt lat="46.089045" lon="12.9150583"><ele>95.0</ele><time>2026-03-22T12:19:47.448Z</time></trkpt><trkpt lat="46.0889633" lon="12.915345"><ele>94.33333333333334</ele><time>2026-03-22T12:19:48.449Z</time></trkpt><trkpt lat="46.0888833" lon="12.91562"><ele>93.66666666666667</ele><time>2026-03-22T12:19:49.449Z</time></trkpt><trkpt lat="46.0888067" lon="12.915875"><ele>93.0</ele><time>2026-03-22T12:19:50.449Z</time></trkpt><trkpt lat="46.0887383" lon="12.91612"><ele>93.0</ele><time>2026-03-22T12:19:51.45Z</time></trkpt><trkpt lat="46.0886683" lon="12.9163617"><ele>93.0</ele><time>2026-03-22T12:19:52.448Z</time></trkpt><trkpt lat="46.0885967" lon="12.916605"><ele>93.0</ele><time>2026-03-22T12:19:53.448Z</time></trkpt><trkpt lat="46.0885283" lon="12.9168483"><ele>93.66666666666667</ele><time>2026-03-22T12:19:54.449Z</time></trkpt><trkpt lat="46.0884617" lon="12.917075"><ele>94.33333333333334</ele><time>2026-03-22T12:19:55.45Z</time></trkpt><trkpt lat="46.0883967" lon="12.9172917"><ele>95.0</ele><time>2026-03-22T12:19:56.449Z</time></trkpt><trkpt lat="46.088335" lon="12.91751"><ele>95.0</ele><time>2026-03-22T12:19:57.449Z</time></trkpt><trkpt lat="46.0882717" lon="12.9177317"><ele>95.0</ele><time>2026-03-22T12:19:58.45Z</time></trkpt><trkpt lat="46.088205" lon="12.9179533"><ele>95.0</ele><time>2026-03-22T12:19:59.449Z</time></trkpt><trkpt lat="46.0881383" lon="12.918175"><ele>95.0</ele><time>2026-03-22T12:20:00.45Z</time></trkpt><trkpt lat="46.0880767" lon="12.918395"><ele>95.0</ele><time>2026-03-22T12:20:01.449Z</time></trkpt><trkpt lat="46.088015" lon="12.9186117"><ele>95.0</ele><time>2026-03-22T12:20:02.449Z</time></trkpt><trkpt lat="46.0879483" lon="12.91883"><ele>94.66666666666667</ele><time>2026-03-22T12:20:03.449Z</time></trkpt><trkpt lat="46.0878833" lon="12.9190683"><ele>94.33333333333333</ele><time>2026-03-22T12:20:04.45Z</time></trkpt><trkpt lat="46.087815" lon="12.91932"><ele>94.0</ele><time>2026-03-22T12:20:05.45Z</time></trkpt><trkpt lat="46.0877433" lon="12.9195783"><ele>93.33333333333333</ele><time>2026-03-22T12:20:06.45Z</time></trkpt><trkpt lat="46.08767" lon="12.9198417"><ele>92.66666666666667</ele><time>2026-03-22T12:20:07.45Z</time></trkpt><trkpt lat="46.087595" lon="12.9201033"><ele>92.0</ele><time>2026-03-22T12:20:08.448Z</time></trkpt><trkpt lat="46.0875267" lon="12.9203483"><ele>92.0</ele><time>2026-03-22T12:20:09.449Z</time></trkpt><trkpt lat="46.0874633" lon="12.9205833"><ele>92.0</ele><time>2026-03-22T12:20:10.449Z</time></trkpt><trkpt lat="46.0873983" lon="12.920805"><ele>92.0</ele><time>2026-03-22T12:20:11.449Z</time></trkpt><trkpt lat="46.0873383" lon="12.921025"><ele>92.33333333333334</ele><time>2026-03-22T12:20:12.451Z</time></trkpt><trkpt lat="46.0872783" lon="12.9212433"><ele>92.66666666666667</ele><time>2026-03-22T12:20:13.45Z</time></trkpt><trkpt lat="46.08722" lon="12.92146"><ele>93.0</ele><time>2026-03-22T12:20:14.45Z</time></trkpt><trkpt lat="46.0871567" lon="12.9216817"><ele>93.33333333333333</ele><time>2026-03-22T12:20:15.45Z</time></trkpt><trkpt lat="46.0870933" lon="12.9219017"><ele>93.66666666666666</ele><time>2026-03-22T12:20:16.451Z</time></trkpt><trkpt lat="46.0870317" lon="12.9221133"><ele>94.0</ele><time>2026-03-22T12:20:17.45Z</time></trkpt><trkpt lat="46.0869683" lon="12.9223317"><ele>94.0</ele><time>2026-03-22T12:20:18.449Z</time></trkpt><trkpt lat="46.0869067" lon="12.9225483"><ele>94.0</ele><time>2026-03-22T12:20:19.449Z</time></trkpt><trkpt lat="46.0868433" lon="12.922765"><ele>94.0</ele><time>2026-03-22T12:20:20.449Z</time></trkpt><trkpt lat="46.086785" lon="12.9229767"><ele>93.66666666666666</ele><time>2026-03-22T12:20:21.449Z</time></trkpt><trkpt lat="46.086725" lon="12.923185"><ele>93.33333333333333</ele><time>2026-03-22T12:20:22.449Z</time></trkpt><trkpt lat="46.086665" lon="12.9233883"><ele>93.0</ele><time>2026-03-22T12:20:23.45Z</time></trkpt><trkpt lat="46.0866067" lon="12.9235917"><ele>93.0</ele><time>2026-03-22T12:20:24.449Z</time></trkpt><trkpt lat="46.086555" lon="12.9237967"><ele>93.0</ele><time>2026-03-22T12:20:25.449Z</time></trkpt><trkpt lat="46.0864917" lon="12.9239883"><ele>93.0</ele><time>2026-03-22T12:20:26.45Z</time></trkpt><trkpt lat="46.08644" lon="12.92419"><ele>93.0</ele><time>2026-03-22T12:20:27.451Z</time></trkpt><trkpt lat="46.08638" lon="12.9243917"><ele>93.0</ele><time>2026-03-22T12:20:28.449Z</time></trkpt><trkpt lat="46.08632" lon="12.9246033"><ele>93.0</ele><time>2026-03-22T12:20:29.449Z</time></trkpt><trkpt lat="46.08626" lon="12.9248317"><ele>93.0</ele><time>2026-03-22T12:20:30.449Z</time></trkpt><trkpt lat="46.0861983" lon="12.9250933"><ele>92.0</ele><time>2026-03-22T12:20:31.45Z</time></trkpt><trkpt lat="46.0861233" lon="12.9253717"><ele>91.0</ele><time>2026-03-22T12:20:32.45Z</time></trkpt><trkpt lat="46.08604" lon="12.9256617"><ele>90.0</ele><time>2026-03-22T12:20:33.449Z</time></trkpt><trkpt lat="46.0859467" lon="12.92597"><ele>90.0</ele><time>2026-03-22T12:20:34.449Z</time></trkpt><trkpt lat="46.0858483" lon="12.92629"><ele>90.0</ele><time>2026-03-22T12:20:35.449Z</time></trkpt><trkpt lat="46.08574" lon="12.926615"><ele>90.5</ele><time>2026-03-22T12:20:36.45Z</time></trkpt><trkpt lat="46.0856367" lon="12.9269667"><ele>91.0</ele><time>2026-03-22T12:20:37.449Z</time></trkpt><trkpt lat="46.0855283" lon="12.927335"><ele>90.5</ele><time>2026-03-22T12:20:38.448Z</time></trkpt><trkpt lat="46.0854167" lon="12.9277133"><ele>90.0</ele><time>2026-03-22T12:20:39.451Z</time></trkpt><trkpt lat="46.08531" lon="12.9280917"><ele>90.5</ele><time>2026-03-22T12:20:40.449Z</time></trkpt><trkpt lat="46.0852" lon="12.9284717"><ele>91.0</ele><time>2026-03-22T12:20:41.449Z</time></trkpt><trkpt lat="46.08509" lon="12.9288533"><ele>91.0</ele><time>2026-03-22T12:20:42.449Z</time></trkpt><trkpt lat="46.0849817" lon="12.9292217"><ele>91.0</ele><time>2026-03-22T12:20:43.448Z</time></trkpt><trkpt lat="46.084885" lon="12.9295683"><ele>92.5</ele><time>2026-03-22T12:20:44.45Z</time></trkpt><trkpt lat="46.0847983" lon="12.929895"><ele>94.0</ele><time>2026-03-22T12:20:45.45Z</time></trkpt><trkpt lat="46.08471" lon="12.9302133"><ele>94.33333333333333</ele><time>2026-03-22T12:20:46.449Z</time></trkpt><trkpt lat="46.08463" lon="12.9305233"><ele>94.66666666666667</ele><time>2026-03-22T12:20:47.45Z</time></trkpt><trkpt lat="46.08455" lon="12.9308067"><ele>95.0</ele><time>2026-03-22T12:20:48.447Z</time></trkpt><trkpt lat="46.084475" lon="12.9310567"><ele>95.33333333333334</ele><time>2026-03-22T12:20:49.448Z</time></trkpt><trkpt lat="46.084395" lon="12.9312817"><ele>95.66666666666667</ele><time>2026-03-22T12:20:50.449Z</time></trkpt><trkpt lat="46.0843067" lon="12.93149"><ele>96.0</ele><time>2026-03-22T12:20:51.449Z</time></trkpt><trkpt lat="46.0842167" lon="12.9316783"><ele>96.0</ele><time>2026-03-22T12:20:52.449Z</time></trkpt><trkpt lat="46.0841267" lon="12.9318433"><ele>96.0</ele><time>2026-03-22T12:20:53.449Z</time></trkpt><trkpt lat="46.08404" lon="12.9319917"><ele>96.0</ele><time>2026-03-22T12:20:54.449Z</time></trkpt><trkpt lat="46.0839583" lon="12.9321167"><ele>96.0</ele><time>2026-03-22T12:20:55.448Z</time></trkpt><trkpt lat="46.0838833" lon="12.9322117"><ele>96.0</ele><time>2026-03-22T12:20:56.45Z</time></trkpt><trkpt lat="46.08385" lon="12.93232"><ele>96.0</ele><time>2026-03-22T12:20:57.451Z</time></trkpt><trkpt lat="46.0838533" lon="12.9324567"><ele>96.0</ele><time>2026-03-22T12:20:58.45Z</time></trkpt><trkpt lat="46.0838617" lon="12.9326133"><ele>96.0</ele><time>2026-03-22T12:20:59.451Z</time></trkpt><trkpt lat="46.0838667" lon="12.93281"><ele>96.0</ele><time>2026-03-22T12:21:00.449Z</time></trkpt><trkpt lat="46.0838533" lon="12.9330467"><ele>95.66666666666667</ele><time>2026-03-22T12:21:01.449Z</time></trkpt><trkpt lat="46.0838317" lon="12.93331"><ele>95.33333333333334</ele><time>2026-03-22T12:21:02.449Z</time></trkpt><trkpt lat="46.083815" lon="12.9335833"><ele>95.0</ele><time>2026-03-22T12:21:03.452Z</time></trkpt><trkpt lat="46.083805" lon="12.9338667"><ele>95.0</ele><time>2026-03-22T12:21:04.449Z</time></trkpt><trkpt lat="46.08382" lon="12.9341567"><ele>95.0</ele><time>2026-03-22T12:21:05.448Z</time></trkpt><trkpt lat="46.08386" lon="12.9344517"><ele>95.0</ele><time>2026-03-22T12:21:06.45Z</time></trkpt><trkpt lat="46.0839183" lon="12.9347317"><ele>96.33333333333334</ele><time>2026-03-22T12:21:07.449Z</time></trkpt><trkpt lat="46.0840017" lon="12.9350017"><ele>97.66666666666667</ele><time>2026-03-22T12:21:08.451Z</time></trkpt><trkpt lat="46.0841067" lon="12.935265"><ele>99.0</ele><time>2026-03-22T12:21:09.45Z</time></trkpt><trkpt lat="46.0842217" lon="12.9355117"><ele>100.66666666666666</ele><time>2026-03-22T12:21:10.45Z</time></trkpt><trkpt lat="46.0843317" lon="12.93573"><ele>102.33333333333333</ele><time>2026-03-22T12:21:11.45Z</time></trkpt><trkpt lat="46.0844383" lon="12.9359317"><ele>104.0</ele><time>2026-03-22T12:21:12.45Z</time></trkpt><trkpt lat="46.0845367" lon="12.9361233"><ele>105.5</ele><time>2026-03-22T12:21:13.45Z</time></trkpt><trkpt lat="46.0846217" lon="12.93631"><ele>107.0</ele><time>2026-03-22T12:21:14.45Z</time></trkpt><trkpt lat="46.08471" lon="12.9364767"><ele>108.5</ele><time>2026-03-22T12:21:15.451Z</time></trkpt><trkpt lat="46.0847917" lon="12.93664"><ele>110.0</ele><time>2026-03-22T12:21:16.449Z</time></trkpt><trkpt lat="46.0848683" lon="12.9367917"><ele>110.25</ele><time>2026-03-22T12:21:17.451Z</time></trkpt><trkpt lat="46.0849283" lon="12.9369367"><ele>110.5</ele><time>2026-03-22T12:21:18.451Z</time></trkpt><trkpt lat="46.0849633" lon="12.9370883"><ele>110.75</ele><time>2026-03-22T12:21:19.45Z</time></trkpt><trkpt lat="46.0849767" lon="12.9372517"><ele>111.0</ele><time>2026-03-22T12:21:20.45Z</time></trkpt><trkpt lat="46.084975" lon="12.9374133"><ele>111.4</ele><time>2026-03-22T12:21:21.452Z</time></trkpt><trkpt lat="46.084975" lon="12.937565"><ele>111.8</ele><time>2026-03-22T12:21:22.451Z</time></trkpt><trkpt lat="46.0849767" lon="12.9377167"><ele>112.20000000000002</ele><time>2026-03-22T12:21:23.45Z</time></trkpt><trkpt lat="46.084975" lon="12.937875"><ele>112.60000000000001</ele><time>2026-03-22T12:21:24.449Z</time></trkpt><trkpt lat="46.0849617" lon="12.9380317"><ele>113.0</ele><time>2026-03-22T12:21:25.449Z</time></trkpt><trkpt lat="46.0849433" lon="12.93819"><ele>112.60000000000001</ele><time>2026-03-22T12:21:26.45Z</time></trkpt><trkpt lat="46.0849117" lon="12.9383483"><ele>112.20000000000002</ele><time>2026-03-22T12:21:27.452Z</time></trkpt><trkpt lat="46.0848783" lon="12.9385"><ele>111.8</ele><time>2026-03-22T12:21:28.45Z</time></trkpt><trkpt lat="46.08485" lon="12.9386467"><ele>111.4</ele><time>2026-03-22T12:21:29.451Z</time></trkpt><trkpt lat="46.0848183" lon="12.9387917"><ele>111.0</ele><time>2026-03-22T12:21:30.45Z</time></trkpt><trkpt lat="46.084785" lon="12.9389417"><ele>111.0</ele><time>2026-03-22T12:21:31.451Z</time></trkpt><trkpt lat="46.0847683" lon="12.9391033"><ele>111.0</ele><time>2026-03-22T12:21:32.45Z</time></trkpt><trkpt lat="46.0847633" lon="12.9392817"><ele>111.0</ele><time>2026-03-22T12:21:33.451Z</time></trkpt><trkpt lat="46.08476" lon="12.9394617"><ele>111.0</ele><time>2026-03-22T12:21:34.45Z</time></trkpt><trkpt lat="46.0847733" lon="12.9396483"><ele>110.75</ele><time>2026-03-22T12:21:35.45Z</time></trkpt><trkpt lat="46.08478" lon="12.9398283"><ele>110.5</ele><time>2026-03-22T12:21:36.451Z</time></trkpt><trkpt lat="46.0847883" lon="12.94"><ele>110.25</ele><time>2026-03-22T12:21:37.45Z</time></trkpt><trkpt lat="46.0847983" lon="12.9401633"><ele>110.0</ele><time>2026-03-22T12:21:38.45Z</time></trkpt><trkpt lat="46.0848017" lon="12.9403183"><ele>110.0</ele><time>2026-03-22T12:21:39.451Z</time></trkpt><trkpt lat="46.084845" lon="12.94046"><ele>110.0</ele><time>2026-03-22T12:21:40.451Z</time></trkpt><trkpt lat="46.0849083" lon="12.9405917"><ele>110.0</ele><time>2026-03-22T12:21:41.449Z</time></trkpt><trkpt lat="46.08498" lon="12.9407217"><ele>110.0</ele><time>2026-03-22T12:21:42.451Z</time></trkpt><trkpt lat="46.0850633" lon="12.9408583"><ele>110.5</ele><time>2026-03-22T12:21:43.451Z</time></trkpt><trkpt lat="46.0851433" lon="12.9409983"><ele>111.0</ele><time>2026-03-22T12:21:44.452Z</time></trkpt><trkpt lat="46.0852183" lon="12.9411517"><ele>111.5</ele><time>2026-03-22T12:21:45.45Z</time></trkpt><trkpt lat="46.085295" lon="12.941315"><ele>112.0</ele><time>2026-03-22T12:21:46.449Z</time></trkpt><trkpt lat="46.0853583" lon="12.941495"><ele>112.0</ele><time>2026-03-22T12:21:47.45Z</time></trkpt><trkpt lat="46.0853933" lon="12.9416717"><ele>112.0</ele><time>2026-03-22T12:21:48.451Z</time></trkpt><trkpt lat="46.0854333" lon="12.941855"><ele>112.0</ele><time>2026-03-22T12:21:49.45Z</time></trkpt><trkpt lat="46.0854617" lon="12.9420417"><ele>112.0</ele><time>2026-03-22T12:21:50.45Z</time></trkpt><trkpt lat="46.0854867" lon="12.9422333"><ele>112.0</ele><time>2026-03-22T12:21:51.451Z</time></trkpt><trkpt lat="46.0855133" lon="12.942415"><ele>112.0</ele><time>2026-03-22T12:21:52.451Z</time></trkpt><trkpt lat="46.0855367" lon="12.9425833"><ele>112.0</ele><time>2026-03-22T12:21:53.449Z</time></trkpt><trkpt lat="46.085555" lon="12.9427383"><ele>112.0</ele><time>2026-03-22T12:21:54.449Z</time></trkpt><trkpt lat="46.08557" lon="12.9428767"><ele>112.00000000000001</ele><time>2026-03-22T12:21:55.451Z</time></trkpt><trkpt lat="46.08558" lon="12.9429933"><ele>112.0</ele><time>2026-03-22T12:21:56.45Z</time></trkpt><trkpt lat="46.085585" lon="12.9430933"><ele>112.0</ele><time>2026-03-22T12:21:57.451Z</time></trkpt><trkpt lat="46.0855967" lon="12.9432583"><ele>112.0</ele><time>2026-03-22T12:21:59.449Z</time></trkpt><trkpt lat="46.0855983" lon="12.9433517"><ele>112.00000000000001</ele><time>2026-03-22T12:22:00.45Z</time></trkpt><trkpt lat="46.0856017" lon="12.94346"><ele>112.0</ele><time>2026-03-22T12:22:01.45Z</time></trkpt><trkpt lat="46.085615" lon="12.9435867"><ele>112.0</ele><time>2026-03-22T12:22:02.451Z</time></trkpt><trkpt lat="46.085635" lon="12.9437667"><ele>112.0</ele><time>2026-03-22T12:22:03.452Z</time></trkpt><trkpt lat="46.0856617" lon="12.94398"><ele>112.0</ele><time>2026-03-22T12:22:04.45Z</time></trkpt><trkpt lat="46.085685" lon="12.9442333"><ele>112.33333333333334</ele><time>2026-03-22T12:22:05.449Z</time></trkpt><trkpt lat="46.0857033" lon="12.9444983"><ele>112.66666666666666</ele><time>2026-03-22T12:22:06.45Z</time></trkpt><trkpt lat="46.085715" lon="12.9447733"><ele>113.0</ele><time>2026-03-22T12:22:07.45Z</time></trkpt><trkpt lat="46.0857183" lon="12.9450517"><ele>112.0</ele><time>2026-03-22T12:22:08.449Z</time></trkpt><trkpt lat="46.0857267" lon="12.9453167"><ele>111.0</ele><time>2026-03-22T12:22:09.451Z</time></trkpt><trkpt lat="46.0857367" lon="12.9455783"><ele>110.0</ele><time>2026-03-22T12:22:10.45Z</time></trkpt><trkpt lat="46.0857517" lon="12.9458583"><ele>109.33333333333333</ele><time>2026-03-22T12:22:11.449Z</time></trkpt><trkpt lat="46.0857567" lon="12.9461417"><ele>108.66666666666666</ele><time>2026-03-22T12:22:12.45Z</time></trkpt><trkpt lat="46.0857567" lon="12.9464133"><ele>108.0</ele><time>2026-03-22T12:22:13.45Z</time></trkpt><trkpt lat="46.08575" lon="12.94668"><ele>108.66666666666666</ele><time>2026-03-22T12:22:14.451Z</time></trkpt><trkpt lat="46.0857417" lon="12.9469383"><ele>109.33333333333333</ele><time>2026-03-22T12:22:15.451Z</time></trkpt><trkpt lat="46.0857333" lon="12.9471867"><ele>110.0</ele><time>2026-03-22T12:22:16.451Z</time></trkpt><trkpt lat="46.08573" lon="12.9474183"><ele>109.75</ele><time>2026-03-22T12:22:17.45Z</time></trkpt><trkpt lat="46.0857233" lon="12.947635"><ele>109.5</ele><time>2026-03-22T12:22:18.45Z</time></trkpt><trkpt lat="46.0857183" lon="12.9478283"><ele>109.25</ele><time>2026-03-22T12:22:19.45Z</time></trkpt><trkpt lat="46.0857117" lon="12.9479967"><ele>109.0</ele><time>2026-03-22T12:22:20.451Z</time></trkpt><trkpt lat="46.0856983" lon="12.948145"><ele>109.0</ele><time>2026-03-22T12:22:21.451Z</time></trkpt><trkpt lat="46.085675" lon="12.9482783"><ele>109.0</ele><time>2026-03-22T12:22:22.451Z</time></trkpt><trkpt lat="46.0856367" lon="12.9484"><ele>109.0</ele><time>2026-03-22T12:22:23.45Z</time></trkpt><trkpt lat="46.085575" lon="12.948505"><ele>109.0</ele><time>2026-03-22T12:22:24.45Z</time></trkpt><trkpt lat="46.0854933" lon="12.9486017"><ele>109.0</ele><time>2026-03-22T12:22:25.45Z</time></trkpt><trkpt lat="46.085415" lon="12.9487167"><ele>109.25</ele><time>2026-03-22T12:22:26.452Z</time></trkpt><trkpt lat="46.0853567" lon="12.9488633"><ele>109.5</ele><time>2026-03-22T12:22:27.451Z</time></trkpt><trkpt lat="46.0853267" lon="12.94903"><ele>109.75</ele><time>2026-03-22T12:22:28.45Z</time></trkpt><trkpt lat="46.0853283" lon="12.949205"><ele>110.0</ele><time>2026-03-22T12:22:29.45Z</time></trkpt><trkpt lat="46.085365" lon="12.949385"><ele>110.0</ele><time>2026-03-22T12:22:30.45Z</time></trkpt><trkpt lat="46.0854283" lon="12.9495483"><ele>110.0</ele><time>2026-03-22T12:22:31.45Z</time></trkpt><trkpt lat="46.0855" lon="12.9497033"><ele>110.0</ele><time>2026-03-22T12:22:32.448Z</time></trkpt><trkpt lat="46.0855667" lon="12.9498617"><ele>110.0</ele><time>2026-03-22T12:22:33.452Z</time></trkpt><trkpt lat="46.08562" lon="12.950045"><ele>109.66666666666666</ele><time>2026-03-22T12:22:34.451Z</time></trkpt><trkpt lat="46.08564" lon="12.9502483"><ele>109.33333333333334</ele><time>2026-03-22T12:22:35.45Z</time></trkpt><trkpt lat="46.0856383" lon="12.9504733"><ele>109.0</ele><time>2026-03-22T12:22:36.449Z</time></trkpt><trkpt lat="46.0856267" lon="12.9507317"><ele>109.0</ele><time>2026-03-22T12:22:37.449Z</time></trkpt><trkpt lat="46.0856033" lon="12.951005"><ele>109.0</ele><time>2026-03-22T12:22:38.45Z</time></trkpt><trkpt lat="46.0855767" lon="12.9512833"><ele>109.0</ele><time>2026-03-22T12:22:39.451Z</time></trkpt><trkpt lat="46.0855467" lon="12.9515867"><ele>109.0</ele><time>2026-03-22T12:22:40.451Z</time></trkpt><trkpt lat="46.0855183" lon="12.95191"><ele>109.0</ele><time>2026-03-22T12:22:41.452Z</time></trkpt><trkpt lat="46.08549" lon="12.9522483"><ele>110.0</ele><time>2026-03-22T12:22:42.45Z</time></trkpt><trkpt lat="46.0854667" lon="12.952595"><ele>111.0</ele><time>2026-03-22T12:22:43.451Z</time></trkpt><trkpt lat="46.08544" lon="12.9529333"><ele>111.0</ele><time>2026-03-22T12:22:44.45Z</time></trkpt><trkpt lat="46.0854117" lon="12.9532667"><ele>111.0</ele><time>2026-03-22T12:22:45.452Z</time></trkpt><trkpt lat="46.0853917" lon="12.9535967"><ele>111.5</ele><time>2026-03-22T12:22:46.45Z</time></trkpt><trkpt lat="46.08537" lon="12.9539217"><ele>112.0</ele><time>2026-03-22T12:22:47.451Z</time></trkpt><trkpt lat="46.08536" lon="12.954255"><ele>113.0</ele><time>2026-03-22T12:22:48.449Z</time></trkpt><trkpt lat="46.0853517" lon="12.95459"><ele>114.0</ele><time>2026-03-22T12:22:49.452Z</time></trkpt><trkpt lat="46.0853483" lon="12.9549283"><ele>113.5</ele><time>2026-03-22T12:22:50.452Z</time></trkpt><trkpt lat="46.085345" lon="12.9552817"><ele>113.0</ele><time>2026-03-22T12:22:51.452Z</time></trkpt><trkpt lat="46.085345" lon="12.955645"><ele>113.0</ele><time>2026-03-22T12:22:52.453Z</time></trkpt><trkpt lat="46.0853483" lon="12.9560083"><ele>113.0</ele><time>2026-03-22T12:22:53.452Z</time></trkpt><trkpt lat="46.0853567" lon="12.9563617"><ele>113.0</ele><time>2026-03-22T12:22:54.451Z</time></trkpt><trkpt lat="46.08536" lon="12.956715"><ele>113.0</ele><time>2026-03-22T12:22:55.45Z</time></trkpt><trkpt lat="46.0853617" lon="12.957065"><ele>113.0</ele><time>2026-03-22T12:22:56.45Z</time></trkpt><trkpt lat="46.08537" lon="12.9574133"><ele>113.0</ele><time>2026-03-22T12:22:57.45Z</time></trkpt><trkpt lat="46.085375" lon="12.957765"><ele>113.5</ele><time>2026-03-22T12:22:58.451Z</time></trkpt><trkpt lat="46.085375" lon="12.95812"><ele>114.0</ele><time>2026-03-22T12:22:59.45Z</time></trkpt><trkpt lat="46.0853717" lon="12.9584733"><ele>114.0</ele><time>2026-03-22T12:23:00.451Z</time></trkpt><trkpt lat="46.0853633" lon="12.9588317"><ele>114.0</ele><time>2026-03-22T12:23:01.45Z</time></trkpt><trkpt lat="46.0853533" lon="12.9592017"><ele>114.0</ele><time>2026-03-22T12:23:02.45Z</time></trkpt><trkpt lat="46.0853333" lon="12.959575"><ele>114.0</ele><time>2026-03-22T12:23:03.451Z</time></trkpt><trkpt lat="46.085305" lon="12.9599467"><ele>113.5</ele><time>2026-03-22T12:23:04.451Z</time></trkpt><trkpt lat="46.0852783" lon="12.96032"><ele>113.0</ele><time>2026-03-22T12:23:05.45Z</time></trkpt><trkpt lat="46.0852533" lon="12.9607"><ele>113.5</ele><time>2026-03-22T12:23:06.45Z</time></trkpt><trkpt lat="46.0852283" lon="12.96107"><ele>114.0</ele><time>2026-03-22T12:23:07.45Z</time></trkpt><trkpt lat="46.0852083" lon="12.9614317"><ele>114.5</ele><time>2026-03-22T12:23:08.455Z</time></trkpt><trkpt lat="46.085185" lon="12.961785"><ele>115.0</ele><time>2026-03-22T12:23:09.45Z</time></trkpt><trkpt lat="46.0851633" lon="12.9621217"><ele>115.0</ele><time>2026-03-22T12:23:10.45Z</time></trkpt><trkpt lat="46.0851433" lon="12.9624483"><ele>115.0</ele><time>2026-03-22T12:23:11.451Z</time></trkpt><trkpt lat="46.08512" lon="12.9627733"><ele>114.5</ele><time>2026-03-22T12:23:12.45Z</time></trkpt><trkpt lat="46.0850983" lon="12.9631033"><ele>114.0</ele><time>2026-03-22T12:23:13.45Z</time></trkpt><trkpt lat="46.085075" lon="12.963435"><ele>114.0</ele><time>2026-03-22T12:23:14.45Z</time></trkpt><trkpt lat="46.0850517" lon="12.96377"><ele>114.0</ele><time>2026-03-22T12:23:15.451Z</time></trkpt><trkpt lat="46.0850267" lon="12.9640967"><ele>114.0</ele><time>2026-03-22T12:23:16.45Z</time></trkpt><trkpt lat="46.0850033" lon="12.9644067"><ele>114.0</ele><time>2026-03-22T12:23:17.45Z</time></trkpt><trkpt lat="46.0849833" lon="12.9647"><ele>114.0</ele><time>2026-03-22T12:23:18.451Z</time></trkpt><trkpt lat="46.08496" lon="12.96498"><ele>114.33333333333334</ele><time>2026-03-22T12:23:19.452Z</time></trkpt><trkpt lat="46.0849433" lon="12.9652517"><ele>114.66666666666667</ele><time>2026-03-22T12:23:20.451Z</time></trkpt><trkpt lat="46.084925" lon="12.9655267"><ele>115.0</ele><time>2026-03-22T12:23:21.451Z</time></trkpt><trkpt lat="46.0849117" lon="12.9658117"><ele>115.0</ele><time>2026-03-22T12:23:22.451Z</time></trkpt><trkpt lat="46.0848967" lon="12.96611"><ele>115.0</ele><time>2026-03-22T12:23:23.451Z</time></trkpt><trkpt lat="46.0848767" lon="12.9664317"><ele>115.0</ele><time>2026-03-22T12:23:24.452Z</time></trkpt><trkpt lat="46.08485" lon="12.9667733"><ele>114.5</ele><time>2026-03-22T12:23:25.45Z</time></trkpt><trkpt lat="46.0848067" lon="12.9671367"><ele>114.0</ele><time>2026-03-22T12:23:26.449Z</time></trkpt><trkpt lat="46.0847467" lon="12.967525"><ele>114.0</ele><time>2026-03-22T12:23:27.452Z</time></trkpt><trkpt lat="46.0846883" lon="12.9679183"><ele>114.0</ele><time>2026-03-22T12:23:28.451Z</time></trkpt><trkpt lat="46.0846317" lon="12.968305"><ele>115.0</ele><time>2026-03-22T12:23:29.449Z</time></trkpt><trkpt lat="46.0845817" lon="12.9686867"><ele>116.0</ele><time>2026-03-22T12:23:30.45Z</time></trkpt><trkpt lat="46.0845383" lon="12.9690733"><ele>116.0</ele><time>2026-03-22T12:23:31.45Z</time></trkpt><trkpt lat="46.0844967" lon="12.9694617"><ele>116.0</ele><time>2026-03-22T12:23:32.451Z</time></trkpt><trkpt lat="46.0844467" lon="12.9698467"><ele>115.5</ele><time>2026-03-22T12:23:33.45Z</time></trkpt><trkpt lat="46.084395" lon="12.9702367"><ele>115.0</ele><time>2026-03-22T12:23:34.45Z</time></trkpt><trkpt lat="46.0843417" lon="12.97062"><ele>115.0</ele><time>2026-03-22T12:23:35.451Z</time></trkpt><trkpt lat="46.0842933" lon="12.9710117"><ele>115.0</ele><time>2026-03-22T12:23:36.45Z</time></trkpt><trkpt lat="46.0842433" lon="12.9714067"><ele>115.5</ele><time>2026-03-22T12:23:37.45Z</time></trkpt><trkpt lat="46.0841917" lon="12.9718"><ele>116.0</ele><time>2026-03-22T12:23:38.45Z</time></trkpt><trkpt lat="46.0841433" lon="12.97219"><ele>116.5</ele><time>2026-03-22T12:23:39.45Z</time></trkpt><trkpt lat="46.0840883" lon="12.9725783"><ele>117.0</ele><time>2026-03-22T12:23:40.452Z</time></trkpt><trkpt lat="46.0840383" lon="12.9729667"><ele>117.0</ele><time>2026-03-22T12:23:41.449Z</time></trkpt><trkpt lat="46.0839883" lon="12.9733533"><ele>117.0</ele><time>2026-03-22T12:23:42.45Z</time></trkpt><trkpt lat="46.083935" lon="12.973735"><ele>117.0</ele><time>2026-03-22T12:23:43.449Z</time></trkpt><trkpt lat="46.083885" lon="12.9741183"><ele>117.0</ele><time>2026-03-22T12:23:44.45Z</time></trkpt><trkpt lat="46.0838333" lon="12.9745033"><ele>117.0</ele><time>2026-03-22T12:23:45.452Z</time></trkpt><trkpt lat="46.0837817" lon="12.97489"><ele>117.0</ele><time>2026-03-22T12:23:46.451Z</time></trkpt><trkpt lat="46.0837317" lon="12.9752833"><ele>117.5</ele><time>2026-03-22T12:23:47.45Z</time></trkpt><trkpt lat="46.0836717" lon="12.975675"><ele>118.0</ele><time>2026-03-22T12:23:48.45Z</time></trkpt><trkpt lat="46.08361" lon="12.9760717"><ele>118.0</ele><time>2026-03-22T12:23:49.451Z</time></trkpt><trkpt lat="46.083555" lon="12.9764683"><ele>118.0</ele><time>2026-03-22T12:23:50.451Z</time></trkpt><trkpt lat="46.0834917" lon="12.976865"><ele>118.5</ele><time>2026-03-22T12:23:51.451Z</time></trkpt><trkpt lat="46.0834333" lon="12.9772633"><ele>119.0</ele><time>2026-03-22T12:23:52.45Z</time></trkpt><trkpt lat="46.0833733" lon="12.9776717"><ele>119.0</ele><time>2026-03-22T12:23:53.45Z</time></trkpt><trkpt lat="46.0833133" lon="12.9780817"><ele>119.0</ele><time>2026-03-22T12:23:54.45Z</time></trkpt><trkpt lat="46.0832533" lon="12.9784933"><ele>118.5</ele><time>2026-03-22T12:23:55.45Z</time></trkpt><trkpt lat="46.0831867" lon="12.9789067"><ele>118.0</ele><time>2026-03-22T12:23:56.451Z</time></trkpt><trkpt lat="46.083125" lon="12.9793233"><ele>117.5</ele><time>2026-03-22T12:23:57.451Z</time></trkpt><trkpt lat="46.0830633" lon="12.9797383"><ele>117.0</ele><time>2026-03-22T12:23:58.45Z</time></trkpt><trkpt lat="46.0829983" lon="12.98015"><ele>118.0</ele><time>2026-03-22T12:23:59.449Z</time></trkpt><trkpt lat="46.0829367" lon="12.98056"><ele>119.0</ele><time>2026-03-22T12:24:00.451Z</time></trkpt><trkpt lat="46.0828717" lon="12.98097"><ele>119.0</ele><time>2026-03-22T12:24:01.451Z</time></trkpt><trkpt lat="46.082815" lon="12.9813783"><ele>119.0</ele><time>2026-03-22T12:24:02.45Z</time></trkpt><trkpt lat="46.0827533" lon="12.9817767"><ele>118.5</ele><time>2026-03-22T12:24:03.45Z</time></trkpt><trkpt lat="46.0826933" lon="12.9821667"><ele>118.0</ele><time>2026-03-22T12:24:04.45Z</time></trkpt><trkpt lat="46.08263" lon="12.9825517"><ele>118.0</ele><time>2026-03-22T12:24:05.451Z</time></trkpt><trkpt lat="46.0825717" lon="12.9829267"><ele>118.0</ele><time>2026-03-22T12:24:06.45Z</time></trkpt><trkpt lat="46.0825167" lon="12.9832917"><ele>118.5</ele><time>2026-03-22T12:24:07.453Z</time></trkpt><trkpt lat="46.0824617" lon="12.98365"><ele>119.0</ele><time>2026-03-22T12:24:08.448Z</time></trkpt><trkpt lat="46.0824067" lon="12.984005"><ele>119.5</ele><time>2026-03-22T12:24:09.45Z</time></trkpt><trkpt lat="46.0823533" lon="12.9843533"><ele>120.0</ele><time>2026-03-22T12:24:10.45Z</time></trkpt><trkpt lat="46.0822967" lon="12.9846867"><ele>120.0</ele><time>2026-03-22T12:24:11.448Z</time></trkpt><trkpt lat="46.0822483" lon="12.9850067"><ele>120.0</ele><time>2026-03-22T12:24:12.448Z</time></trkpt><trkpt lat="46.0821983" lon="12.9853167"><ele>120.0</ele><time>2026-03-22T12:24:13.448Z</time></trkpt><trkpt lat="46.0821483" lon="12.98563"><ele>119.33333333333334</ele><time>2026-03-22T12:24:14.447Z</time></trkpt><trkpt lat="46.0821067" lon="12.9859483"><ele>118.66666666666667</ele><time>2026-03-22T12:24:15.45Z</time></trkpt><trkpt lat="46.0820683" lon="12.986255"><ele>118.0</ele><time>2026-03-22T12:24:16.449Z</time></trkpt><trkpt lat="46.0820233" lon="12.9865767"><ele>118.33333333333334</ele><time>2026-03-22T12:24:17.449Z</time></trkpt><trkpt lat="46.0819817" lon="12.98689"><ele>118.66666666666666</ele><time>2026-03-22T12:24:18.448Z</time></trkpt><trkpt lat="46.081945" lon="12.9871883"><ele>119.0</ele><time>2026-03-22T12:24:19.448Z</time></trkpt><trkpt lat="46.0819133" lon="12.9874733"><ele>119.0</ele><time>2026-03-22T12:24:20.449Z</time></trkpt><trkpt lat="46.08188" lon="12.9877383"><ele>119.0</ele><time>2026-03-22T12:24:21.45Z</time></trkpt><trkpt lat="46.0818533" lon="12.9879767"><ele>119.0</ele><time>2026-03-22T12:24:22.454Z</time></trkpt><trkpt lat="46.0818283" lon="12.9881967"><ele>119.25</ele><time>2026-03-22T12:24:23.448Z</time></trkpt><trkpt lat="46.0818067" lon="12.9884017"><ele>119.5</ele><time>2026-03-22T12:24:24.451Z</time></trkpt><trkpt lat="46.081785" lon="12.98857"><ele>119.75</ele><time>2026-03-22T12:24:25.45Z</time></trkpt><trkpt lat="46.0817583" lon="12.9887083"><ele>120.0</ele><time>2026-03-22T12:24:26.45Z</time></trkpt><trkpt lat="46.0817233" lon="12.9888317"><ele>120.0</ele><time>2026-03-22T12:24:27.45Z</time></trkpt><trkpt lat="46.08167" lon="12.98893"><ele>120.0</ele><time>2026-03-22T12:24:28.45Z</time></trkpt><trkpt lat="46.0816217" lon="12.9890333"><ele>120.0</ele><time>2026-03-22T12:24:29.449Z</time></trkpt><trkpt lat="46.0815983" lon="12.9891517"><ele>120.0</ele><time>2026-03-22T12:24:30.45Z</time></trkpt><trkpt lat="46.0816117" lon="12.9892867"><ele>120.0</ele><time>2026-03-22T12:24:31.45Z</time></trkpt><trkpt lat="46.0816333" lon="12.9894433"><ele>119.66666666666666</ele><time>2026-03-22T12:24:32.45Z</time></trkpt><trkpt lat="46.081645" lon="12.9896333"><ele>119.33333333333333</ele><time>2026-03-22T12:24:33.449Z</time></trkpt><trkpt lat="46.0816267" lon="12.989865"><ele>119.0</ele><time>2026-03-22T12:24:34.45Z</time></trkpt><trkpt lat="46.0815967" lon="12.9901117"><ele>119.0</ele><time>2026-03-22T12:24:35.45Z</time></trkpt><trkpt lat="46.0815683" lon="12.9903733"><ele>119.0</ele><time>2026-03-22T12:24:36.451Z</time></trkpt><trkpt lat="46.0815333" lon="12.9906583"><ele>119.0</ele><time>2026-03-22T12:24:37.45Z</time></trkpt><trkpt lat="46.0815033" lon="12.9909617"><ele>119.5</ele><time>2026-03-22T12:24:38.45Z</time></trkpt><trkpt lat="46.08147" lon="12.9912967"><ele>120.0</ele><time>2026-03-22T12:24:39.45Z</time></trkpt><trkpt lat="46.0814483" lon="12.9916533"><ele>119.0</ele><time>2026-03-22T12:24:40.451Z</time></trkpt><trkpt lat="46.0814367" lon="12.99202"><ele>118.0</ele><time>2026-03-22T12:24:41.452Z</time></trkpt><trkpt lat="46.0814367" lon="12.9923883"><ele>118.5</ele><time>2026-03-22T12:24:42.45Z</time></trkpt><trkpt lat="46.081445" lon="12.992755"><ele>119.0</ele><time>2026-03-22T12:24:43.451Z</time></trkpt><trkpt lat="46.08146" lon="12.99313"><ele>120.0</ele><time>2026-03-22T12:24:44.45Z</time></trkpt><trkpt lat="46.0814883" lon="12.9935167"><ele>121.0</ele><time>2026-03-22T12:24:45.451Z</time></trkpt><trkpt lat="46.0815217" lon="12.993905"><ele>120.5</ele><time>2026-03-22T12:24:46.45Z</time></trkpt><trkpt lat="46.0815583" lon="12.9943017"><ele>120.0</ele><time>2026-03-22T12:24:47.451Z</time></trkpt><trkpt lat="46.081595" lon="12.9946933"><ele>120.5</ele><time>2026-03-22T12:24:48.45Z</time></trkpt><trkpt lat="46.0816333" lon="12.9950817"><ele>121.0</ele><time>2026-03-22T12:24:49.45Z</time></trkpt><trkpt lat="46.0816717" lon="12.9954683"><ele>121.0</ele><time>2026-03-22T12:24:50.45Z</time></trkpt><trkpt lat="46.0817167" lon="12.9958567"><ele>121.0</ele><time>2026-03-22T12:24:51.45Z</time></trkpt><trkpt lat="46.0817617" lon="12.9962467"><ele>121.0</ele><time>2026-03-22T12:24:52.45Z</time></trkpt><trkpt lat="46.0818033" lon="12.9966367"><ele>121.0</ele><time>2026-03-22T12:24:53.451Z</time></trkpt><trkpt lat="46.0818433" lon="12.99703"><ele>120.5</ele><time>2026-03-22T12:24:54.449Z</time></trkpt><trkpt lat="46.081885" lon="12.9974217"><ele>120.0</ele><time>2026-03-22T12:24:55.448Z</time></trkpt><trkpt lat="46.0819317" lon="12.9978167"><ele>120.0</ele><time>2026-03-22T12:24:56.449Z</time></trkpt><trkpt lat="46.0819767" lon="12.9982167"><ele>120.0</ele><time>2026-03-22T12:24:57.45Z</time></trkpt><trkpt lat="46.0820233" lon="12.9986233"><ele>120.0</ele><time>2026-03-22T12:24:58.45Z</time></trkpt><trkpt lat="46.0820683" lon="12.9990383"><ele>120.0</ele><time>2026-03-22T12:24:59.45Z</time></trkpt><trkpt lat="46.0821117" lon="12.999455"><ele>120.5</ele><time>2026-03-22T12:25:00.45Z</time></trkpt><trkpt lat="46.0821567" lon="12.9998733"><ele>121.0</ele><time>2026-03-22T12:25:01.45Z</time></trkpt><trkpt lat="46.0822017" lon="13.0002933"><ele>121.0</ele><time>2026-03-22T12:25:02.451Z</time></trkpt><trkpt lat="46.082245" lon="13.0007133"><ele>121.0</ele><time>2026-03-22T12:25:03.451Z</time></trkpt><trkpt lat="46.082295" lon="13.0011317"><ele>121.0</ele><time>2026-03-22T12:25:04.45Z</time></trkpt><trkpt lat="46.082345" lon="13.00155"><ele>121.0</ele><time>2026-03-22T12:25:05.45Z</time></trkpt><trkpt lat="46.0823883" lon="13.0019683"><ele>121.5</ele><time>2026-03-22T12:25:06.45Z</time></trkpt><trkpt lat="46.0824417" lon="13.0023817"><ele>122.0</ele><time>2026-03-22T12:25:07.45Z</time></trkpt><trkpt lat="46.0824817" lon="13.0027967"><ele>122.0</ele><time>2026-03-22T12:25:08.45Z</time></trkpt><trkpt lat="46.0825283" lon="13.003215"><ele>122.0</ele><time>2026-03-22T12:25:09.451Z</time></trkpt><trkpt lat="46.0825733" lon="13.0036317"><ele>122.0</ele><time>2026-03-22T12:25:10.45Z</time></trkpt><trkpt lat="46.0826217" lon="13.0040467"><ele>122.0</ele><time>2026-03-22T12:25:11.449Z</time></trkpt><trkpt lat="46.0826667" lon="13.0044667"><ele>121.0</ele><time>2026-03-22T12:25:12.45Z</time></trkpt><trkpt lat="46.082715" lon="13.0048883"><ele>120.0</ele><time>2026-03-22T12:25:13.45Z</time></trkpt><trkpt lat="46.0827567" lon="13.0053067"><ele>120.0</ele><time>2026-03-22T12:25:14.45Z</time></trkpt><trkpt lat="46.082805" lon="13.0057233"><ele>120.0</ele><time>2026-03-22T12:25:15.451Z</time></trkpt><trkpt lat="46.08285" lon="13.00614"><ele>120.0</ele><time>2026-03-22T12:25:16.449Z</time></trkpt><trkpt lat="46.0828933" lon="13.00656"><ele>120.0</ele><time>2026-03-22T12:25:17.45Z</time></trkpt><trkpt lat="46.082935" lon="13.00698"><ele>120.0</ele><time>2026-03-22T12:25:18.451Z</time></trkpt><trkpt lat="46.0829817" lon="13.0074033"><ele>120.0</ele><time>2026-03-22T12:25:19.452Z</time></trkpt><trkpt lat="46.0830283" lon="13.007825"><ele>120.0</ele><time>2026-03-22T12:25:20.452Z</time></trkpt><trkpt lat="46.08308" lon="13.0082517"><ele>120.0</ele><time>2026-03-22T12:25:21.453Z</time></trkpt><trkpt lat="46.0831267" lon="13.0086767"><ele>120.5</ele><time>2026-03-22T12:25:22.453Z</time></trkpt><trkpt lat="46.0831767" lon="13.0091017"><ele>121.0</ele><time>2026-03-22T12:25:23.451Z</time></trkpt><trkpt lat="46.0832217" lon="13.0095267"><ele>121.5</ele><time>2026-03-22T12:25:24.453Z</time></trkpt><trkpt lat="46.0832667" lon="13.00995"><ele>122.0</ele><time>2026-03-22T12:25:25.451Z</time></trkpt><trkpt lat="46.08331" lon="13.010375"><ele>122.0</ele><time>2026-03-22T12:25:26.45Z</time></trkpt><trkpt lat="46.0833583" lon="13.0107983"><ele>122.0</ele><time>2026-03-22T12:25:27.45Z</time></trkpt><trkpt lat="46.083405" lon="13.011225"><ele>122.5</ele><time>2026-03-22T12:25:28.45Z</time></trkpt><trkpt lat="46.08345" lon="13.0116483"><ele>123.0</ele><time>2026-03-22T12:25:29.45Z</time></trkpt><trkpt lat="46.0834933" lon="13.0120733"><ele>123.0</ele><time>2026-03-22T12:25:30.45Z</time></trkpt><trkpt lat="46.08354" lon="13.0124967"><ele>123.0</ele><time>2026-03-22T12:25:31.45Z</time></trkpt><trkpt lat="46.0835867" lon="13.0129217"><ele>123.0</ele><time>2026-03-22T12:25:32.45Z</time></trkpt><trkpt lat="46.0836283" lon="13.0133517"><ele>123.0</ele><time>2026-03-22T12:25:33.453Z</time></trkpt><trkpt lat="46.083665" lon="13.0137867"><ele>122.5</ele><time>2026-03-22T12:25:34.45Z</time></trkpt><trkpt lat="46.0837133" lon="13.0142183"><ele>122.0</ele><time>2026-03-22T12:25:35.45Z</time></trkpt><trkpt lat="46.0837667" lon="13.0146467"><ele>122.5</ele><time>2026-03-22T12:25:36.453Z</time></trkpt><trkpt lat="46.0838133" lon="13.015075"><ele>123.0</ele><time>2026-03-22T12:25:37.45Z</time></trkpt><trkpt lat="46.0838633" lon="13.0155083"><ele>121.5</ele><time>2026-03-22T12:25:38.451Z</time></trkpt><trkpt lat="46.0839133" lon="13.01594"><ele>120.0</ele><time>2026-03-22T12:25:39.451Z</time></trkpt><trkpt lat="46.0839617" lon="13.0163717"><ele>120.0</ele><time>2026-03-22T12:25:40.45Z</time></trkpt><trkpt lat="46.08401" lon="13.0168083"><ele>120.0</ele><time>2026-03-22T12:25:41.449Z</time></trkpt><trkpt lat="46.08406" lon="13.01725"><ele>119.0</ele><time>2026-03-22T12:25:42.451Z</time></trkpt><trkpt lat="46.0841067" lon="13.017695"><ele>118.0</ele><time>2026-03-22T12:25:43.451Z</time></trkpt><trkpt lat="46.084155" lon="13.0181383"><ele>116.0</ele><time>2026-03-22T12:25:44.449Z</time></trkpt><trkpt lat="46.0842033" lon="13.0185867"><ele>114.0</ele><time>2026-03-22T12:25:45.45Z</time></trkpt><trkpt lat="46.0842417" lon="13.01902"><ele>112.5</ele><time>2026-03-22T12:25:46.448Z</time></trkpt><trkpt lat="46.0842833" lon="13.0194333"><ele>111.0</ele><time>2026-03-22T12:25:47.45Z</time></trkpt><trkpt lat="46.08432" lon="13.0198267"><ele>110.5</ele><time>2026-03-22T12:25:48.452Z</time></trkpt><trkpt lat="46.0843617" lon="13.0201967"><ele>110.0</ele><time>2026-03-22T12:25:49.449Z</time></trkpt><trkpt lat="46.0844" lon="13.020555"><ele>108.5</ele><time>2026-03-22T12:25:50.45Z</time></trkpt><trkpt lat="46.0844317" lon="13.0209067"><ele>107.0</ele><time>2026-03-22T12:25:51.45Z</time></trkpt><trkpt lat="46.0844717" lon="13.0212567"><ele>107.0</ele><time>2026-03-22T12:25:52.45Z</time></trkpt><trkpt lat="46.0845083" lon="13.021605"><ele>107.0</ele><time>2026-03-22T12:25:53.451Z</time></trkpt><trkpt lat="46.084545" lon="13.02195"><ele>107.5</ele><time>2026-03-22T12:25:54.45Z</time></trkpt><trkpt lat="46.0845817" lon="13.0222833"><ele>108.0</ele><time>2026-03-22T12:25:55.45Z</time></trkpt><trkpt lat="46.084615" lon="13.022595"><ele>108.33333333333334</ele><time>2026-03-22T12:25:56.451Z</time></trkpt><trkpt lat="46.08465" lon="13.02289"><ele>108.66666666666667</ele><time>2026-03-22T12:25:57.45Z</time></trkpt><trkpt lat="46.08468" lon="13.0231633"><ele>109.0</ele><time>2026-03-22T12:25:58.449Z</time></trkpt><trkpt lat="46.08471" lon="13.0234067"><ele>109.0</ele><time>2026-03-22T12:25:59.449Z</time></trkpt><trkpt lat="46.084735" lon="13.0236317"><ele>109.0</ele><time>2026-03-22T12:26:00.45Z</time></trkpt><trkpt lat="46.0847583" lon="13.023825"><ele>109.0</ele><time>2026-03-22T12:26:01.449Z</time></trkpt><trkpt lat="46.084775" lon="13.02401"><ele>109.0</ele><time>2026-03-22T12:26:02.45Z</time></trkpt><trkpt lat="46.0847867" lon="13.0241883"><ele>109.2</ele><time>2026-03-22T12:26:03.451Z</time></trkpt><trkpt lat="46.0847867" lon="13.0243533"><ele>109.4</ele><time>2026-03-22T12:26:04.451Z</time></trkpt><trkpt lat="46.08477" lon="13.0245033"><ele>109.6</ele><time>2026-03-22T12:26:05.45Z</time></trkpt><trkpt lat="46.0847267" lon="13.0246367"><ele>109.8</ele><time>2026-03-22T12:26:06.45Z</time></trkpt><trkpt lat="46.08469" lon="13.0247583"><ele>110.0</ele><time>2026-03-22T12:26:07.45Z</time></trkpt><trkpt lat="46.0846883" lon="13.0248867"><ele>109.8</ele><time>2026-03-22T12:26:08.45Z</time></trkpt><trkpt lat="46.0847217" lon="13.0250133"><ele>109.6</ele><time>2026-03-22T12:26:09.452Z</time></trkpt><trkpt lat="46.0847867" lon="13.025125"><ele>109.4</ele><time>2026-03-22T12:26:10.45Z</time></trkpt><trkpt lat="46.084855" lon="13.0252417"><ele>109.2</ele><time>2026-03-22T12:26:11.451Z</time></trkpt><trkpt lat="46.0849117" lon="13.0253883"><ele>109.0</ele><time>2026-03-22T12:26:12.45Z</time></trkpt><trkpt lat="46.084945" lon="13.0255717"><ele>109.0</ele><time>2026-03-22T12:26:13.45Z</time></trkpt><trkpt lat="46.0849717" lon="13.0257867"><ele>109.0</ele><time>2026-03-22T12:26:14.45Z</time></trkpt><trkpt lat="46.085" lon="13.0260333"><ele>109.0</ele><time>2026-03-22T12:26:15.45Z</time></trkpt><trkpt lat="46.0850317" lon="13.02631"><ele>109.33333333333334</ele><time>2026-03-22T12:26:16.449Z</time></trkpt><trkpt lat="46.0850667" lon="13.026615"><ele>109.66666666666666</ele><time>2026-03-22T12:26:17.45Z</time></trkpt><trkpt lat="46.0851067" lon="13.02693"><ele>110.0</ele><time>2026-03-22T12:26:18.45Z</time></trkpt><trkpt lat="46.0851367" lon="13.0272417"><ele>110.0</ele><time>2026-03-22T12:26:19.45Z</time></trkpt><trkpt lat="46.0851733" lon="13.0275567"><ele>110.0</ele><time>2026-03-22T12:26:20.451Z</time></trkpt><trkpt lat="46.0852083" lon="13.02788"><ele>110.0</ele><time>2026-03-22T12:26:21.45Z</time></trkpt><trkpt lat="46.085245" lon="13.0282217"><ele>110.0</ele><time>2026-03-22T12:26:22.45Z</time></trkpt><trkpt lat="46.0852817" lon="13.0285683"><ele>110.0</ele><time>2026-03-22T12:26:23.45Z</time></trkpt><trkpt lat="46.0853167" lon="13.0289233"><ele>110.0</ele><time>2026-03-22T12:26:24.451Z</time></trkpt><trkpt lat="46.0853517" lon="13.0292833"><ele>110.0</ele><time>2026-03-22T12:26:25.449Z</time></trkpt><trkpt lat="46.08539" lon="13.02965"><ele>110.5</ele><time>2026-03-22T12:26:26.452Z</time></trkpt><trkpt lat="46.0854317" lon="13.0300133"><ele>111.0</ele><time>2026-03-22T12:26:27.453Z</time></trkpt><trkpt lat="46.08547" lon="13.030375"><ele>111.0</ele><time>2026-03-22T12:26:28.45Z</time></trkpt><trkpt lat="46.0855117" lon="13.0307417"><ele>111.0</ele><time>2026-03-22T12:26:29.45Z</time></trkpt><trkpt lat="46.0855517" lon="13.0311183"><ele>111.0</ele><time>2026-03-22T12:26:30.451Z</time></trkpt><trkpt lat="46.0855983" lon="13.0315"><ele>111.0</ele><time>2026-03-22T12:26:31.449Z</time></trkpt><trkpt lat="46.08564" lon="13.0318817"><ele>111.0</ele><time>2026-03-22T12:26:32.45Z</time></trkpt><trkpt lat="46.08568" lon="13.0322717"><ele>111.0</ele><time>2026-03-22T12:26:33.453Z</time></trkpt><trkpt lat="46.085725" lon="13.0326667"><ele>111.5</ele><time>2026-03-22T12:26:34.45Z</time></trkpt><trkpt lat="46.0857667" lon="13.0330683"><ele>112.0</ele><time>2026-03-22T12:26:35.45Z</time></trkpt><trkpt lat="46.0858133" lon="13.03347"><ele>112.0</ele><time>2026-03-22T12:26:36.449Z</time></trkpt><trkpt lat="46.085855" lon="13.0338733"><ele>112.0</ele><time>2026-03-22T12:26:37.449Z</time></trkpt><trkpt lat="46.0858933" lon="13.0342633"><ele>113.0</ele><time>2026-03-22T12:26:38.45Z</time></trkpt><trkpt lat="46.085935" lon="13.0346467"><ele>114.0</ele><time>2026-03-22T12:26:39.451Z</time></trkpt><trkpt lat="46.0859783" lon="13.035025"><ele>116.0</ele><time>2026-03-22T12:26:40.45Z</time></trkpt><trkpt lat="46.086025" lon="13.0354067"><ele>118.0</ele><time>2026-03-22T12:26:41.449Z</time></trkpt><trkpt lat="46.0860683" lon="13.0357883"><ele>120.0</ele><time>2026-03-22T12:26:42.451Z</time></trkpt><trkpt lat="46.0861067" lon="13.03617"><ele>122.0</ele><time>2026-03-22T12:26:43.449Z</time></trkpt><trkpt lat="46.08615" lon="13.0365533"><ele>123.0</ele><time>2026-03-22T12:26:44.451Z</time></trkpt><trkpt lat="46.0861883" lon="13.0369317"><ele>124.0</ele><time>2026-03-22T12:26:45.451Z</time></trkpt><trkpt lat="46.0862217" lon="13.0372967"><ele>124.0</ele><time>2026-03-22T12:26:46.45Z</time></trkpt><trkpt lat="46.0862567" lon="13.0376517"><ele>124.0</ele><time>2026-03-22T12:26:47.45Z</time></trkpt><trkpt lat="46.08629" lon="13.03799"><ele>124.0</ele><time>2026-03-22T12:26:48.451Z</time></trkpt><trkpt lat="46.0863233" lon="13.0383117"><ele>124.0</ele><time>2026-03-22T12:26:49.45Z</time></trkpt><trkpt lat="46.0863617" lon="13.0386233"><ele>124.0</ele><time>2026-03-22T12:26:50.45Z</time></trkpt><trkpt lat="46.0863983" lon="13.0389417"><ele>123.5</ele><time>2026-03-22T12:26:51.449Z</time></trkpt><trkpt lat="46.08643" lon="13.0392717"><ele>123.0</ele><time>2026-03-22T12:26:52.451Z</time></trkpt><trkpt lat="46.0864683" lon="13.0396133"><ele>123.0</ele><time>2026-03-22T12:26:53.452Z</time></trkpt><trkpt lat="46.08651" lon="13.0399633"><ele>123.0</ele><time>2026-03-22T12:26:54.451Z</time></trkpt><trkpt lat="46.0865433" lon="13.0403167"><ele>123.0</ele><time>2026-03-22T12:26:55.451Z</time></trkpt><trkpt lat="46.0865767" lon="13.0406767"><ele>123.0</ele><time>2026-03-22T12:26:56.449Z</time></trkpt><trkpt lat="46.0866183" lon="13.0410333"><ele>123.5</ele><time>2026-03-22T12:26:57.453Z</time></trkpt><trkpt lat="46.0866583" lon="13.0413817"><ele>124.0</ele><time>2026-03-22T12:26:58.449Z</time></trkpt><trkpt lat="46.0866933" lon="13.0417233"><ele>124.5</ele><time>2026-03-22T12:26:59.449Z</time></trkpt><trkpt lat="46.0867333" lon="13.04206"><ele>125.0</ele><time>2026-03-22T12:27:00.45Z</time></trkpt><trkpt lat="46.086785" lon="13.0423867"><ele>125.0</ele><time>2026-03-22T12:27:01.45Z</time></trkpt><trkpt lat="46.0868483" lon="13.04271"><ele>125.0</ele><time>2026-03-22T12:27:02.45Z</time></trkpt><trkpt lat="46.0869133" lon="13.043025"><ele>125.33333333333333</ele><time>2026-03-22T12:27:03.451Z</time></trkpt><trkpt lat="46.0869867" lon="13.0433267"><ele>125.66666666666666</ele><time>2026-03-22T12:27:04.45Z</time></trkpt><trkpt lat="46.0870567" lon="13.0436083"><ele>126.0</ele><time>2026-03-22T12:27:05.45Z</time></trkpt><trkpt lat="46.08713" lon="13.0438767"><ele>126.0</ele><time>2026-03-22T12:27:06.451Z</time></trkpt><trkpt lat="46.08721" lon="13.0441267"><ele>126.0</ele><time>2026-03-22T12:27:07.449Z</time></trkpt><trkpt lat="46.08729" lon="13.0443717"><ele>126.0</ele><time>2026-03-22T12:27:08.45Z</time></trkpt><trkpt lat="46.087365" lon="13.0446017"><ele>125.33333333333334</ele><time>2026-03-22T12:27:09.45Z</time></trkpt><trkpt lat="46.0874417" lon="13.0448183"><ele>124.66666666666667</ele><time>2026-03-22T12:27:10.449Z</time></trkpt><trkpt lat="46.0875117" lon="13.0450317"><ele>124.0</ele><time>2026-03-22T12:27:11.45Z</time></trkpt><trkpt lat="46.0875783" lon="13.0452417"><ele>124.0</ele><time>2026-03-22T12:27:12.451Z</time></trkpt><trkpt lat="46.0876467" lon="13.0454433"><ele>124.0</ele><time>2026-03-22T12:27:13.45Z</time></trkpt><trkpt lat="46.0877133" lon="13.045645"><ele>124.0</ele><time>2026-03-22T12:27:14.45Z</time></trkpt><trkpt lat="46.0877817" lon="13.0458483"><ele>124.33333333333334</ele><time>2026-03-22T12:27:15.451Z</time></trkpt><trkpt lat="46.0878483" lon="13.046055"><ele>124.66666666666666</ele><time>2026-03-22T12:27:16.45Z</time></trkpt><trkpt lat="46.0879183" lon="13.0462683"><ele>125.0</ele><time>2026-03-22T12:27:17.449Z</time></trkpt><trkpt lat="46.0879917" lon="13.0464817"><ele>125.66666666666666</ele><time>2026-03-22T12:27:18.45Z</time></trkpt><trkpt lat="46.08806" lon="13.046695"><ele>126.33333333333334</ele><time>2026-03-22T12:27:19.45Z</time></trkpt><trkpt lat="46.0881317" lon="13.04691"><ele>127.0</ele><time>2026-03-22T12:27:20.451Z</time></trkpt><trkpt lat="46.0882" lon="13.04713"><ele>127.0</ele><time>2026-03-22T12:27:21.451Z</time></trkpt><trkpt lat="46.0882583" lon="13.0473683"><ele>127.0</ele><time>2026-03-22T12:27:22.452Z</time></trkpt><trkpt lat="46.0883067" lon="13.0476233"><ele>127.0</ele><time>2026-03-22T12:27:23.45Z</time></trkpt><trkpt lat="46.0883517" lon="13.047885"><ele>127.0</ele><time>2026-03-22T12:27:24.451Z</time></trkpt><trkpt lat="46.088385" lon="13.0481517"><ele>127.0</ele><time>2026-03-22T12:27:25.452Z</time></trkpt><trkpt lat="46.0884183" lon="13.0484217"><ele>127.0</ele><time>2026-03-22T12:27:26.45Z</time></trkpt><trkpt lat="46.0884467" lon="13.04869"><ele>127.0</ele><time>2026-03-22T12:27:27.451Z</time></trkpt><trkpt lat="46.088465" lon="13.0489567"><ele>127.0</ele><time>2026-03-22T12:27:28.449Z</time></trkpt><trkpt lat="46.0884717" lon="13.0492267"><ele>127.0</ele><time>2026-03-22T12:27:29.449Z</time></trkpt><trkpt lat="46.0884733" lon="13.049495"><ele>127.33333333333334</ele><time>2026-03-22T12:27:30.451Z</time></trkpt><trkpt lat="46.0884733" lon="13.0497583"><ele>127.66666666666666</ele><time>2026-03-22T12:27:31.45Z</time></trkpt><trkpt lat="46.0884583" lon="13.0500183"><ele>128.0</ele><time>2026-03-22T12:27:32.45Z</time></trkpt><trkpt lat="46.0884383" lon="13.0502767"><ele>128.0</ele><time>2026-03-22T12:27:33.451Z</time></trkpt><trkpt lat="46.0884083" lon="13.050535"><ele>128.0</ele><time>2026-03-22T12:27:34.45Z</time></trkpt><trkpt lat="46.0883783" lon="13.0508067"><ele>128.0</ele><time>2026-03-22T12:27:35.451Z</time></trkpt><trkpt lat="46.08835" lon="13.0510867"><ele>127.66666666666666</ele><time>2026-03-22T12:27:36.45Z</time></trkpt><trkpt lat="46.0883183" lon="13.05137"><ele>127.33333333333334</ele><time>2026-03-22T12:27:37.45Z</time></trkpt><trkpt lat="46.08829" lon="13.0516567"><ele>127.0</ele><time>2026-03-22T12:27:38.45Z</time></trkpt><trkpt lat="46.08826" lon="13.0519433"><ele>127.0</ele><time>2026-03-22T12:27:39.45Z</time></trkpt><trkpt lat="46.0882317" lon="13.05223"><ele>127.0</ele><time>2026-03-22T12:27:40.45Z</time></trkpt><trkpt lat="46.0882017" lon="13.0525117"><ele>127.0</ele><time>2026-03-22T12:27:41.45Z</time></trkpt><trkpt lat="46.0881717" lon="13.0527933"><ele>127.0</ele><time>2026-03-22T12:27:42.45Z</time></trkpt><trkpt lat="46.0881467" lon="13.0530667"><ele>127.0</ele><time>2026-03-22T12:27:43.45Z</time></trkpt><trkpt lat="46.0881183" lon="13.05333"><ele>127.0</ele><time>2026-03-22T12:27:44.449Z</time></trkpt><trkpt lat="46.0880933" lon="13.0535883"><ele>126.66666666666667</ele><time>2026-03-22T12:27:45.45Z</time></trkpt><trkpt lat="46.0880617" lon="13.05384"><ele>126.33333333333334</ele><time>2026-03-22T12:27:46.451Z</time></trkpt><trkpt lat="46.0880367" lon="13.0540917"><ele>126.0</ele><time>2026-03-22T12:27:47.45Z</time></trkpt><trkpt lat="46.088015" lon="13.05434"><ele>126.0</ele><time>2026-03-22T12:27:48.45Z</time></trkpt><trkpt lat="46.087995" lon="13.054585"><ele>126.0</ele><time>2026-03-22T12:27:49.45Z</time></trkpt><trkpt lat="46.0879817" lon="13.05483"><ele>126.0</ele><time>2026-03-22T12:27:50.455Z</time></trkpt><trkpt lat="46.0879767" lon="13.0550767"><ele>126.0</ele><time>2026-03-22T12:27:51.451Z</time></trkpt><trkpt lat="46.0879783" lon="13.0553333"><ele>126.0</ele><time>2026-03-22T12:27:52.451Z</time></trkpt><trkpt lat="46.08799" lon="13.0556"><ele>126.0</ele><time>2026-03-22T12:27:53.449Z</time></trkpt><trkpt lat="46.08801" lon="13.0558767"><ele>126.33333333333334</ele><time>2026-03-22T12:27:54.451Z</time></trkpt><trkpt lat="46.0880383" lon="13.0561517"><ele>126.66666666666667</ele><time>2026-03-22T12:27:55.45Z</time></trkpt><trkpt lat="46.0880667" lon="13.0564233"><ele>127.0</ele><time>2026-03-22T12:27:56.45Z</time></trkpt><trkpt lat="46.0881067" lon="13.0566933"><ele>127.0</ele><time>2026-03-22T12:27:57.451Z</time></trkpt><trkpt lat="46.08816" lon="13.056965"><ele>127.0</ele><time>2026-03-22T12:27:58.451Z</time></trkpt><trkpt lat="46.0882183" lon="13.0572367"><ele>127.0</ele><time>2026-03-22T12:27:59.452Z</time></trkpt><trkpt lat="46.0882817" lon="13.0575117"><ele>127.0</ele><time>2026-03-22T12:28:00.451Z</time></trkpt><trkpt lat="46.088345" lon="13.0577917"><ele>127.0</ele><time>2026-03-22T12:28:01.45Z</time></trkpt><trkpt lat="46.0884033" lon="13.0580767"><ele>127.0</ele><time>2026-03-22T12:28:02.45Z</time></trkpt><trkpt lat="46.0884617" lon="13.058365"><ele>126.66666666666667</ele><time>2026-03-22T12:28:03.452Z</time></trkpt><trkpt lat="46.088525" lon="13.058655"><ele>126.33333333333334</ele><time>2026-03-22T12:28:04.45Z</time></trkpt><trkpt lat="46.0885867" lon="13.058945"><ele>126.0</ele><time>2026-03-22T12:28:05.45Z</time></trkpt><trkpt lat="46.0886517" lon="13.0592317"><ele>126.0</ele><time>2026-03-22T12:28:06.449Z</time></trkpt><trkpt lat="46.0887133" lon="13.05951"><ele>126.0</ele><time>2026-03-22T12:28:07.451Z</time></trkpt><trkpt lat="46.0887767" lon="13.0597883"><ele>126.0</ele><time>2026-03-22T12:28:08.45Z</time></trkpt><trkpt lat="46.0888383" lon="13.0600683"><ele>126.0</ele><time>2026-03-22T12:28:09.451Z</time></trkpt><trkpt lat="46.0888983" lon="13.0603467"><ele>126.0</ele><time>2026-03-22T12:28:10.45Z</time></trkpt><trkpt lat="46.0889617" lon="13.0606217"><ele>126.0</ele><time>2026-03-22T12:28:11.45Z</time></trkpt><trkpt lat="46.0890183" lon="13.0608917"><ele>126.0</ele><time>2026-03-22T12:28:12.45Z</time></trkpt><trkpt lat="46.0890767" lon="13.0611467"><ele>126.0</ele><time>2026-03-22T12:28:13.452Z</time></trkpt><trkpt lat="46.0891367" lon="13.0613967"><ele>126.0</ele><time>2026-03-22T12:28:14.45Z</time></trkpt><trkpt lat="46.089195" lon="13.0616433"><ele>127.0</ele><time>2026-03-22T12:28:15.451Z</time></trkpt><trkpt lat="46.089255" lon="13.061885"><ele>128.0</ele><time>2026-03-22T12:28:16.45Z</time></trkpt><trkpt lat="46.089315" lon="13.0621267"><ele>129.0</ele><time>2026-03-22T12:28:17.451Z</time></trkpt><trkpt lat="46.08937" lon="13.0623683"><ele>129.33333333333334</ele><time>2026-03-22T12:28:18.451Z</time></trkpt><trkpt lat="46.0894333" lon="13.0626033"><ele>129.66666666666669</ele><time>2026-03-22T12:28:19.452Z</time></trkpt><trkpt lat="46.0894783" lon="13.0628283"><ele>130.0</ele><time>2026-03-22T12:28:20.451Z</time></trkpt><trkpt lat="46.0895267" lon="13.0630417"><ele>130.0</ele><time>2026-03-22T12:28:21.455Z</time></trkpt><trkpt lat="46.089575" lon="13.063255"><ele>130.0</ele><time>2026-03-22T12:28:22.452Z</time></trkpt><trkpt lat="46.0896283" lon="13.0634767"><ele>130.0</ele><time>2026-03-22T12:28:23.452Z</time></trkpt><trkpt lat="46.0896767" lon="13.0637017"><ele>130.0</ele><time>2026-03-22T12:28:24.452Z</time></trkpt><trkpt lat="46.0897267" lon="13.063925"><ele>130.0</ele><time>2026-03-22T12:28:25.452Z</time></trkpt><trkpt lat="46.0897733" lon="13.0641467"><ele>130.0</ele><time>2026-03-22T12:28:26.452Z</time></trkpt><trkpt lat="46.0898217" lon="13.064365"><ele>130.0</ele><time>2026-03-22T12:28:27.452Z</time></trkpt><trkpt lat="46.0898667" lon="13.064575"><ele>130.0</ele><time>2026-03-22T12:28:28.451Z</time></trkpt><trkpt lat="46.0899117" lon="13.0647817"><ele>130.0</ele><time>2026-03-22T12:28:29.451Z</time></trkpt><trkpt lat="46.0899517" lon="13.0649783"><ele>130.0</ele><time>2026-03-22T12:28:30.449Z</time></trkpt><trkpt lat="46.0899917" lon="13.0651683"><ele>130.0</ele><time>2026-03-22T12:28:31.45Z</time></trkpt><trkpt lat="46.09003" lon="13.0653483"><ele>130.0</ele><time>2026-03-22T12:28:32.45Z</time></trkpt><trkpt lat="46.09007" lon="13.0655233"><ele>130.0</ele><time>2026-03-22T12:28:33.451Z</time></trkpt><trkpt lat="46.0901083" lon="13.06569"><ele>130.0</ele><time>2026-03-22T12:28:34.449Z</time></trkpt><trkpt lat="46.0901417" lon="13.0658583"><ele>129.8</ele><time>2026-03-22T12:28:35.449Z</time></trkpt><trkpt lat="46.090175" lon="13.0660183"><ele>129.6</ele><time>2026-03-22T12:28:36.45Z</time></trkpt><trkpt lat="46.0902133" lon="13.0661767"><ele>129.4</ele><time>2026-03-22T12:28:37.45Z</time></trkpt><trkpt lat="46.0902583" lon="13.066325"><ele>129.2</ele><time>2026-03-22T12:28:38.451Z</time></trkpt><trkpt lat="46.090315" lon="13.0664467"><ele>129.0</ele><time>2026-03-22T12:28:39.45Z</time></trkpt><trkpt lat="46.090365" lon="13.0665433"><ele>129.16666666666666</ele><time>2026-03-22T12:28:40.45Z</time></trkpt><trkpt lat="46.090435" lon="13.0666517"><ele>129.33333333333334</ele><time>2026-03-22T12:28:42.45Z</time></trkpt><trkpt lat="46.0904833" lon="13.0667233"><ele>129.5</ele><time>2026-03-22T12:28:44.45Z</time></trkpt><trkpt lat="46.09054" lon="13.0667817"><ele>129.66666666666669</ele><time>2026-03-22T12:28:47.45Z</time></trkpt><trkpt lat="46.090615" lon="13.0668517"><ele>129.83333333333334</ele><time>2026-03-22T12:28:51.451Z</time></trkpt><trkpt lat="46.090705" lon="13.0669217"><ele>130.0</ele><time>2026-03-22T12:28:53.451Z</time></trkpt><trkpt lat="46.090805" lon="13.0670283"><ele>130.16666666666669</ele><time>2026-03-22T12:28:55.451Z</time></trkpt><trkpt lat="46.0908533" lon="13.0670917"><ele>130.33333333333334</ele><time>2026-03-22T12:28:56.451Z</time></trkpt><trkpt lat="46.0909133" lon="13.06716"><ele>130.5</ele><time>2026-03-22T12:28:57.454Z</time></trkpt><trkpt lat="46.0909867" lon="13.06723"><ele>130.66666666666666</ele><time>2026-03-22T12:28:58.45Z</time></trkpt><trkpt lat="46.0910583" lon="13.0673067"><ele>130.83333333333331</ele><time>2026-03-22T12:28:59.45Z</time></trkpt><trkpt lat="46.091125" lon="13.0673867"><ele>131.0</ele><time>2026-03-22T12:29:00.45Z</time></trkpt><trkpt lat="46.091185" lon="13.0674767"><ele>131.2</ele><time>2026-03-22T12:29:01.45Z</time></trkpt><trkpt lat="46.091255" lon="13.067565"><ele>131.39999999999998</ele><time>2026-03-22T12:29:02.452Z</time></trkpt><trkpt lat="46.0913267" lon="13.067665"><ele>131.6</ele><time>2026-03-22T12:29:03.451Z</time></trkpt><trkpt lat="46.0913917" lon="13.067785"><ele>131.79999999999998</ele><time>2026-03-22T12:29:04.45Z</time></trkpt><trkpt lat="46.0914633" lon="13.0679167"><ele>132.0</ele><time>2026-03-22T12:29:05.45Z</time></trkpt><trkpt lat="46.0915317" lon="13.0680733"><ele>132.0</ele><time>2026-03-22T12:29:06.45Z</time></trkpt><trkpt lat="46.0915883" lon="13.0682483"><ele>132.0</ele><time>2026-03-22T12:29:07.45Z</time></trkpt><trkpt lat="46.0916483" lon="13.06842"><ele>132.0</ele><time>2026-03-22T12:29:08.449Z</time></trkpt><trkpt lat="46.0917133" lon="13.068595"><ele>132.0</ele><time>2026-03-22T12:29:09.451Z</time></trkpt><trkpt lat="46.0917683" lon="13.0687733"><ele>132.25</ele><time>2026-03-22T12:29:10.449Z</time></trkpt><trkpt lat="46.091825" lon="13.0689667"><ele>132.5</ele><time>2026-03-22T12:29:11.45Z</time></trkpt><trkpt lat="46.0918717" lon="13.0691667"><ele>132.75</ele><time>2026-03-22T12:29:12.45Z</time></trkpt><trkpt lat="46.091915" lon="13.0693783"><ele>133.0</ele><time>2026-03-22T12:29:13.45Z</time></trkpt><trkpt lat="46.0919517" lon="13.0695967"><ele>133.0</ele><time>2026-03-22T12:29:14.448Z</time></trkpt><trkpt lat="46.091995" lon="13.0698167"><ele>133.0</ele><time>2026-03-22T12:29:15.451Z</time></trkpt><trkpt lat="46.0920533" lon="13.0700467"><ele>133.0</ele><time>2026-03-22T12:29:16.45Z</time></trkpt><trkpt lat="46.0921067" lon="13.0702783"><ele>133.0</ele><time>2026-03-22T12:29:17.45Z</time></trkpt><trkpt lat="46.092155" lon="13.0705083"><ele>133.0</ele><time>2026-03-22T12:29:18.451Z</time></trkpt><trkpt lat="46.0922067" lon="13.07074"><ele>133.0</ele><time>2026-03-22T12:29:19.45Z</time></trkpt><trkpt lat="46.09226" lon="13.0709717"><ele>133.0</ele><time>2026-03-22T12:29:20.45Z</time></trkpt><trkpt lat="46.0923133" lon="13.0712067"><ele>133.0</ele><time>2026-03-22T12:29:21.451Z</time></trkpt><trkpt lat="46.092365" lon="13.071445"><ele>133.0</ele><time>2026-03-22T12:29:22.451Z</time></trkpt><trkpt lat="46.0924167" lon="13.071685"><ele>133.33333333333334</ele><time>2026-03-22T12:29:23.45Z</time></trkpt><trkpt lat="46.0924717" lon="13.0719233"><ele>133.66666666666666</ele><time>2026-03-22T12:29:24.45Z</time></trkpt><trkpt lat="46.092525" lon="13.0721633"><ele>134.0</ele><time>2026-03-22T12:29:25.451Z</time></trkpt><trkpt lat="46.0925767" lon="13.0724"><ele>133.66666666666666</ele><time>2026-03-22T12:29:26.45Z</time></trkpt><trkpt lat="46.0926283" lon="13.0726433"><ele>133.33333333333334</ele><time>2026-03-22T12:29:27.451Z</time></trkpt><trkpt lat="46.0926817" lon="13.0728933"><ele>133.0</ele><time>2026-03-22T12:29:28.449Z</time></trkpt><trkpt lat="46.092735" lon="13.0731583"><ele>133.0</ele><time>2026-03-22T12:29:29.45Z</time></trkpt><trkpt lat="46.0927933" lon="13.0734417"><ele>133.0</ele><time>2026-03-22T12:29:30.45Z</time></trkpt><trkpt lat="46.0928617" lon="13.0737433"><ele>133.0</ele><time>2026-03-22T12:29:31.451Z</time></trkpt><trkpt lat="46.092935" lon="13.07406"><ele>133.0</ele><time>2026-03-22T12:29:32.451Z</time></trkpt><trkpt lat="46.0930183" lon="13.0743917"><ele>133.0</ele><time>2026-03-22T12:29:33.451Z</time></trkpt><trkpt lat="46.0930983" lon="13.0747367"><ele>132.0</ele><time>2026-03-22T12:29:34.45Z</time></trkpt><trkpt lat="46.093165" lon="13.0750867"><ele>131.0</ele><time>2026-03-22T12:29:35.449Z</time></trkpt><trkpt lat="46.0932433" lon="13.07543"><ele>130.5</ele><time>2026-03-22T12:29:36.452Z</time></trkpt><trkpt lat="46.0933133" lon="13.0757717"><ele>130.0</ele><time>2026-03-22T12:29:37.451Z</time></trkpt><trkpt lat="46.0933833" lon="13.07611"><ele>130.0</ele><time>2026-03-22T12:29:38.45Z</time></trkpt><trkpt lat="46.0934483" lon="13.07644"><ele>130.0</ele><time>2026-03-22T12:29:39.452Z</time></trkpt><trkpt lat="46.09352" lon="13.0767633"><ele>130.66666666666669</ele><time>2026-03-22T12:29:40.451Z</time></trkpt><trkpt lat="46.0935883" lon="13.077075"><ele>131.33333333333334</ele><time>2026-03-22T12:29:41.451Z</time></trkpt><trkpt lat="46.0936533" lon="13.0773767"><ele>132.0</ele><time>2026-03-22T12:29:42.451Z</time></trkpt><trkpt lat="46.0937233" lon="13.0776717"><ele>132.0</ele><time>2026-03-22T12:29:43.45Z</time></trkpt><trkpt lat="46.09379" lon="13.0779717"><ele>132.0</ele><time>2026-03-22T12:29:44.451Z</time></trkpt><trkpt lat="46.0938567" lon="13.0782783"><ele>132.0</ele><time>2026-03-22T12:29:45.45Z</time></trkpt><trkpt lat="46.0939267" lon="13.0785833"><ele>131.5</ele><time>2026-03-22T12:29:46.451Z</time></trkpt><trkpt lat="46.0939983" lon="13.0788883"><ele>131.0</ele><time>2026-03-22T12:29:47.45Z</time></trkpt><trkpt lat="46.09407" lon="13.0792"><ele>132.0</ele><time>2026-03-22T12:29:48.45Z</time></trkpt><trkpt lat="46.0941517" lon="13.07952"><ele>133.0</ele><time>2026-03-22T12:29:49.45Z</time></trkpt><trkpt lat="46.094245" lon="13.0798467"><ele>134.0</ele><time>2026-03-22T12:29:50.45Z</time></trkpt><trkpt lat="46.0943433" lon="13.0801783"><ele>135.0</ele><time>2026-03-22T12:29:51.45Z</time></trkpt><trkpt lat="46.09445" lon="13.08052"><ele>135.0</ele><time>2026-03-22T12:29:52.456Z</time></trkpt><trkpt lat="46.094555" lon="13.0808767"><ele>135.0</ele><time>2026-03-22T12:29:53.451Z</time></trkpt><trkpt lat="46.0946567" lon="13.0812467"><ele>135.0</ele><time>2026-03-22T12:29:54.451Z</time></trkpt><trkpt lat="46.0947683" lon="13.0816217"><ele>135.0</ele><time>2026-03-22T12:29:55.449Z</time></trkpt><trkpt lat="46.0948817" lon="13.0820033"><ele>135.0</ele><time>2026-03-22T12:29:56.452Z</time></trkpt><trkpt lat="46.0949933" lon="13.082375"><ele>135.0</ele><time>2026-03-22T12:29:57.452Z</time></trkpt><trkpt lat="46.0951033" lon="13.0827317"><ele>135.0</ele><time>2026-03-22T12:29:58.45Z</time></trkpt><trkpt lat="46.0952133" lon="13.0830783"><ele>135.0</ele><time>2026-03-22T12:29:59.45Z</time></trkpt><trkpt lat="46.0953167" lon="13.0834133"><ele>135.0</ele><time>2026-03-22T12:30:00.451Z</time></trkpt><trkpt lat="46.0954183" lon="13.083735"><ele>135.0</ele><time>2026-03-22T12:30:01.45Z</time></trkpt><trkpt lat="46.0955167" lon="13.0840517"><ele>134.0</ele><time>2026-03-22T12:30:02.448Z</time></trkpt><trkpt lat="46.0956117" lon="13.0843667"><ele>133.0</ele><time>2026-03-22T12:30:03.452Z</time></trkpt><trkpt lat="46.09571" lon="13.0846817"><ele>134.0</ele><time>2026-03-22T12:30:04.449Z</time></trkpt><trkpt lat="46.0958067" lon="13.0850017"><ele>135.0</ele><time>2026-03-22T12:30:05.45Z</time></trkpt><trkpt lat="46.0959067" lon="13.0853217"><ele>135.0</ele><time>2026-03-22T12:30:06.451Z</time></trkpt><trkpt lat="46.0960083" lon="13.08564"><ele>135.0</ele><time>2026-03-22T12:30:07.451Z</time></trkpt><trkpt lat="46.0961083" lon="13.0859517"><ele>135.5</ele><time>2026-03-22T12:30:08.451Z</time></trkpt><trkpt lat="46.0962033" lon="13.08626"><ele>136.0</ele><time>2026-03-22T12:30:09.452Z</time></trkpt><trkpt lat="46.0962967" lon="13.0865617"><ele>136.5</ele><time>2026-03-22T12:30:10.451Z</time></trkpt><trkpt lat="46.0963917" lon="13.08686"><ele>137.0</ele><time>2026-03-22T12:30:11.451Z</time></trkpt><trkpt lat="46.0964833" lon="13.0871633"><ele>137.0</ele><time>2026-03-22T12:30:12.45Z</time></trkpt><trkpt lat="46.0965717" lon="13.0874617"><ele>137.0</ele><time>2026-03-22T12:30:13.449Z</time></trkpt><trkpt lat="46.09666" lon="13.0877667"><ele>137.0</ele><time>2026-03-22T12:30:14.45Z</time></trkpt><trkpt lat="46.0967417" lon="13.0880783"><ele>137.0</ele><time>2026-03-22T12:30:15.45Z</time></trkpt><trkpt lat="46.0968217" lon="13.0883983"><ele>137.0</ele><time>2026-03-22T12:30:16.45Z</time></trkpt><trkpt lat="46.0969017" lon="13.0887233"><ele>137.0</ele><time>2026-03-22T12:30:17.45Z</time></trkpt><trkpt lat="46.0969817" lon="13.0890533"><ele>136.5</ele><time>2026-03-22T12:30:18.452Z</time></trkpt><trkpt lat="46.0970583" lon="13.0893917"><ele>136.0</ele><time>2026-03-22T12:30:19.451Z</time></trkpt><trkpt lat="46.0971367" lon="13.08973"><ele>136.5</ele><time>2026-03-22T12:30:20.451Z</time></trkpt><trkpt lat="46.097215" lon="13.09007"><ele>137.0</ele><time>2026-03-22T12:30:21.451Z</time></trkpt><trkpt lat="46.0972883" lon="13.090415"><ele>137.0</ele><time>2026-03-22T12:30:22.45Z</time></trkpt><trkpt lat="46.0973567" lon="13.0907567"><ele>137.0</ele><time>2026-03-22T12:30:23.449Z</time></trkpt><trkpt lat="46.097425" lon="13.0910983"><ele>138.0</ele><time>2026-03-22T12:30:24.45Z</time></trkpt><trkpt lat="46.09749" lon="13.0914433"><ele>139.0</ele><time>2026-03-22T12:30:25.449Z</time></trkpt><trkpt lat="46.09756" lon="13.09178"><ele>139.0</ele><time>2026-03-22T12:30:26.452Z</time></trkpt><trkpt lat="46.0976333" lon="13.092115"><ele>139.0</ele><time>2026-03-22T12:30:27.451Z</time></trkpt><trkpt lat="46.0977033" lon="13.09245"><ele>138.5</ele><time>2026-03-22T12:30:28.448Z</time></trkpt><trkpt lat="46.0977717" lon="13.0927817"><ele>138.0</ele><time>2026-03-22T12:30:29.451Z</time></trkpt><trkpt lat="46.097835" lon="13.0931017"><ele>137.66666666666666</ele><time>2026-03-22T12:30:30.45Z</time></trkpt><trkpt lat="46.0978917" lon="13.0934067"><ele>137.33333333333331</ele><time>2026-03-22T12:30:31.45Z</time></trkpt><trkpt lat="46.0979433" lon="13.0937083"><ele>137.0</ele><time>2026-03-22T12:30:32.45Z</time></trkpt><trkpt lat="46.0979867" lon="13.0940083"><ele>137.33333333333331</ele><time>2026-03-22T12:30:33.451Z</time></trkpt><trkpt lat="46.0980217" lon="13.0943033"><ele>137.66666666666666</ele><time>2026-03-22T12:30:34.45Z</time></trkpt><trkpt lat="46.0980467" lon="13.0945917"><ele>138.0</ele><time>2026-03-22T12:30:35.451Z</time></trkpt><trkpt lat="46.0980783" lon="13.09487"><ele>137.66666666666666</ele><time>2026-03-22T12:30:36.45Z</time></trkpt><trkpt lat="46.0980983" lon="13.095135"><ele>137.33333333333331</ele><time>2026-03-22T12:30:37.451Z</time></trkpt><trkpt lat="46.0981233" lon="13.0953883"><ele>137.0</ele><time>2026-03-22T12:30:38.449Z</time></trkpt><trkpt lat="46.0981433" lon="13.095625"><ele>137.0</ele><time>2026-03-22T12:30:39.451Z</time></trkpt><trkpt lat="46.0981617" lon="13.0958483"><ele>137.0</ele><time>2026-03-22T12:30:40.452Z</time></trkpt><trkpt lat="46.098185" lon="13.0960517"><ele>137.0</ele><time>2026-03-22T12:30:41.449Z</time></trkpt><trkpt lat="46.09821" lon="13.0962267"><ele>137.0</ele><time>2026-03-22T12:30:42.45Z</time></trkpt><trkpt lat="46.09824" lon="13.096365"><ele>137.0</ele><time>2026-03-22T12:30:43.451Z</time></trkpt><trkpt lat="46.0982667" lon="13.0964883"><ele>137.0</ele><time>2026-03-22T12:30:44.452Z</time></trkpt><trkpt lat="46.0982867" lon="13.0966233"><ele>137.0</ele><time>2026-03-22T12:30:45.451Z</time></trkpt><trkpt lat="46.0982917" lon="13.0967667"><ele>137.0</ele><time>2026-03-22T12:30:46.45Z</time></trkpt><trkpt lat="46.0982717" lon="13.0969183"><ele>137.0</ele><time>2026-03-22T12:30:47.449Z</time></trkpt><trkpt lat="46.0982667" lon="13.0970733"><ele>137.25</ele><time>2026-03-22T12:30:48.45Z</time></trkpt><trkpt lat="46.09829" lon="13.0972267"><ele>137.5</ele><time>2026-03-22T12:30:49.449Z</time></trkpt><trkpt lat="46.09833" lon="13.0973783"><ele>137.75</ele><time>2026-03-22T12:30:50.448Z</time></trkpt><trkpt lat="46.098355" lon="13.0975433"><ele>138.0</ele><time>2026-03-22T12:30:51.451Z</time></trkpt><trkpt lat="46.0983483" lon="13.0977183"><ele>138.0</ele><time>2026-03-22T12:30:52.449Z</time></trkpt><trkpt lat="46.09833" lon="13.0978883"><ele>138.0</ele><time>2026-03-22T12:30:53.449Z</time></trkpt><trkpt lat="46.098325" lon="13.09806"><ele>138.0</ele><time>2026-03-22T12:30:54.451Z</time></trkpt><trkpt lat="46.0983383" lon="13.0982417"><ele>138.0</ele><time>2026-03-22T12:30:55.45Z</time></trkpt><trkpt lat="46.0983567" lon="13.0984267"><ele>138.0</ele><time>2026-03-22T12:30:56.449Z</time></trkpt><trkpt lat="46.0983767" lon="13.0986233"><ele>138.0</ele><time>2026-03-22T12:30:57.45Z</time></trkpt><trkpt lat="46.0983933" lon="13.0988167"><ele>138.0</ele><time>2026-03-22T12:30:58.45Z</time></trkpt><trkpt lat="46.0984067" lon="13.0990133"><ele>138.0</ele><time>2026-03-22T12:30:59.451Z</time></trkpt><trkpt lat="46.0984217" lon="13.0992167"><ele>137.33333333333334</ele><time>2026-03-22T12:31:00.448Z</time></trkpt><trkpt lat="46.0984383" lon="13.0994333"><ele>136.66666666666669</ele><time>2026-03-22T12:31:01.45Z</time></trkpt><trkpt lat="46.098455" lon="13.099655"><ele>136.0</ele><time>2026-03-22T12:31:02.45Z</time></trkpt><trkpt lat="46.0984767" lon="13.0998817"><ele>136.33333333333334</ele><time>2026-03-22T12:31:03.451Z</time></trkpt><trkpt lat="46.098495" lon="13.1001083"><ele>136.66666666666666</ele><time>2026-03-22T12:31:04.449Z</time></trkpt><trkpt lat="46.0985117" lon="13.10034"><ele>137.0</ele><time>2026-03-22T12:31:05.451Z</time></trkpt><trkpt lat="46.0985333" lon="13.100575"><ele>136.66666666666666</ele><time>2026-03-22T12:31:06.45Z</time></trkpt><trkpt lat="46.0985517" lon="13.10081"><ele>136.33333333333334</ele><time>2026-03-22T12:31:07.45Z</time></trkpt><trkpt lat="46.0985717" lon="13.10105"><ele>136.0</ele><time>2026-03-22T12:31:08.449Z</time></trkpt><trkpt lat="46.09859" lon="13.101295"><ele>136.0</ele><time>2026-03-22T12:31:09.45Z</time></trkpt><trkpt lat="46.09861" lon="13.1015433"><ele>136.0</ele><time>2026-03-22T12:31:10.45Z</time></trkpt><trkpt lat="46.098625" lon="13.10179"><ele>136.0</ele><time>2026-03-22T12:31:11.449Z</time></trkpt><trkpt lat="46.0986433" lon="13.1020317"><ele>136.0</ele><time>2026-03-22T12:31:12.451Z</time></trkpt><trkpt lat="46.0986633" lon="13.1022717"><ele>136.0</ele><time>2026-03-22T12:31:13.45Z</time></trkpt><trkpt lat="46.098685" lon="13.102505"><ele>136.0</ele><time>2026-03-22T12:31:14.452Z</time></trkpt><trkpt lat="46.0987067" lon="13.1027217"><ele>136.0</ele><time>2026-03-22T12:31:15.45Z</time></trkpt><trkpt lat="46.0987167" lon="13.1029083"><ele>136.0</ele><time>2026-03-22T12:31:16.45Z</time></trkpt><trkpt lat="46.0987267" lon="13.10305"><ele>136.0</ele><time>2026-03-22T12:31:17.45Z</time></trkpt><trkpt lat="46.0987333" lon="13.1031583"><ele>136.0</ele><time>2026-03-22T12:31:18.45Z</time></trkpt><trkpt lat="46.0987467" lon="13.1032983"><ele>136.0</ele><time>2026-03-22T12:31:20.45Z</time></trkpt><trkpt lat="46.0987567" lon="13.1033917"><ele>136.16666666666669</ele><time>2026-03-22T12:31:22.45Z</time></trkpt><trkpt lat="46.098765" lon="13.1034983"><ele>136.33333333333334</ele><time>2026-03-22T12:31:24.45Z</time></trkpt><trkpt lat="46.0987717" lon="13.1035933"><ele>136.5</ele><time>2026-03-22T12:31:25.45Z</time></trkpt><trkpt lat="46.0987817" lon="13.1037033"><ele>136.66666666666666</ele><time>2026-03-22T12:31:26.449Z</time></trkpt><trkpt lat="46.0987933" lon="13.1038233"><ele>136.83333333333331</ele><time>2026-03-22T12:31:27.452Z</time></trkpt><trkpt lat="46.0988067" lon="13.10395"><ele>137.0</ele><time>2026-03-22T12:31:28.449Z</time></trkpt><trkpt lat="46.0988167" lon="13.1040883"><ele>137.25</ele><time>2026-03-22T12:31:29.449Z</time></trkpt><trkpt lat="46.0988283" lon="13.1042367"><ele>137.5</ele><time>2026-03-22T12:31:30.452Z</time></trkpt><trkpt lat="46.09884" lon="13.1043967"><ele>137.75</ele><time>2026-03-22T12:31:31.452Z</time></trkpt><trkpt lat="46.0988533" lon="13.1045717"><ele>138.0</ele><time>2026-03-22T12:31:32.451Z</time></trkpt><trkpt lat="46.0988667" lon="13.104765"><ele>138.0</ele><time>2026-03-22T12:31:33.452Z</time></trkpt><trkpt lat="46.098885" lon="13.1049633"><ele>138.0</ele><time>2026-03-22T12:31:34.452Z</time></trkpt><trkpt lat="46.098905" lon="13.1051583"><ele>138.0</ele><time>2026-03-22T12:31:35.451Z</time></trkpt><trkpt lat="46.0989283" lon="13.1053667"><ele>138.0</ele><time>2026-03-22T12:31:36.452Z</time></trkpt><trkpt lat="46.0989467" lon="13.10558"><ele>138.33333333333334</ele><time>2026-03-22T12:31:37.452Z</time></trkpt><trkpt lat="46.0989567" lon="13.1058033"><ele>138.66666666666669</ele><time>2026-03-22T12:31:38.451Z</time></trkpt><trkpt lat="46.0989567" lon="13.10604"><ele>139.0</ele><time>2026-03-22T12:31:39.449Z</time></trkpt><trkpt lat="46.0989467" lon="13.10629"><ele>139.0</ele><time>2026-03-22T12:31:40.451Z</time></trkpt><trkpt lat="46.09893" lon="13.1065533"><ele>139.0</ele><time>2026-03-22T12:31:41.45Z</time></trkpt><trkpt lat="46.098905" lon="13.1068167"><ele>139.0</ele><time>2026-03-22T12:31:42.45Z</time></trkpt><trkpt lat="46.0988767" lon="13.10707"><ele>139.33333333333334</ele><time>2026-03-22T12:31:43.449Z</time></trkpt><trkpt lat="46.0988383" lon="13.1073167"><ele>139.66666666666666</ele><time>2026-03-22T12:31:44.45Z</time></trkpt><trkpt lat="46.0987967" lon="13.10757"><ele>140.0</ele><time>2026-03-22T12:31:45.452Z</time></trkpt><trkpt lat="46.0987483" lon="13.107825"><ele>140.66666666666666</ele><time>2026-03-22T12:31:46.45Z</time></trkpt><trkpt lat="46.0986983" lon="13.1080967"><ele>141.33333333333334</ele><time>2026-03-22T12:31:47.45Z</time></trkpt><trkpt lat="46.09864" lon="13.1083683"><ele>142.0</ele><time>2026-03-22T12:31:48.45Z</time></trkpt><trkpt lat="46.0985833" lon="13.10865"><ele>142.33333333333334</ele><time>2026-03-22T12:31:49.451Z</time></trkpt><trkpt lat="46.0985333" lon="13.1089317"><ele>142.66666666666666</ele><time>2026-03-22T12:31:50.45Z</time></trkpt><trkpt lat="46.0984817" lon="13.1092067"><ele>143.0</ele><time>2026-03-22T12:31:51.45Z</time></trkpt><trkpt lat="46.0984267" lon="13.1094633"><ele>143.0</ele><time>2026-03-22T12:31:52.45Z</time></trkpt><trkpt lat="46.0983717" lon="13.1097117"><ele>143.0</ele><time>2026-03-22T12:31:53.449Z</time></trkpt><trkpt lat="46.098325" lon="13.1099567"><ele>143.0</ele><time>2026-03-22T12:31:54.45Z</time></trkpt><trkpt lat="46.098275" lon="13.1102017"><ele>143.0</ele><time>2026-03-22T12:31:55.448Z</time></trkpt><trkpt lat="46.0982267" lon="13.1104483"><ele>143.0</ele><time>2026-03-22T12:31:56.45Z</time></trkpt><trkpt lat="46.0981817" lon="13.1106983"><ele>143.0</ele><time>2026-03-22T12:31:57.45Z</time></trkpt><trkpt lat="46.0981267" lon="13.1109467"><ele>143.33333333333331</ele><time>2026-03-22T12:31:58.449Z</time></trkpt><trkpt lat="46.09807" lon="13.1112017"><ele>143.66666666666666</ele><time>2026-03-22T12:31:59.45Z</time></trkpt><trkpt lat="46.0980217" lon="13.1114633"><ele>144.0</ele><time>2026-03-22T12:32:00.45Z</time></trkpt><trkpt lat="46.097975" lon="13.1117317"><ele>144.0</ele><time>2026-03-22T12:32:01.45Z</time></trkpt><trkpt lat="46.097915" lon="13.1120033"><ele>144.0</ele><time>2026-03-22T12:32:02.449Z</time></trkpt><trkpt lat="46.0978517" lon="13.1122767"><ele>144.0</ele><time>2026-03-22T12:32:03.45Z</time></trkpt><trkpt lat="46.0977883" lon="13.1125483"><ele>144.0</ele><time>2026-03-22T12:32:04.449Z</time></trkpt><trkpt lat="46.0977217" lon="13.1128117"><ele>144.0</ele><time>2026-03-22T12:32:05.45Z</time></trkpt><trkpt lat="46.0976517" lon="13.1130767"><ele>144.0</ele><time>2026-03-22T12:32:06.45Z</time></trkpt><trkpt lat="46.0975817" lon="13.113345"><ele>144.33333333333334</ele><time>2026-03-22T12:32:07.448Z</time></trkpt><trkpt lat="46.0975083" lon="13.1136133"><ele>144.66666666666669</ele><time>2026-03-22T12:32:08.45Z</time></trkpt><trkpt lat="46.0974333" lon="13.1138783"><ele>145.0</ele><time>2026-03-22T12:32:09.451Z</time></trkpt><trkpt lat="46.0973583" lon="13.114135"><ele>145.0</ele><time>2026-03-22T12:32:10.451Z</time></trkpt><trkpt lat="46.0972783" lon="13.1143883"><ele>145.0</ele><time>2026-03-22T12:32:11.45Z</time></trkpt><trkpt lat="46.0971967" lon="13.1146417"><ele>145.0</ele><time>2026-03-22T12:32:12.45Z</time></trkpt><trkpt lat="46.09711" lon="13.1148933"><ele>145.0</ele><time>2026-03-22T12:32:13.45Z</time></trkpt><trkpt lat="46.09702" lon="13.1151517"><ele>145.0</ele><time>2026-03-22T12:32:14.45Z</time></trkpt><trkpt lat="46.096925" lon="13.1154"><ele>145.0</ele><time>2026-03-22T12:32:15.45Z</time></trkpt><trkpt lat="46.09683" lon="13.1156483"><ele>145.0</ele><time>2026-03-22T12:32:16.45Z</time></trkpt><trkpt lat="46.096735" lon="13.115905"><ele>145.0</ele><time>2026-03-22T12:32:17.45Z</time></trkpt><trkpt lat="46.0966433" lon="13.1161717"><ele>145.0</ele><time>2026-03-22T12:32:18.45Z</time></trkpt><trkpt lat="46.0965483" lon="13.1164467"><ele>144.33333333333334</ele><time>2026-03-22T12:32:19.45Z</time></trkpt><trkpt lat="46.0964483" lon="13.1167183"><ele>143.66666666666666</ele><time>2026-03-22T12:32:20.449Z</time></trkpt><trkpt lat="46.096345" lon="13.116995"><ele>143.0</ele><time>2026-03-22T12:32:21.45Z</time></trkpt><trkpt lat="46.0962483" lon="13.1172817"><ele>142.66666666666666</ele><time>2026-03-22T12:32:22.451Z</time></trkpt><trkpt lat="46.0961483" lon="13.1175667"><ele>142.33333333333334</ele><time>2026-03-22T12:32:23.449Z</time></trkpt><trkpt lat="46.0960517" lon="13.1178517"><ele>142.0</ele><time>2026-03-22T12:32:24.45Z</time></trkpt><trkpt lat="46.0959567" lon="13.1181333"><ele>141.66666666666669</ele><time>2026-03-22T12:32:25.449Z</time></trkpt><trkpt lat="46.0958583" lon="13.1184067"><ele>141.33333333333334</ele><time>2026-03-22T12:32:26.45Z</time></trkpt><trkpt lat="46.0957583" lon="13.1186733"><ele>141.0</ele><time>2026-03-22T12:32:27.45Z</time></trkpt><trkpt lat="46.09565" lon="13.1189283"><ele>140.66666666666666</ele><time>2026-03-22T12:32:28.45Z</time></trkpt><trkpt lat="46.0955667" lon="13.1191833"><ele>140.33333333333331</ele><time>2026-03-22T12:32:29.453Z</time></trkpt><trkpt lat="46.0954733" lon="13.1194267"><ele>140.0</ele><time>2026-03-22T12:32:30.45Z</time></trkpt><trkpt lat="46.09538" lon="13.11967"><ele>140.0</ele><time>2026-03-22T12:32:31.449Z</time></trkpt><trkpt lat="46.0952933" lon="13.119915"><ele>140.0</ele><time>2026-03-22T12:32:32.449Z</time></trkpt><trkpt lat="46.0952233" lon="13.120165"><ele>140.0</ele><time>2026-03-22T12:32:33.451Z</time></trkpt><trkpt lat="46.09514" lon="13.120405"><ele>140.0</ele><time>2026-03-22T12:32:34.45Z</time></trkpt><trkpt lat="46.09506" lon="13.1206533"><ele>140.0</ele><time>2026-03-22T12:32:35.451Z</time></trkpt><trkpt lat="46.0949833" lon="13.1209183"><ele>140.0</ele><time>2026-03-22T12:32:36.45Z</time></trkpt><trkpt lat="46.0949067" lon="13.1211867"><ele>139.66666666666666</ele><time>2026-03-22T12:32:37.45Z</time></trkpt><trkpt lat="46.0948267" lon="13.1214617"><ele>139.33333333333334</ele><time>2026-03-22T12:32:38.45Z</time></trkpt><trkpt lat="46.0947467" lon="13.1217417"><ele>139.0</ele><time>2026-03-22T12:32:39.45Z</time></trkpt><trkpt lat="46.094665" lon="13.122035"><ele>138.33333333333334</ele><time>2026-03-22T12:32:40.45Z</time></trkpt><trkpt lat="46.0945867" lon="13.1223283"><ele>137.66666666666666</ele><time>2026-03-22T12:32:41.449Z</time></trkpt><trkpt lat="46.094515" lon="13.1226317"><ele>137.0</ele><time>2026-03-22T12:32:42.461Z</time></trkpt><trkpt lat="46.09444" lon="13.122935"><ele>137.66666666666666</ele><time>2026-03-22T12:32:43.45Z</time></trkpt><trkpt lat="46.0943583" lon="13.1232367"><ele>138.33333333333334</ele><time>2026-03-22T12:32:44.45Z</time></trkpt><trkpt lat="46.0942733" lon="13.1235333"><ele>139.0</ele><time>2026-03-22T12:32:45.449Z</time></trkpt><trkpt lat="46.0941917" lon="13.1238317"><ele>139.0</ele><time>2026-03-22T12:32:46.45Z</time></trkpt><trkpt lat="46.0941117" lon="13.1241217"><ele>139.0</ele><time>2026-03-22T12:32:47.45Z</time></trkpt><trkpt lat="46.094035" lon="13.1244017"><ele>139.0</ele><time>2026-03-22T12:32:48.45Z</time></trkpt><trkpt lat="46.0939583" lon="13.12468"><ele>139.0</ele><time>2026-03-22T12:32:49.45Z</time></trkpt><trkpt lat="46.0938833" lon="13.124955"><ele>139.0</ele><time>2026-03-22T12:32:50.451Z</time></trkpt><trkpt lat="46.093805" lon="13.1252283"><ele>139.0</ele><time>2026-03-22T12:32:51.449Z</time></trkpt><trkpt lat="46.09373" lon="13.1254883"><ele>138.66666666666669</ele><time>2026-03-22T12:32:52.45Z</time></trkpt><trkpt lat="46.093655" lon="13.125735"><ele>138.33333333333334</ele><time>2026-03-22T12:32:53.45Z</time></trkpt><trkpt lat="46.0935817" lon="13.1259683"><ele>138.0</ele><time>2026-03-22T12:32:54.451Z</time></trkpt><trkpt lat="46.0935067" lon="13.1262"><ele>138.0</ele><time>2026-03-22T12:32:55.449Z</time></trkpt><trkpt lat="46.0934317" lon="13.1264317"><ele>138.0</ele><time>2026-03-22T12:32:56.449Z</time></trkpt><trkpt lat="46.0933583" lon="13.1266583"><ele>138.0</ele><time>2026-03-22T12:32:57.451Z</time></trkpt><trkpt lat="46.0932833" lon="13.126875"><ele>137.66666666666666</ele><time>2026-03-22T12:32:58.45Z</time></trkpt><trkpt lat="46.093215" lon="13.1270817"><ele>137.33333333333331</ele><time>2026-03-22T12:32:59.449Z</time></trkpt><trkpt lat="46.0931483" lon="13.127275"><ele>137.0</ele><time>2026-03-22T12:33:00.45Z</time></trkpt><trkpt lat="46.0930817" lon="13.1274583"><ele>136.75</ele><time>2026-03-22T12:33:01.45Z</time></trkpt><trkpt lat="46.09302" lon="13.1276383"><ele>136.5</ele><time>2026-03-22T12:33:02.45Z</time></trkpt><trkpt lat="46.09296" lon="13.1278217"><ele>136.25</ele><time>2026-03-22T12:33:03.45Z</time></trkpt><trkpt lat="46.0928967" lon="13.1280033"><ele>136.0</ele><time>2026-03-22T12:33:04.45Z</time></trkpt><trkpt lat="46.09284" lon="13.1281833"><ele>136.0</ele><time>2026-03-22T12:33:05.45Z</time></trkpt><trkpt lat="46.09278" lon="13.1283583"><ele>136.0</ele><time>2026-03-22T12:33:06.45Z</time></trkpt><trkpt lat="46.09272" lon="13.12853"><ele>136.0</ele><time>2026-03-22T12:33:07.45Z</time></trkpt><trkpt lat="46.0926617" lon="13.1286967"><ele>136.0</ele><time>2026-03-22T12:33:08.45Z</time></trkpt><trkpt lat="46.0926067" lon="13.12886"><ele>136.0</ele><time>2026-03-22T12:33:09.45Z</time></trkpt><trkpt lat="46.0925483" lon="13.1290167"><ele>136.0</ele><time>2026-03-22T12:33:10.45Z</time></trkpt><trkpt lat="46.092495" lon="13.1291683"><ele>136.0</ele><time>2026-03-22T12:33:11.45Z</time></trkpt><trkpt lat="46.09244" lon="13.1293217"><ele>136.0</ele><time>2026-03-22T12:33:12.451Z</time></trkpt><trkpt lat="46.0923867" lon="13.129475"><ele>135.5</ele><time>2026-03-22T12:33:13.45Z</time></trkpt><trkpt lat="46.0923333" lon="13.12963"><ele>135.0</ele><time>2026-03-22T12:33:14.449Z</time></trkpt><trkpt lat="46.0922833" lon="13.1297933"><ele>134.5</ele><time>2026-03-22T12:33:15.451Z</time></trkpt><trkpt lat="46.0922283" lon="13.1299483"><ele>134.0</ele><time>2026-03-22T12:33:16.459Z</time></trkpt><trkpt lat="46.0921767" lon="13.1300983"><ele>134.0</ele><time>2026-03-22T12:33:17.45Z</time></trkpt><trkpt lat="46.092125" lon="13.1302417"><ele>134.0</ele><time>2026-03-22T12:33:18.449Z</time></trkpt><trkpt lat="46.0920767" lon="13.1303833"><ele>134.0</ele><time>2026-03-22T12:33:19.45Z</time></trkpt><trkpt lat="46.0920367" lon="13.1305183"><ele>134.0</ele><time>2026-03-22T12:33:20.45Z</time></trkpt><trkpt lat="46.0920017" lon="13.130655"><ele>134.0</ele><time>2026-03-22T12:33:21.45Z</time></trkpt><trkpt lat="46.0919667" lon="13.1308017"><ele>133.75</ele><time>2026-03-22T12:33:22.45Z</time></trkpt><trkpt lat="46.09193" lon="13.1309633"><ele>133.5</ele><time>2026-03-22T12:33:23.449Z</time></trkpt><trkpt lat="46.0918933" lon="13.13113"><ele>133.25</ele><time>2026-03-22T12:33:24.451Z</time></trkpt><trkpt lat="46.0918517" lon="13.131305"><ele>133.0</ele><time>2026-03-22T12:33:25.45Z</time></trkpt><trkpt lat="46.0918117" lon="13.1314933"><ele>133.33333333333334</ele><time>2026-03-22T12:33:26.45Z</time></trkpt><trkpt lat="46.0917733" lon="13.1317"><ele>133.66666666666666</ele><time>2026-03-22T12:33:27.45Z</time></trkpt><trkpt lat="46.0917367" lon="13.1319167"><ele>134.0</ele><time>2026-03-22T12:33:28.45Z</time></trkpt><trkpt lat="46.09169" lon="13.1321533"><ele>133.66666666666666</ele><time>2026-03-22T12:33:29.45Z</time></trkpt><trkpt lat="46.0916417" lon="13.132405"><ele>133.33333333333334</ele><time>2026-03-22T12:33:30.449Z</time></trkpt><trkpt lat="46.0916017" lon="13.1326717"><ele>133.0</ele><time>2026-03-22T12:33:31.45Z</time></trkpt><trkpt lat="46.0915633" lon="13.1329333"><ele>132.33333333333334</ele><time>2026-03-22T12:33:32.451Z</time></trkpt><trkpt lat="46.0915183" lon="13.133195"><ele>131.66666666666666</ele><time>2026-03-22T12:33:33.45Z</time></trkpt><trkpt lat="46.091475" lon="13.13345"><ele>131.0</ele><time>2026-03-22T12:33:34.448Z</time></trkpt><trkpt lat="46.0914283" lon="13.1337133"><ele>130.33333333333331</ele><time>2026-03-22T12:33:35.45Z</time></trkpt><trkpt lat="46.0913833" lon="13.1339783"><ele>129.66666666666666</ele><time>2026-03-22T12:33:36.449Z</time></trkpt><trkpt lat="46.091345" lon="13.1342467"><ele>129.0</ele><time>2026-03-22T12:33:37.45Z</time></trkpt><trkpt lat="46.0913017" lon="13.1345083"><ele>129.0</ele><time>2026-03-22T12:33:38.45Z</time></trkpt><trkpt lat="46.09126" lon="13.13477"><ele>129.0</ele><time>2026-03-22T12:33:39.451Z</time></trkpt><trkpt lat="46.0912183" lon="13.1350333"><ele>129.0</ele><time>2026-03-22T12:33:40.45Z</time></trkpt><trkpt lat="46.0911783" lon="13.1352933"><ele>129.0</ele><time>2026-03-22T12:33:41.45Z</time></trkpt><trkpt lat="46.091135" lon="13.135555"><ele>129.0</ele><time>2026-03-22T12:33:42.449Z</time></trkpt><trkpt lat="46.09109" lon="13.135815"><ele>129.0</ele><time>2026-03-22T12:33:43.45Z</time></trkpt><trkpt lat="46.091045" lon="13.1360717"><ele>129.0</ele><time>2026-03-22T12:33:44.45Z</time></trkpt><trkpt lat="46.0910017" lon="13.13633"><ele>129.0</ele><time>2026-03-22T12:33:45.449Z</time></trkpt><trkpt lat="46.09096" lon="13.1365883"><ele>129.0</ele><time>2026-03-22T12:33:46.45Z</time></trkpt><trkpt lat="46.090915" lon="13.1368483"><ele>128.66666666666666</ele><time>2026-03-22T12:33:47.45Z</time></trkpt><trkpt lat="46.0908733" lon="13.1371183"><ele>128.33333333333331</ele><time>2026-03-22T12:33:48.451Z</time></trkpt><trkpt lat="46.0908267" lon="13.1374017"><ele>128.0</ele><time>2026-03-22T12:33:49.45Z</time></trkpt><trkpt lat="46.0907817" lon="13.1376817"><ele>127.66666666666666</ele><time>2026-03-22T12:33:50.45Z</time></trkpt><trkpt lat="46.090735" lon="13.1379517"><ele>127.33333333333334</ele><time>2026-03-22T12:33:51.45Z</time></trkpt><trkpt lat="46.0906883" lon="13.138225"><ele>127.0</ele><time>2026-03-22T12:33:52.449Z</time></trkpt><trkpt lat="46.0906467" lon="13.1384933"><ele>127.0</ele><time>2026-03-22T12:33:53.449Z</time></trkpt><trkpt lat="46.0905983" lon="13.1387583"><ele>127.0</ele><time>2026-03-22T12:33:54.45Z</time></trkpt><trkpt lat="46.090555" lon="13.1390133"><ele>127.0</ele><time>2026-03-22T12:33:55.45Z</time></trkpt><trkpt lat="46.0905133" lon="13.1392633"><ele>127.0</ele><time>2026-03-22T12:33:56.45Z</time></trkpt><trkpt lat="46.0904733" lon="13.1395133"><ele>127.0</ele><time>2026-03-22T12:33:57.451Z</time></trkpt><trkpt lat="46.0904333" lon="13.1397617"><ele>127.0</ele><time>2026-03-22T12:33:58.45Z</time></trkpt><trkpt lat="46.0903917" lon="13.14002"><ele>127.33333333333334</ele><time>2026-03-22T12:33:59.45Z</time></trkpt><trkpt lat="46.0903533" lon="13.1402767"><ele>127.66666666666666</ele><time>2026-03-22T12:34:00.45Z</time></trkpt><trkpt lat="46.09031" lon="13.1405233"><ele>128.0</ele><time>2026-03-22T12:34:01.451Z</time></trkpt><trkpt lat="46.09027" lon="13.140765"><ele>128.0</ele><time>2026-03-22T12:34:02.45Z</time></trkpt><trkpt lat="46.09023" lon="13.1409967"><ele>128.0</ele><time>2026-03-22T12:34:03.451Z</time></trkpt><trkpt lat="46.0901933" lon="13.141225"><ele>128.0</ele><time>2026-03-22T12:34:04.45Z</time></trkpt><trkpt lat="46.090155" lon="13.1414517"><ele>127.75</ele><time>2026-03-22T12:34:05.448Z</time></trkpt><trkpt lat="46.0901167" lon="13.1416633"><ele>127.5</ele><time>2026-03-22T12:34:06.451Z</time></trkpt><trkpt lat="46.0900817" lon="13.141865"><ele>127.25</ele><time>2026-03-22T12:34:07.452Z</time></trkpt><trkpt lat="46.0900517" lon="13.1420567"><ele>127.0</ele><time>2026-03-22T12:34:08.449Z</time></trkpt><trkpt lat="46.0900117" lon="13.1422433"><ele>127.0</ele><time>2026-03-22T12:34:09.45Z</time></trkpt><trkpt lat="46.08998" lon="13.1424067"><ele>126.99999999999999</ele><time>2026-03-22T12:34:10.449Z</time></trkpt><trkpt lat="46.089955" lon="13.1425367"><ele>126.99999999999999</ele><time>2026-03-22T12:34:11.454Z</time></trkpt><trkpt lat="46.089925" lon="13.1426483"><ele>127.0</ele><time>2026-03-22T12:34:12.449Z</time></trkpt><trkpt lat="46.0898867" lon="13.1427233"><ele>127.0</ele><time>2026-03-22T12:34:13.449Z</time></trkpt><trkpt lat="46.089815" lon="13.1428167"><ele>127.0</ele><time>2026-03-22T12:34:16.45Z</time></trkpt><trkpt lat="46.0897183" lon="13.14297"><ele>127.0</ele><time>2026-03-22T12:34:18.449Z</time></trkpt><trkpt lat="46.0896767" lon="13.143105"><ele>127.0</ele><time>2026-03-22T12:34:19.449Z</time></trkpt><trkpt lat="46.089655" lon="13.1432667"><ele>127.0</ele><time>2026-03-22T12:34:20.448Z</time></trkpt><trkpt lat="46.08965" lon="13.1434433"><ele>127.0</ele><time>2026-03-22T12:34:21.448Z</time></trkpt><trkpt lat="46.089665" lon="13.1436333"><ele>127.0</ele><time>2026-03-22T12:34:22.449Z</time></trkpt><trkpt lat="46.0896917" lon="13.1438233"><ele>127.0</ele><time>2026-03-22T12:34:23.449Z</time></trkpt><trkpt lat="46.0897" lon="13.1440233"><ele>127.0</ele><time>2026-03-22T12:34:24.45Z</time></trkpt><trkpt lat="46.0896817" lon="13.1442333"><ele>126.66666666666667</ele><time>2026-03-22T12:34:25.449Z</time></trkpt><trkpt lat="46.08965" lon="13.1444517"><ele>126.33333333333334</ele><time>2026-03-22T12:34:26.449Z</time></trkpt><trkpt lat="46.0896133" lon="13.1446833"><ele>126.0</ele><time>2026-03-22T12:34:27.45Z</time></trkpt><trkpt lat="46.08957" lon="13.1449317"><ele>126.0</ele><time>2026-03-22T12:34:28.449Z</time></trkpt><trkpt lat="46.089525" lon="13.1451783"><ele>126.0</ele><time>2026-03-22T12:34:29.449Z</time></trkpt><trkpt lat="46.0894833" lon="13.1454133"><ele>126.0</ele><time>2026-03-22T12:34:30.45Z</time></trkpt><trkpt lat="46.0894433" lon="13.1456417"><ele>125.66666666666666</ele><time>2026-03-22T12:34:31.449Z</time></trkpt><trkpt lat="46.0894033" lon="13.14587"><ele>125.33333333333333</ele><time>2026-03-22T12:34:32.448Z</time></trkpt><trkpt lat="46.0893633" lon="13.1461033"><ele>125.0</ele><time>2026-03-22T12:34:33.45Z</time></trkpt><trkpt lat="46.089325" lon="13.1463433"><ele>125.0</ele><time>2026-03-22T12:34:34.449Z</time></trkpt><trkpt lat="46.0892867" lon="13.14659"><ele>125.0</ele><time>2026-03-22T12:34:35.453Z</time></trkpt><trkpt lat="46.0892483" lon="13.146845"><ele>125.0</ele><time>2026-03-22T12:34:36.449Z</time></trkpt><trkpt lat="46.0892117" lon="13.1471083"><ele>125.0</ele><time>2026-03-22T12:34:37.449Z</time></trkpt><trkpt lat="46.0891733" lon="13.1473683"><ele>125.0</ele><time>2026-03-22T12:34:38.449Z</time></trkpt><trkpt lat="46.0891333" lon="13.14762"><ele>125.0</ele><time>2026-03-22T12:34:39.452Z</time></trkpt><trkpt lat="46.0890917" lon="13.1478717"><ele>125.66666666666666</ele><time>2026-03-22T12:34:40.449Z</time></trkpt><trkpt lat="46.0890467" lon="13.14812"><ele>126.33333333333334</ele><time>2026-03-22T12:34:41.449Z</time></trkpt><trkpt lat="46.089" lon="13.14838"><ele>127.0</ele><time>2026-03-22T12:34:42.449Z</time></trkpt><trkpt lat="46.0889533" lon="13.1486433"><ele>127.0</ele><time>2026-03-22T12:34:43.449Z</time></trkpt><trkpt lat="46.0889033" lon="13.1489117"><ele>127.0</ele><time>2026-03-22T12:34:44.451Z</time></trkpt><trkpt lat="46.0888467" lon="13.1491817"><ele>127.0</ele><time>2026-03-22T12:34:45.45Z</time></trkpt><trkpt lat="46.0887883" lon="13.1494467"><ele>127.33333333333334</ele><time>2026-03-22T12:34:46.449Z</time></trkpt><trkpt lat="46.0887283" lon="13.1497033"><ele>127.66666666666666</ele><time>2026-03-22T12:34:47.45Z</time></trkpt><trkpt lat="46.08867" lon="13.149945"><ele>128.0</ele><time>2026-03-22T12:34:48.45Z</time></trkpt><trkpt lat="46.0886117" lon="13.1501833"><ele>128.0</ele><time>2026-03-22T12:34:49.45Z</time></trkpt><trkpt lat="46.088555" lon="13.1504167"><ele>128.0</ele><time>2026-03-22T12:34:50.45Z</time></trkpt><trkpt lat="46.0884933" lon="13.1506533"><ele>128.0</ele><time>2026-03-22T12:34:51.45Z</time></trkpt><trkpt lat="46.08843" lon="13.150895"><ele>127.33333333333333</ele><time>2026-03-22T12:34:52.45Z</time></trkpt><trkpt lat="46.0883667" lon="13.1511383"><ele>126.66666666666666</ele><time>2026-03-22T12:34:53.449Z</time></trkpt><trkpt lat="46.0882983" lon="13.15138"><ele>126.0</ele><time>2026-03-22T12:34:54.45Z</time></trkpt><trkpt lat="46.0882317" lon="13.151625"><ele>126.0</ele><time>2026-03-22T12:34:55.448Z</time></trkpt><trkpt lat="46.0881617" lon="13.1518767"><ele>126.0</ele><time>2026-03-22T12:34:56.448Z</time></trkpt><trkpt lat="46.0880883" lon="13.152125"><ele>126.0</ele><time>2026-03-22T12:34:57.449Z</time></trkpt><trkpt lat="46.08802" lon="13.1523667"><ele>126.33333333333334</ele><time>2026-03-22T12:34:58.449Z</time></trkpt><trkpt lat="46.08795" lon="13.15261"><ele>126.66666666666667</ele><time>2026-03-22T12:34:59.449Z</time></trkpt><trkpt lat="46.087885" lon="13.1528533"><ele>127.0</ele><time>2026-03-22T12:35:00.449Z</time></trkpt><trkpt lat="46.0878167" lon="13.1531017"><ele>126.66666666666667</ele><time>2026-03-22T12:35:01.449Z</time></trkpt><trkpt lat="46.08775" lon="13.153355"><ele>126.33333333333334</ele><time>2026-03-22T12:35:02.449Z</time></trkpt><trkpt lat="46.0876867" lon="13.153615"><ele>126.0</ele><time>2026-03-22T12:35:03.451Z</time></trkpt><trkpt lat="46.087615" lon="13.1538783"><ele>126.33333333333334</ele><time>2026-03-22T12:35:04.448Z</time></trkpt><trkpt lat="46.087545" lon="13.1541367"><ele>126.66666666666667</ele><time>2026-03-22T12:35:05.45Z</time></trkpt><trkpt lat="46.0874767" lon="13.1543933"><ele>127.0</ele><time>2026-03-22T12:35:06.448Z</time></trkpt><trkpt lat="46.08741" lon="13.1546517"><ele>126.33333333333334</ele><time>2026-03-22T12:35:07.449Z</time></trkpt><trkpt lat="46.0873467" lon="13.15492"><ele>125.66666666666666</ele><time>2026-03-22T12:35:08.449Z</time></trkpt><trkpt lat="46.0872883" lon="13.155185"><ele>125.0</ele><time>2026-03-22T12:35:09.45Z</time></trkpt><trkpt lat="46.0872317" lon="13.1554433"><ele>125.0</ele><time>2026-03-22T12:35:10.449Z</time></trkpt><trkpt lat="46.0871733" lon="13.1557017"><ele>125.0</ele><time>2026-03-22T12:35:11.45Z</time></trkpt><trkpt lat="46.087115" lon="13.1559617"><ele>125.0</ele><time>2026-03-22T12:35:12.449Z</time></trkpt><trkpt lat="46.0870567" lon="13.1562233"><ele>125.0</ele><time>2026-03-22T12:35:13.449Z</time></trkpt><trkpt lat="46.0869967" lon="13.1564867"><ele>125.0</ele><time>2026-03-22T12:35:14.449Z</time></trkpt><trkpt lat="46.0869367" lon="13.156755"><ele>125.0</ele><time>2026-03-22T12:35:15.45Z</time></trkpt><trkpt lat="46.08688" lon="13.15703"><ele>124.66666666666666</ele><time>2026-03-22T12:35:16.449Z</time></trkpt><trkpt lat="46.0868233" lon="13.1573033"><ele>124.33333333333334</ele><time>2026-03-22T12:35:17.449Z</time></trkpt><trkpt lat="46.0867667" lon="13.1575683"><ele>124.0</ele><time>2026-03-22T12:35:18.45Z</time></trkpt><trkpt lat="46.0867133" lon="13.1578317"><ele>124.0</ele><time>2026-03-22T12:35:19.449Z</time></trkpt><trkpt lat="46.08666" lon="13.158095"><ele>124.0</ele><time>2026-03-22T12:35:20.45Z</time></trkpt><trkpt lat="46.08661" lon="13.1583583"><ele>124.0</ele><time>2026-03-22T12:35:21.45Z</time></trkpt><trkpt lat="46.086555" lon="13.158615"><ele>123.66666666666667</ele><time>2026-03-22T12:35:22.45Z</time></trkpt><trkpt lat="46.08651" lon="13.1588817"><ele>123.33333333333334</ele><time>2026-03-22T12:35:23.449Z</time></trkpt><trkpt lat="46.0864667" lon="13.159145"><ele>123.0</ele><time>2026-03-22T12:35:24.449Z</time></trkpt><trkpt lat="46.0864267" lon="13.1594033"><ele>122.66666666666666</ele><time>2026-03-22T12:35:25.45Z</time></trkpt><trkpt lat="46.0863933" lon="13.1596567"><ele>122.33333333333333</ele><time>2026-03-22T12:35:26.449Z</time></trkpt><trkpt lat="46.08636" lon="13.1598983"><ele>122.0</ele><time>2026-03-22T12:35:27.45Z</time></trkpt><trkpt lat="46.0863283" lon="13.16014"><ele>122.0</ele><time>2026-03-22T12:35:28.45Z</time></trkpt><trkpt lat="46.086295" lon="13.160375"><ele>122.0</ele><time>2026-03-22T12:35:29.451Z</time></trkpt><trkpt lat="46.0862633" lon="13.16061"><ele>122.0</ele><time>2026-03-22T12:35:30.45Z</time></trkpt><trkpt lat="46.0862333" lon="13.160845"><ele>122.0</ele><time>2026-03-22T12:35:31.45Z</time></trkpt><trkpt lat="46.0862067" lon="13.1610717"><ele>122.0</ele><time>2026-03-22T12:35:32.45Z</time></trkpt><trkpt lat="46.086175" lon="13.16129"><ele>122.0</ele><time>2026-03-22T12:35:33.449Z</time></trkpt><trkpt lat="46.086145" lon="13.16151"><ele>121.66666666666666</ele><time>2026-03-22T12:35:34.449Z</time></trkpt><trkpt lat="46.086115" lon="13.16173"><ele>121.33333333333334</ele><time>2026-03-22T12:35:35.45Z</time></trkpt><trkpt lat="46.0860833" lon="13.1619483"><ele>121.0</ele><time>2026-03-22T12:35:36.45Z</time></trkpt><trkpt lat="46.086055" lon="13.162155"><ele>121.0</ele><time>2026-03-22T12:35:37.448Z</time></trkpt><trkpt lat="46.0860283" lon="13.16235"><ele>121.0</ele><time>2026-03-22T12:35:38.45Z</time></trkpt><trkpt lat="46.086" lon="13.162535"><ele>121.0</ele><time>2026-03-22T12:35:39.451Z</time></trkpt><trkpt lat="46.085965" lon="13.1627083"><ele>121.0</ele><time>2026-03-22T12:35:40.451Z</time></trkpt><trkpt lat="46.085925" lon="13.1628683"><ele>121.0</ele><time>2026-03-22T12:35:41.449Z</time></trkpt><trkpt lat="46.0858733" lon="13.16302"><ele>121.0</ele><time>2026-03-22T12:35:42.451Z</time></trkpt><trkpt lat="46.0858083" lon="13.163155"><ele>121.0</ele><time>2026-03-22T12:35:43.449Z</time></trkpt><trkpt lat="46.085725" lon="13.163275"><ele>121.0</ele><time>2026-03-22T12:35:44.449Z</time></trkpt><trkpt lat="46.0856333" lon="13.1633767"><ele>121.0</ele><time>2026-03-22T12:35:45.45Z</time></trkpt><trkpt lat="46.0855483" lon="13.1634883"><ele>121.0</ele><time>2026-03-22T12:35:46.45Z</time></trkpt><trkpt lat="46.0854833" lon="13.163625"><ele>121.0</ele><time>2026-03-22T12:35:47.45Z</time></trkpt><trkpt lat="46.085445" lon="13.16378"><ele>121.0</ele><time>2026-03-22T12:35:48.449Z</time></trkpt><trkpt lat="46.08544" lon="13.1639467"><ele>121.5</ele><time>2026-03-22T12:35:49.45Z</time></trkpt><trkpt lat="46.085465" lon="13.1641117"><ele>122.0</ele><time>2026-03-22T12:35:50.451Z</time></trkpt><trkpt lat="46.08552" lon="13.1642667"><ele>122.5</ele><time>2026-03-22T12:35:51.45Z</time></trkpt><trkpt lat="46.0856083" lon="13.164405"><ele>123.0</ele><time>2026-03-22T12:35:52.45Z</time></trkpt><trkpt lat="46.085715" lon="13.164505"><ele>122.5</ele><time>2026-03-22T12:35:53.45Z</time></trkpt><trkpt lat="46.0858333" lon="13.1645583"><ele>122.0</ele><time>2026-03-22T12:35:54.449Z</time></trkpt><trkpt lat="46.08596" lon="13.1645617"><ele>121.5</ele><time>2026-03-22T12:35:55.451Z</time></trkpt><trkpt lat="46.086085" lon="13.1645283"><ele>121.0</ele><time>2026-03-22T12:35:56.45Z</time></trkpt><trkpt lat="46.0862033" lon="13.1644817"><ele>121.0</ele><time>2026-03-22T12:35:57.45Z</time></trkpt><trkpt lat="46.08632" lon="13.1644617"><ele>121.0</ele><time>2026-03-22T12:35:58.45Z</time></trkpt><trkpt lat="46.08643" lon="13.1644883"><ele>121.0</ele><time>2026-03-22T12:35:59.45Z</time></trkpt><trkpt lat="46.0865383" lon="13.1645583"><ele>121.0</ele><time>2026-03-22T12:36:00.45Z</time></trkpt><trkpt lat="46.08663" lon="13.1646767"><ele>121.0</ele><time>2026-03-22T12:36:01.45Z</time></trkpt><trkpt lat="46.0867017" lon="13.1648367"><ele>121.0</ele><time>2026-03-22T12:36:02.457Z</time></trkpt><trkpt lat="46.0867517" lon="13.1650283"><ele>121.0</ele><time>2026-03-22T12:36:03.449Z</time></trkpt><trkpt lat="46.0867867" lon="13.1652433"><ele>121.0</ele><time>2026-03-22T12:36:04.449Z</time></trkpt><trkpt lat="46.0868033" lon="13.1654783"><ele>121.33333333333334</ele><time>2026-03-22T12:36:05.449Z</time></trkpt><trkpt lat="46.0867983" lon="13.1657283"><ele>121.66666666666666</ele><time>2026-03-22T12:36:06.45Z</time></trkpt><trkpt lat="46.086765" lon="13.1659783"><ele>122.0</ele><time>2026-03-22T12:36:07.45Z</time></trkpt><trkpt lat="46.0867067" lon="13.166225"><ele>122.0</ele><time>2026-03-22T12:36:08.453Z</time></trkpt><trkpt lat="46.0866283" lon="13.166475"><ele>122.0</ele><time>2026-03-22T12:36:09.45Z</time></trkpt><trkpt lat="46.0865317" lon="13.1667367"><ele>122.0</ele><time>2026-03-22T12:36:10.449Z</time></trkpt><trkpt lat="46.0864333" lon="13.1670183"><ele>122.66666666666666</ele><time>2026-03-22T12:36:11.45Z</time></trkpt><trkpt lat="46.0863417" lon="13.1673117"><ele>123.33333333333334</ele><time>2026-03-22T12:36:12.45Z</time></trkpt><trkpt lat="46.086255" lon="13.1676017"><ele>124.0</ele><time>2026-03-22T12:36:13.45Z</time></trkpt><trkpt lat="46.086185" lon="13.1679033"><ele>123.66666666666667</ele><time>2026-03-22T12:36:14.45Z</time></trkpt><trkpt lat="46.0861217" lon="13.1681983"><ele>123.33333333333334</ele><time>2026-03-22T12:36:15.45Z</time></trkpt><trkpt lat="46.0860833" lon="13.1685083"><ele>123.0</ele><time>2026-03-22T12:36:16.449Z</time></trkpt><trkpt lat="46.0860517" lon="13.1688233"><ele>122.66666666666666</ele><time>2026-03-22T12:36:17.451Z</time></trkpt><trkpt lat="46.0860417" lon="13.169145"><ele>122.33333333333333</ele><time>2026-03-22T12:36:18.449Z</time></trkpt><trkpt lat="46.0860467" lon="13.1694533"><ele>122.0</ele><time>2026-03-22T12:36:19.45Z</time></trkpt><trkpt lat="46.0860533" lon="13.1697483"><ele>122.66666666666666</ele><time>2026-03-22T12:36:20.451Z</time></trkpt><trkpt lat="46.0860433" lon="13.170025"><ele>123.33333333333334</ele><time>2026-03-22T12:36:21.452Z</time></trkpt><trkpt lat="46.08602" lon="13.17029"><ele>124.0</ele><time>2026-03-22T12:36:22.45Z</time></trkpt><trkpt lat="46.0859833" lon="13.1705433"><ele>123.33333333333334</ele><time>2026-03-22T12:36:23.45Z</time></trkpt><trkpt lat="46.0859483" lon="13.1707917"><ele>122.66666666666666</ele><time>2026-03-22T12:36:24.45Z</time></trkpt><trkpt lat="46.0859017" lon="13.1710417"><ele>122.0</ele><time>2026-03-22T12:36:25.451Z</time></trkpt><trkpt lat="46.085845" lon="13.1713"><ele>122.0</ele><time>2026-03-22T12:36:26.45Z</time></trkpt><trkpt lat="46.08578" lon="13.17157"><ele>122.0</ele><time>2026-03-22T12:36:27.452Z</time></trkpt><trkpt lat="46.0856983" lon="13.17183"><ele>122.0</ele><time>2026-03-22T12:36:28.45Z</time></trkpt><trkpt lat="46.08563" lon="13.172095"><ele>122.0</ele><time>2026-03-22T12:36:29.451Z</time></trkpt><trkpt lat="46.0855517" lon="13.1723733"><ele>122.0</ele><time>2026-03-22T12:36:30.448Z</time></trkpt><trkpt lat="46.0854733" lon="13.1726817"><ele>122.0</ele><time>2026-03-22T12:36:31.451Z</time></trkpt><trkpt lat="46.08538" lon="13.1730183"><ele>123.0</ele><time>2026-03-22T12:36:32.451Z</time></trkpt><trkpt lat="46.0852667" lon="13.173365"><ele>124.0</ele><time>2026-03-22T12:36:33.45Z</time></trkpt><trkpt lat="46.08515" lon="13.1737133"><ele>123.5</ele><time>2026-03-22T12:36:34.45Z</time></trkpt><trkpt lat="46.0850383" lon="13.174075"><ele>123.0</ele><time>2026-03-22T12:36:35.45Z</time></trkpt><trkpt lat="46.0849317" lon="13.17445"><ele>121.5</ele><time>2026-03-22T12:36:36.45Z</time></trkpt><trkpt lat="46.0848283" lon="13.17481"><ele>120.0</ele><time>2026-03-22T12:36:37.448Z</time></trkpt><trkpt lat="46.0847283" lon="13.1751467"><ele>120.0</ele><time>2026-03-22T12:36:38.449Z</time></trkpt><trkpt lat="46.0846333" lon="13.175465"><ele>120.0</ele><time>2026-03-22T12:36:39.45Z</time></trkpt><trkpt lat="46.0845417" lon="13.1757717"><ele>120.0</ele><time>2026-03-22T12:36:40.449Z</time></trkpt><trkpt lat="46.08445" lon="13.1760683"><ele>120.0</ele><time>2026-03-22T12:36:41.449Z</time></trkpt><trkpt lat="46.084365" lon="13.1763583"><ele>120.0</ele><time>2026-03-22T12:36:42.45Z</time></trkpt><trkpt lat="46.0842817" lon="13.1766283"><ele>120.33333333333334</ele><time>2026-03-22T12:36:43.45Z</time></trkpt><trkpt lat="46.0842" lon="13.1768683"><ele>120.66666666666667</ele><time>2026-03-22T12:36:44.45Z</time></trkpt><trkpt lat="46.0841267" lon="13.17708"><ele>121.0</ele><time>2026-03-22T12:36:45.45Z</time></trkpt><trkpt lat="46.0840567" lon="13.1772583"><ele>121.4</ele><time>2026-03-22T12:36:46.45Z</time></trkpt><trkpt lat="46.0839933" lon="13.1773933"><ele>121.8</ele><time>2026-03-22T12:36:47.449Z</time></trkpt><trkpt lat="46.0839383" lon="13.1774783"><ele>122.20000000000002</ele><time>2026-03-22T12:36:48.45Z</time></trkpt><trkpt lat="46.0838567" lon="13.17756"><ele>122.60000000000001</ele><time>2026-03-22T12:36:50.45Z</time></trkpt><trkpt lat="46.0837483" lon="13.1776317"><ele>123.0</ele><time>2026-03-22T12:36:52.451Z</time></trkpt><trkpt lat="46.083685" lon="13.1776917"><ele>123.0</ele><time>2026-03-22T12:36:53.45Z</time></trkpt><trkpt lat="46.0836267" lon="13.17778"><ele>123.00000000000001</ele><time>2026-03-22T12:36:54.45Z</time></trkpt><trkpt lat="46.0835817" lon="13.1778933"><ele>123.00000000000001</ele><time>2026-03-22T12:36:55.453Z</time></trkpt><trkpt lat="46.08356" lon="13.1780183"><ele>123.0</ele><time>2026-03-22T12:36:56.45Z</time></trkpt><trkpt lat="46.0835617" lon="13.1781533"><ele>123.0</ele><time>2026-03-22T12:36:57.451Z</time></trkpt><trkpt lat="46.08358" lon="13.1782833"><ele>122.4</ele><time>2026-03-22T12:36:58.449Z</time></trkpt><trkpt lat="46.0836017" lon="13.17841"><ele>121.80000000000001</ele><time>2026-03-22T12:36:59.45Z</time></trkpt><trkpt lat="46.0836117" lon="13.1785433"><ele>121.2</ele><time>2026-03-22T12:37:00.449Z</time></trkpt><trkpt lat="46.0836117" lon="13.1786917"><ele>120.6</ele><time>2026-03-22T12:37:01.449Z</time></trkpt><trkpt lat="46.083605" lon="13.1788483"><ele>120.0</ele><time>2026-03-22T12:37:02.449Z</time></trkpt><trkpt lat="46.0835733" lon="13.1790033"><ele>119.75</ele><time>2026-03-22T12:37:03.45Z</time></trkpt><trkpt lat="46.0835517" lon="13.1791533"><ele>119.5</ele><time>2026-03-22T12:37:04.45Z</time></trkpt><trkpt lat="46.0835283" lon="13.1793117"><ele>119.25</ele><time>2026-03-22T12:37:05.451Z</time></trkpt><trkpt lat="46.0835017" lon="13.1794683"><ele>119.0</ele><time>2026-03-22T12:37:06.449Z</time></trkpt><trkpt lat="46.083475" lon="13.1796383"><ele>119.0</ele><time>2026-03-22T12:37:07.45Z</time></trkpt><trkpt lat="46.0834533" lon="13.179815"><ele>119.0</ele><time>2026-03-22T12:37:08.449Z</time></trkpt><trkpt lat="46.08344" lon="13.1800017"><ele>119.0</ele><time>2026-03-22T12:37:09.45Z</time></trkpt><trkpt lat="46.0834317" lon="13.1801883"><ele>119.0</ele><time>2026-03-22T12:37:10.45Z</time></trkpt><trkpt lat="46.0834267" lon="13.180375"><ele>119.25</ele><time>2026-03-22T12:37:11.452Z</time></trkpt><trkpt lat="46.0834233" lon="13.1805583"><ele>119.5</ele><time>2026-03-22T12:37:12.45Z</time></trkpt><trkpt lat="46.08343" lon="13.180745"><ele>119.75</ele><time>2026-03-22T12:37:13.449Z</time></trkpt><trkpt lat="46.0834417" lon="13.1809333"><ele>120.0</ele><time>2026-03-22T12:37:14.45Z</time></trkpt><trkpt lat="46.0834567" lon="13.18112"><ele>120.25</ele><time>2026-03-22T12:37:15.45Z</time></trkpt><trkpt lat="46.0834767" lon="13.1813083"><ele>120.5</ele><time>2026-03-22T12:37:16.45Z</time></trkpt><trkpt lat="46.0835067" lon="13.1814967"><ele>120.75</ele><time>2026-03-22T12:37:17.449Z</time></trkpt><trkpt lat="46.0835417" lon="13.1816833"><ele>121.0</ele><time>2026-03-22T12:37:18.45Z</time></trkpt><trkpt lat="46.0835767" lon="13.1818717"><ele>120.5</ele><time>2026-03-22T12:37:19.451Z</time></trkpt><trkpt lat="46.0836183" lon="13.1820517"><ele>120.0</ele><time>2026-03-22T12:37:20.45Z</time></trkpt><trkpt lat="46.0836667" lon="13.1822317"><ele>119.5</ele><time>2026-03-22T12:37:21.451Z</time></trkpt><trkpt lat="46.0837233" lon="13.182405"><ele>119.0</ele><time>2026-03-22T12:37:22.451Z</time></trkpt><trkpt lat="46.0837817" lon="13.1825783"><ele>119.0</ele><time>2026-03-22T12:37:23.45Z</time></trkpt><trkpt lat="46.0838467" lon="13.182755"><ele>119.0</ele><time>2026-03-22T12:37:24.45Z</time></trkpt><trkpt lat="46.08391" lon="13.18293"><ele>119.0</ele><time>2026-03-22T12:37:25.451Z</time></trkpt><trkpt lat="46.0839767" lon="13.1831067"><ele>119.0</ele><time>2026-03-22T12:37:26.45Z</time></trkpt><trkpt lat="46.0840433" lon="13.1832867"><ele>119.75</ele><time>2026-03-22T12:37:27.451Z</time></trkpt><trkpt lat="46.0841133" lon="13.1834683"><ele>120.5</ele><time>2026-03-22T12:37:28.45Z</time></trkpt><trkpt lat="46.084185" lon="13.1836383"><ele>121.25</ele><time>2026-03-22T12:37:29.45Z</time></trkpt><trkpt lat="46.08426" lon="13.1838"><ele>122.0</ele><time>2026-03-22T12:37:30.45Z</time></trkpt><trkpt lat="46.08434" lon="13.1839533"><ele>121.75</ele><time>2026-03-22T12:37:31.45Z</time></trkpt><trkpt lat="46.08443" lon="13.1840967"><ele>121.5</ele><time>2026-03-22T12:37:32.45Z</time></trkpt><trkpt lat="46.0845233" lon="13.1842333"><ele>121.25</ele><time>2026-03-22T12:37:33.449Z</time></trkpt><trkpt lat="46.084625" lon="13.1843683"><ele>121.0</ele><time>2026-03-22T12:37:34.45Z</time></trkpt><trkpt lat="46.084735" lon="13.1845"><ele>121.0</ele><time>2026-03-22T12:37:35.449Z</time></trkpt><trkpt lat="46.0848483" lon="13.1846233"><ele>121.0</ele><time>2026-03-22T12:37:36.45Z</time></trkpt><trkpt lat="46.0849583" lon="13.1847417"><ele>121.0</ele><time>2026-03-22T12:37:37.451Z</time></trkpt><trkpt lat="46.085065" lon="13.1848533"><ele>121.0</ele><time>2026-03-22T12:37:38.451Z</time></trkpt><trkpt lat="46.0851733" lon="13.1849683"><ele>120.25</ele><time>2026-03-22T12:37:39.451Z</time></trkpt><trkpt lat="46.08529" lon="13.1850967"><ele>119.5</ele><time>2026-03-22T12:37:40.452Z</time></trkpt><trkpt lat="46.0854117" lon="13.1852267"><ele>118.75</ele><time>2026-03-22T12:37:41.45Z</time></trkpt><trkpt lat="46.0855283" lon="13.1853533"><ele>118.0</ele><time>2026-03-22T12:37:42.45Z</time></trkpt><trkpt lat="46.0856417" lon="13.1854833"><ele>118.0</ele><time>2026-03-22T12:37:43.45Z</time></trkpt><trkpt lat="46.0857483" lon="13.185615"><ele>118.0</ele><time>2026-03-22T12:37:44.45Z</time></trkpt><trkpt lat="46.0858483" lon="13.1857483"><ele>118.0</ele><time>2026-03-22T12:37:45.451Z</time></trkpt><trkpt lat="46.0859383" lon="13.18589"><ele>118.0</ele><time>2026-03-22T12:37:46.451Z</time></trkpt><trkpt lat="46.086015" lon="13.1860483"><ele>117.25</ele><time>2026-03-22T12:37:47.449Z</time></trkpt><trkpt lat="46.0860833" lon="13.1862133"><ele>116.5</ele><time>2026-03-22T12:37:48.449Z</time></trkpt><trkpt lat="46.0861417" lon="13.1863967"><ele>115.75</ele><time>2026-03-22T12:37:49.449Z</time></trkpt><trkpt lat="46.08619" lon="13.1865867"><ele>115.0</ele><time>2026-03-22T12:37:50.45Z</time></trkpt><trkpt lat="46.0862283" lon="13.1867917"><ele>114.33333333333334</ele><time>2026-03-22T12:37:51.451Z</time></trkpt><trkpt lat="46.0862467" lon="13.1870017"><ele>113.66666666666666</ele><time>2026-03-22T12:37:52.45Z</time></trkpt><trkpt lat="46.08625" lon="13.1872167"><ele>113.0</ele><time>2026-03-22T12:37:53.45Z</time></trkpt><trkpt lat="46.0862417" lon="13.1874383"><ele>113.0</ele><time>2026-03-22T12:37:54.449Z</time></trkpt><trkpt lat="46.086215" lon="13.1876967"><ele>113.0</ele><time>2026-03-22T12:37:55.45Z</time></trkpt><trkpt lat="46.0861617" lon="13.1879833"><ele>113.0</ele><time>2026-03-22T12:37:56.449Z</time></trkpt><trkpt lat="46.0860883" lon="13.188295"><ele>113.33333333333333</ele><time>2026-03-22T12:37:57.451Z</time></trkpt><trkpt lat="46.0860117" lon="13.1886117"><ele>113.66666666666666</ele><time>2026-03-22T12:37:58.45Z</time></trkpt><trkpt lat="46.08594" lon="13.1889033"><ele>114.0</ele><time>2026-03-22T12:37:59.449Z</time></trkpt><trkpt lat="46.0858717" lon="13.1891683"><ele>114.0</ele><time>2026-03-22T12:38:00.449Z</time></trkpt><trkpt lat="46.0858083" lon="13.189405"><ele>114.0</ele><time>2026-03-22T12:38:01.45Z</time></trkpt><trkpt lat="46.0857567" lon="13.189625"><ele>114.0</ele><time>2026-03-22T12:38:02.45Z</time></trkpt><trkpt lat="46.0856933" lon="13.1898117"><ele>114.75</ele><time>2026-03-22T12:38:03.45Z</time></trkpt><trkpt lat="46.085625" lon="13.1899833"><ele>115.5</ele><time>2026-03-22T12:38:04.45Z</time></trkpt><trkpt lat="46.0855417" lon="13.1901383"><ele>116.25</ele><time>2026-03-22T12:38:05.45Z</time></trkpt><trkpt lat="46.0854433" lon="13.19029"><ele>117.0</ele><time>2026-03-22T12:38:06.45Z</time></trkpt><trkpt lat="46.0853383" lon="13.1904467"><ele>117.0</ele><time>2026-03-22T12:38:07.451Z</time></trkpt><trkpt lat="46.0852517" lon="13.1906217"><ele>117.0</ele><time>2026-03-22T12:38:08.45Z</time></trkpt><trkpt lat="46.08518" lon="13.1908167"><ele>117.0</ele><time>2026-03-22T12:38:09.451Z</time></trkpt><trkpt lat="46.085115" lon="13.1910067"><ele>117.0</ele><time>2026-03-22T12:38:10.45Z</time></trkpt><trkpt lat="46.085035" lon="13.1911767"><ele>117.0</ele><time>2026-03-22T12:38:11.45Z</time></trkpt><trkpt lat="46.08493" lon="13.1913283"><ele>117.0</ele><time>2026-03-22T12:38:12.45Z</time></trkpt><trkpt lat="46.0848017" lon="13.1914467"><ele>117.0</ele><time>2026-03-22T12:38:13.451Z</time></trkpt><trkpt lat="46.0846583" lon="13.191525"><ele>117.0</ele><time>2026-03-22T12:38:14.449Z</time></trkpt><trkpt lat="46.0845083" lon="13.191565"><ele>117.0</ele><time>2026-03-22T12:38:15.45Z</time></trkpt><trkpt lat="46.0843517" lon="13.1915683"><ele>117.0</ele><time>2026-03-22T12:38:16.45Z</time></trkpt><trkpt lat="46.0841933" lon="13.1915417"><ele>117.0</ele><time>2026-03-22T12:38:17.45Z</time></trkpt><trkpt lat="46.0840317" lon="13.1915"><ele>117.0</ele><time>2026-03-22T12:38:18.45Z</time></trkpt><trkpt lat="46.0838667" lon="13.1914567"><ele>117.0</ele><time>2026-03-22T12:38:19.45Z</time></trkpt><trkpt lat="46.0836933" lon="13.19141"><ele>117.0</ele><time>2026-03-22T12:38:20.449Z</time></trkpt><trkpt lat="46.0835017" lon="13.1913517"><ele>117.0</ele><time>2026-03-22T12:38:21.45Z</time></trkpt><trkpt lat="46.0832917" lon="13.1912917"><ele>117.0</ele><time>2026-03-22T12:38:22.45Z</time></trkpt><trkpt lat="46.083065" lon="13.19124"><ele>116.5</ele><time>2026-03-22T12:38:23.451Z</time></trkpt><trkpt lat="46.0828217" lon="13.1912033"><ele>116.0</ele><time>2026-03-22T12:38:24.45Z</time></trkpt><trkpt lat="46.082575" lon="13.191165"><ele>115.0</ele><time>2026-03-22T12:38:25.45Z</time></trkpt><trkpt lat="46.0823183" lon="13.1911383"><ele>114.0</ele><time>2026-03-22T12:38:26.45Z</time></trkpt><trkpt lat="46.0820483" lon="13.1911133"><ele>114.0</ele><time>2026-03-22T12:38:27.451Z</time></trkpt><trkpt lat="46.08177" lon="13.1910917"><ele>114.0</ele><time>2026-03-22T12:38:28.45Z</time></trkpt><trkpt lat="46.0814883" lon="13.1910683"><ele>112.5</ele><time>2026-03-22T12:38:29.449Z</time></trkpt><trkpt lat="46.0812033" lon="13.191055"><ele>111.0</ele><time>2026-03-22T12:38:30.45Z</time></trkpt><trkpt lat="46.0809117" lon="13.1910567"><ele>108.0</ele><time>2026-03-22T12:38:31.451Z</time></trkpt><trkpt lat="46.08062" lon="13.1910883"><ele>105.0</ele><time>2026-03-22T12:38:32.45Z</time></trkpt><trkpt lat="46.0803283" lon="13.1911433"><ele>105.0</ele><time>2026-03-22T12:38:33.451Z</time></trkpt><trkpt lat="46.0800383" lon="13.1912317"><ele>105.0</ele><time>2026-03-22T12:38:34.45Z</time></trkpt><trkpt lat="46.0797517" lon="13.1913383"><ele>105.5</ele><time>2026-03-22T12:38:35.451Z</time></trkpt><trkpt lat="46.0794733" lon="13.19147"><ele>106.0</ele><time>2026-03-22T12:38:36.45Z</time></trkpt><trkpt lat="46.079195" lon="13.19163"><ele>108.0</ele><time>2026-03-22T12:38:37.45Z</time></trkpt><trkpt lat="46.0789267" lon="13.1918033"><ele>110.0</ele><time>2026-03-22T12:38:38.451Z</time></trkpt><trkpt lat="46.07866" lon="13.192005"><ele>110.0</ele><time>2026-03-22T12:38:39.451Z</time></trkpt><trkpt lat="46.0783967" lon="13.19223"><ele>110.0</ele><time>2026-03-22T12:38:40.451Z</time></trkpt><trkpt lat="46.0781433" lon="13.19247"><ele>109.5</ele><time>2026-03-22T12:38:41.452Z</time></trkpt><trkpt lat="46.077895" lon="13.1927233"><ele>109.0</ele><time>2026-03-22T12:38:42.45Z</time></trkpt><trkpt lat="46.07764" lon="13.192965"><ele>110.0</ele><time>2026-03-22T12:38:43.45Z</time></trkpt><trkpt lat="46.07738" lon="13.1932083"><ele>111.0</ele><time>2026-03-22T12:38:44.45Z</time></trkpt><trkpt lat="46.0771233" lon="13.1934667"><ele>111.0</ele><time>2026-03-22T12:38:45.45Z</time></trkpt><trkpt lat="46.07687" lon="13.19371"><ele>111.0</ele><time>2026-03-22T12:38:46.45Z</time></trkpt><trkpt lat="46.0766167" lon="13.1939567"><ele>112.5</ele><time>2026-03-22T12:38:47.45Z</time></trkpt><trkpt lat="46.076365" lon="13.194205"><ele>114.0</ele><time>2026-03-22T12:38:48.449Z</time></trkpt><trkpt lat="46.0761217" lon="13.1944467"><ele>114.0</ele><time>2026-03-22T12:38:49.45Z</time></trkpt><trkpt lat="46.0758883" lon="13.1946817"><ele>114.0</ele><time>2026-03-22T12:38:50.45Z</time></trkpt><trkpt lat="46.075665" lon="13.1949083"><ele>113.0</ele><time>2026-03-22T12:38:51.449Z</time></trkpt><trkpt lat="46.0754467" lon="13.195125"><ele>112.0</ele><time>2026-03-22T12:38:52.45Z</time></trkpt><trkpt lat="46.07523" lon="13.19534"><ele>112.0</ele><time>2026-03-22T12:38:53.449Z</time></trkpt><trkpt lat="46.07501" lon="13.1955317"><ele>112.0</ele><time>2026-03-22T12:38:54.449Z</time></trkpt><trkpt lat="46.0747783" lon="13.1957083"><ele>111.0</ele><time>2026-03-22T12:38:55.45Z</time></trkpt><trkpt lat="46.0745317" lon="13.195875"><ele>110.0</ele><time>2026-03-22T12:38:56.449Z</time></trkpt><trkpt lat="46.0742817" lon="13.196025"><ele>110.5</ele><time>2026-03-22T12:38:57.451Z</time></trkpt><trkpt lat="46.07402" lon="13.1961667"><ele>111.0</ele><time>2026-03-22T12:38:58.449Z</time></trkpt><trkpt lat="46.073745" lon="13.1962967"><ele>111.0</ele><time>2026-03-22T12:38:59.448Z</time></trkpt><trkpt lat="46.0734617" lon="13.1964217"><ele>111.0</ele><time>2026-03-22T12:39:00.449Z</time></trkpt><trkpt lat="46.073165" lon="13.1965167"><ele>111.5</ele><time>2026-03-22T12:39:01.45Z</time></trkpt><trkpt lat="46.07286" lon="13.1966083"><ele>112.0</ele><time>2026-03-22T12:39:02.45Z</time></trkpt><trkpt lat="46.0725383" lon="13.1966783"><ele>110.5</ele><time>2026-03-22T12:39:03.449Z</time></trkpt><trkpt lat="46.0722167" lon="13.1967433"><ele>109.0</ele><time>2026-03-22T12:39:04.45Z</time></trkpt><trkpt lat="46.0718883" lon="13.1967933"><ele>108.0</ele><time>2026-03-22T12:39:05.449Z</time></trkpt><trkpt lat="46.071555" lon="13.19684"><ele>107.0</ele><time>2026-03-22T12:39:06.45Z</time></trkpt><trkpt lat="46.07121" lon="13.1968817"><ele>107.0</ele><time>2026-03-22T12:39:07.45Z</time></trkpt><trkpt lat="46.0708583" lon="13.19693"><ele>107.0</ele><time>2026-03-22T12:39:08.449Z</time></trkpt><trkpt lat="46.0704967" lon="13.1969733"><ele>107.0</ele><time>2026-03-22T12:39:09.45Z</time></trkpt><trkpt lat="46.0701333" lon="13.197015"><ele>107.0</ele><time>2026-03-22T12:39:10.448Z</time></trkpt><trkpt lat="46.06977" lon="13.1970667"><ele>107.5</ele><time>2026-03-22T12:39:11.449Z</time></trkpt><trkpt lat="46.0694067" lon="13.1971133"><ele>108.0</ele><time>2026-03-22T12:39:12.45Z</time></trkpt><trkpt lat="46.0690483" lon="13.1971517"><ele>108.0</ele><time>2026-03-22T12:39:13.45Z</time></trkpt><trkpt lat="46.0686933" lon="13.19719"><ele>108.0</ele><time>2026-03-22T12:39:14.449Z</time></trkpt><trkpt lat="46.0683383" lon="13.197235"><ele>108.0</ele><time>2026-03-22T12:39:15.451Z</time></trkpt><trkpt lat="46.0679883" lon="13.19728"><ele>108.0</ele><time>2026-03-22T12:39:16.45Z</time></trkpt><trkpt lat="46.0676467" lon="13.1973133"><ele>107.5</ele><time>2026-03-22T12:39:17.45Z</time></trkpt><trkpt lat="46.06731" lon="13.1973617"><ele>107.0</ele><time>2026-03-22T12:39:18.45Z</time></trkpt><trkpt lat="46.0669817" lon="13.197405"><ele>107.0</ele><time>2026-03-22T12:39:19.45Z</time></trkpt><trkpt lat="46.0666517" lon="13.197445"><ele>107.0</ele><time>2026-03-22T12:39:20.45Z</time></trkpt><trkpt lat="46.06632" lon="13.197495"><ele>106.5</ele><time>2026-03-22T12:39:21.45Z</time></trkpt><trkpt lat="46.0659867" lon="13.1975367"><ele>106.0</ele><time>2026-03-22T12:39:22.45Z</time></trkpt><trkpt lat="46.0656517" lon="13.197585"><ele>106.0</ele><time>2026-03-22T12:39:23.449Z</time></trkpt><trkpt lat="46.0653133" lon="13.1976367"><ele>106.0</ele><time>2026-03-22T12:39:24.45Z</time></trkpt><trkpt lat="46.06498" lon="13.1976767"><ele>105.0</ele><time>2026-03-22T12:39:25.45Z</time></trkpt><trkpt lat="46.0646433" lon="13.19772"><ele>104.0</ele><time>2026-03-22T12:39:26.45Z</time></trkpt><trkpt lat="46.064305" lon="13.1977567"><ele>104.5</ele><time>2026-03-22T12:39:27.45Z</time></trkpt><trkpt lat="46.0639633" lon="13.1977933"><ele>105.0</ele><time>2026-03-22T12:39:28.449Z</time></trkpt><trkpt lat="46.0636233" lon="13.19783"><ele>105.0</ele><time>2026-03-22T12:39:29.45Z</time></trkpt><trkpt lat="46.0632833" lon="13.19788"><ele>105.0</ele><time>2026-03-22T12:39:30.45Z</time></trkpt><trkpt lat="46.062945" lon="13.19793"><ele>104.0</ele><time>2026-03-22T12:39:31.45Z</time></trkpt><trkpt lat="46.0626067" lon="13.1979833"><ele>103.0</ele><time>2026-03-22T12:39:32.451Z</time></trkpt><trkpt lat="46.06227" lon="13.1980317"><ele>103.5</ele><time>2026-03-22T12:39:33.45Z</time></trkpt><trkpt lat="46.0619333" lon="13.19807"><ele>104.0</ele><time>2026-03-22T12:39:34.45Z</time></trkpt><trkpt lat="46.0616033" lon="13.19811"><ele>104.0</ele><time>2026-03-22T12:39:35.45Z</time></trkpt><trkpt lat="46.06128" lon="13.1981483"><ele>104.0</ele><time>2026-03-22T12:39:36.45Z</time></trkpt><trkpt lat="46.0609567" lon="13.1981883"><ele>105.0</ele><time>2026-03-22T12:39:37.449Z</time></trkpt><trkpt lat="46.0606367" lon="13.19823"><ele>106.0</ele><time>2026-03-22T12:39:38.451Z</time></trkpt><trkpt lat="46.0603183" lon="13.19829"><ele>106.0</ele><time>2026-03-22T12:39:39.451Z</time></trkpt><trkpt lat="46.0600033" lon="13.198355"><ele>106.0</ele><time>2026-03-22T12:39:40.45Z</time></trkpt><trkpt lat="46.0596883" lon="13.1984367"><ele>106.0</ele><time>2026-03-22T12:39:41.449Z</time></trkpt><trkpt lat="46.059375" lon="13.1985267"><ele>106.0</ele><time>2026-03-22T12:39:42.451Z</time></trkpt><trkpt lat="46.0590633" lon="13.1986317"><ele>105.0</ele><time>2026-03-22T12:39:43.45Z</time></trkpt><trkpt lat="46.0587533" lon="13.1987433"><ele>104.0</ele><time>2026-03-22T12:39:44.45Z</time></trkpt><trkpt lat="46.0584417" lon="13.198865"><ele>104.0</ele><time>2026-03-22T12:39:45.452Z</time></trkpt><trkpt lat="46.0581317" lon="13.1989967"><ele>104.0</ele><time>2026-03-22T12:39:46.45Z</time></trkpt><trkpt lat="46.0578217" lon="13.1991433"><ele>104.0</ele><time>2026-03-22T12:39:47.45Z</time></trkpt><trkpt lat="46.0575133" lon="13.199305"><ele>104.0</ele><time>2026-03-22T12:39:48.45Z</time></trkpt><trkpt lat="46.0572083" lon="13.1994717"><ele>103.5</ele><time>2026-03-22T12:39:49.45Z</time></trkpt><trkpt lat="46.056905" lon="13.1996517"><ele>103.0</ele><time>2026-03-22T12:39:50.451Z</time></trkpt><trkpt lat="46.056605" lon="13.1998483"><ele>104.0</ele><time>2026-03-22T12:39:51.45Z</time></trkpt><trkpt lat="46.0563033" lon="13.2000517"><ele>105.0</ele><time>2026-03-22T12:39:52.451Z</time></trkpt><trkpt lat="46.056005" lon="13.2002617"><ele>102.5</ele><time>2026-03-22T12:39:53.45Z</time></trkpt><trkpt lat="46.055705" lon="13.2004783"><ele>100.0</ele><time>2026-03-22T12:39:54.451Z</time></trkpt><trkpt lat="46.055405" lon="13.200695"><ele>100.0</ele><time>2026-03-22T12:39:55.452Z</time></trkpt><trkpt lat="46.0551067" lon="13.20092"><ele>100.0</ele><time>2026-03-22T12:39:56.45Z</time></trkpt><trkpt lat="46.0548017" lon="13.2011333"><ele>100.0</ele><time>2026-03-22T12:39:57.45Z</time></trkpt><trkpt lat="46.0544967" lon="13.2013517"><ele>100.0</ele><time>2026-03-22T12:39:58.45Z</time></trkpt><trkpt lat="46.0541933" lon="13.2015767"><ele>101.0</ele><time>2026-03-22T12:39:59.45Z</time></trkpt><trkpt lat="46.0538883" lon="13.2017983"><ele>102.0</ele><time>2026-03-22T12:40:00.449Z</time></trkpt><trkpt lat="46.0535833" lon="13.2020233"><ele>101.0</ele><time>2026-03-22T12:40:01.452Z</time></trkpt><trkpt lat="46.0532817" lon="13.20226"><ele>100.0</ele><time>2026-03-22T12:40:02.457Z</time></trkpt><trkpt lat="46.05298" lon="13.202485"><ele>100.0</ele><time>2026-03-22T12:40:03.45Z</time></trkpt><trkpt lat="46.0526717" lon="13.2027183"><ele>100.0</ele><time>2026-03-22T12:40:04.45Z</time></trkpt><trkpt lat="46.052365" lon="13.202945"><ele>98.0</ele><time>2026-03-22T12:40:05.449Z</time></trkpt><trkpt lat="46.052065" lon="13.203165"><ele>96.0</ele><time>2026-03-22T12:40:06.448Z</time></trkpt><trkpt lat="46.0517733" lon="13.2033833"><ele>94.5</ele><time>2026-03-22T12:40:07.45Z</time></trkpt><trkpt lat="46.0514783" lon="13.2036017"><ele>93.0</ele><time>2026-03-22T12:40:08.45Z</time></trkpt><trkpt lat="46.0511817" lon="13.2038283"><ele>93.5</ele><time>2026-03-22T12:40:09.45Z</time></trkpt><trkpt lat="46.050885" lon="13.2040533"><ele>94.0</ele><time>2026-03-22T12:40:10.45Z</time></trkpt><trkpt lat="46.0505867" lon="13.2042733"><ele>94.5</ele><time>2026-03-22T12:40:11.45Z</time></trkpt><trkpt lat="46.05029" lon="13.2044983"><ele>95.0</ele><time>2026-03-22T12:40:12.458Z</time></trkpt><trkpt lat="46.0499933" lon="13.20472"><ele>93.5</ele><time>2026-03-22T12:40:13.449Z</time></trkpt><trkpt lat="46.0496983" lon="13.20494"><ele>92.0</ele><time>2026-03-22T12:40:14.449Z</time></trkpt><trkpt lat="46.0493983" lon="13.2051667"><ele>92.5</ele><time>2026-03-22T12:40:15.451Z</time></trkpt><trkpt lat="46.0491017" lon="13.205395"><ele>93.0</ele><time>2026-03-22T12:40:16.449Z</time></trkpt><trkpt lat="46.0488017" lon="13.2056317"><ele>91.5</ele><time>2026-03-22T12:40:17.45Z</time></trkpt><trkpt lat="46.0485133" lon="13.205885"><ele>90.0</ele><time>2026-03-22T12:40:18.449Z</time></trkpt><trkpt lat="46.04823" lon="13.2061467"><ele>91.0</ele><time>2026-03-22T12:40:19.451Z</time></trkpt><trkpt lat="46.0479517" lon="13.2064167"><ele>92.0</ele><time>2026-03-22T12:40:20.45Z</time></trkpt><trkpt lat="46.047685" lon="13.2067"><ele>94.0</ele><time>2026-03-22T12:40:21.45Z</time></trkpt><trkpt lat="46.0474217" lon="13.206995"><ele>96.0</ele><time>2026-03-22T12:40:22.449Z</time></trkpt><trkpt lat="46.0471733" lon="13.207295"><ele>95.5</ele><time>2026-03-22T12:40:23.45Z</time></trkpt><trkpt lat="46.04692" lon="13.2076033"><ele>95.0</ele><time>2026-03-22T12:40:24.45Z</time></trkpt><trkpt lat="46.046675" lon="13.2079217"><ele>95.5</ele><time>2026-03-22T12:40:25.451Z</time></trkpt><trkpt lat="46.0464317" lon="13.208225"><ele>96.0</ele><time>2026-03-22T12:40:26.45Z</time></trkpt><trkpt lat="46.0461917" lon="13.2085267"><ele>96.0</ele><time>2026-03-22T12:40:27.45Z</time></trkpt><trkpt lat="46.04595" lon="13.2088083"><ele>96.0</ele><time>2026-03-22T12:40:28.451Z</time></trkpt><trkpt lat="46.0457067" lon="13.2090817"><ele>96.5</ele><time>2026-03-22T12:40:29.449Z</time></trkpt><trkpt lat="46.04545" lon="13.2093333"><ele>97.0</ele><time>2026-03-22T12:40:30.45Z</time></trkpt><trkpt lat="46.0451867" lon="13.2095683"><ele>96.5</ele><time>2026-03-22T12:40:31.449Z</time></trkpt><trkpt lat="46.044915" lon="13.2097933"><ele>96.0</ele><time>2026-03-22T12:40:32.45Z</time></trkpt><trkpt lat="46.0446367" lon="13.210015"><ele>94.5</ele><time>2026-03-22T12:40:33.45Z</time></trkpt><trkpt lat="46.0443533" lon="13.2102233"><ele>93.0</ele><time>2026-03-22T12:40:34.449Z</time></trkpt><trkpt lat="46.0440683" lon="13.2104067"><ele>90.5</ele><time>2026-03-22T12:40:35.45Z</time></trkpt><trkpt lat="46.0437933" lon="13.2105833"><ele>88.0</ele><time>2026-03-22T12:40:36.45Z</time></trkpt><trkpt lat="46.0435283" lon="13.210735"><ele>89.0</ele><time>2026-03-22T12:40:37.45Z</time></trkpt><trkpt lat="46.0432683" lon="13.21086"><ele>90.0</ele><time>2026-03-22T12:40:38.449Z</time></trkpt><trkpt lat="46.043015" lon="13.2109533"><ele>90.0</ele><time>2026-03-22T12:40:39.45Z</time></trkpt><trkpt lat="46.0427683" lon="13.211015"><ele>90.0</ele><time>2026-03-22T12:40:40.449Z</time></trkpt><trkpt lat="46.0425333" lon="13.2110517"><ele>90.5</ele><time>2026-03-22T12:40:41.45Z</time></trkpt><trkpt lat="46.0423033" lon="13.2110533"><ele>91.0</ele><time>2026-03-22T12:40:42.45Z</time></trkpt><trkpt lat="46.04207" lon="13.21103"><ele>91.0</ele><time>2026-03-22T12:40:43.449Z</time></trkpt><trkpt lat="46.0418333" lon="13.210965"><ele>91.0</ele><time>2026-03-22T12:40:44.449Z</time></trkpt><trkpt lat="46.0415983" lon="13.210885"><ele>90.5</ele><time>2026-03-22T12:40:45.45Z</time></trkpt><trkpt lat="46.0413683" lon="13.2108083"><ele>90.0</ele><time>2026-03-22T12:40:46.451Z</time></trkpt><trkpt lat="46.0411333" lon="13.2107417"><ele>90.0</ele><time>2026-03-22T12:40:47.45Z</time></trkpt><trkpt lat="46.04089" lon="13.210705"><ele>90.0</ele><time>2026-03-22T12:40:48.45Z</time></trkpt><trkpt lat="46.040655" lon="13.2106833"><ele>88.66666666666667</ele><time>2026-03-22T12:40:49.45Z</time></trkpt><trkpt lat="46.0404283" lon="13.2106933"><ele>87.33333333333334</ele><time>2026-03-22T12:40:50.449Z</time></trkpt><trkpt lat="46.040215" lon="13.2107283"><ele>86.0</ele><time>2026-03-22T12:40:51.449Z</time></trkpt><trkpt lat="46.0400133" lon="13.2107883"><ele>86.0</ele><time>2026-03-22T12:40:52.449Z</time></trkpt><trkpt lat="46.0398167" lon="13.2108983"><ele>86.0</ele><time>2026-03-22T12:40:53.449Z</time></trkpt><trkpt lat="46.03963" lon="13.2110483"><ele>86.0</ele><time>2026-03-22T12:40:54.451Z</time></trkpt><trkpt lat="46.0394533" lon="13.21124"><ele>86.0</ele><time>2026-03-22T12:40:55.45Z</time></trkpt><trkpt lat="46.0392833" lon="13.21146"><ele>86.0</ele><time>2026-03-22T12:40:56.45Z</time></trkpt><trkpt lat="46.03912" lon="13.21171"><ele>86.0</ele><time>2026-03-22T12:40:57.45Z</time></trkpt><trkpt lat="46.0389583" lon="13.2119683"><ele>86.0</ele><time>2026-03-22T12:40:58.45Z</time></trkpt><trkpt lat="46.0387967" lon="13.2122283"><ele>88.0</ele><time>2026-03-22T12:40:59.45Z</time></trkpt><trkpt lat="46.0386383" lon="13.2124733"><ele>90.0</ele><time>2026-03-22T12:41:00.451Z</time></trkpt><trkpt lat="46.0384767" lon="13.2126933"><ele>90.0</ele><time>2026-03-22T12:41:01.45Z</time></trkpt><trkpt lat="46.0383133" lon="13.212905"><ele>90.0</ele><time>2026-03-22T12:41:02.45Z</time></trkpt><trkpt lat="46.0381367" lon="13.2130883"><ele>90.0</ele><time>2026-03-22T12:41:03.45Z</time></trkpt><trkpt lat="46.0379617" lon="13.213245"><ele>89.33333333333333</ele><time>2026-03-22T12:41:04.45Z</time></trkpt><trkpt lat="46.03778" lon="13.213365"><ele>88.66666666666666</ele><time>2026-03-22T12:41:05.45Z</time></trkpt><trkpt lat="46.0375833" lon="13.2134533"><ele>88.0</ele><time>2026-03-22T12:41:06.45Z</time></trkpt><trkpt lat="46.0373733" lon="13.2135067"><ele>87.5</ele><time>2026-03-22T12:41:07.45Z</time></trkpt><trkpt lat="46.0371517" lon="13.2135233"><ele>87.0</ele><time>2026-03-22T12:41:08.45Z</time></trkpt><trkpt lat="46.0369217" lon="13.2135083"><ele>87.0</ele><time>2026-03-22T12:41:09.449Z</time></trkpt><trkpt lat="46.0366833" lon="13.2134633"><ele>87.0</ele><time>2026-03-22T12:41:10.45Z</time></trkpt><trkpt lat="46.0364433" lon="13.2133833"><ele>88.0</ele><time>2026-03-22T12:41:11.449Z</time></trkpt><trkpt lat="46.0362017" lon="13.21328"><ele>89.0</ele><time>2026-03-22T12:41:12.451Z</time></trkpt><trkpt lat="46.0359567" lon="13.213165"><ele>87.5</ele><time>2026-03-22T12:41:13.45Z</time></trkpt><trkpt lat="46.0357083" lon="13.213045"><ele>86.0</ele><time>2026-03-22T12:41:14.45Z</time></trkpt><trkpt lat="46.0354567" lon="13.2129433"><ele>86.0</ele><time>2026-03-22T12:41:15.451Z</time></trkpt><trkpt lat="46.0352033" lon="13.2128617"><ele>86.0</ele><time>2026-03-22T12:41:16.45Z</time></trkpt><trkpt lat="46.0349417" lon="13.2128017"><ele>86.0</ele><time>2026-03-22T12:41:17.45Z</time></trkpt><trkpt lat="46.0346733" lon="13.2127717"><ele>86.0</ele><time>2026-03-22T12:41:18.45Z</time></trkpt><trkpt lat="46.0344" lon="13.21276"><ele>86.5</ele><time>2026-03-22T12:41:19.451Z</time></trkpt><trkpt lat="46.0341167" lon="13.21278"><ele>87.0</ele><time>2026-03-22T12:41:20.452Z</time></trkpt><trkpt lat="46.03383" lon="13.212805"><ele>87.0</ele><time>2026-03-22T12:41:21.451Z</time></trkpt><trkpt lat="46.0335367" lon="13.2128283"><ele>87.0</ele><time>2026-03-22T12:41:22.45Z</time></trkpt><trkpt lat="46.0332383" lon="13.2128517"><ele>86.5</ele><time>2026-03-22T12:41:23.451Z</time></trkpt><trkpt lat="46.0329367" lon="13.2128667"><ele>86.0</ele><time>2026-03-22T12:41:24.452Z</time></trkpt><trkpt lat="46.03263" lon="13.212885"><ele>86.0</ele><time>2026-03-22T12:41:25.451Z</time></trkpt><trkpt lat="46.0323217" lon="13.2129017"><ele>86.0</ele><time>2026-03-22T12:41:26.448Z</time></trkpt><trkpt lat="46.032015" lon="13.21291"><ele>86.0</ele><time>2026-03-22T12:41:27.45Z</time></trkpt><trkpt lat="46.0317067" lon="13.21292"><ele>86.0</ele><time>2026-03-22T12:41:28.451Z</time></trkpt><trkpt lat="46.031395" lon="13.2129383"><ele>85.5</ele><time>2026-03-22T12:41:29.45Z</time></trkpt><trkpt lat="46.0310817" lon="13.212975"><ele>85.0</ele><time>2026-03-22T12:41:30.451Z</time></trkpt><trkpt lat="46.03077" lon="13.2129983"><ele>84.5</ele><time>2026-03-22T12:41:31.45Z</time></trkpt><trkpt lat="46.0304567" lon="13.2130167"><ele>84.0</ele><time>2026-03-22T12:41:32.449Z</time></trkpt><trkpt lat="46.0301433" lon="13.2130283"><ele>82.5</ele><time>2026-03-22T12:41:33.451Z</time></trkpt><trkpt lat="46.0298267" lon="13.2130417"><ele>81.0</ele><time>2026-03-22T12:41:34.449Z</time></trkpt><trkpt lat="46.02951" lon="13.2130583"><ele>81.0</ele><time>2026-03-22T12:41:35.45Z</time></trkpt><trkpt lat="46.02919" lon="13.2130583"><ele>81.0</ele><time>2026-03-22T12:41:36.45Z</time></trkpt><trkpt lat="46.02887" lon="13.2130583"><ele>80.5</ele><time>2026-03-22T12:41:37.448Z</time></trkpt><trkpt lat="46.0285517" lon="13.21305"><ele>80.0</ele><time>2026-03-22T12:41:38.451Z</time></trkpt><trkpt lat="46.0282383" lon="13.2130383"><ele>80.0</ele><time>2026-03-22T12:41:39.461Z</time></trkpt><trkpt lat="46.02793" lon="13.213005"><ele>80.0</ele><time>2026-03-22T12:41:40.45Z</time></trkpt><trkpt lat="46.0276233" lon="13.212955"><ele>78.5</ele><time>2026-03-22T12:41:41.449Z</time></trkpt><trkpt lat="46.027315" lon="13.2128983"><ele>77.0</ele><time>2026-03-22T12:41:42.449Z</time></trkpt><trkpt lat="46.0270083" lon="13.212845"><ele>77.0</ele><time>2026-03-22T12:41:43.449Z</time></trkpt><trkpt lat="46.0267067" lon="13.2127883"><ele>77.0</ele><time>2026-03-22T12:41:44.449Z</time></trkpt><trkpt lat="46.0264067" lon="13.212735"><ele>77.5</ele><time>2026-03-22T12:41:45.45Z</time></trkpt><trkpt lat="46.0261083" lon="13.2126917"><ele>78.0</ele><time>2026-03-22T12:41:46.45Z</time></trkpt><trkpt lat="46.0258067" lon="13.2126517"><ele>78.0</ele><time>2026-03-22T12:41:47.452Z</time></trkpt><trkpt lat="46.0255067" lon="13.2126183"><ele>78.0</ele><time>2026-03-22T12:41:48.451Z</time></trkpt><trkpt lat="46.025205" lon="13.2125967"><ele>78.5</ele><time>2026-03-22T12:41:49.45Z</time></trkpt><trkpt lat="46.024895" lon="13.2126"><ele>79.0</ele><time>2026-03-22T12:41:50.451Z</time></trkpt><trkpt lat="46.0245867" lon="13.2126117"><ele>79.0</ele><time>2026-03-22T12:41:51.45Z</time></trkpt><trkpt lat="46.0242817" lon="13.2126467"><ele>79.0</ele><time>2026-03-22T12:41:52.451Z</time></trkpt><trkpt lat="46.0239833" lon="13.2127183"><ele>79.0</ele><time>2026-03-22T12:41:53.451Z</time></trkpt><trkpt lat="46.02369" lon="13.2128117"><ele>79.0</ele><time>2026-03-22T12:41:54.451Z</time></trkpt><trkpt lat="46.0233967" lon="13.212925"><ele>79.5</ele><time>2026-03-22T12:41:55.449Z</time></trkpt><trkpt lat="46.0231067" lon="13.21307"><ele>80.0</ele><time>2026-03-22T12:41:56.449Z</time></trkpt><trkpt lat="46.0228233" lon="13.213245"><ele>80.0</ele><time>2026-03-22T12:41:57.449Z</time></trkpt><trkpt lat="46.02255" lon="13.2134517"><ele>80.0</ele><time>2026-03-22T12:41:58.449Z</time></trkpt><trkpt lat="46.02228" lon="13.21366"><ele>80.5</ele><time>2026-03-22T12:41:59.448Z</time></trkpt><trkpt lat="46.02201" lon="13.2138917"><ele>81.0</ele><time>2026-03-22T12:42:00.449Z</time></trkpt><trkpt lat="46.02174" lon="13.2141217"><ele>80.5</ele><time>2026-03-22T12:42:01.45Z</time></trkpt><trkpt lat="46.0214733" lon="13.2143567"><ele>80.0</ele><time>2026-03-22T12:42:02.454Z</time></trkpt><trkpt lat="46.0212" lon="13.2145867"><ele>79.5</ele><time>2026-03-22T12:42:03.451Z</time></trkpt><trkpt lat="46.02093" lon="13.2148217"><ele>79.0</ele><time>2026-03-22T12:42:04.45Z</time></trkpt><trkpt lat="46.0206617" lon="13.21505"><ele>79.0</ele><time>2026-03-22T12:42:05.45Z</time></trkpt><trkpt lat="46.0203933" lon="13.2152817"><ele>79.0</ele><time>2026-03-22T12:42:06.45Z</time></trkpt><trkpt lat="46.0201267" lon="13.2155133"><ele>79.0</ele><time>2026-03-22T12:42:07.45Z</time></trkpt><trkpt lat="46.0198583" lon="13.215745"><ele>79.0</ele><time>2026-03-22T12:42:08.45Z</time></trkpt><trkpt lat="46.0195967" lon="13.21598"><ele>79.0</ele><time>2026-03-22T12:42:09.451Z</time></trkpt><trkpt lat="46.0193367" lon="13.2162133"><ele>79.0</ele><time>2026-03-22T12:42:10.45Z</time></trkpt><trkpt lat="46.0190833" lon="13.2164517"><ele>80.0</ele><time>2026-03-22T12:42:11.451Z</time></trkpt><trkpt lat="46.018835" lon="13.216705"><ele>81.0</ele><time>2026-03-22T12:42:12.45Z</time></trkpt><trkpt lat="46.0186017" lon="13.2169667"><ele>81.0</ele><time>2026-03-22T12:42:13.45Z</time></trkpt><trkpt lat="46.0183783" lon="13.21725"><ele>81.0</ele><time>2026-03-22T12:42:14.451Z</time></trkpt><trkpt lat="46.0181733" lon="13.2175617"><ele>81.5</ele><time>2026-03-22T12:42:15.452Z</time></trkpt><trkpt lat="46.0179833" lon="13.2178783"><ele>82.0</ele><time>2026-03-22T12:42:16.45Z</time></trkpt><trkpt lat="46.0178167" lon="13.2182217"><ele>82.0</ele><time>2026-03-22T12:42:17.45Z</time></trkpt><trkpt lat="46.0176633" lon="13.2185783"><ele>82.0</ele><time>2026-03-22T12:42:18.449Z</time></trkpt><trkpt lat="46.0175217" lon="13.2189417"><ele>81.0</ele><time>2026-03-22T12:42:19.45Z</time></trkpt><trkpt lat="46.017395" lon="13.21931"><ele>80.0</ele><time>2026-03-22T12:42:20.449Z</time></trkpt><trkpt lat="46.0172833" lon="13.21968"><ele>79.0</ele><time>2026-03-22T12:42:21.451Z</time></trkpt><trkpt lat="46.017185" lon="13.2200467"><ele>78.0</ele><time>2026-03-22T12:42:22.449Z</time></trkpt><trkpt lat="46.0170967" lon="13.2204033"><ele>78.0</ele><time>2026-03-22T12:42:23.449Z</time></trkpt><trkpt lat="46.0170183" lon="13.2207567"><ele>78.0</ele><time>2026-03-22T12:42:24.45Z</time></trkpt><trkpt lat="46.0169417" lon="13.2210983"><ele>78.0</ele><time>2026-03-22T12:42:25.45Z</time></trkpt><trkpt lat="46.016865" lon="13.2214317"><ele>78.0</ele><time>2026-03-22T12:42:26.45Z</time></trkpt><trkpt lat="46.0167883" lon="13.221755"><ele>78.0</ele><time>2026-03-22T12:42:27.449Z</time></trkpt><trkpt lat="46.0167183" lon="13.2220717"><ele>78.0</ele><time>2026-03-22T12:42:28.45Z</time></trkpt><trkpt lat="46.0166483" lon="13.22238"><ele>78.66666666666667</ele><time>2026-03-22T12:42:29.449Z</time></trkpt><trkpt lat="46.01657" lon="13.22268"><ele>79.33333333333334</ele><time>2026-03-22T12:42:30.448Z</time></trkpt><trkpt lat="46.0164817" lon="13.22296"><ele>80.0</ele><time>2026-03-22T12:42:31.45Z</time></trkpt><trkpt lat="46.0163917" lon="13.2232333"><ele>80.0</ele><time>2026-03-22T12:42:32.45Z</time></trkpt><trkpt lat="46.0162933" lon="13.2234917"><ele>80.0</ele><time>2026-03-22T12:42:33.45Z</time></trkpt><trkpt lat="46.01619" lon="13.2237483"><ele>80.0</ele><time>2026-03-22T12:42:34.45Z</time></trkpt><trkpt lat="46.0160783" lon="13.22399"><ele>80.0</ele><time>2026-03-22T12:42:35.45Z</time></trkpt><trkpt lat="46.0159617" lon="13.22422"><ele>80.0</ele><time>2026-03-22T12:42:36.449Z</time></trkpt><trkpt lat="46.01584" lon="13.2244383"><ele>80.0</ele><time>2026-03-22T12:42:37.45Z</time></trkpt><trkpt lat="46.0157117" lon="13.2246367"><ele>80.0</ele><time>2026-03-22T12:42:38.451Z</time></trkpt><trkpt lat="46.0155817" lon="13.22482"><ele>80.0</ele><time>2026-03-22T12:42:39.45Z</time></trkpt><trkpt lat="46.0154583" lon="13.2249933"><ele>80.0</ele><time>2026-03-22T12:42:40.449Z</time></trkpt><trkpt lat="46.0153383" lon="13.2251567"><ele>80.0</ele><time>2026-03-22T12:42:41.449Z</time></trkpt><trkpt lat="46.015205" lon="13.2252833"><ele>80.0</ele><time>2026-03-22T12:42:42.451Z</time></trkpt><trkpt lat="46.0150717" lon="13.2253983"><ele>80.0</ele><time>2026-03-22T12:42:43.45Z</time></trkpt><trkpt lat="46.0149367" lon="13.2255067"><ele>79.5</ele><time>2026-03-22T12:42:44.45Z</time></trkpt><trkpt lat="46.0148067" lon="13.2255833"><ele>79.0</ele><time>2026-03-22T12:42:45.45Z</time></trkpt><trkpt lat="46.0146733" lon="13.2256183"><ele>78.5</ele><time>2026-03-22T12:42:46.45Z</time></trkpt><trkpt lat="46.0145367" lon="13.2256083"><ele>78.0</ele><time>2026-03-22T12:42:47.45Z</time></trkpt><trkpt lat="46.014405" lon="13.2255633"><ele>78.0</ele><time>2026-03-22T12:42:48.449Z</time></trkpt><trkpt lat="46.014285" lon="13.225475"><ele>78.0</ele><time>2026-03-22T12:42:49.45Z</time></trkpt><trkpt lat="46.0141817" lon="13.225345"><ele>78.0</ele><time>2026-03-22T12:42:50.45Z</time></trkpt><trkpt lat="46.0141017" lon="13.2251767"><ele>78.0</ele><time>2026-03-22T12:42:51.451Z</time></trkpt><trkpt lat="46.01405" lon="13.224985"><ele>78.0</ele><time>2026-03-22T12:42:52.45Z</time></trkpt><trkpt lat="46.0140333" lon="13.224785"><ele>78.0</ele><time>2026-03-22T12:42:53.45Z</time></trkpt><trkpt lat="46.0140467" lon="13.2245933"><ele>78.0</ele><time>2026-03-22T12:42:54.45Z</time></trkpt><trkpt lat="46.014085" lon="13.224415"><ele>78.0</ele><time>2026-03-22T12:42:55.449Z</time></trkpt><trkpt lat="46.014155" lon="13.224255"><ele>78.0</ele><time>2026-03-22T12:42:56.45Z</time></trkpt><trkpt lat="46.0142433" lon="13.224125"><ele>78.0</ele><time>2026-03-22T12:42:57.45Z</time></trkpt><trkpt lat="46.014345" lon="13.2240217"><ele>78.0</ele><time>2026-03-22T12:42:58.45Z</time></trkpt><trkpt lat="46.0144583" lon="13.2239533"><ele>78.0</ele><time>2026-03-22T12:42:59.449Z</time></trkpt><trkpt lat="46.01458" lon="13.2239233"><ele>78.0</ele><time>2026-03-22T12:43:00.449Z</time></trkpt><trkpt lat="46.0147033" lon="13.2239333"><ele>78.0</ele><time>2026-03-22T12:43:01.45Z</time></trkpt><trkpt lat="46.01482" lon="13.223985"><ele>78.0</ele><time>2026-03-22T12:43:02.45Z</time></trkpt><trkpt lat="46.014935" lon="13.2240717"><ele>78.0</ele><time>2026-03-22T12:43:03.45Z</time></trkpt><trkpt lat="46.0150417" lon="13.2241917"><ele>79.0</ele><time>2026-03-22T12:43:04.45Z</time></trkpt><trkpt lat="46.0151483" lon="13.224345"><ele>80.0</ele><time>2026-03-22T12:43:05.45Z</time></trkpt><trkpt lat="46.0152533" lon="13.2245283"><ele>81.0</ele><time>2026-03-22T12:43:06.45Z</time></trkpt><trkpt lat="46.0153633" lon="13.22474"><ele>80.66666666666667</ele><time>2026-03-22T12:43:07.449Z</time></trkpt><trkpt lat="46.0154683" lon="13.224975"><ele>80.33333333333334</ele><time>2026-03-22T12:43:08.449Z</time></trkpt><trkpt lat="46.0155783" lon="13.2252333"><ele>80.0</ele><time>2026-03-22T12:43:09.45Z</time></trkpt><trkpt lat="46.0157117" lon="13.2254933"><ele>80.5</ele><time>2026-03-22T12:43:10.449Z</time></trkpt><trkpt lat="46.015845" lon="13.225765"><ele>81.0</ele><time>2026-03-22T12:43:11.45Z</time></trkpt><trkpt lat="46.0159767" lon="13.2260483"><ele>81.0</ele><time>2026-03-22T12:43:12.449Z</time></trkpt><trkpt lat="46.016105" lon="13.2263383"><ele>81.0</ele><time>2026-03-22T12:43:13.45Z</time></trkpt><trkpt lat="46.016235" lon="13.226635"><ele>81.0</ele><time>2026-03-22T12:43:14.45Z</time></trkpt><trkpt lat="46.0163633" lon="13.2269433"><ele>81.0</ele><time>2026-03-22T12:43:15.45Z</time></trkpt><trkpt lat="46.016495" lon="13.22726"><ele>81.0</ele><time>2026-03-22T12:43:16.449Z</time></trkpt><trkpt lat="46.0166283" lon="13.227585"><ele>81.0</ele><time>2026-03-22T12:43:17.45Z</time></trkpt><trkpt lat="46.0167517" lon="13.2279117"><ele>80.0</ele><time>2026-03-22T12:43:18.452Z</time></trkpt><trkpt lat="46.016875" lon="13.2282433"><ele>79.0</ele><time>2026-03-22T12:43:19.448Z</time></trkpt><trkpt lat="46.016995" lon="13.2285833"><ele>79.0</ele><time>2026-03-22T12:43:20.45Z</time></trkpt><trkpt lat="46.0171067" lon="13.2289333"><ele>79.0</ele><time>2026-03-22T12:43:21.45Z</time></trkpt><trkpt lat="46.0172167" lon="13.2292867"><ele>78.5</ele><time>2026-03-22T12:43:22.45Z</time></trkpt><trkpt lat="46.01731" lon="13.2296533"><ele>78.0</ele><time>2026-03-22T12:43:23.45Z</time></trkpt><trkpt lat="46.0173983" lon="13.23003"><ele>78.0</ele><time>2026-03-22T12:43:24.451Z</time></trkpt><trkpt lat="46.01748" lon="13.2304117"><ele>78.0</ele><time>2026-03-22T12:43:25.45Z</time></trkpt><trkpt lat="46.0175417" lon="13.2308083"><ele>78.0</ele><time>2026-03-22T12:43:26.45Z</time></trkpt><trkpt lat="46.0176" lon="13.231205"><ele>78.0</ele><time>2026-03-22T12:43:27.45Z</time></trkpt><trkpt lat="46.0176533" lon="13.231605"><ele>78.0</ele><time>2026-03-22T12:43:28.449Z</time></trkpt><trkpt lat="46.0176933" lon="13.23201"><ele>78.0</ele><time>2026-03-22T12:43:29.451Z</time></trkpt><trkpt lat="46.01773" lon="13.2324067"><ele>78.0</ele><time>2026-03-22T12:43:30.45Z</time></trkpt><trkpt lat="46.017755" lon="13.2327967"><ele>78.0</ele><time>2026-03-22T12:43:31.449Z</time></trkpt><trkpt lat="46.0177733" lon="13.2331933"><ele>78.0</ele><time>2026-03-22T12:43:32.45Z</time></trkpt><trkpt lat="46.017775" lon="13.2336"><ele>78.0</ele><time>2026-03-22T12:43:33.451Z</time></trkpt><trkpt lat="46.0177667" lon="13.23401"><ele>78.0</ele><time>2026-03-22T12:43:34.449Z</time></trkpt><trkpt lat="46.0177467" lon="13.2344183"><ele>78.0</ele><time>2026-03-22T12:43:35.449Z</time></trkpt><trkpt lat="46.0177183" lon="13.23483"><ele>78.0</ele><time>2026-03-22T12:43:36.449Z</time></trkpt><trkpt lat="46.017685" lon="13.2352383"><ele>78.0</ele><time>2026-03-22T12:43:37.449Z</time></trkpt><trkpt lat="46.0176417" lon="13.23565"><ele>78.5</ele><time>2026-03-22T12:43:38.449Z</time></trkpt><trkpt lat="46.0175917" lon="13.23606"><ele>79.0</ele><time>2026-03-22T12:43:39.45Z</time></trkpt><trkpt lat="46.0175333" lon="13.23647"><ele>78.0</ele><time>2026-03-22T12:43:40.45Z</time></trkpt><trkpt lat="46.0174617" lon="13.2368817"><ele>77.0</ele><time>2026-03-22T12:43:41.45Z</time></trkpt><trkpt lat="46.017385" lon="13.2372917"><ele>77.0</ele><time>2026-03-22T12:43:42.449Z</time></trkpt><trkpt lat="46.0173067" lon="13.2377033"><ele>77.0</ele><time>2026-03-22T12:43:43.449Z</time></trkpt><trkpt lat="46.01723" lon="13.23812"><ele>77.0</ele><time>2026-03-22T12:43:44.449Z</time></trkpt><trkpt lat="46.017155" lon="13.23854"><ele>77.0</ele><time>2026-03-22T12:43:45.45Z</time></trkpt><trkpt lat="46.0170833" lon="13.2389617"><ele>76.5</ele><time>2026-03-22T12:43:46.45Z</time></trkpt><trkpt lat="46.0170083" lon="13.2393817"><ele>76.0</ele><time>2026-03-22T12:43:47.45Z</time></trkpt><trkpt lat="46.0169333" lon="13.2398"><ele>76.0</ele><time>2026-03-22T12:43:48.449Z</time></trkpt><trkpt lat="46.016855" lon="13.2402217"><ele>76.0</ele><time>2026-03-22T12:43:49.454Z</time></trkpt><trkpt lat="46.0167833" lon="13.240645"><ele>76.0</ele><time>2026-03-22T12:43:50.45Z</time></trkpt><trkpt lat="46.0167017" lon="13.2410683"><ele>76.0</ele><time>2026-03-22T12:43:51.452Z</time></trkpt><trkpt lat="46.0166233" lon="13.2414933"><ele>77.0</ele><time>2026-03-22T12:43:52.45Z</time></trkpt><trkpt lat="46.01654" lon="13.2419217"><ele>78.0</ele><time>2026-03-22T12:43:53.448Z</time></trkpt><trkpt lat="46.0164617" lon="13.2423533"><ele>77.5</ele><time>2026-03-22T12:43:54.449Z</time></trkpt><trkpt lat="46.016385" lon="13.24279"><ele>77.0</ele><time>2026-03-22T12:43:55.448Z</time></trkpt><trkpt lat="46.0163083" lon="13.2432333"><ele>77.0</ele><time>2026-03-22T12:43:56.449Z</time></trkpt><trkpt lat="46.0162267" lon="13.24367"><ele>77.0</ele><time>2026-03-22T12:43:57.45Z</time></trkpt><trkpt lat="46.0161483" lon="13.2441067"><ele>77.5</ele><time>2026-03-22T12:43:58.449Z</time></trkpt><trkpt lat="46.016065" lon="13.2445433"><ele>78.0</ele><time>2026-03-22T12:43:59.448Z</time></trkpt><trkpt lat="46.01598" lon="13.2449867"><ele>79.0</ele><time>2026-03-22T12:44:00.448Z</time></trkpt><trkpt lat="46.0158967" lon="13.24543"><ele>80.0</ele><time>2026-03-22T12:44:01.449Z</time></trkpt><trkpt lat="46.0158167" lon="13.2458783"><ele>80.0</ele><time>2026-03-22T12:44:02.45Z</time></trkpt><trkpt lat="46.0157367" lon="13.24632"><ele>80.0</ele><time>2026-03-22T12:44:03.449Z</time></trkpt><trkpt lat="46.0156617" lon="13.246765"><ele>78.5</ele><time>2026-03-22T12:44:04.449Z</time></trkpt><trkpt lat="46.0155933" lon="13.2472133"><ele>77.0</ele><time>2026-03-22T12:44:05.45Z</time></trkpt><trkpt lat="46.01553" lon="13.24766"><ele>76.0</ele><time>2026-03-22T12:44:06.449Z</time></trkpt><trkpt lat="46.015475" lon="13.2481117"><ele>75.0</ele><time>2026-03-22T12:44:07.455Z</time></trkpt><trkpt lat="46.0154317" lon="13.2485717"><ele>75.5</ele><time>2026-03-22T12:44:08.45Z</time></trkpt><trkpt lat="46.01539" lon="13.2490333"><ele>76.0</ele><time>2026-03-22T12:44:09.451Z</time></trkpt><trkpt lat="46.0153617" lon="13.2494933"><ele>76.5</ele><time>2026-03-22T12:44:10.451Z</time></trkpt><trkpt lat="46.01535" lon="13.249965"><ele>77.0</ele><time>2026-03-22T12:44:11.449Z</time></trkpt><trkpt lat="46.0153433" lon="13.2504317"><ele>76.0</ele><time>2026-03-22T12:44:12.45Z</time></trkpt><trkpt lat="46.01533" lon="13.2508817"><ele>75.0</ele><time>2026-03-22T12:44:13.45Z</time></trkpt><trkpt lat="46.0153467" lon="13.25133"><ele>75.0</ele><time>2026-03-22T12:44:14.449Z</time></trkpt><trkpt lat="46.01537" lon="13.251785"><ele>75.0</ele><time>2026-03-22T12:44:15.45Z</time></trkpt><trkpt lat="46.0154033" lon="13.2522417"><ele>75.5</ele><time>2026-03-22T12:44:16.449Z</time></trkpt><trkpt lat="46.0154433" lon="13.2526967"><ele>76.0</ele><time>2026-03-22T12:44:17.449Z</time></trkpt><trkpt lat="46.01549" lon="13.2531483"><ele>76.5</ele><time>2026-03-22T12:44:18.449Z</time></trkpt><trkpt lat="46.015535" lon="13.2536033"><ele>77.0</ele><time>2026-03-22T12:44:19.449Z</time></trkpt><trkpt lat="46.0155883" lon="13.2540567"><ele>76.5</ele><time>2026-03-22T12:44:20.45Z</time></trkpt><trkpt lat="46.01565" lon="13.25451"><ele>76.0</ele><time>2026-03-22T12:44:21.45Z</time></trkpt><trkpt lat="46.01572" lon="13.2549633"><ele>76.0</ele><time>2026-03-22T12:44:22.45Z</time></trkpt><trkpt lat="46.0158033" lon="13.2554117"><ele>76.0</ele><time>2026-03-22T12:44:23.45Z</time></trkpt><trkpt lat="46.0158983" lon="13.2558467"><ele>76.5</ele><time>2026-03-22T12:44:24.45Z</time></trkpt><trkpt lat="46.016" lon="13.2562733"><ele>77.0</ele><time>2026-03-22T12:44:25.449Z</time></trkpt><trkpt lat="46.01611" lon="13.2566833"><ele>77.0</ele><time>2026-03-22T12:44:26.449Z</time></trkpt><trkpt lat="46.0162183" lon="13.257085"><ele>77.0</ele><time>2026-03-22T12:44:27.451Z</time></trkpt><trkpt lat="46.0163317" lon="13.2574833"><ele>77.5</ele><time>2026-03-22T12:44:28.449Z</time></trkpt><trkpt lat="46.016445" lon="13.2578717"><ele>78.0</ele><time>2026-03-22T12:44:29.451Z</time></trkpt><trkpt lat="46.0165633" lon="13.2582433"><ele>78.5</ele><time>2026-03-22T12:44:30.449Z</time></trkpt><trkpt lat="46.0166767" lon="13.2586067"><ele>79.0</ele><time>2026-03-22T12:44:31.449Z</time></trkpt><trkpt lat="46.0167983" lon="13.2589567"><ele>79.5</ele><time>2026-03-22T12:44:32.45Z</time></trkpt><trkpt lat="46.0169183" lon="13.2592983"><ele>80.0</ele><time>2026-03-22T12:44:33.45Z</time></trkpt><trkpt lat="46.0170383" lon="13.2596283"><ele>79.5</ele><time>2026-03-22T12:44:34.449Z</time></trkpt><trkpt lat="46.0171583" lon="13.2599533"><ele>79.0</ele><time>2026-03-22T12:44:35.454Z</time></trkpt><trkpt lat="46.01728" lon="13.2602833"><ele>79.0</ele><time>2026-03-22T12:44:36.45Z</time></trkpt><trkpt lat="46.0173967" lon="13.260615"><ele>79.0</ele><time>2026-03-22T12:44:37.45Z</time></trkpt><trkpt lat="46.017515" lon="13.2609417"><ele>78.5</ele><time>2026-03-22T12:44:38.449Z</time></trkpt><trkpt lat="46.01763" lon="13.26126"><ele>78.0</ele><time>2026-03-22T12:44:39.451Z</time></trkpt><trkpt lat="46.017745" lon="13.2615683"><ele>78.0</ele><time>2026-03-22T12:44:40.449Z</time></trkpt><trkpt lat="46.017855" lon="13.2618667"><ele>78.0</ele><time>2026-03-22T12:44:41.45Z</time></trkpt><trkpt lat="46.017965" lon="13.2621533"><ele>79.0</ele><time>2026-03-22T12:44:42.45Z</time></trkpt><trkpt lat="46.01808" lon="13.262435"><ele>80.0</ele><time>2026-03-22T12:44:43.45Z</time></trkpt><trkpt lat="46.0181933" lon="13.2627167"><ele>80.0</ele><time>2026-03-22T12:44:44.449Z</time></trkpt><trkpt lat="46.0183033" lon="13.2629983"><ele>80.0</ele><time>2026-03-22T12:44:45.45Z</time></trkpt><trkpt lat="46.01841" lon="13.2632717"><ele>80.0</ele><time>2026-03-22T12:44:46.45Z</time></trkpt><trkpt lat="46.0185167" lon="13.2635533"><ele>80.0</ele><time>2026-03-22T12:44:47.454Z</time></trkpt><trkpt lat="46.01862" lon="13.2638367"><ele>80.0</ele><time>2026-03-22T12:44:48.45Z</time></trkpt><trkpt lat="46.0187233" lon="13.2641233"><ele>80.0</ele><time>2026-03-22T12:44:49.448Z</time></trkpt><trkpt lat="46.0188267" lon="13.2644117"><ele>80.33333333333334</ele><time>2026-03-22T12:44:50.451Z</time></trkpt><trkpt lat="46.0189267" lon="13.2646967"><ele>80.66666666666667</ele><time>2026-03-22T12:44:51.451Z</time></trkpt><trkpt lat="46.019015" lon="13.2649767"><ele>81.0</ele><time>2026-03-22T12:44:52.45Z</time></trkpt><trkpt lat="46.0190933" lon="13.2652467"><ele>80.66666666666667</ele><time>2026-03-22T12:44:53.45Z</time></trkpt><trkpt lat="46.01917" lon="13.265505"><ele>80.33333333333334</ele><time>2026-03-22T12:44:54.449Z</time></trkpt><trkpt lat="46.019235" lon="13.265755"><ele>80.0</ele><time>2026-03-22T12:44:55.45Z</time></trkpt><trkpt lat="46.0192933" lon="13.26599"><ele>79.66666666666667</ele><time>2026-03-22T12:44:56.449Z</time></trkpt><trkpt lat="46.0193467" lon="13.2662167"><ele>79.33333333333333</ele><time>2026-03-22T12:44:57.45Z</time></trkpt><trkpt lat="46.0193983" lon="13.2664317"><ele>79.0</ele><time>2026-03-22T12:44:58.449Z</time></trkpt><trkpt lat="46.0194433" lon="13.2666333"><ele>79.75</ele><time>2026-03-22T12:44:59.449Z</time></trkpt><trkpt lat="46.0194783" lon="13.266825"><ele>80.5</ele><time>2026-03-22T12:45:00.451Z</time></trkpt><trkpt lat="46.0194983" lon="13.266995"><ele>81.25</ele><time>2026-03-22T12:45:01.45Z</time></trkpt><trkpt lat="46.0194917" lon="13.2671483"><ele>82.0</ele><time>2026-03-22T12:45:02.451Z</time></trkpt><trkpt lat="46.019455" lon="13.2672867"><ele>82.0</ele><time>2026-03-22T12:45:03.451Z</time></trkpt><trkpt lat="46.0193967" lon="13.267425"><ele>82.0</ele><time>2026-03-22T12:45:04.449Z</time></trkpt><trkpt lat="46.0193083" lon="13.2675783"><ele>82.0</ele><time>2026-03-22T12:45:05.449Z</time></trkpt><trkpt lat="46.0192133" lon="13.2677533"><ele>82.0</ele><time>2026-03-22T12:45:06.45Z</time></trkpt><trkpt lat="46.0191383" lon="13.2679383"><ele>81.66666666666666</ele><time>2026-03-22T12:45:07.452Z</time></trkpt><trkpt lat="46.0190933" lon="13.26814"><ele>81.33333333333333</ele><time>2026-03-22T12:45:08.45Z</time></trkpt><trkpt lat="46.01907" lon="13.2683533"><ele>81.0</ele><time>2026-03-22T12:45:09.45Z</time></trkpt><trkpt lat="46.01908" lon="13.2685733"><ele>81.0</ele><time>2026-03-22T12:45:10.451Z</time></trkpt><trkpt lat="46.0191233" lon="13.2687883"><ele>81.0</ele><time>2026-03-22T12:45:11.449Z</time></trkpt><trkpt lat="46.0191933" lon="13.2689867"><ele>81.0</ele><time>2026-03-22T12:45:12.45Z</time></trkpt><trkpt lat="46.0192933" lon="13.2691567"><ele>81.33333333333333</ele><time>2026-03-22T12:45:13.45Z</time></trkpt><trkpt lat="46.019415" lon="13.26929"><ele>81.66666666666666</ele><time>2026-03-22T12:45:14.45Z</time></trkpt><trkpt lat="46.01956" lon="13.2693833"><ele>82.0</ele><time>2026-03-22T12:45:15.45Z</time></trkpt><trkpt lat="46.0197233" lon="13.2694383"><ele>82.0</ele><time>2026-03-22T12:45:16.449Z</time></trkpt><trkpt lat="46.0198983" lon="13.26946"><ele>82.0</ele><time>2026-03-22T12:45:17.45Z</time></trkpt><trkpt lat="46.0200817" lon="13.269455"><ele>82.0</ele><time>2026-03-22T12:45:18.449Z</time></trkpt><trkpt lat="46.0202717" lon="13.2694217"><ele>81.66666666666666</ele><time>2026-03-22T12:45:19.45Z</time></trkpt><trkpt lat="46.0204617" lon="13.2693667"><ele>81.33333333333333</ele><time>2026-03-22T12:45:20.45Z</time></trkpt><trkpt lat="46.0206467" lon="13.2692883"><ele>81.0</ele><time>2026-03-22T12:45:21.449Z</time></trkpt><trkpt lat="46.0208333" lon="13.2691817"><ele>81.0</ele><time>2026-03-22T12:45:22.449Z</time></trkpt><trkpt lat="46.0210067" lon="13.2690583"><ele>81.0</ele><time>2026-03-22T12:45:23.449Z</time></trkpt><trkpt lat="46.0211667" lon="13.2689183"><ele>81.0</ele><time>2026-03-22T12:45:24.452Z</time></trkpt><trkpt lat="46.0213167" lon="13.26876"><ele>81.0</ele><time>2026-03-22T12:45:25.449Z</time></trkpt><trkpt lat="46.02145" lon="13.2685867"><ele>81.0</ele><time>2026-03-22T12:45:26.449Z</time></trkpt><trkpt lat="46.0215683" lon="13.2684167"><ele>81.0</ele><time>2026-03-22T12:45:27.451Z</time></trkpt><trkpt lat="46.021645" lon="13.2682183"><ele>81.66666666666667</ele><time>2026-03-22T12:45:28.45Z</time></trkpt><trkpt lat="46.0216883" lon="13.2680033"><ele>82.33333333333334</ele><time>2026-03-22T12:45:29.451Z</time></trkpt><trkpt lat="46.0217033" lon="13.2677717"><ele>83.0</ele><time>2026-03-22T12:45:30.454Z</time></trkpt><trkpt lat="46.021685" lon="13.2675367"><ele>82.66666666666667</ele><time>2026-03-22T12:45:31.45Z</time></trkpt><trkpt lat="46.0216333" lon="13.2673117"><ele>82.33333333333333</ele><time>2026-03-22T12:45:32.452Z</time></trkpt><trkpt lat="46.0215683" lon="13.2671133"><ele>82.0</ele><time>2026-03-22T12:45:33.45Z</time></trkpt><trkpt lat="46.0215017" lon="13.2669283"><ele>82.0</ele><time>2026-03-22T12:45:34.45Z</time></trkpt><trkpt lat="46.0214617" lon="13.266725"><ele>82.0</ele><time>2026-03-22T12:45:35.45Z</time></trkpt><trkpt lat="46.0214533" lon="13.2665"><ele>82.0</ele><time>2026-03-22T12:45:36.449Z</time></trkpt><trkpt lat="46.0214617" lon="13.26627"><ele>82.33333333333333</ele><time>2026-03-22T12:45:37.45Z</time></trkpt><trkpt lat="46.021475" lon="13.2660433"><ele>82.66666666666667</ele><time>2026-03-22T12:45:38.45Z</time></trkpt><trkpt lat="46.0214917" lon="13.265825"><ele>83.0</ele><time>2026-03-22T12:45:39.449Z</time></trkpt><trkpt lat="46.0215067" lon="13.2656133"><ele>82.75</ele><time>2026-03-22T12:45:40.45Z</time></trkpt><trkpt lat="46.0215233" lon="13.26541"><ele>82.5</ele><time>2026-03-22T12:45:41.451Z</time></trkpt><trkpt lat="46.0215383" lon="13.265215"><ele>82.25</ele><time>2026-03-22T12:45:42.449Z</time></trkpt><trkpt lat="46.0215567" lon="13.2650367"><ele>82.0</ele><time>2026-03-22T12:45:43.449Z</time></trkpt><trkpt lat="46.0215683" lon="13.2648883"><ele>82.16666666666666</ele><time>2026-03-22T12:45:44.449Z</time></trkpt><trkpt lat="46.02158" lon="13.264775"><ele>82.33333333333333</ele><time>2026-03-22T12:45:45.45Z</time></trkpt><trkpt lat="46.0215883" lon="13.2646817"><ele>82.5</ele><time>2026-03-22T12:45:46.45Z</time></trkpt><trkpt lat="46.0215933" lon="13.2645767"><ele>82.66666666666667</ele><time>2026-03-22T12:45:48.45Z</time></trkpt><trkpt lat="46.0216033" lon="13.2644817"><ele>82.83333333333334</ele><time>2026-03-22T12:45:52.449Z</time></trkpt><trkpt lat="46.02155" lon="13.2642783"><ele>83.0</ele><time>2026-03-22T12:45:54.449Z</time></trkpt><trkpt lat="46.02152" lon="13.26415"><ele>83.0</ele><time>2026-03-22T12:45:55.449Z</time></trkpt><trkpt lat="46.02149" lon="13.2640083"><ele>83.0</ele><time>2026-03-22T12:45:56.449Z</time></trkpt><trkpt lat="46.02146" lon="13.2638617"><ele>83.0</ele><time>2026-03-22T12:45:57.451Z</time></trkpt><trkpt lat="46.0214367" lon="13.2637067"><ele>83.0</ele><time>2026-03-22T12:45:58.45Z</time></trkpt><trkpt lat="46.02141" lon="13.263555"><ele>83.0</ele><time>2026-03-22T12:45:59.45Z</time></trkpt><trkpt lat="46.0213833" lon="13.2634033"><ele>83.2</ele><time>2026-03-22T12:46:00.449Z</time></trkpt><trkpt lat="46.02137" lon="13.263245"><ele>83.4</ele><time>2026-03-22T12:46:01.449Z</time></trkpt><trkpt lat="46.0213617" lon="13.2630883"><ele>83.60000000000001</ele><time>2026-03-22T12:46:02.45Z</time></trkpt><trkpt lat="46.021345" lon="13.26294"><ele>83.80000000000001</ele><time>2026-03-22T12:46:03.451Z</time></trkpt><trkpt lat="46.0213317" lon="13.2627983"><ele>84.0</ele><time>2026-03-22T12:46:04.45Z</time></trkpt><trkpt lat="46.0213333" lon="13.26266"><ele>84.0</ele><time>2026-03-22T12:46:05.449Z</time></trkpt><trkpt lat="46.02132" lon="13.26252"><ele>84.0</ele><time>2026-03-22T12:46:06.45Z</time></trkpt><trkpt lat="46.02127" lon="13.2623817"><ele>84.0</ele><time>2026-03-22T12:46:07.449Z</time></trkpt><trkpt lat="46.0212083" lon="13.26224"><ele>84.0</ele><time>2026-03-22T12:46:08.449Z</time></trkpt><trkpt lat="46.0211433" lon="13.2620967"><ele>84.0</ele><time>2026-03-22T12:46:09.451Z</time></trkpt><trkpt lat="46.0210767" lon="13.26195"><ele>84.0</ele><time>2026-03-22T12:46:10.45Z</time></trkpt><trkpt lat="46.02101" lon="13.2617917"><ele>84.0</ele><time>2026-03-22T12:46:11.45Z</time></trkpt><trkpt lat="46.020945" lon="13.261625"><ele>84.0</ele><time>2026-03-22T12:46:12.45Z</time></trkpt><trkpt lat="46.0208833" lon="13.26144"><ele>84.0</ele><time>2026-03-22T12:46:13.451Z</time></trkpt><trkpt lat="46.0208217" lon="13.2612583"><ele>83.80000000000001</ele><time>2026-03-22T12:46:14.451Z</time></trkpt><trkpt lat="46.0207617" lon="13.26109"><ele>83.60000000000001</ele><time>2026-03-22T12:46:15.449Z</time></trkpt><trkpt lat="46.0207033" lon="13.2609417"><ele>83.4</ele><time>2026-03-22T12:46:16.45Z</time></trkpt><trkpt lat="46.0206583" lon="13.260805"><ele>83.2</ele><time>2026-03-22T12:46:17.45Z</time></trkpt><trkpt lat="46.0206133" lon="13.2606917"><ele>83.0</ele><time>2026-03-22T12:46:18.449Z</time></trkpt><trkpt lat="46.0206017" lon="13.26057"><ele>83.0</ele><time>2026-03-22T12:46:19.448Z</time></trkpt><trkpt lat="46.0206283" lon="13.26045"><ele>83.0</ele><time>2026-03-22T12:46:20.45Z</time></trkpt><trkpt lat="46.0206683" lon="13.26033"><ele>83.0</ele><time>2026-03-22T12:46:21.45Z</time></trkpt><trkpt lat="46.0207767" lon="13.2602583"><ele>83.0</ele><time>2026-03-22T12:46:22.45Z</time></trkpt><trkpt lat="46.0208967" lon="13.260195"><ele>83.0</ele><time>2026-03-22T12:46:23.453Z</time></trkpt><trkpt lat="46.0210283" lon="13.2601267"><ele>83.25</ele><time>2026-03-22T12:46:24.449Z</time></trkpt><trkpt lat="46.0211633" lon="13.260055"><ele>83.5</ele><time>2026-03-22T12:46:25.45Z</time></trkpt><trkpt lat="46.02129" lon="13.2599867"><ele>83.75</ele><time>2026-03-22T12:46:26.45Z</time></trkpt><trkpt lat="46.021405" lon="13.259905"><ele>84.0</ele><time>2026-03-22T12:46:27.45Z</time></trkpt><trkpt lat="46.0215083" lon="13.259795"><ele>83.75</ele><time>2026-03-22T12:46:28.45Z</time></trkpt><trkpt lat="46.0215833" lon="13.2596317"><ele>83.5</ele><time>2026-03-22T12:46:29.45Z</time></trkpt><trkpt lat="46.0216433" lon="13.2594617"><ele>83.25</ele><time>2026-03-22T12:46:30.45Z</time></trkpt><trkpt lat="46.0216967" lon="13.25927"><ele>83.0</ele><time>2026-03-22T12:46:31.449Z</time></trkpt><trkpt lat="46.0217433" lon="13.259075"><ele>83.5</ele><time>2026-03-22T12:46:32.45Z</time></trkpt><trkpt lat="46.0217967" lon="13.2588833"><ele>84.0</ele><time>2026-03-22T12:46:33.449Z</time></trkpt><trkpt lat="46.0218483" lon="13.2586983"><ele>84.5</ele><time>2026-03-22T12:46:34.449Z</time></trkpt><trkpt lat="46.0219" lon="13.2585133"><ele>85.0</ele><time>2026-03-22T12:46:35.449Z</time></trkpt><trkpt lat="46.0219517" lon="13.2583483"><ele>85.0</ele><time>2026-03-22T12:46:36.449Z</time></trkpt><trkpt lat="46.02203" lon="13.258215"><ele>85.0</ele><time>2026-03-22T12:46:37.448Z</time></trkpt><trkpt lat="46.0221317" lon="13.2581067"><ele>85.0</ele><time>2026-03-22T12:46:38.449Z</time></trkpt><trkpt lat="46.02224" lon="13.2580083"><ele>85.0</ele><time>2026-03-22T12:46:39.449Z</time></trkpt><trkpt lat="46.02236" lon="13.2579067"><ele>85.33333333333333</ele><time>2026-03-22T12:46:40.45Z</time></trkpt><trkpt lat="46.022485" lon="13.257795"><ele>85.66666666666667</ele><time>2026-03-22T12:46:41.45Z</time></trkpt><trkpt lat="46.0226133" lon="13.2576783"><ele>86.0</ele><time>2026-03-22T12:46:42.449Z</time></trkpt><trkpt lat="46.0227467" lon="13.2575583"><ele>86.0</ele><time>2026-03-22T12:46:43.45Z</time></trkpt><trkpt lat="46.0228833" lon="13.2574267"><ele>86.0</ele><time>2026-03-22T12:46:44.45Z</time></trkpt><trkpt lat="46.0230183" lon="13.2572983"><ele>86.0</ele><time>2026-03-22T12:46:45.449Z</time></trkpt><trkpt lat="46.0231467" lon="13.25718"><ele>85.75</ele><time>2026-03-22T12:46:46.449Z</time></trkpt><trkpt lat="46.02327" lon="13.2570733"><ele>85.5</ele><time>2026-03-22T12:46:47.45Z</time></trkpt><trkpt lat="46.0233883" lon="13.2569567"><ele>85.25</ele><time>2026-03-22T12:46:48.453Z</time></trkpt><trkpt lat="46.0234917" lon="13.256805"><ele>85.0</ele><time>2026-03-22T12:46:49.45Z</time></trkpt><trkpt lat="46.0235867" lon="13.2566367"><ele>85.66666666666666</ele><time>2026-03-22T12:46:50.45Z</time></trkpt><trkpt lat="46.0236733" lon="13.2564367"><ele>86.33333333333333</ele><time>2026-03-22T12:46:51.45Z</time></trkpt><trkpt lat="46.02376" lon="13.25622"><ele>87.0</ele><time>2026-03-22T12:46:52.45Z</time></trkpt><trkpt lat="46.0238517" lon="13.255995"><ele>87.0</ele><time>2026-03-22T12:46:53.451Z</time></trkpt><trkpt lat="46.0239433" lon="13.255775"><ele>87.0</ele><time>2026-03-22T12:46:54.45Z</time></trkpt><trkpt lat="46.02403" lon="13.2555683"><ele>87.0</ele><time>2026-03-22T12:46:55.45Z</time></trkpt><trkpt lat="46.024125" lon="13.2553767"><ele>87.5</ele><time>2026-03-22T12:46:56.45Z</time></trkpt><trkpt lat="46.0242183" lon="13.255195"><ele>88.0</ele><time>2026-03-22T12:46:57.451Z</time></trkpt><trkpt lat="46.0243" lon="13.2550217"><ele>88.5</ele><time>2026-03-22T12:46:58.45Z</time></trkpt><trkpt lat="46.0243833" lon="13.254865"><ele>89.0</ele><time>2026-03-22T12:46:59.45Z</time></trkpt><trkpt lat="46.024455" lon="13.2547117"><ele>89.0</ele><time>2026-03-22T12:47:00.45Z</time></trkpt><trkpt lat="46.0245267" lon="13.25457"><ele>89.0</ele><time>2026-03-22T12:47:01.449Z</time></trkpt><trkpt lat="46.0245867" lon="13.2544533"><ele>89.0</ele><time>2026-03-22T12:47:02.449Z</time></trkpt><trkpt lat="46.0246483" lon="13.25436"><ele>89.0</ele><time>2026-03-22T12:47:03.449Z</time></trkpt><trkpt lat="46.0247133" lon="13.2542833"><ele>89.0</ele><time>2026-03-22T12:47:04.45Z</time></trkpt><trkpt lat="46.0248267" lon="13.2542283"><ele>89.0</ele><time>2026-03-22T12:47:06.449Z</time></trkpt><trkpt lat="46.0249133" lon="13.2542633"><ele>89.0</ele><time>2026-03-22T12:47:08.451Z</time></trkpt><trkpt lat="46.0249333" lon="13.254365"><ele>89.0</ele><time>2026-03-22T12:47:10.451Z</time></trkpt><trkpt lat="46.0249583" lon="13.2544733"><ele>89.0</ele><time>2026-03-22T12:47:13.451Z</time></trkpt><trkpt lat="46.0250233" lon="13.2544967"><ele>89.0</ele><time>2026-03-22T12:47:19.45Z</time></trkpt><trkpt lat="46.0249483" lon="13.254525"><ele>89.0</ele><time>2026-03-22T12:47:24.45Z</time></trkpt><trkpt lat="46.0248683" lon="13.2545433"><ele>89.0</ele><time>2026-03-22T12:47:26.45Z</time></trkpt><trkpt lat="46.0248039" lon="13.2550128"><ele>89.0</ele><time>2026-03-22T12:47:35.833Z</time></trkpt></trkseg></trk></gpx>